<?xml version="1.0" encoding="UTF-8" standalone="no" ?>
<gpx xmlns="http://www.topografix.com/GPX/1/1" xmlns:xsi="http://www.w3.org/2001/XMLSchema-instance" xsi:schemaLocation="http://www.topografix.com/GPX/1/1 http://www.topografix.com/GPX/1/1/gpx.xsd" version="1.1" creator="VisuGPX - https://www.visugpx.com">
  <metadata>
    <name>Parcours saint medard</name>
  </metadata>
  <trk>
    <name><![CDATA[Parcours saint medard_1]]></name>
    <extensions>
      <line xmlns="http://www.topografix.com/GPX/gpx_style/0/2">
        <color>0000FF</color>
        <width>4</width>
      </line>
    </extensions>
    <trkseg>
      <trkpt lat="44.88677" lon="-0.74839">
        <ele>30.1</ele>
      </trkpt>
      <trkpt lat="44.88627" lon="-0.74843">
        <ele>29.9</ele>
      </trkpt>
      <trkpt lat="44.88583" lon="-0.74857">
        <ele>29.5</ele>
      </trkpt>
      <trkpt lat="44.88563" lon="-0.74822">
        <ele>29.2</ele>
      </trkpt>
      <trkpt lat="44.88517" lon="-0.74862">
        <ele>28.8</ele>
      </trkpt>
      <trkpt lat="44.8849" lon="-0.74899">
        <ele>30.6</ele>
      </trkpt>
      <trkpt lat="44.88465" lon="-0.74936">
        <ele>31.6</ele>
      </trkpt>
      <trkpt lat="44.88343" lon="-0.74844">
        <ele>33.6</ele>
      </trkpt>
      <trkpt lat="44.88338" lon="-0.74861">
        <ele>33.4</ele>
      </trkpt>
      <trkpt lat="44.88324" lon="-0.74873">
        <ele>33.599998474121</ele>
        <time>2016-11-01T14:33:12.000Z</time>
      </trkpt>
      <trkpt lat="44.8831" lon="-0.7488">
        <ele>33.599998474121</ele>
        <time>2016-11-01T14:33:08.000Z</time>
      </trkpt>
      <trkpt lat="44.88289" lon="-0.74872">
        <ele>33.599998474121</ele>
        <time>2016-11-01T14:33:02.000Z</time>
      </trkpt>
      <trkpt lat="44.88283" lon="-0.74874">
        <ele>33.799999237061</ele>
        <time>2016-11-01T14:33:00.000Z</time>
      </trkpt>
      <trkpt lat="44.88269" lon="-0.74879">
        <ele>34</ele>
        <time>2016-11-01T14:32:54.000Z</time>
      </trkpt>
      <trkpt lat="44.88263" lon="-0.74891">
        <ele>34.400001525879</ele>
        <time>2016-11-01T14:32:50.000Z</time>
      </trkpt>
      <trkpt lat="44.88258" lon="-0.74898">
        <ele>34.400001525879</ele>
        <time>2016-11-01T14:32:48.000Z</time>
      </trkpt>
      <trkpt lat="44.88253" lon="-0.74909">
        <ele>34.400001525879</ele>
        <time>2016-11-01T14:32:44.000Z</time>
      </trkpt>
      <trkpt lat="44.88245" lon="-0.74922">
        <ele>34.599998474121</ele>
        <time>2016-11-01T14:32:40.000Z</time>
      </trkpt>
      <trkpt lat="44.88245" lon="-0.74925">
        <ele>34.599998474121</ele>
        <time>2016-11-01T14:32:39.000Z</time>
      </trkpt>
      <trkpt lat="44.88245" lon="-0.74939">
        <ele>34.400001525879</ele>
        <time>2016-11-01T14:32:34.000Z</time>
      </trkpt>
      <trkpt lat="44.88243" lon="-0.74942">
        <ele>34.400001525879</ele>
        <time>2016-11-01T14:32:33.000Z</time>
      </trkpt>
      <trkpt lat="44.88226" lon="-0.74949">
        <ele>34.799999237061</ele>
        <time>2016-11-01T14:32:28.000Z</time>
      </trkpt>
      <trkpt lat="44.88222" lon="-0.7495">
        <ele>34.799999237061</ele>
        <time>2016-11-01T14:32:27.000Z</time>
      </trkpt>
      <trkpt lat="44.88213" lon="-0.74959">
        <ele>35</ele>
        <time>2016-11-01T14:32:24.000Z</time>
      </trkpt>
      <trkpt lat="44.88204" lon="-0.7497">
        <ele>35</ele>
        <time>2016-11-01T14:32:21.000Z</time>
      </trkpt>
      <trkpt lat="44.88188" lon="-0.74976">
        <ele>34</ele>
        <time>2016-11-01T14:32:17.000Z</time>
      </trkpt>
      <trkpt lat="44.88184" lon="-0.74975">
        <ele>34</ele>
        <time>2016-11-01T14:32:16.000Z</time>
      </trkpt>
      <trkpt lat="44.88171" lon="-0.7497">
        <ele>33.799999237061</ele>
        <time>2016-11-01T14:32:13.000Z</time>
      </trkpt>
      <trkpt lat="44.8815" lon="-0.7497">
        <ele>33</ele>
        <time>2016-11-01T14:32:08.000Z</time>
      </trkpt>
      <trkpt lat="44.8814" lon="-0.74966">
        <ele>32.599998474121</ele>
        <time>2016-11-01T14:32:05.000Z</time>
      </trkpt>
      <trkpt lat="44.88131" lon="-0.74968">
        <ele>32.200000762939</ele>
        <time>2016-11-01T14:32:02.000Z</time>
      </trkpt>
      <trkpt lat="44.88122" lon="-0.74977">
        <ele>31.60000038147</ele>
        <time>2016-11-01T14:31:59.000Z</time>
      </trkpt>
      <trkpt lat="44.88117" lon="-0.74984">
        <ele>31.200000762939</ele>
        <time>2016-11-01T14:31:57.000Z</time>
      </trkpt>
      <trkpt lat="44.8812" lon="-0.74999">
        <ele>30.60000038147</ele>
        <time>2016-11-01T14:31:54.000Z</time>
      </trkpt>
      <trkpt lat="44.88115" lon="-0.75015">
        <ele>29.799999237061</ele>
        <time>2016-11-01T14:31:50.000Z</time>
      </trkpt>
      <trkpt lat="44.88106" lon="-0.75034">
        <ele>28.799999237061</ele>
        <time>2016-11-01T14:31:46.000Z</time>
      </trkpt>
      <trkpt lat="44.88104" lon="-0.75038">
        <ele>28.60000038147</ele>
        <time>2016-11-01T14:31:45.000Z</time>
      </trkpt>
      <trkpt lat="44.88091" lon="-0.75041">
        <ele>28.200000762939</ele>
        <time>2016-11-01T14:31:41.000Z</time>
      </trkpt>
      <trkpt lat="44.88075" lon="-0.75045">
        <ele>27.799999237061</ele>
        <time>2016-11-01T14:31:36.000Z</time>
      </trkpt>
      <trkpt lat="44.88066" lon="-0.75052">
        <ele>27.39999961853</ele>
        <time>2016-11-01T14:31:33.000Z</time>
      </trkpt>
      <trkpt lat="44.88052" lon="-0.75061">
        <ele>27.39999961853</ele>
        <time>2016-11-01T14:31:28.000Z</time>
      </trkpt>
      <trkpt lat="44.88046" lon="-0.75059">
        <ele>27.200000762939</ele>
        <time>2016-11-01T14:31:26.000Z</time>
      </trkpt>
      <trkpt lat="44.88044" lon="-0.75058">
        <ele>27.200000762939</ele>
        <time>2016-11-01T14:31:25.000Z</time>
      </trkpt>
      <trkpt lat="44.88033" lon="-0.7506">
        <ele>27</ele>
        <time>2016-11-01T14:31:20.000Z</time>
      </trkpt>
      <trkpt lat="44.88026" lon="-0.75061">
        <ele>27</ele>
        <time>2016-11-01T14:31:17.000Z</time>
      </trkpt>
      <trkpt lat="44.88024" lon="-0.75062">
        <ele>27</ele>
        <time>2016-11-01T14:31:15.000Z</time>
      </trkpt>
      <trkpt lat="44.88021" lon="-0.7507">
        <ele>26.799999237061</ele>
        <time>2016-11-01T14:31:12.000Z</time>
      </trkpt>
      <trkpt lat="44.88026" lon="-0.7508">
        <ele>27.200000762939</ele>
        <time>2016-11-01T14:31:09.000Z</time>
      </trkpt>
      <trkpt lat="44.88033" lon="-0.75088">
        <ele>27.60000038147</ele>
        <time>2016-11-01T14:31:06.000Z</time>
      </trkpt>
      <trkpt lat="44.88048" lon="-0.7509">
        <ele>28</ele>
        <time>2016-11-01T14:31:01.000Z</time>
      </trkpt>
      <trkpt lat="44.88053" lon="-0.75094">
        <ele>28.200000762939</ele>
        <time>2016-11-01T14:30:59.000Z</time>
      </trkpt>
      <trkpt lat="44.88056" lon="-0.75095">
        <ele>28.200000762939</ele>
        <time>2016-11-01T14:30:58.000Z</time>
      </trkpt>
      <trkpt lat="44.88066" lon="-0.75089">
        <ele>28.200000762939</ele>
        <time>2016-11-01T14:30:54.000Z</time>
      </trkpt>
      <trkpt lat="44.88082" lon="-0.75085">
        <ele>28.200000762939</ele>
        <time>2016-11-01T14:30:49.000Z</time>
      </trkpt>
      <trkpt lat="44.88093" lon="-0.75097">
        <ele>28.200000762939</ele>
        <time>2016-11-01T14:30:44.000Z</time>
      </trkpt>
      <trkpt lat="44.88093" lon="-0.75102">
        <ele>28.200000762939</ele>
        <time>2016-11-01T14:30:43.000Z</time>
      </trkpt>
      <trkpt lat="44.88096" lon="-0.75134">
        <ele>27.60000038147</ele>
        <time>2016-11-01T14:30:36.000Z</time>
      </trkpt>
      <trkpt lat="44.8811" lon="-0.75154">
        <ele>28.200000762939</ele>
        <time>2016-11-01T14:30:31.000Z</time>
      </trkpt>
      <trkpt lat="44.88116" lon="-0.75161">
        <ele>28.39999961853</ele>
        <time>2016-11-01T14:30:29.000Z</time>
      </trkpt>
      <trkpt lat="44.8812" lon="-0.75165">
        <ele>28.39999961853</ele>
        <time>2016-11-01T14:30:28.000Z</time>
      </trkpt>
      <trkpt lat="44.88126" lon="-0.75164">
        <ele>28.39999961853</ele>
        <time>2016-11-01T14:30:25.000Z</time>
      </trkpt>
      <trkpt lat="44.88138" lon="-0.75158">
        <ele>28.60000038147</ele>
        <time>2016-11-01T14:30:20.000Z</time>
      </trkpt>
      <trkpt lat="44.88147" lon="-0.75174">
        <ele>29.60000038147</ele>
        <time>2016-11-01T14:30:16.000Z</time>
      </trkpt>
      <trkpt lat="44.88157" lon="-0.75192">
        <ele>30.60000038147</ele>
        <time>2016-11-01T14:30:11.000Z</time>
      </trkpt>
      <trkpt lat="44.88156" lon="-0.75218">
        <ele>30.200000762939</ele>
        <time>2016-11-01T14:30:06.000Z</time>
      </trkpt>
      <trkpt lat="44.8816" lon="-0.75227">
        <ele>30.39999961853</ele>
        <time>2016-11-01T14:30:03.000Z</time>
      </trkpt>
      <trkpt lat="44.88167" lon="-0.7525">
        <ele>31</ele>
        <time>2016-11-01T14:29:59.000Z</time>
      </trkpt>
      <trkpt lat="44.88181" lon="-0.75274">
        <ele>30.60000038147</ele>
        <time>2016-11-01T14:29:54.000Z</time>
      </trkpt>
      <trkpt lat="44.8819" lon="-0.75283">
        <ele>30</ele>
        <time>2016-11-01T14:29:52.000Z</time>
      </trkpt>
      <trkpt lat="44.88201" lon="-0.753">
        <ele>29.39999961853</ele>
        <time>2016-11-01T14:29:48.000Z</time>
      </trkpt>
      <trkpt lat="44.88208" lon="-0.75324">
        <ele>28.799999237061</ele>
        <time>2016-11-01T14:29:44.000Z</time>
      </trkpt>
      <trkpt lat="44.88204" lon="-0.75346">
        <ele>28.60000038147</ele>
        <time>2016-11-01T14:29:40.000Z</time>
      </trkpt>
      <trkpt lat="44.88195" lon="-0.75366">
        <ele>29.200000762939</ele>
        <time>2016-11-01T14:29:35.000Z</time>
      </trkpt>
      <trkpt lat="44.88193" lon="-0.75381">
        <ele>29</ele>
        <time>2016-11-01T14:29:32.000Z</time>
      </trkpt>
      <trkpt lat="44.88193" lon="-0.75394">
        <ele>28.799999237061</ele>
        <time>2016-11-01T14:29:29.000Z</time>
      </trkpt>
      <trkpt lat="44.88195" lon="-0.75413">
        <ele>28.200000762939</ele>
        <time>2016-11-01T14:29:24.000Z</time>
      </trkpt>
      <trkpt lat="44.88192" lon="-0.75426">
        <ele>28.200000762939</ele>
        <time>2016-11-01T14:29:21.000Z</time>
      </trkpt>
      <trkpt lat="44.88191" lon="-0.75431">
        <ele>28.200000762939</ele>
        <time>2016-11-01T14:29:20.000Z</time>
      </trkpt>
      <trkpt lat="44.88191" lon="-0.75444">
        <ele>28</ele>
        <time>2016-11-01T14:29:17.000Z</time>
      </trkpt>
      <trkpt lat="44.88188" lon="-0.75468">
        <ele>28</ele>
        <time>2016-11-01T14:29:12.000Z</time>
      </trkpt>
      <trkpt lat="44.88185" lon="-0.75488">
        <ele>28</ele>
        <time>2016-11-01T14:29:09.000Z</time>
      </trkpt>
      <trkpt lat="44.88186" lon="-0.75517">
        <ele>28.60000038147</ele>
        <time>2016-11-01T14:29:04.000Z</time>
      </trkpt>
      <trkpt lat="44.88193" lon="-0.75537">
        <ele>28.799999237061</ele>
        <time>2016-11-01T14:28:59.000Z</time>
      </trkpt>
      <trkpt lat="44.88196" lon="-0.75552">
        <ele>29.200000762939</ele>
        <time>2016-11-01T14:28:56.000Z</time>
      </trkpt>
      <trkpt lat="44.88202" lon="-0.75573">
        <ele>29.60000038147</ele>
        <time>2016-11-01T14:28:51.000Z</time>
      </trkpt>
      <trkpt lat="44.88203" lon="-0.75586">
        <ele>29.799999237061</ele>
        <time>2016-11-01T14:28:47.000Z</time>
      </trkpt>
      <trkpt lat="44.88203" lon="-0.75588">
        <ele>29.799999237061</ele>
        <time>2016-11-01T14:28:46.000Z</time>
      </trkpt>
      <trkpt lat="44.88207" lon="-0.75596">
        <ele>30</ele>
        <time>2016-11-01T14:28:43.000Z</time>
      </trkpt>
      <trkpt lat="44.88211" lon="-0.75608">
        <ele>30.39999961853</ele>
        <time>2016-11-01T14:28:39.000Z</time>
      </trkpt>
      <trkpt lat="44.88211" lon="-0.75611">
        <ele>30.39999961853</ele>
        <time>2016-11-01T14:28:38.000Z</time>
      </trkpt>
      <trkpt lat="44.88212" lon="-0.75623">
        <ele>30.799999237061</ele>
        <time>2016-11-01T14:28:33.000Z</time>
      </trkpt>
      <trkpt lat="44.88212" lon="-0.75625">
        <ele>30.799999237061</ele>
        <time>2016-11-01T14:28:30.000Z</time>
      </trkpt>
      <trkpt lat="44.88213" lon="-0.75622">
        <ele>30.799999237061</ele>
        <time>2016-11-01T14:27:49.000Z</time>
      </trkpt>
      <trkpt lat="44.8821" lon="-0.75607">
        <ele>30.39999961853</ele>
        <time>2016-11-01T14:27:45.000Z</time>
      </trkpt>
      <trkpt lat="44.88209" lon="-0.75596">
        <ele>30</ele>
        <time>2016-11-01T14:27:40.000Z</time>
      </trkpt>
      <trkpt lat="44.88205" lon="-0.75594">
        <ele>30</ele>
        <time>2016-11-01T14:27:35.000Z</time>
      </trkpt>
      <trkpt lat="44.88209" lon="-0.75599">
        <ele>30.200000762939</ele>
        <time>2016-11-01T14:27:21.000Z</time>
      </trkpt>
      <trkpt lat="44.88211" lon="-0.75601">
        <ele>30.200000762939</ele>
        <time>2016-11-01T14:27:20.000Z</time>
      </trkpt>
      <trkpt lat="44.88215" lon="-0.75616">
        <ele>30.60000038147</ele>
        <time>2016-11-01T14:27:17.000Z</time>
      </trkpt>
      <trkpt lat="44.8822" lon="-0.75642">
        <ele>31.200000762939</ele>
        <time>2016-11-01T14:27:13.000Z</time>
      </trkpt>
      <trkpt lat="44.88228" lon="-0.75661">
        <ele>31.799999237061</ele>
        <time>2016-11-01T14:27:10.000Z</time>
      </trkpt>
      <trkpt lat="44.8823" lon="-0.75678">
        <ele>32.200000762939</ele>
        <time>2016-11-01T14:27:07.000Z</time>
      </trkpt>
      <trkpt lat="44.8823" lon="-0.75689">
        <ele>32.599998474121</ele>
        <time>2016-11-01T14:27:05.000Z</time>
      </trkpt>
      <trkpt lat="44.88234" lon="-0.75701">
        <ele>32.799999237061</ele>
        <time>2016-11-01T14:27:02.000Z</time>
      </trkpt>
      <trkpt lat="44.88237" lon="-0.7571">
        <ele>32.799999237061</ele>
        <time>2016-11-01T14:27:00.000Z</time>
      </trkpt>
      <trkpt lat="44.88239" lon="-0.75744">
        <ele>33.200000762939</ele>
        <time>2016-11-01T14:26:56.000Z</time>
      </trkpt>
      <trkpt lat="44.8824" lon="-0.75768">
        <ele>33.599998474121</ele>
        <time>2016-11-01T14:26:53.000Z</time>
      </trkpt>
      <trkpt lat="44.88241" lon="-0.75774">
        <ele>33.599998474121</ele>
        <time>2016-11-01T14:26:52.000Z</time>
      </trkpt>
      <trkpt lat="44.88248" lon="-0.7579">
        <ele>33.799999237061</ele>
        <time>2016-11-01T14:26:49.000Z</time>
      </trkpt>
      <trkpt lat="44.88261" lon="-0.75819">
        <ele>33.599998474121</ele>
        <time>2016-11-01T14:26:44.000Z</time>
      </trkpt>
      <trkpt lat="44.88266" lon="-0.75829">
        <ele>33.400001525879</ele>
        <time>2016-11-01T14:26:42.000Z</time>
      </trkpt>
      <trkpt lat="44.88268" lon="-0.75848">
        <ele>33</ele>
        <time>2016-11-01T14:26:39.000Z</time>
      </trkpt>
      <trkpt lat="44.88273" lon="-0.75865">
        <ele>32.599998474121</ele>
        <time>2016-11-01T14:26:36.000Z</time>
      </trkpt>
      <trkpt lat="44.88285" lon="-0.75888">
        <ele>32</ele>
        <time>2016-11-01T14:26:31.000Z</time>
      </trkpt>
      <trkpt lat="44.88294" lon="-0.75896">
        <ele>32.200000762939</ele>
        <time>2016-11-01T14:26:29.000Z</time>
      </trkpt>
      <trkpt lat="44.88306" lon="-0.75901">
        <ele>32.599998474121</ele>
        <time>2016-11-01T14:26:26.000Z</time>
      </trkpt>
      <trkpt lat="44.88316" lon="-0.75907">
        <ele>32.799999237061</ele>
        <time>2016-11-01T14:26:24.000Z</time>
      </trkpt>
      <trkpt lat="44.88329" lon="-0.75921">
        <ele>33.400001525879</ele>
        <time>2016-11-01T14:26:21.000Z</time>
      </trkpt>
      <trkpt lat="44.88345" lon="-0.75928">
        <ele>33.200000762939</ele>
        <time>2016-11-01T14:26:18.000Z</time>
      </trkpt>
      <trkpt lat="44.88352" lon="-0.75946">
        <ele>32.400001525879</ele>
        <time>2016-11-01T14:26:15.000Z</time>
      </trkpt>
      <trkpt lat="44.88354" lon="-0.75977">
        <ele>31.60000038147</ele>
        <time>2016-11-01T14:26:11.000Z</time>
      </trkpt>
      <trkpt lat="44.88362" lon="-0.75997">
        <ele>31.799999237061</ele>
        <time>2016-11-01T14:26:08.000Z</time>
      </trkpt>
      <trkpt lat="44.8837" lon="-0.76015">
        <ele>32.200000762939</ele>
        <time>2016-11-01T14:26:05.000Z</time>
      </trkpt>
      <trkpt lat="44.88377" lon="-0.76046">
        <ele>33</ele>
        <time>2016-11-01T14:25:59.000Z</time>
      </trkpt>
      <trkpt lat="44.88383" lon="-0.76072">
        <ele>33.400001525879</ele>
        <time>2016-11-01T14:25:55.000Z</time>
      </trkpt>
      <trkpt lat="44.88386" lon="-0.76094">
        <ele>33.599998474121</ele>
        <time>2016-11-01T14:25:50.000Z</time>
      </trkpt>
      <trkpt lat="44.88384" lon="-0.76097">
        <ele>33.599998474121</ele>
        <time>2016-11-01T14:25:49.000Z</time>
      </trkpt>
      <trkpt lat="44.88382" lon="-0.76108">
        <ele>33.799999237061</ele>
        <time>2016-11-01T14:25:45.000Z</time>
      </trkpt>
      <trkpt lat="44.88385" lon="-0.76109">
        <ele>33.799999237061</ele>
        <time>2016-11-01T14:25:44.000Z</time>
      </trkpt>
      <trkpt lat="44.88393" lon="-0.76121">
        <ele>34</ele>
        <time>2016-11-01T14:25:40.000Z</time>
      </trkpt>
      <trkpt lat="44.88388" lon="-0.76137">
        <ele>33.799999237061</ele>
        <time>2016-11-01T14:25:37.000Z</time>
      </trkpt>
      <trkpt lat="44.88387" lon="-0.76141">
        <ele>33.799999237061</ele>
        <time>2016-11-01T14:25:36.000Z</time>
      </trkpt>
      <trkpt lat="44.88396" lon="-0.76153">
        <ele>34</ele>
        <time>2016-11-01T14:25:33.000Z</time>
      </trkpt>
      <trkpt lat="44.88408" lon="-0.76154">
        <ele>33.799999237061</ele>
        <time>2016-11-01T14:25:30.000Z</time>
      </trkpt>
      <trkpt lat="44.88409" lon="-0.76158">
        <ele>33.799999237061</ele>
        <time>2016-11-01T14:25:28.000Z</time>
      </trkpt>
      <trkpt lat="44.88412" lon="-0.7617">
        <ele>34</ele>
        <time>2016-11-01T14:25:25.000Z</time>
      </trkpt>
      <trkpt lat="44.88427" lon="-0.76186">
        <ele>34</ele>
        <time>2016-11-01T14:25:21.000Z</time>
      </trkpt>
      <trkpt lat="44.88431" lon="-0.76189">
        <ele>34</ele>
        <time>2016-11-01T14:25:20.000Z</time>
      </trkpt>
      <trkpt lat="44.88453" lon="-0.7619">
        <ele>33.599998474121</ele>
        <time>2016-11-01T14:25:16.000Z</time>
      </trkpt>
      <trkpt lat="44.88475" lon="-0.76203">
        <ele>34.200000762939</ele>
        <time>2016-11-01T14:25:12.000Z</time>
      </trkpt>
      <trkpt lat="44.88485" lon="-0.76215">
        <ele>34.599998474121</ele>
        <time>2016-11-01T14:25:09.000Z</time>
      </trkpt>
      <trkpt lat="44.88492" lon="-0.76221">
        <ele>34.799999237061</ele>
        <time>2016-11-01T14:25:07.000Z</time>
      </trkpt>
      <trkpt lat="44.88498" lon="-0.76234">
        <ele>35.200000762939</ele>
        <time>2016-11-01T14:25:04.000Z</time>
      </trkpt>
      <trkpt lat="44.88495" lon="-0.76251">
        <ele>35.200000762939</ele>
        <time>2016-11-01T14:25:01.000Z</time>
      </trkpt>
      <trkpt lat="44.88495" lon="-0.76255">
        <ele>35.400001525879</ele>
        <time>2016-11-01T14:25:00.000Z</time>
      </trkpt>
      <trkpt lat="44.88486" lon="-0.76258">
        <ele>35.200000762939</ele>
        <time>2016-11-01T14:24:57.000Z</time>
      </trkpt>
      <trkpt lat="44.88482" lon="-0.76249">
        <ele>35</ele>
        <time>2016-11-01T14:24:55.000Z</time>
      </trkpt>
      <trkpt lat="44.88469" lon="-0.76225">
        <ele>34.400001525879</ele>
        <time>2016-11-01T14:24:49.000Z</time>
      </trkpt>
      <trkpt lat="44.88451" lon="-0.76217">
        <ele>34</ele>
        <time>2016-11-01T14:24:44.000Z</time>
      </trkpt>
      <trkpt lat="44.88446" lon="-0.76215">
        <ele>34</ele>
        <time>2016-11-01T14:24:42.000Z</time>
      </trkpt>
      <trkpt lat="44.88449" lon="-0.76233">
        <ele>34.200000762939</ele>
        <time>2016-11-01T14:24:37.000Z</time>
      </trkpt>
      <trkpt lat="44.88457" lon="-0.76239">
        <ele>34.200000762939</ele>
        <time>2016-11-01T14:24:34.000Z</time>
      </trkpt>
      <trkpt lat="44.88465" lon="-0.76248">
        <ele>34.599998474121</ele>
        <time>2016-11-01T14:24:31.000Z</time>
      </trkpt>
      <trkpt lat="44.88465" lon="-0.7626">
        <ele>34.599998474121</ele>
        <time>2016-11-01T14:24:28.000Z</time>
      </trkpt>
      <trkpt lat="44.88467" lon="-0.76274">
        <ele>34.799999237061</ele>
        <time>2016-11-01T14:24:25.000Z</time>
      </trkpt>
      <trkpt lat="44.8848" lon="-0.76283">
        <ele>35.400001525879</ele>
        <time>2016-11-01T14:24:21.000Z</time>
      </trkpt>
      <trkpt lat="44.88489" lon="-0.76293">
        <ele>35.599998474121</ele>
        <time>2016-11-01T14:24:17.000Z</time>
      </trkpt>
      <trkpt lat="44.8849" lon="-0.76293">
        <ele>35.599998474121</ele>
        <time>2016-11-01T14:24:10.000Z</time>
      </trkpt>
      <trkpt lat="44.88491" lon="-0.76295">
        <ele>35.799999237061</ele>
        <time>2016-11-01T14:23:06.000Z</time>
      </trkpt>
      <trkpt lat="44.88495" lon="-0.76314">
        <ele>36</ele>
        <time>2016-11-01T14:21:29.000Z</time>
      </trkpt>
      <trkpt lat="44.88495" lon="-0.76324">
        <ele>36.200000762939</ele>
        <time>2016-11-01T14:21:24.000Z</time>
      </trkpt>
      <trkpt lat="44.88494" lon="-0.76327">
        <ele>36.200000762939</ele>
        <time>2016-11-01T14:21:23.000Z</time>
      </trkpt>
      <trkpt lat="44.88487" lon="-0.76324">
        <ele>36</ele>
        <time>2016-11-01T14:21:20.000Z</time>
      </trkpt>
      <trkpt lat="44.88485" lon="-0.76314">
        <ele>35.799999237061</ele>
        <time>2016-11-01T14:21:17.000Z</time>
      </trkpt>
      <trkpt lat="44.8848" lon="-0.76316">
        <ele>35.599998474121</ele>
        <time>2016-11-01T14:21:14.000Z</time>
      </trkpt>
      <trkpt lat="44.88477" lon="-0.76327">
        <ele>35.799999237061</ele>
        <time>2016-11-01T14:21:11.000Z</time>
      </trkpt>
      <trkpt lat="44.88476" lon="-0.76339">
        <ele>35.799999237061</ele>
        <time>2016-11-01T14:21:08.000Z</time>
      </trkpt>
      <trkpt lat="44.88478" lon="-0.76348">
        <ele>36</ele>
        <time>2016-11-01T14:21:05.000Z</time>
      </trkpt>
      <trkpt lat="44.88486" lon="-0.76357">
        <ele>36.400001525879</ele>
        <time>2016-11-01T14:21:02.000Z</time>
      </trkpt>
      <trkpt lat="44.88491" lon="-0.76363">
        <ele>36</ele>
        <time>2016-11-01T14:20:59.000Z</time>
      </trkpt>
      <trkpt lat="44.88493" lon="-0.76367">
        <ele>35.799999237061</ele>
        <time>2016-11-01T14:20:57.000Z</time>
      </trkpt>
      <trkpt lat="44.88507" lon="-0.76369">
        <ele>35.400001525879</ele>
        <time>2016-11-01T14:20:53.000Z</time>
      </trkpt>
      <trkpt lat="44.8852" lon="-0.76381">
        <ele>34.799999237061</ele>
        <time>2016-11-01T14:20:50.000Z</time>
      </trkpt>
      <trkpt lat="44.88524" lon="-0.76384">
        <ele>34.599998474121</ele>
        <time>2016-11-01T14:20:49.000Z</time>
      </trkpt>
      <trkpt lat="44.88537" lon="-0.76392">
        <ele>34</ele>
        <time>2016-11-01T14:20:45.000Z</time>
      </trkpt>
      <trkpt lat="44.88543" lon="-0.76402">
        <ele>33.599998474121</ele>
        <time>2016-11-01T14:20:42.000Z</time>
      </trkpt>
      <trkpt lat="44.88551" lon="-0.76426">
        <ele>33</ele>
        <time>2016-11-01T14:20:37.000Z</time>
      </trkpt>
      <trkpt lat="44.88565" lon="-0.76433">
        <ele>33</ele>
        <time>2016-11-01T14:20:33.000Z</time>
      </trkpt>
      <trkpt lat="44.88569" lon="-0.76434">
        <ele>32.799999237061</ele>
        <time>2016-11-01T14:20:32.000Z</time>
      </trkpt>
      <trkpt lat="44.8858" lon="-0.76446">
        <ele>32.599998474121</ele>
        <time>2016-11-01T14:20:28.000Z</time>
      </trkpt>
      <trkpt lat="44.88583" lon="-0.76454">
        <ele>32.400001525879</ele>
        <time>2016-11-01T14:20:26.000Z</time>
      </trkpt>
      <trkpt lat="44.88591" lon="-0.76467">
        <ele>32</ele>
        <time>2016-11-01T14:20:23.000Z</time>
      </trkpt>
      <trkpt lat="44.88602" lon="-0.76471">
        <ele>32</ele>
        <time>2016-11-01T14:20:20.000Z</time>
      </trkpt>
      <trkpt lat="44.88604" lon="-0.76483">
        <ele>32.200000762939</ele>
        <time>2016-11-01T14:20:16.000Z</time>
      </trkpt>
      <trkpt lat="44.886" lon="-0.76489">
        <ele>32.400001525879</ele>
        <time>2016-11-01T14:20:14.000Z</time>
      </trkpt>
      <trkpt lat="44.88596" lon="-0.7651">
        <ele>33</ele>
        <time>2016-11-01T14:20:10.000Z</time>
      </trkpt>
      <trkpt lat="44.88597" lon="-0.76515">
        <ele>33</ele>
        <time>2016-11-01T14:20:09.000Z</time>
      </trkpt>
      <trkpt lat="44.88606" lon="-0.76531">
        <ele>33.400001525879</ele>
        <time>2016-11-01T14:20:06.000Z</time>
      </trkpt>
      <trkpt lat="44.88613" lon="-0.76544">
        <ele>33.799999237061</ele>
        <time>2016-11-01T14:20:02.000Z</time>
      </trkpt>
      <trkpt lat="44.88609" lon="-0.76553">
        <ele>34</ele>
        <time>2016-11-01T14:19:59.000Z</time>
      </trkpt>
      <trkpt lat="44.88605" lon="-0.76571">
        <ele>34</ele>
        <time>2016-11-01T14:19:54.000Z</time>
      </trkpt>
      <trkpt lat="44.88603" lon="-0.76578">
        <ele>34</ele>
        <time>2016-11-01T14:19:52.000Z</time>
      </trkpt>
      <trkpt lat="44.88608" lon="-0.76577">
        <ele>34</ele>
        <time>2016-11-01T14:19:49.000Z</time>
      </trkpt>
      <trkpt lat="44.88619" lon="-0.76571">
        <ele>33.799999237061</ele>
        <time>2016-11-01T14:19:46.000Z</time>
      </trkpt>
      <trkpt lat="44.88627" lon="-0.76581">
        <ele>33.799999237061</ele>
        <time>2016-11-01T14:19:42.000Z</time>
      </trkpt>
      <trkpt lat="44.8862" lon="-0.76587">
        <ele>33.599998474121</ele>
        <time>2016-11-01T14:19:38.000Z</time>
      </trkpt>
      <trkpt lat="44.88618" lon="-0.76586">
        <ele>33.599998474121</ele>
        <time>2016-11-01T14:19:37.000Z</time>
      </trkpt>
      <trkpt lat="44.88616" lon="-0.76578">
        <ele>33.799999237061</ele>
        <time>2016-11-01T14:19:34.000Z</time>
      </trkpt>
      <trkpt lat="44.88609" lon="-0.76585">
        <ele>33.799999237061</ele>
        <time>2016-11-01T14:19:30.000Z</time>
      </trkpt>
      <trkpt lat="44.88602" lon="-0.7659">
        <ele>33.799999237061</ele>
        <time>2016-11-01T14:19:27.000Z</time>
      </trkpt>
      <trkpt lat="44.88598" lon="-0.76593">
        <ele>33.799999237061</ele>
        <time>2016-11-01T14:19:26.000Z</time>
      </trkpt>
      <trkpt lat="44.88591" lon="-0.76603">
        <ele>33.799999237061</ele>
        <time>2016-11-01T14:19:23.000Z</time>
      </trkpt>
      <trkpt lat="44.88595" lon="-0.7661">
        <ele>33.599998474121</ele>
        <time>2016-11-01T14:19:18.000Z</time>
      </trkpt>
      <trkpt lat="44.88601" lon="-0.76604">
        <ele>33.599998474121</ele>
        <time>2016-11-01T14:19:13.000Z</time>
      </trkpt>
      <trkpt lat="44.88602" lon="-0.76603">
        <ele>33.599998474121</ele>
        <time>2016-11-01T14:19:12.000Z</time>
      </trkpt>
      <trkpt lat="44.88608" lon="-0.76598">
        <ele>33.599998474121</ele>
        <time>2016-11-01T14:19:08.000Z</time>
      </trkpt>
      <trkpt lat="44.88615" lon="-0.76606">
        <ele>33.400001525879</ele>
        <time>2016-11-01T14:19:03.000Z</time>
      </trkpt>
      <trkpt lat="44.88615" lon="-0.7661">
        <ele>33.400001525879</ele>
        <time>2016-11-01T14:19:02.000Z</time>
      </trkpt>
      <trkpt lat="44.8861" lon="-0.76614">
        <ele>33.400001525879</ele>
        <time>2016-11-01T14:18:58.000Z</time>
      </trkpt>
      <trkpt lat="44.88605" lon="-0.7662">
        <ele>33.400001525879</ele>
        <time>2016-11-01T14:18:54.000Z</time>
      </trkpt>
      <trkpt lat="44.886" lon="-0.76636">
        <ele>33.400001525879</ele>
        <time>2016-11-01T14:18:48.000Z</time>
      </trkpt>
      <trkpt lat="44.88598" lon="-0.76642">
        <ele>33.200000762939</ele>
        <time>2016-11-01T14:18:46.000Z</time>
      </trkpt>
      <trkpt lat="44.88603" lon="-0.76649">
        <ele>33</ele>
        <time>2016-11-01T14:18:43.000Z</time>
      </trkpt>
      <trkpt lat="44.88608" lon="-0.76645">
        <ele>33</ele>
        <time>2016-11-01T14:18:40.000Z</time>
      </trkpt>
      <trkpt lat="44.88614" lon="-0.76644">
        <ele>33</ele>
        <time>2016-11-01T14:18:37.000Z</time>
      </trkpt>
      <trkpt lat="44.88619" lon="-0.76653">
        <ele>33.200000762939</ele>
        <time>2016-11-01T14:18:33.000Z</time>
      </trkpt>
      <trkpt lat="44.88617" lon="-0.7666">
        <ele>33.400001525879</ele>
        <time>2016-11-01T14:18:30.000Z</time>
      </trkpt>
      <trkpt lat="44.8861" lon="-0.76662">
        <ele>33.200000762939</ele>
        <time>2016-11-01T14:18:26.000Z</time>
      </trkpt>
      <trkpt lat="44.88605" lon="-0.76663">
        <ele>33</ele>
        <time>2016-11-01T14:18:23.000Z</time>
      </trkpt>
      <trkpt lat="44.88601" lon="-0.76661">
        <ele>32.799999237061</ele>
        <time>2016-11-01T14:18:20.000Z</time>
      </trkpt>
      <trkpt lat="44.88597" lon="-0.7667">
        <ele>32.799999237061</ele>
        <time>2016-11-01T14:18:17.000Z</time>
      </trkpt>
      <trkpt lat="44.88599" lon="-0.76683">
        <ele>33.200000762939</ele>
        <time>2016-11-01T14:18:13.000Z</time>
      </trkpt>
      <trkpt lat="44.88604" lon="-0.7668">
        <ele>33.400001525879</ele>
        <time>2016-11-01T14:18:10.000Z</time>
      </trkpt>
      <trkpt lat="44.88608" lon="-0.76678">
        <ele>33.400001525879</ele>
        <time>2016-11-01T14:18:07.000Z</time>
      </trkpt>
      <trkpt lat="44.88609" lon="-0.76686">
        <ele>33.599998474121</ele>
        <time>2016-11-01T14:18:04.000Z</time>
      </trkpt>
      <trkpt lat="44.8861" lon="-0.76697">
        <ele>34</ele>
        <time>2016-11-01T14:18:01.000Z</time>
      </trkpt>
      <trkpt lat="44.88616" lon="-0.767">
        <ele>34.200000762939</ele>
        <time>2016-11-01T14:17:57.000Z</time>
      </trkpt>
      <trkpt lat="44.88619" lon="-0.76693">
        <ele>34.200000762939</ele>
        <time>2016-11-01T14:17:54.000Z</time>
      </trkpt>
      <trkpt lat="44.88627" lon="-0.76697">
        <ele>34.599998474121</ele>
        <time>2016-11-01T14:17:50.000Z</time>
      </trkpt>
      <trkpt lat="44.88634" lon="-0.76706">
        <ele>35.200000762939</ele>
        <time>2016-11-01T14:17:46.000Z</time>
      </trkpt>
      <trkpt lat="44.88632" lon="-0.7672">
        <ele>35.400001525879</ele>
        <time>2016-11-01T14:17:43.000Z</time>
      </trkpt>
      <trkpt lat="44.88628" lon="-0.76729">
        <ele>35.400001525879</ele>
        <time>2016-11-01T14:17:41.000Z</time>
      </trkpt>
      <trkpt lat="44.88623" lon="-0.76743">
        <ele>35.599998474121</ele>
        <time>2016-11-01T14:17:38.000Z</time>
      </trkpt>
      <trkpt lat="44.88635" lon="-0.76747">
        <ele>36.200000762939</ele>
        <time>2016-11-01T14:17:34.000Z</time>
      </trkpt>
      <trkpt lat="44.88644" lon="-0.76763">
        <ele>37</ele>
        <time>2016-11-01T14:17:30.000Z</time>
      </trkpt>
      <trkpt lat="44.88643" lon="-0.76781">
        <ele>37.400001525879</ele>
        <time>2016-11-01T14:17:26.000Z</time>
      </trkpt>
      <trkpt lat="44.88627" lon="-0.76786">
        <ele>36.799999237061</ele>
        <time>2016-11-01T14:17:21.000Z</time>
      </trkpt>
      <trkpt lat="44.8862" lon="-0.76791">
        <ele>36.599998474121</ele>
        <time>2016-11-01T14:17:19.000Z</time>
      </trkpt>
      <trkpt lat="44.8862" lon="-0.76801">
        <ele>36.799999237061</ele>
        <time>2016-11-01T14:17:17.000Z</time>
      </trkpt>
      <trkpt lat="44.88635" lon="-0.76818">
        <ele>37</ele>
        <time>2016-11-01T14:17:13.000Z</time>
      </trkpt>
      <trkpt lat="44.88637" lon="-0.76825">
        <ele>36.799999237061</ele>
        <time>2016-11-01T14:17:12.000Z</time>
      </trkpt>
      <trkpt lat="44.8865" lon="-0.76846">
        <ele>36.599998474121</ele>
        <time>2016-11-01T14:17:08.000Z</time>
      </trkpt>
      <trkpt lat="44.88661" lon="-0.76851">
        <ele>36.799999237061</ele>
        <time>2016-11-01T14:17:06.000Z</time>
      </trkpt>
      <trkpt lat="44.88672" lon="-0.76855">
        <ele>37.599998474121</ele>
        <time>2016-11-01T14:17:04.000Z</time>
      </trkpt>
      <trkpt lat="44.8869" lon="-0.76856">
        <ele>38.599998474121</ele>
        <time>2016-11-01T14:17:01.000Z</time>
      </trkpt>
      <trkpt lat="44.88699" lon="-0.76854">
        <ele>39.200000762939</ele>
        <time>2016-11-01T14:16:59.000Z</time>
      </trkpt>
      <trkpt lat="44.88708" lon="-0.76863">
        <ele>39.599998474121</ele>
        <time>2016-11-01T14:16:56.000Z</time>
      </trkpt>
      <trkpt lat="44.88714" lon="-0.76875">
        <ele>39.599998474121</ele>
        <time>2016-11-01T14:16:53.000Z</time>
      </trkpt>
      <trkpt lat="44.88723" lon="-0.76909">
        <ele>39</ele>
        <time>2016-11-01T14:16:48.000Z</time>
      </trkpt>
      <trkpt lat="44.88729" lon="-0.76923">
        <ele>38.599998474121</ele>
        <time>2016-11-01T14:16:46.000Z</time>
      </trkpt>
      <trkpt lat="44.88745" lon="-0.76942">
        <ele>38</ele>
        <time>2016-11-01T14:16:42.000Z</time>
      </trkpt>
      <trkpt lat="44.88761" lon="-0.7695">
        <ele>38</ele>
        <time>2016-11-01T14:16:39.000Z</time>
      </trkpt>
      <trkpt lat="44.8877" lon="-0.76954">
        <ele>38</ele>
        <time>2016-11-01T14:16:37.000Z</time>
      </trkpt>
      <trkpt lat="44.88778" lon="-0.7696">
        <ele>38</ele>
        <time>2016-11-01T14:16:35.000Z</time>
      </trkpt>
      <trkpt lat="44.88782" lon="-0.76963">
        <ele>38</ele>
        <time>2016-11-01T14:16:34.000Z</time>
      </trkpt>
      <trkpt lat="44.88794" lon="-0.76963">
        <ele>38</ele>
        <time>2016-11-01T14:16:31.000Z</time>
      </trkpt>
      <trkpt lat="44.88806" lon="-0.76965">
        <ele>38.400001525879</ele>
        <time>2016-11-01T14:16:28.000Z</time>
      </trkpt>
      <trkpt lat="44.8882" lon="-0.76984">
        <ele>39.599998474121</ele>
        <time>2016-11-01T14:16:23.000Z</time>
      </trkpt>
      <trkpt lat="44.88833" lon="-0.77">
        <ele>41</ele>
        <time>2016-11-01T14:16:19.000Z</time>
      </trkpt>
      <trkpt lat="44.88843" lon="-0.77008">
        <ele>41.599998474121</ele>
        <time>2016-11-01T14:16:16.000Z</time>
      </trkpt>
      <trkpt lat="44.88854" lon="-0.77017">
        <ele>41.799999237061</ele>
        <time>2016-11-01T14:16:13.000Z</time>
      </trkpt>
      <trkpt lat="44.88861" lon="-0.77028">
        <ele>42.200000762939</ele>
        <time>2016-11-01T14:16:10.000Z</time>
      </trkpt>
      <trkpt lat="44.88873" lon="-0.77038">
        <ele>42.599998474121</ele>
        <time>2016-11-01T14:16:06.000Z</time>
      </trkpt>
      <trkpt lat="44.88877" lon="-0.77044">
        <ele>42.799999237061</ele>
        <time>2016-11-01T14:16:04.000Z</time>
      </trkpt>
      <trkpt lat="44.88883" lon="-0.77061">
        <ele>43</ele>
        <time>2016-11-01T14:15:59.000Z</time>
      </trkpt>
      <trkpt lat="44.88882" lon="-0.77074">
        <ele>43.200000762939</ele>
        <time>2016-11-01T14:15:56.000Z</time>
      </trkpt>
      <trkpt lat="44.8887" lon="-0.77081">
        <ele>43.400001525879</ele>
        <time>2016-11-01T14:15:52.000Z</time>
      </trkpt>
      <trkpt lat="44.88864" lon="-0.77087">
        <ele>43.400001525879</ele>
        <time>2016-11-01T14:15:49.000Z</time>
      </trkpt>
      <trkpt lat="44.88872" lon="-0.77094">
        <ele>43.400001525879</ele>
        <time>2016-11-01T14:15:45.000Z</time>
      </trkpt>
      <trkpt lat="44.88881" lon="-0.771">
        <ele>43.599998474121</ele>
        <time>2016-11-01T14:15:40.000Z</time>
      </trkpt>
      <trkpt lat="44.88883" lon="-0.77109">
        <ele>43.599998474121</ele>
        <time>2016-11-01T14:15:35.000Z</time>
      </trkpt>
      <trkpt lat="44.88885" lon="-0.77114">
        <ele>43.799999237061</ele>
        <time>2016-11-01T14:15:31.000Z</time>
      </trkpt>
      <trkpt lat="44.88884" lon="-0.7713">
        <ele>43.799999237061</ele>
        <time>2016-11-01T14:15:27.000Z</time>
      </trkpt>
      <trkpt lat="44.88889" lon="-0.77146">
        <ele>44</ele>
        <time>2016-11-01T14:15:23.000Z</time>
      </trkpt>
      <trkpt lat="44.88894" lon="-0.77162">
        <ele>44</ele>
        <time>2016-11-01T14:15:18.000Z</time>
      </trkpt>
      <trkpt lat="44.88897" lon="-0.77165">
        <ele>44</ele>
        <time>2016-11-01T14:15:17.000Z</time>
      </trkpt>
      <trkpt lat="44.88913" lon="-0.7718">
        <ele>44</ele>
        <time>2016-11-01T14:15:11.000Z</time>
      </trkpt>
      <trkpt lat="44.88917" lon="-0.77186">
        <ele>43.799999237061</ele>
        <time>2016-11-01T14:15:09.000Z</time>
      </trkpt>
      <trkpt lat="44.88924" lon="-0.77195">
        <ele>43.200000762939</ele>
        <time>2016-11-01T14:15:05.000Z</time>
      </trkpt>
      <trkpt lat="44.8894" lon="-0.77203">
        <ele>42.200000762939</ele>
        <time>2016-11-01T14:14:59.000Z</time>
      </trkpt>
      <trkpt lat="44.88945" lon="-0.77206">
        <ele>41.799999237061</ele>
        <time>2016-11-01T14:14:57.000Z</time>
      </trkpt>
      <trkpt lat="44.88957" lon="-0.77214">
        <ele>41.200000762939</ele>
        <time>2016-11-01T14:14:53.000Z</time>
      </trkpt>
      <trkpt lat="44.88971" lon="-0.77225">
        <ele>41</ele>
        <time>2016-11-01T14:14:49.000Z</time>
      </trkpt>
      <trkpt lat="44.88978" lon="-0.77231">
        <ele>41</ele>
        <time>2016-11-01T14:14:46.000Z</time>
      </trkpt>
      <trkpt lat="44.88992" lon="-0.77234">
        <ele>41</ele>
        <time>2016-11-01T14:14:42.000Z</time>
      </trkpt>
      <trkpt lat="44.88998" lon="-0.77238">
        <ele>41</ele>
        <time>2016-11-01T14:14:40.000Z</time>
      </trkpt>
      <trkpt lat="44.89013" lon="-0.77247">
        <ele>41</ele>
        <time>2016-11-01T14:14:35.000Z</time>
      </trkpt>
      <trkpt lat="44.89024" lon="-0.77248">
        <ele>41</ele>
        <time>2016-11-01T14:14:31.000Z</time>
      </trkpt>
      <trkpt lat="44.89026" lon="-0.77245">
        <ele>41</ele>
        <time>2016-11-01T14:14:30.000Z</time>
      </trkpt>
      <trkpt lat="44.89042" lon="-0.7725">
        <ele>41</ele>
        <time>2016-11-01T14:14:26.000Z</time>
      </trkpt>
      <trkpt lat="44.89051" lon="-0.77254">
        <ele>41.200000762939</ele>
        <time>2016-11-01T14:14:24.000Z</time>
      </trkpt>
      <trkpt lat="44.89065" lon="-0.77259">
        <ele>41.599998474121</ele>
        <time>2016-11-01T14:14:20.000Z</time>
      </trkpt>
      <trkpt lat="44.89081" lon="-0.7727">
        <ele>41.599998474121</ele>
        <time>2016-11-01T14:14:15.000Z</time>
      </trkpt>
      <trkpt lat="44.89092" lon="-0.77271">
        <ele>41.400001525879</ele>
        <time>2016-11-01T14:14:12.000Z</time>
      </trkpt>
      <trkpt lat="44.89096" lon="-0.77272">
        <ele>41.200000762939</ele>
        <time>2016-11-01T14:14:11.000Z</time>
      </trkpt>
      <trkpt lat="44.89108" lon="-0.77276">
        <ele>40.799999237061</ele>
        <time>2016-11-01T14:14:08.000Z</time>
      </trkpt>
      <trkpt lat="44.89117" lon="-0.77275">
        <ele>40.599998474121</ele>
        <time>2016-11-01T14:14:05.000Z</time>
      </trkpt>
      <trkpt lat="44.89121" lon="-0.77285">
        <ele>40</ele>
        <time>2016-11-01T14:14:02.000Z</time>
      </trkpt>
      <trkpt lat="44.89127" lon="-0.77295">
        <ele>39.400001525879</ele>
        <time>2016-11-01T14:13:59.000Z</time>
      </trkpt>
      <trkpt lat="44.89128" lon="-0.7731">
        <ele>39</ele>
        <time>2016-11-01T14:13:56.000Z</time>
      </trkpt>
      <trkpt lat="44.89143" lon="-0.77306">
        <ele>39.200000762939</ele>
        <time>2016-11-01T14:13:51.000Z</time>
      </trkpt>
      <trkpt lat="44.89162" lon="-0.773">
        <ele>39.599998474121</ele>
        <time>2016-11-01T14:13:46.000Z</time>
      </trkpt>
      <trkpt lat="44.89172" lon="-0.77311">
        <ele>39.599998474121</ele>
        <time>2016-11-01T14:13:43.000Z</time>
      </trkpt>
      <trkpt lat="44.89174" lon="-0.77327">
        <ele>39.599998474121</ele>
        <time>2016-11-01T14:13:40.000Z</time>
      </trkpt>
      <trkpt lat="44.8917" lon="-0.77351">
        <ele>39.799999237061</ele>
        <time>2016-11-01T14:13:36.000Z</time>
      </trkpt>
      <trkpt lat="44.89166" lon="-0.77377">
        <ele>40.200000762939</ele>
        <time>2016-11-01T14:13:31.000Z</time>
      </trkpt>
      <trkpt lat="44.89166" lon="-0.77388">
        <ele>40.599998474121</ele>
        <time>2016-11-01T14:13:29.000Z</time>
      </trkpt>
      <trkpt lat="44.89164" lon="-0.77412">
        <ele>40.799999237061</ele>
        <time>2016-11-01T14:13:25.000Z</time>
      </trkpt>
      <trkpt lat="44.89164" lon="-0.77424">
        <ele>41</ele>
        <time>2016-11-01T14:13:22.000Z</time>
      </trkpt>
      <trkpt lat="44.89163" lon="-0.77441">
        <ele>41</ele>
        <time>2016-11-01T14:13:18.000Z</time>
      </trkpt>
      <trkpt lat="44.89163" lon="-0.77454">
        <ele>41</ele>
        <time>2016-11-01T14:13:15.000Z</time>
      </trkpt>
      <trkpt lat="44.89164" lon="-0.77461">
        <ele>41</ele>
        <time>2016-11-01T14:13:11.000Z</time>
      </trkpt>
      <trkpt lat="44.89178" lon="-0.77457">
        <ele>41.400001525879</ele>
        <time>2016-11-01T14:13:06.000Z</time>
      </trkpt>
      <trkpt lat="44.89189" lon="-0.77454">
        <ele>41.599998474121</ele>
        <time>2016-11-01T14:13:03.000Z</time>
      </trkpt>
      <trkpt lat="44.89197" lon="-0.77452">
        <ele>41.799999237061</ele>
        <time>2016-11-01T14:13:01.000Z</time>
      </trkpt>
      <trkpt lat="44.89211" lon="-0.77477">
        <ele>41.799999237061</ele>
        <time>2016-11-01T14:12:56.000Z</time>
      </trkpt>
      <trkpt lat="44.89213" lon="-0.77483">
        <ele>41.599998474121</ele>
        <time>2016-11-01T14:12:55.000Z</time>
      </trkpt>
      <trkpt lat="44.89211" lon="-0.77527">
        <ele>41.200000762939</ele>
        <time>2016-11-01T14:12:49.000Z</time>
      </trkpt>
      <trkpt lat="44.89213" lon="-0.7755">
        <ele>40.799999237061</ele>
        <time>2016-11-01T14:12:46.000Z</time>
      </trkpt>
      <trkpt lat="44.89214" lon="-0.7757">
        <ele>41</ele>
        <time>2016-11-01T14:12:43.000Z</time>
      </trkpt>
      <trkpt lat="44.89217" lon="-0.77592">
        <ele>41</ele>
        <time>2016-11-01T14:12:40.000Z</time>
      </trkpt>
      <trkpt lat="44.89217" lon="-0.77631">
        <ele>41</ele>
        <time>2016-11-01T14:12:35.000Z</time>
      </trkpt>
      <trkpt lat="44.89221" lon="-0.77669">
        <ele>40.799999237061</ele>
        <time>2016-11-01T14:12:30.000Z</time>
      </trkpt>
      <trkpt lat="44.89218" lon="-0.77696">
        <ele>40.799999237061</ele>
        <time>2016-11-01T14:12:26.000Z</time>
      </trkpt>
      <trkpt lat="44.8922" lon="-0.77709">
        <ele>40.799999237061</ele>
        <time>2016-11-01T14:12:23.000Z</time>
      </trkpt>
      <trkpt lat="44.89211" lon="-0.77729">
        <ele>41.200000762939</ele>
        <time>2016-11-01T14:12:19.000Z</time>
      </trkpt>
      <trkpt lat="44.89194" lon="-0.77744">
        <ele>42</ele>
        <time>2016-11-01T14:12:15.000Z</time>
      </trkpt>
      <trkpt lat="44.89185" lon="-0.77752">
        <ele>42.400001525879</ele>
        <time>2016-11-01T14:12:13.000Z</time>
      </trkpt>
      <trkpt lat="44.89181" lon="-0.77756">
        <ele>42.599998474121</ele>
        <time>2016-11-01T14:12:12.000Z</time>
      </trkpt>
      <trkpt lat="44.89166" lon="-0.77763">
        <ele>43</ele>
        <time>2016-11-01T14:12:09.000Z</time>
      </trkpt>
      <trkpt lat="44.89151" lon="-0.7777">
        <ele>43.400001525879</ele>
        <time>2016-11-01T14:12:06.000Z</time>
      </trkpt>
      <trkpt lat="44.89146" lon="-0.77774">
        <ele>43.599998474121</ele>
        <time>2016-11-01T14:12:05.000Z</time>
      </trkpt>
      <trkpt lat="44.89139" lon="-0.77809">
        <ele>44.799999237061</ele>
        <time>2016-11-01T14:12:00.000Z</time>
      </trkpt>
      <trkpt lat="44.89144" lon="-0.77831">
        <ele>44.200000762939</ele>
        <time>2016-11-01T14:11:57.000Z</time>
      </trkpt>
      <trkpt lat="44.89148" lon="-0.77843">
        <ele>43.799999237061</ele>
        <time>2016-11-01T14:11:55.000Z</time>
      </trkpt>
      <trkpt lat="44.8916" lon="-0.77854">
        <ele>43.400001525879</ele>
        <time>2016-11-01T14:11:52.000Z</time>
      </trkpt>
      <trkpt lat="44.89167" lon="-0.77878">
        <ele>42.799999237061</ele>
        <time>2016-11-01T14:11:48.000Z</time>
      </trkpt>
      <trkpt lat="44.8917" lon="-0.77895">
        <ele>42.400001525879</ele>
        <time>2016-11-01T14:11:45.000Z</time>
      </trkpt>
      <trkpt lat="44.89177" lon="-0.77907">
        <ele>42.400001525879</ele>
        <time>2016-11-01T14:11:42.000Z</time>
      </trkpt>
      <trkpt lat="44.89187" lon="-0.77922">
        <ele>41.799999237061</ele>
        <time>2016-11-01T14:11:39.000Z</time>
      </trkpt>
      <trkpt lat="44.89205" lon="-0.77913">
        <ele>41.200000762939</ele>
        <time>2016-11-01T14:11:35.000Z</time>
      </trkpt>
      <trkpt lat="44.8922" lon="-0.77911">
        <ele>41.200000762939</ele>
        <time>2016-11-01T14:11:32.000Z</time>
      </trkpt>
      <trkpt lat="44.89225" lon="-0.77915">
        <ele>41</ele>
        <time>2016-11-01T14:11:31.000Z</time>
      </trkpt>
      <trkpt lat="44.89231" lon="-0.77937">
        <ele>40.200000762939</ele>
        <time>2016-11-01T14:11:28.000Z</time>
      </trkpt>
      <trkpt lat="44.89234" lon="-0.77979">
        <ele>39.599998474121</ele>
        <time>2016-11-01T14:11:23.000Z</time>
      </trkpt>
      <trkpt lat="44.89233" lon="-0.77997">
        <ele>39.599998474121</ele>
        <time>2016-11-01T14:11:21.000Z</time>
      </trkpt>
      <trkpt lat="44.89231" lon="-0.78031">
        <ele>39.599998474121</ele>
        <time>2016-11-01T14:11:17.000Z</time>
      </trkpt>
      <trkpt lat="44.89225" lon="-0.78054">
        <ele>39.400001525879</ele>
        <time>2016-11-01T14:11:14.000Z</time>
      </trkpt>
      <trkpt lat="44.8921" lon="-0.78072">
        <ele>39</ele>
        <time>2016-11-01T14:11:10.000Z</time>
      </trkpt>
      <trkpt lat="44.89195" lon="-0.78071">
        <ele>39.200000762939</ele>
        <time>2016-11-01T14:11:07.000Z</time>
      </trkpt>
      <trkpt lat="44.89177" lon="-0.78082">
        <ele>39.599998474121</ele>
        <time>2016-11-01T14:11:03.000Z</time>
      </trkpt>
      <trkpt lat="44.89157" lon="-0.78111">
        <ele>40.200000762939</ele>
        <time>2016-11-01T14:10:58.000Z</time>
      </trkpt>
      <trkpt lat="44.89155" lon="-0.78117">
        <ele>40.200000762939</ele>
        <time>2016-11-01T14:10:57.000Z</time>
      </trkpt>
      <trkpt lat="44.89148" lon="-0.78155">
        <ele>40.599998474121</ele>
        <time>2016-11-01T14:10:52.000Z</time>
      </trkpt>
      <trkpt lat="44.89137" lon="-0.78168">
        <ele>41</ele>
        <time>2016-11-01T14:10:49.000Z</time>
      </trkpt>
      <trkpt lat="44.89133" lon="-0.7819">
        <ele>41.400001525879</ele>
        <time>2016-11-01T14:10:46.000Z</time>
      </trkpt>
      <trkpt lat="44.89129" lon="-0.78228">
        <ele>42</ele>
        <time>2016-11-01T14:10:41.000Z</time>
      </trkpt>
      <trkpt lat="44.89127" lon="-0.78248">
        <ele>42.200000762939</ele>
        <time>2016-11-01T14:10:38.000Z</time>
      </trkpt>
      <trkpt lat="44.89131" lon="-0.78281">
        <ele>42.599998474121</ele>
        <time>2016-11-01T14:10:34.000Z</time>
      </trkpt>
      <trkpt lat="44.89139" lon="-0.78334">
        <ele>42.799999237061</ele>
        <time>2016-11-01T14:10:28.000Z</time>
      </trkpt>
      <trkpt lat="44.89149" lon="-0.78389">
        <ele>43</ele>
        <time>2016-11-01T14:10:22.000Z</time>
      </trkpt>
      <trkpt lat="44.89152" lon="-0.78409">
        <ele>43.200000762939</ele>
        <time>2016-11-01T14:10:20.000Z</time>
      </trkpt>
      <trkpt lat="44.8916" lon="-0.78454">
        <ele>43.400001525879</ele>
        <time>2016-11-01T14:10:15.000Z</time>
      </trkpt>
      <trkpt lat="44.89162" lon="-0.78472">
        <ele>43</ele>
        <time>2016-11-01T14:10:13.000Z</time>
      </trkpt>
      <trkpt lat="44.89165" lon="-0.78491">
        <ele>42.599998474121</ele>
        <time>2016-11-01T14:10:11.000Z</time>
      </trkpt>
      <trkpt lat="44.89168" lon="-0.78519">
        <ele>42</ele>
        <time>2016-11-01T14:10:08.000Z</time>
      </trkpt>
      <trkpt lat="44.89177" lon="-0.78583">
        <ele>41.599998474121</ele>
        <time>2016-11-01T14:10:01.000Z</time>
      </trkpt>
      <trkpt lat="44.89185" lon="-0.78646">
        <ele>41.599998474121</ele>
        <time>2016-11-01T14:09:54.000Z</time>
      </trkpt>
      <trkpt lat="44.89194" lon="-0.78708">
        <ele>41.599998474121</ele>
        <time>2016-11-01T14:09:47.000Z</time>
      </trkpt>
      <trkpt lat="44.89197" lon="-0.78743">
        <ele>41.799999237061</ele>
        <time>2016-11-01T14:09:43.000Z</time>
      </trkpt>
      <trkpt lat="44.89203" lon="-0.78783">
        <ele>41.200000762939</ele>
        <time>2016-11-01T14:09:38.000Z</time>
      </trkpt>
      <trkpt lat="44.89205" lon="-0.78798">
        <ele>41</ele>
        <time>2016-11-01T14:09:36.000Z</time>
      </trkpt>
      <trkpt lat="44.89212" lon="-0.78815">
        <ele>40.799999237061</ele>
        <time>2016-11-01T14:09:32.000Z</time>
      </trkpt>
      <trkpt lat="44.89216" lon="-0.78824">
        <ele>40.599998474121</ele>
        <time>2016-11-01T14:09:28.000Z</time>
      </trkpt>
      <trkpt lat="44.89215" lon="-0.78828">
        <ele>40.599998474121</ele>
        <time>2016-11-01T14:09:23.000Z</time>
      </trkpt>
      <trkpt lat="44.89214" lon="-0.78828">
        <ele>40.599998474121</ele>
        <time>2016-11-01T14:09:04.000Z</time>
      </trkpt>
      <trkpt lat="44.89215" lon="-0.78827">
        <ele>40.599998474121</ele>
        <time>2016-11-01T14:08:58.000Z</time>
      </trkpt>
      <trkpt lat="44.89215" lon="-0.78826">
        <ele>40.599998474121</ele>
        <time>2016-11-01T14:08:54.000Z</time>
      </trkpt>
      <trkpt lat="44.89227" lon="-0.78825">
        <ele>40.599998474121</ele>
        <time>2016-11-01T14:08:50.000Z</time>
      </trkpt>
      <trkpt lat="44.89249" lon="-0.78806">
        <ele>40.400001525879</ele>
        <time>2016-11-01T14:08:45.000Z</time>
      </trkpt>
      <trkpt lat="44.89283" lon="-0.78778">
        <ele>40.400001525879</ele>
        <time>2016-11-01T14:08:38.000Z</time>
      </trkpt>
      <trkpt lat="44.89329" lon="-0.78739">
        <ele>39.799999237061</ele>
        <time>2016-11-01T14:08:29.000Z</time>
      </trkpt>
      <trkpt lat="44.89354" lon="-0.78717">
        <ele>39.9</ele>
      </trkpt>
      <trkpt lat="44.89354" lon="-0.78717">
        <ele>39.9</ele>
      </trkpt>
      <trkpt lat="44.89355" lon="-0.78719">
        <ele>39.9</ele>
      </trkpt>
      <trkpt lat="44.89345" lon="-0.7874">
        <ele>39.400001525879</ele>
        <time>2016-11-01T17:13:04.000Z</time>
      </trkpt>
      <trkpt lat="44.8934" lon="-0.78757">
        <ele>39.400001525879</ele>
        <time>2016-11-01T17:13:01.000Z</time>
      </trkpt>
      <trkpt lat="44.89338" lon="-0.78762">
        <ele>39.400001525879</ele>
        <time>2016-11-01T17:13:00.000Z</time>
      </trkpt>
      <trkpt lat="44.89345" lon="-0.78781">
        <ele>39.799999237061</ele>
        <time>2016-11-01T17:12:57.000Z</time>
      </trkpt>
      <trkpt lat="44.89362" lon="-0.7878">
        <ele>39.599998474121</ele>
        <time>2016-11-01T17:12:54.000Z</time>
      </trkpt>
      <trkpt lat="44.89387" lon="-0.78759">
        <ele>39.599998474121</ele>
        <time>2016-11-01T17:12:49.000Z</time>
      </trkpt>
      <trkpt lat="44.89408" lon="-0.78751">
        <ele>39.799999237061</ele>
        <time>2016-11-01T17:12:45.000Z</time>
      </trkpt>
      <trkpt lat="44.8942" lon="-0.78753">
        <ele>40</ele>
        <time>2016-11-01T17:12:43.000Z</time>
      </trkpt>
      <trkpt lat="44.89448" lon="-0.78764">
        <ele>40</ele>
        <time>2016-11-01T17:12:38.000Z</time>
      </trkpt>
      <trkpt lat="44.89464" lon="-0.78768">
        <ele>40</ele>
        <time>2016-11-01T17:12:35.000Z</time>
      </trkpt>
      <trkpt lat="44.89485" lon="-0.78771">
        <ele>39.599998474121</ele>
        <time>2016-11-01T17:12:31.000Z</time>
      </trkpt>
      <trkpt lat="44.89519" lon="-0.78788">
        <ele>39.200000762939</ele>
        <time>2016-11-01T17:12:25.000Z</time>
      </trkpt>
      <trkpt lat="44.89548" lon="-0.78817">
        <ele>39.200000762939</ele>
        <time>2016-11-01T17:12:19.000Z</time>
      </trkpt>
      <trkpt lat="44.89557" lon="-0.78824">
        <ele>39.400001525879</ele>
        <time>2016-11-01T17:12:17.000Z</time>
      </trkpt>
      <trkpt lat="44.89558" lon="-0.78843">
        <ele>39.599998474121</ele>
        <time>2016-11-01T17:12:13.000Z</time>
      </trkpt>
      <trkpt lat="44.89544" lon="-0.7887">
        <ele>39.799999237061</ele>
        <time>2016-11-01T17:12:09.000Z</time>
      </trkpt>
      <trkpt lat="44.89526" lon="-0.78906">
        <ele>40.799999237061</ele>
        <time>2016-11-01T17:12:04.000Z</time>
      </trkpt>
      <trkpt lat="44.89523" lon="-0.78914">
        <ele>41.200000762939</ele>
        <time>2016-11-01T17:12:03.000Z</time>
      </trkpt>
      <trkpt lat="44.89516" lon="-0.78948">
        <ele>42.400001525879</ele>
        <time>2016-11-01T17:11:59.000Z</time>
      </trkpt>
      <trkpt lat="44.8951" lon="-0.78986">
        <ele>42.799999237061</ele>
        <time>2016-11-01T17:11:55.000Z</time>
      </trkpt>
      <trkpt lat="44.89503" lon="-0.79014">
        <ele>42.200000762939</ele>
        <time>2016-11-01T17:11:52.000Z</time>
      </trkpt>
      <trkpt lat="44.89492" lon="-0.79049">
        <ele>41.799999237061</ele>
        <time>2016-11-01T17:11:48.000Z</time>
      </trkpt>
      <trkpt lat="44.89486" lon="-0.79073">
        <ele>41.400001525879</ele>
        <time>2016-11-01T17:11:45.000Z</time>
      </trkpt>
      <trkpt lat="44.89482" lon="-0.791">
        <ele>41</ele>
        <time>2016-11-01T17:11:42.000Z</time>
      </trkpt>
      <trkpt lat="44.89473" lon="-0.79133">
        <ele>40.599998474121</ele>
        <time>2016-11-01T17:11:38.000Z</time>
      </trkpt>
      <trkpt lat="44.89473" lon="-0.79143">
        <ele>40.799999237061</ele>
        <time>2016-11-01T17:11:37.000Z</time>
      </trkpt>
      <trkpt lat="44.89467" lon="-0.79218">
        <ele>43</ele>
        <time>2016-11-01T17:11:30.000Z</time>
      </trkpt>
      <trkpt lat="44.89461" lon="-0.79263">
        <ele>42.599998474121</ele>
        <time>2016-11-01T17:11:25.000Z</time>
      </trkpt>
      <trkpt lat="44.89459" lon="-0.79283">
        <ele>42.200000762939</ele>
        <time>2016-11-01T17:11:23.000Z</time>
      </trkpt>
      <trkpt lat="44.89452" lon="-0.79322">
        <ele>42.200000762939</ele>
        <time>2016-11-01T17:11:19.000Z</time>
      </trkpt>
      <trkpt lat="44.89448" lon="-0.79354">
        <ele>42.599998474121</ele>
        <time>2016-11-01T17:11:16.000Z</time>
      </trkpt>
      <trkpt lat="44.8944" lon="-0.79398">
        <ele>43</ele>
        <time>2016-11-01T17:11:12.000Z</time>
      </trkpt>
      <trkpt lat="44.89432" lon="-0.79436">
        <ele>42.799999237061</ele>
        <time>2016-11-01T17:11:08.000Z</time>
      </trkpt>
      <trkpt lat="44.89426" lon="-0.7946">
        <ele>42.599998474121</ele>
        <time>2016-11-01T17:11:05.000Z</time>
      </trkpt>
      <trkpt lat="44.89422" lon="-0.79475">
        <ele>42.400001525879</ele>
        <time>2016-11-01T17:11:03.000Z</time>
      </trkpt>
      <trkpt lat="44.89412" lon="-0.79525">
        <ele>42.599998474121</ele>
        <time>2016-11-01T17:10:57.000Z</time>
      </trkpt>
      <trkpt lat="44.8941" lon="-0.79542">
        <ele>42.799999237061</ele>
        <time>2016-11-01T17:10:55.000Z</time>
      </trkpt>
      <trkpt lat="44.89406" lon="-0.79556">
        <ele>43</ele>
        <time>2016-11-01T17:10:53.000Z</time>
      </trkpt>
      <trkpt lat="44.89404" lon="-0.79564">
        <ele>42.799999237061</ele>
        <time>2016-11-01T17:10:52.000Z</time>
      </trkpt>
      <trkpt lat="44.89389" lon="-0.79626">
        <ele>41.400001525879</ele>
        <time>2016-11-01T17:10:44.000Z</time>
      </trkpt>
      <trkpt lat="44.89381" lon="-0.79655">
        <ele>41.400001525879</ele>
        <time>2016-11-01T17:10:40.000Z</time>
      </trkpt>
      <trkpt lat="44.89369" lon="-0.79681">
        <ele>41.599998474121</ele>
        <time>2016-11-01T17:10:36.000Z</time>
      </trkpt>
      <trkpt lat="44.89354" lon="-0.79714">
        <ele>42.200000762939</ele>
        <time>2016-11-01T17:10:31.000Z</time>
      </trkpt>
      <trkpt lat="44.89326" lon="-0.79771">
        <ele>41.400001525879</ele>
        <time>2016-11-01T17:10:22.000Z</time>
      </trkpt>
      <trkpt lat="44.89316" lon="-0.79798">
        <ele>41.599998474121</ele>
        <time>2016-11-01T17:10:18.000Z</time>
      </trkpt>
      <trkpt lat="44.89297" lon="-0.79846">
        <ele>41.200000762939</ele>
        <time>2016-11-01T17:10:11.000Z</time>
      </trkpt>
      <trkpt lat="44.89274" lon="-0.79914">
        <ele>41.200000762939</ele>
        <time>2016-11-01T17:10:01.000Z</time>
      </trkpt>
      <trkpt lat="44.89269" lon="-0.79941">
        <ele>41.400001525879</ele>
        <time>2016-11-01T17:09:57.000Z</time>
      </trkpt>
      <trkpt lat="44.89261" lon="-0.79964">
        <ele>41.599998474121</ele>
        <time>2016-11-01T17:09:54.000Z</time>
      </trkpt>
      <trkpt lat="44.89254" lon="-0.79978">
        <ele>41.599998474121</ele>
        <time>2016-11-01T17:09:52.000Z</time>
      </trkpt>
      <trkpt lat="44.89232" lon="-0.80039">
        <ele>42</ele>
        <time>2016-11-01T17:09:45.000Z</time>
      </trkpt>
      <trkpt lat="44.89222" lon="-0.80077">
        <ele>41.200000762939</ele>
        <time>2016-11-01T17:09:41.000Z</time>
      </trkpt>
      <trkpt lat="44.89218" lon="-0.80086">
        <ele>40.799999237061</ele>
        <time>2016-11-01T17:09:40.000Z</time>
      </trkpt>
      <trkpt lat="44.89192" lon="-0.80152">
        <ele>39.200000762939</ele>
        <time>2016-11-01T17:09:33.000Z</time>
      </trkpt>
      <trkpt lat="44.89175" lon="-0.802">
        <ele>39.400001525879</ele>
        <time>2016-11-01T17:09:28.000Z</time>
      </trkpt>
      <trkpt lat="44.89153" lon="-0.80266">
        <ele>39.599998474121</ele>
        <time>2016-11-01T17:09:21.000Z</time>
      </trkpt>
      <trkpt lat="44.8914" lon="-0.80297">
        <ele>40</ele>
        <time>2016-11-01T17:09:17.000Z</time>
      </trkpt>
      <trkpt lat="44.89126" lon="-0.80337">
        <ele>40.400001525879</ele>
        <time>2016-11-01T17:09:11.000Z</time>
      </trkpt>
      <trkpt lat="44.89117" lon="-0.80358">
        <ele>40.799999237061</ele>
        <time>2016-11-01T17:09:07.000Z</time>
      </trkpt>
      <trkpt lat="44.89106" lon="-0.80395">
        <ele>41.200000762939</ele>
        <time>2016-11-01T17:09:00.000Z</time>
      </trkpt>
      <trkpt lat="44.89102" lon="-0.80404">
        <ele>41.400001525879</ele>
        <time>2016-11-01T17:08:58.000Z</time>
      </trkpt>
      <trkpt lat="44.89087" lon="-0.80405">
        <ele>41.599998474121</ele>
        <time>2016-11-01T17:08:54.000Z</time>
      </trkpt>
      <trkpt lat="44.8907" lon="-0.80393">
        <ele>41.599998474121</ele>
        <time>2016-11-01T17:08:50.000Z</time>
      </trkpt>
      <trkpt lat="44.89029" lon="-0.80366">
        <ele>41.599998474121</ele>
        <time>2016-11-01T17:08:41.000Z</time>
      </trkpt>
      <trkpt lat="44.88999" lon="-0.80344">
        <ele>41</ele>
        <time>2016-11-01T17:08:34.000Z</time>
      </trkpt>
      <trkpt lat="44.88961" lon="-0.80319">
        <ele>40.200000762939</ele>
        <time>2016-11-01T17:08:26.000Z</time>
      </trkpt>
      <trkpt lat="44.88923" lon="-0.80294">
        <ele>40</ele>
        <time>2016-11-01T17:08:18.000Z</time>
      </trkpt>
      <trkpt lat="44.8891" lon="-0.8029">
        <ele>40</ele>
        <time>2016-11-01T17:08:15.000Z</time>
      </trkpt>
      <trkpt lat="44.88899" lon="-0.80303">
        <ele>40</ele>
        <time>2016-11-01T17:08:12.000Z</time>
      </trkpt>
      <trkpt lat="44.88881" lon="-0.80323">
        <ele>40.200000762939</ele>
        <time>2016-11-01T17:08:08.000Z</time>
      </trkpt>
      <trkpt lat="44.8886" lon="-0.8034">
        <ele>39.799999237061</ele>
        <time>2016-11-01T17:08:04.000Z</time>
      </trkpt>
      <trkpt lat="44.88827" lon="-0.80363">
        <ele>38.599998474121</ele>
        <time>2016-11-01T17:07:58.000Z</time>
      </trkpt>
      <trkpt lat="44.88806" lon="-0.80388">
        <ele>37.799999237061</ele>
        <time>2016-11-01T17:07:54.000Z</time>
      </trkpt>
      <trkpt lat="44.88772" lon="-0.80412">
        <ele>37.599998474121</ele>
        <time>2016-11-01T17:07:48.000Z</time>
      </trkpt>
      <trkpt lat="44.88761" lon="-0.80416">
        <ele>38</ele>
        <time>2016-11-01T17:07:46.000Z</time>
      </trkpt>
      <trkpt lat="44.88745" lon="-0.80425">
        <ele>38.599998474121</ele>
        <time>2016-11-01T17:07:42.000Z</time>
      </trkpt>
      <trkpt lat="44.88735" lon="-0.8042">
        <ele>38.599998474121</ele>
        <time>2016-11-01T17:07:39.000Z</time>
      </trkpt>
      <trkpt lat="44.88734" lon="-0.804">
        <ele>38.400001525879</ele>
        <time>2016-11-01T17:07:35.000Z</time>
      </trkpt>
      <trkpt lat="44.8873" lon="-0.80378">
        <ele>38.400001525879</ele>
        <time>2016-11-01T17:07:31.000Z</time>
      </trkpt>
      <trkpt lat="44.88734" lon="-0.8036">
        <ele>38.400001525879</ele>
        <time>2016-11-01T17:07:28.000Z</time>
      </trkpt>
      <trkpt lat="44.88734" lon="-0.80324">
        <ele>37.400001525879</ele>
        <time>2016-11-01T17:07:22.000Z</time>
      </trkpt>
      <trkpt lat="44.8873" lon="-0.80313">
        <ele>37.200000762939</ele>
        <time>2016-11-01T17:07:20.000Z</time>
      </trkpt>
      <trkpt lat="44.88712" lon="-0.80289">
        <ele>36.799999237061</ele>
        <time>2016-11-01T17:07:14.000Z</time>
      </trkpt>
      <trkpt lat="44.88703" lon="-0.80291">
        <ele>36.799999237061</ele>
        <time>2016-11-01T17:07:11.000Z</time>
      </trkpt>
      <trkpt lat="44.88696" lon="-0.803">
        <ele>36.799999237061</ele>
        <time>2016-11-01T17:07:08.000Z</time>
      </trkpt>
      <trkpt lat="44.88683" lon="-0.80286">
        <ele>36.400001525879</ele>
        <time>2016-11-01T17:07:04.000Z</time>
      </trkpt>
      <trkpt lat="44.88677" lon="-0.8027">
        <ele>36.200000762939</ele>
        <time>2016-11-01T17:07:01.000Z</time>
      </trkpt>
      <trkpt lat="44.88671" lon="-0.80261">
        <ele>36</ele>
        <time>2016-11-01T17:06:59.000Z</time>
      </trkpt>
      <trkpt lat="44.88665" lon="-0.8024">
        <ele>36</ele>
        <time>2016-11-01T17:06:55.000Z</time>
      </trkpt>
      <trkpt lat="44.88668" lon="-0.80217">
        <ele>36</ele>
        <time>2016-11-01T17:06:51.000Z</time>
      </trkpt>
      <trkpt lat="44.88673" lon="-0.80192">
        <ele>36</ele>
        <time>2016-11-01T17:06:47.000Z</time>
      </trkpt>
      <trkpt lat="44.88671" lon="-0.80171">
        <ele>36</ele>
        <time>2016-11-01T17:06:43.000Z</time>
      </trkpt>
      <trkpt lat="44.88661" lon="-0.80147">
        <ele>36</ele>
        <time>2016-11-01T17:06:38.000Z</time>
      </trkpt>
      <trkpt lat="44.8866" lon="-0.80121">
        <ele>36.200000762939</ele>
        <time>2016-11-01T17:06:33.000Z</time>
      </trkpt>
      <trkpt lat="44.88661" lon="-0.80085">
        <ele>37.200000762939</ele>
        <time>2016-11-01T17:06:26.000Z</time>
      </trkpt>
      <trkpt lat="44.88653" lon="-0.80065">
        <ele>38.400001525879</ele>
        <time>2016-11-01T17:06:20.000Z</time>
      </trkpt>
      <trkpt lat="44.88647" lon="-0.80054">
        <ele>39.200000762939</ele>
        <time>2016-11-01T17:06:16.000Z</time>
      </trkpt>
      <trkpt lat="44.88646" lon="-0.8004">
        <ele>39.200000762939</ele>
        <time>2016-11-01T17:06:12.000Z</time>
      </trkpt>
      <trkpt lat="44.88641" lon="-0.80019">
        <ele>39.599998474121</ele>
        <time>2016-11-01T17:06:07.000Z</time>
      </trkpt>
      <trkpt lat="44.88637" lon="-0.80006">
        <ele>40</ele>
        <time>2016-11-01T17:06:04.000Z</time>
      </trkpt>
      <trkpt lat="44.88632" lon="-0.79989">
        <ele>40.400001525879</ele>
        <time>2016-11-01T17:05:59.000Z</time>
      </trkpt>
      <trkpt lat="44.88631" lon="-0.79985">
        <ele>40.400001525879</ele>
        <time>2016-11-01T17:05:58.000Z</time>
      </trkpt>
      <trkpt lat="44.88627" lon="-0.79964">
        <ele>41</ele>
        <time>2016-11-01T17:05:53.000Z</time>
      </trkpt>
      <trkpt lat="44.88622" lon="-0.79952">
        <ele>41.200000762939</ele>
        <time>2016-11-01T17:05:50.000Z</time>
      </trkpt>
      <trkpt lat="44.88609" lon="-0.79936">
        <ele>41</ele>
        <time>2016-11-01T17:05:45.000Z</time>
      </trkpt>
      <trkpt lat="44.88595" lon="-0.79913">
        <ele>41.200000762939</ele>
        <time>2016-11-01T17:05:38.000Z</time>
      </trkpt>
      <trkpt lat="44.88592" lon="-0.79912">
        <ele>41.400001525879</ele>
        <time>2016-11-01T17:05:37.000Z</time>
      </trkpt>
      <trkpt lat="44.88579" lon="-0.79895">
        <ele>42.599998474121</ele>
        <time>2016-11-01T17:05:30.000Z</time>
      </trkpt>
      <trkpt lat="44.88579" lon="-0.79888">
        <ele>43</ele>
        <time>2016-11-01T17:05:28.000Z</time>
      </trkpt>
      <trkpt lat="44.88585" lon="-0.79879">
        <ele>42.799999237061</ele>
        <time>2016-11-01T17:05:25.000Z</time>
      </trkpt>
      <trkpt lat="44.88595" lon="-0.79872">
        <ele>42.400001525879</ele>
        <time>2016-11-01T17:05:21.000Z</time>
      </trkpt>
      <trkpt lat="44.88595" lon="-0.79866">
        <ele>42.400001525879</ele>
        <time>2016-11-01T17:05:17.000Z</time>
      </trkpt>
      <trkpt lat="44.88595" lon="-0.79855">
        <ele>42.200000762939</ele>
        <time>2016-11-01T17:05:11.000Z</time>
      </trkpt>
      <trkpt lat="44.88597" lon="-0.79854">
        <ele>42.200000762939</ele>
        <time>2016-11-01T17:05:02.000Z</time>
      </trkpt>
      <trkpt lat="44.88598" lon="-0.79853">
        <ele>42.200000762939</ele>
        <time>2016-11-01T17:04:55.000Z</time>
      </trkpt>
      <trkpt lat="44.88599" lon="-0.7985">
        <ele>42.200000762939</ele>
        <time>2016-11-01T17:04:49.000Z</time>
      </trkpt>
      <trkpt lat="44.886" lon="-0.79846">
        <ele>42</ele>
        <time>2016-11-01T17:04:43.000Z</time>
      </trkpt>
      <trkpt lat="44.886" lon="-0.79836">
        <ele>42</ele>
        <time>2016-11-01T17:04:40.000Z</time>
      </trkpt>
      <trkpt lat="44.88593" lon="-0.79826">
        <ele>41.599998474121</ele>
        <time>2016-11-01T17:04:36.000Z</time>
      </trkpt>
      <trkpt lat="44.8858" lon="-0.79822">
        <ele>41.400001525879</ele>
        <time>2016-11-01T17:04:31.000Z</time>
      </trkpt>
      <trkpt lat="44.88575" lon="-0.79815">
        <ele>41</ele>
        <time>2016-11-01T17:04:29.000Z</time>
      </trkpt>
      <trkpt lat="44.88562" lon="-0.79802">
        <ele>40.200000762939</ele>
        <time>2016-11-01T17:04:25.000Z</time>
      </trkpt>
      <trkpt lat="44.88558" lon="-0.79801">
        <ele>40.200000762939</ele>
        <time>2016-11-01T17:04:24.000Z</time>
      </trkpt>
      <trkpt lat="44.88537" lon="-0.79798">
        <ele>39.599998474121</ele>
        <time>2016-11-01T17:04:19.000Z</time>
      </trkpt>
      <trkpt lat="44.88519" lon="-0.79797">
        <ele>39.599998474121</ele>
        <time>2016-11-01T17:04:14.000Z</time>
      </trkpt>
      <trkpt lat="44.88513" lon="-0.79801">
        <ele>39.799999237061</ele>
        <time>2016-11-01T17:04:12.000Z</time>
      </trkpt>
      <trkpt lat="44.88497" lon="-0.79799">
        <ele>39.599998474121</ele>
        <time>2016-11-01T17:04:06.000Z</time>
      </trkpt>
      <trkpt lat="44.88493" lon="-0.79796">
        <ele>39.400001525879</ele>
        <time>2016-11-01T17:04:05.000Z</time>
      </trkpt>
      <trkpt lat="44.88483" lon="-0.79783">
        <ele>38.599998474121</ele>
        <time>2016-11-01T17:04:01.000Z</time>
      </trkpt>
      <trkpt lat="44.88478" lon="-0.79781">
        <ele>38.599998474121</ele>
        <time>2016-11-01T17:03:59.000Z</time>
      </trkpt>
      <trkpt lat="44.8846" lon="-0.79777">
        <ele>39</ele>
        <time>2016-11-01T17:03:54.000Z</time>
      </trkpt>
      <trkpt lat="44.88444" lon="-0.79767">
        <ele>38.200000762939</ele>
        <time>2016-11-01T17:03:49.000Z</time>
      </trkpt>
      <trkpt lat="44.88438" lon="-0.79762">
        <ele>37.799999237061</ele>
        <time>2016-11-01T17:03:46.000Z</time>
      </trkpt>
      <trkpt lat="44.88431" lon="-0.79748">
        <ele>37</ele>
        <time>2016-11-01T17:03:42.000Z</time>
      </trkpt>
      <trkpt lat="44.88424" lon="-0.7973">
        <ele>36.799999237061</ele>
        <time>2016-11-01T17:03:36.000Z</time>
      </trkpt>
      <trkpt lat="44.88422" lon="-0.79727">
        <ele>36.599998474121</ele>
        <time>2016-11-01T17:03:34.000Z</time>
      </trkpt>
      <trkpt lat="44.88416" lon="-0.79723">
        <ele>36.599998474121</ele>
        <time>2016-11-01T17:03:29.000Z</time>
      </trkpt>
      <trkpt lat="44.88408" lon="-0.79719">
        <ele>36.400001525879</ele>
        <time>2016-11-01T17:03:23.000Z</time>
      </trkpt>
      <trkpt lat="44.88407" lon="-0.79719">
        <ele>36.400001525879</ele>
        <time>2016-11-01T17:03:19.000Z</time>
      </trkpt>
      <trkpt lat="44.88404" lon="-0.79718">
        <ele>36.200000762939</ele>
        <time>2016-11-01T17:03:13.000Z</time>
      </trkpt>
      <trkpt lat="44.88398" lon="-0.79719">
        <ele>36.200000762939</ele>
        <time>2016-11-01T17:03:07.000Z</time>
      </trkpt>
      <trkpt lat="44.88397" lon="-0.79719">
        <ele>36.200000762939</ele>
        <time>2016-11-01T17:02:58.000Z</time>
      </trkpt>
      <trkpt lat="44.88397" lon="-0.79719">
        <ele>36.200000762939</ele>
        <time>2016-11-01T17:02:53.000Z</time>
      </trkpt>
      <trkpt lat="44.88402" lon="-0.79718">
        <ele>36.200000762939</ele>
        <time>2016-11-01T17:02:47.000Z</time>
      </trkpt>
      <trkpt lat="44.88404" lon="-0.79719">
        <ele>36.200000762939</ele>
        <time>2016-11-01T17:02:43.000Z</time>
      </trkpt>
      <trkpt lat="44.88404" lon="-0.79717">
        <ele>36.200000762939</ele>
        <time>2016-11-01T17:02:40.000Z</time>
      </trkpt>
      <trkpt lat="44.88402" lon="-0.79717">
        <ele>36.200000762939</ele>
        <time>2016-11-01T17:02:30.000Z</time>
      </trkpt>
      <trkpt lat="44.88402" lon="-0.79717">
        <ele>36.200000762939</ele>
        <time>2016-11-01T17:02:25.000Z</time>
      </trkpt>
      <trkpt lat="44.88403" lon="-0.79717">
        <ele>36.200000762939</ele>
        <time>2016-11-01T17:02:20.000Z</time>
      </trkpt>
      <trkpt lat="44.88404" lon="-0.79716">
        <ele>36.200000762939</ele>
        <time>2016-11-01T17:02:15.000Z</time>
      </trkpt>
      <trkpt lat="44.88403" lon="-0.79716">
        <ele>36.200000762939</ele>
        <time>2016-11-01T17:02:07.000Z</time>
      </trkpt>
      <trkpt lat="44.88395" lon="-0.79717">
        <ele>36</ele>
        <time>2016-11-01T17:02:02.000Z</time>
      </trkpt>
      <trkpt lat="44.88395" lon="-0.79717">
        <ele>36</ele>
        <time>2016-11-01T17:01:57.000Z</time>
      </trkpt>
      <trkpt lat="44.88394" lon="-0.79717">
        <ele>36</ele>
        <time>2016-11-01T17:01:43.000Z</time>
      </trkpt>
      <trkpt lat="44.88397" lon="-0.79719">
        <ele>36.200000762939</ele>
        <time>2016-11-01T17:01:30.000Z</time>
      </trkpt>
      <trkpt lat="44.88401" lon="-0.79719">
        <ele>36.200000762939</ele>
        <time>2016-11-01T17:01:23.000Z</time>
      </trkpt>
      <trkpt lat="44.88404" lon="-0.7972">
        <ele>36.200000762939</ele>
        <time>2016-11-01T17:01:12.000Z</time>
      </trkpt>
      <trkpt lat="44.88404" lon="-0.79721">
        <ele>36.400001525879</ele>
        <time>2016-11-01T17:01:04.000Z</time>
      </trkpt>
      <trkpt lat="44.88403" lon="-0.79721">
        <ele>36.400001525879</ele>
        <time>2016-11-01T17:01:03.000Z</time>
      </trkpt>
      <trkpt lat="44.88396" lon="-0.7973">
        <ele>36.400001525879</ele>
        <time>2016-11-01T17:00:19.000Z</time>
      </trkpt>
      <trkpt lat="44.88392" lon="-0.79734">
        <ele>36.400001525879</ele>
        <time>2016-11-01T17:00:07.000Z</time>
      </trkpt>
      <trkpt lat="44.88385" lon="-0.79733">
        <ele>36.200000762939</ele>
        <time>2016-11-01T17:00:03.000Z</time>
      </trkpt>
      <trkpt lat="44.88381" lon="-0.79731">
        <ele>36.200000762939</ele>
        <time>2016-11-01T17:00:01.000Z</time>
      </trkpt>
      <trkpt lat="44.88371" lon="-0.79722">
        <ele>36</ele>
        <time>2016-11-01T16:59:56.000Z</time>
      </trkpt>
      <trkpt lat="44.88364" lon="-0.7972">
        <ele>36.200000762939</ele>
        <time>2016-11-01T16:59:53.000Z</time>
      </trkpt>
      <trkpt lat="44.8835" lon="-0.79725">
        <ele>36.599998474121</ele>
        <time>2016-11-01T16:59:46.000Z</time>
      </trkpt>
      <trkpt lat="44.88346" lon="-0.79734">
        <ele>36.599998474121</ele>
        <time>2016-11-01T16:59:42.000Z</time>
      </trkpt>
      <trkpt lat="44.88339" lon="-0.7976">
        <ele>36.400001525879</ele>
        <time>2016-11-01T16:59:35.000Z</time>
      </trkpt>
      <trkpt lat="44.88336" lon="-0.79766">
        <ele>36.599998474121</ele>
        <time>2016-11-01T16:59:33.000Z</time>
      </trkpt>
      <trkpt lat="44.88336" lon="-0.79769">
        <ele>36.599998474121</ele>
        <time>2016-11-01T16:59:32.000Z</time>
      </trkpt>
      <trkpt lat="44.88329" lon="-0.79781">
        <ele>36.799999237061</ele>
        <time>2016-11-01T16:59:26.000Z</time>
      </trkpt>
      <trkpt lat="44.88328" lon="-0.79783">
        <ele>36.799999237061</ele>
        <time>2016-11-01T16:59:25.000Z</time>
      </trkpt>
      <trkpt lat="44.88326" lon="-0.79792">
        <ele>36.799999237061</ele>
        <time>2016-11-01T16:59:21.000Z</time>
      </trkpt>
      <trkpt lat="44.88329" lon="-0.79803">
        <ele>37</ele>
        <time>2016-11-01T16:59:17.000Z</time>
      </trkpt>
      <trkpt lat="44.8833" lon="-0.79814">
        <ele>37.400001525879</ele>
        <time>2016-11-01T16:59:13.000Z</time>
      </trkpt>
      <trkpt lat="44.8833" lon="-0.7983">
        <ele>37.799999237061</ele>
        <time>2016-11-01T16:59:08.000Z</time>
      </trkpt>
      <trkpt lat="44.88332" lon="-0.79841">
        <ele>38.200000762939</ele>
        <time>2016-11-01T16:59:04.000Z</time>
      </trkpt>
      <trkpt lat="44.88331" lon="-0.79851">
        <ele>38.599998474121</ele>
        <time>2016-11-01T16:59:01.000Z</time>
      </trkpt>
      <trkpt lat="44.88335" lon="-0.79856">
        <ele>38.599998474121</ele>
        <time>2016-11-01T16:58:57.000Z</time>
      </trkpt>
      <trkpt lat="44.88334" lon="-0.79869">
        <ele>38.799999237061</ele>
        <time>2016-11-01T16:58:53.000Z</time>
      </trkpt>
      <trkpt lat="44.8833" lon="-0.7988">
        <ele>39</ele>
        <time>2016-11-01T16:58:50.000Z</time>
      </trkpt>
      <trkpt lat="44.8833" lon="-0.79891">
        <ele>39</ele>
        <time>2016-11-01T16:58:47.000Z</time>
      </trkpt>
      <trkpt lat="44.88325" lon="-0.79904">
        <ele>39.200000762939</ele>
        <time>2016-11-01T16:58:43.000Z</time>
      </trkpt>
      <trkpt lat="44.88322" lon="-0.79915">
        <ele>39.200000762939</ele>
        <time>2016-11-01T16:58:40.000Z</time>
      </trkpt>
      <trkpt lat="44.88323" lon="-0.79929">
        <ele>39.200000762939</ele>
        <time>2016-11-01T16:58:37.000Z</time>
      </trkpt>
      <trkpt lat="44.88319" lon="-0.79943">
        <ele>39.200000762939</ele>
        <time>2016-11-01T16:58:34.000Z</time>
      </trkpt>
      <trkpt lat="44.88313" lon="-0.79965">
        <ele>39.200000762939</ele>
        <time>2016-11-01T16:58:30.000Z</time>
      </trkpt>
      <trkpt lat="44.88309" lon="-0.79985">
        <ele>39.400001525879</ele>
        <time>2016-11-01T16:58:25.000Z</time>
      </trkpt>
      <trkpt lat="44.88305" lon="-0.80001">
        <ele>39.799999237061</ele>
        <time>2016-11-01T16:58:21.000Z</time>
      </trkpt>
      <trkpt lat="44.883" lon="-0.8002">
        <ele>40.200000762939</ele>
        <time>2016-11-01T16:58:17.000Z</time>
      </trkpt>
      <trkpt lat="44.88298" lon="-0.8003">
        <ele>40.400001525879</ele>
        <time>2016-11-01T16:58:14.000Z</time>
      </trkpt>
      <trkpt lat="44.88298" lon="-0.80043">
        <ele>40.599998474121</ele>
        <time>2016-11-01T16:58:11.000Z</time>
      </trkpt>
      <trkpt lat="44.88307" lon="-0.80061">
        <ele>40</ele>
        <time>2016-11-01T16:58:06.000Z</time>
      </trkpt>
      <trkpt lat="44.88319" lon="-0.80075">
        <ele>39.200000762939</ele>
        <time>2016-11-01T16:58:00.000Z</time>
      </trkpt>
      <trkpt lat="44.88328" lon="-0.80088">
        <ele>38.799999237061</ele>
        <time>2016-11-01T16:57:54.000Z</time>
      </trkpt>
      <trkpt lat="44.88337" lon="-0.80094">
        <ele>38.200000762939</ele>
        <time>2016-11-01T16:57:50.000Z</time>
      </trkpt>
      <trkpt lat="44.8834" lon="-0.80101">
        <ele>38.200000762939</ele>
        <time>2016-11-01T16:57:48.000Z</time>
      </trkpt>
      <trkpt lat="44.88346" lon="-0.80119">
        <ele>38.599998474121</ele>
        <time>2016-11-01T16:57:43.000Z</time>
      </trkpt>
      <trkpt lat="44.88346" lon="-0.80127">
        <ele>38.799999237061</ele>
        <time>2016-11-01T16:57:41.000Z</time>
      </trkpt>
      <trkpt lat="44.88347" lon="-0.80139">
        <ele>39</ele>
        <time>2016-11-01T16:57:37.000Z</time>
      </trkpt>
      <trkpt lat="44.88351" lon="-0.80157">
        <ele>38.400001525879</ele>
        <time>2016-11-01T16:57:33.000Z</time>
      </trkpt>
      <trkpt lat="44.88354" lon="-0.80176">
        <ele>37.799999237061</ele>
        <time>2016-11-01T16:57:29.000Z</time>
      </trkpt>
      <trkpt lat="44.88362" lon="-0.80193">
        <ele>37</ele>
        <time>2016-11-01T16:57:24.000Z</time>
      </trkpt>
      <trkpt lat="44.88365" lon="-0.80202">
        <ele>36.799999237061</ele>
        <time>2016-11-01T16:57:21.000Z</time>
      </trkpt>
      <trkpt lat="44.88362" lon="-0.80209">
        <ele>36.599998474121</ele>
        <time>2016-11-01T16:57:18.000Z</time>
      </trkpt>
      <trkpt lat="44.88347" lon="-0.80217">
        <ele>37</ele>
        <time>2016-11-01T16:57:12.000Z</time>
      </trkpt>
      <trkpt lat="44.88344" lon="-0.80221">
        <ele>37</ele>
        <time>2016-11-01T16:57:10.000Z</time>
      </trkpt>
      <trkpt lat="44.88337" lon="-0.80234">
        <ele>37.400001525879</ele>
        <time>2016-11-01T16:57:06.000Z</time>
      </trkpt>
      <trkpt lat="44.88333" lon="-0.80246">
        <ele>37.799999237061</ele>
        <time>2016-11-01T16:57:02.000Z</time>
      </trkpt>
      <trkpt lat="44.8834" lon="-0.80272">
        <ele>37.400001525879</ele>
        <time>2016-11-01T16:56:56.000Z</time>
      </trkpt>
      <trkpt lat="44.8834" lon="-0.8028">
        <ele>37.200000762939</ele>
        <time>2016-11-01T16:56:53.000Z</time>
      </trkpt>
      <trkpt lat="44.88335" lon="-0.803">
        <ele>37.400001525879</ele>
        <time>2016-11-01T16:56:48.000Z</time>
      </trkpt>
      <trkpt lat="44.8833" lon="-0.8031">
        <ele>37.599998474121</ele>
        <time>2016-11-01T16:56:45.000Z</time>
      </trkpt>
      <trkpt lat="44.88327" lon="-0.80328">
        <ele>37.799999237061</ele>
        <time>2016-11-01T16:56:41.000Z</time>
      </trkpt>
      <trkpt lat="44.88327" lon="-0.80336">
        <ele>37.799999237061</ele>
        <time>2016-11-01T16:56:39.000Z</time>
      </trkpt>
      <trkpt lat="44.88333" lon="-0.80359">
        <ele>37.799999237061</ele>
        <time>2016-11-01T16:56:34.000Z</time>
      </trkpt>
      <trkpt lat="44.88333" lon="-0.80365">
        <ele>37.799999237061</ele>
        <time>2016-11-01T16:56:33.000Z</time>
      </trkpt>
      <trkpt lat="44.88334" lon="-0.8038">
        <ele>38.200000762939</ele>
        <time>2016-11-01T16:56:29.000Z</time>
      </trkpt>
      <trkpt lat="44.88334" lon="-0.804">
        <ele>38.599998474121</ele>
        <time>2016-11-01T16:56:24.000Z</time>
      </trkpt>
      <trkpt lat="44.88328" lon="-0.80422">
        <ele>39</ele>
        <time>2016-11-01T16:56:17.000Z</time>
      </trkpt>
      <trkpt lat="44.88327" lon="-0.80424">
        <ele>39</ele>
        <time>2016-11-01T16:56:16.000Z</time>
      </trkpt>
      <trkpt lat="44.88328" lon="-0.80438">
        <ele>39.200000762939</ele>
        <time>2016-11-01T16:56:12.000Z</time>
      </trkpt>
      <trkpt lat="44.88327" lon="-0.80451">
        <ele>39.400001525879</ele>
        <time>2016-11-01T16:56:08.000Z</time>
      </trkpt>
      <trkpt lat="44.88321" lon="-0.80461">
        <ele>39.799999237061</ele>
        <time>2016-11-01T16:56:04.000Z</time>
      </trkpt>
      <trkpt lat="44.88316" lon="-0.80478">
        <ele>40</ele>
        <time>2016-11-01T16:55:59.000Z</time>
      </trkpt>
      <trkpt lat="44.88317" lon="-0.80482">
        <ele>39.799999237061</ele>
        <time>2016-11-01T16:55:58.000Z</time>
      </trkpt>
      <trkpt lat="44.88332" lon="-0.80498">
        <ele>39.200000762939</ele>
        <time>2016-11-01T16:55:52.000Z</time>
      </trkpt>
      <trkpt lat="44.88336" lon="-0.80505">
        <ele>39</ele>
        <time>2016-11-01T16:55:50.000Z</time>
      </trkpt>
      <trkpt lat="44.88337" lon="-0.80515">
        <ele>38.799999237061</ele>
        <time>2016-11-01T16:55:45.000Z</time>
      </trkpt>
      <trkpt lat="44.88337" lon="-0.80517">
        <ele>38.799999237061</ele>
        <time>2016-11-01T16:55:44.000Z</time>
      </trkpt>
      <trkpt lat="44.88341" lon="-0.80541">
        <ele>38.400001525879</ele>
        <time>2016-11-01T16:55:39.000Z</time>
      </trkpt>
      <trkpt lat="44.88348" lon="-0.80561">
        <ele>37.799999237061</ele>
        <time>2016-11-01T16:55:34.000Z</time>
      </trkpt>
      <trkpt lat="44.88348" lon="-0.80582">
        <ele>37.599998474121</ele>
        <time>2016-11-01T16:55:29.000Z</time>
      </trkpt>
      <trkpt lat="44.88346" lon="-0.80607">
        <ele>37.599998474121</ele>
        <time>2016-11-01T16:55:24.000Z</time>
      </trkpt>
      <trkpt lat="44.88346" lon="-0.80618">
        <ele>37.599998474121</ele>
        <time>2016-11-01T16:55:21.000Z</time>
      </trkpt>
      <trkpt lat="44.88348" lon="-0.8064">
        <ele>37.599998474121</ele>
        <time>2016-11-01T16:55:15.000Z</time>
      </trkpt>
      <trkpt lat="44.88343" lon="-0.80654">
        <ele>38</ele>
        <time>2016-11-01T16:55:11.000Z</time>
      </trkpt>
      <trkpt lat="44.88338" lon="-0.8066">
        <ele>38.200000762939</ele>
        <time>2016-11-01T16:55:08.000Z</time>
      </trkpt>
      <trkpt lat="44.88337" lon="-0.80671">
        <ele>38.200000762939</ele>
        <time>2016-11-01T16:55:05.000Z</time>
      </trkpt>
      <trkpt lat="44.88332" lon="-0.80683">
        <ele>38.400001525879</ele>
        <time>2016-11-01T16:55:02.000Z</time>
      </trkpt>
      <trkpt lat="44.88326" lon="-0.80698">
        <ele>38.400001525879</ele>
        <time>2016-11-01T16:54:58.000Z</time>
      </trkpt>
      <trkpt lat="44.88316" lon="-0.80705">
        <ele>38.799999237061</ele>
        <time>2016-11-01T16:54:54.000Z</time>
      </trkpt>
      <trkpt lat="44.88311" lon="-0.80712">
        <ele>39</ele>
        <time>2016-11-01T16:54:51.000Z</time>
      </trkpt>
      <trkpt lat="44.8831" lon="-0.80724">
        <ele>38.799999237061</ele>
        <time>2016-11-01T16:54:47.000Z</time>
      </trkpt>
      <trkpt lat="44.88305" lon="-0.80731">
        <ele>39</ele>
        <time>2016-11-01T16:54:42.000Z</time>
      </trkpt>
      <trkpt lat="44.88305" lon="-0.80729">
        <ele>39</ele>
        <time>2016-11-01T16:54:18.000Z</time>
      </trkpt>
      <trkpt lat="44.88301" lon="-0.80723">
        <ele>39.400001525879</ele>
        <time>2016-11-01T16:54:14.000Z</time>
      </trkpt>
      <trkpt lat="44.88299" lon="-0.80716">
        <ele>39.599998474121</ele>
        <time>2016-11-01T16:54:12.000Z</time>
      </trkpt>
      <trkpt lat="44.88301" lon="-0.80691">
        <ele>39.400001525879</ele>
        <time>2016-11-01T16:54:05.000Z</time>
      </trkpt>
      <trkpt lat="44.88304" lon="-0.80675">
        <ele>39.200000762939</ele>
        <time>2016-11-01T16:54:01.000Z</time>
      </trkpt>
      <trkpt lat="44.88309" lon="-0.80671">
        <ele>39</ele>
        <time>2016-11-01T16:53:59.000Z</time>
      </trkpt>
      <trkpt lat="44.8832" lon="-0.80659">
        <ele>38.599998474121</ele>
        <time>2016-11-01T16:53:54.000Z</time>
      </trkpt>
      <trkpt lat="44.88322" lon="-0.80648">
        <ele>38.400001525879</ele>
        <time>2016-11-01T16:53:51.000Z</time>
      </trkpt>
      <trkpt lat="44.88331" lon="-0.80629">
        <ele>38</ele>
        <time>2016-11-01T16:53:45.000Z</time>
      </trkpt>
      <trkpt lat="44.88335" lon="-0.80611">
        <ele>38</ele>
        <time>2016-11-01T16:53:40.000Z</time>
      </trkpt>
      <trkpt lat="44.88334" lon="-0.80595">
        <ele>38</ele>
        <time>2016-11-01T16:53:36.000Z</time>
      </trkpt>
      <trkpt lat="44.88335" lon="-0.8058">
        <ele>38</ele>
        <time>2016-11-01T16:53:32.000Z</time>
      </trkpt>
      <trkpt lat="44.88336" lon="-0.80568">
        <ele>38.200000762939</ele>
        <time>2016-11-01T16:53:29.000Z</time>
      </trkpt>
      <trkpt lat="44.88331" lon="-0.80551">
        <ele>38.599998474121</ele>
        <time>2016-11-01T16:53:24.000Z</time>
      </trkpt>
      <trkpt lat="44.8833" lon="-0.80534">
        <ele>38.799999237061</ele>
        <time>2016-11-01T16:53:20.000Z</time>
      </trkpt>
      <trkpt lat="44.88324" lon="-0.80513">
        <ele>39.200000762939</ele>
        <time>2016-11-01T16:53:15.000Z</time>
      </trkpt>
      <trkpt lat="44.88313" lon="-0.80493">
        <ele>39.799999237061</ele>
        <time>2016-11-01T16:53:09.000Z</time>
      </trkpt>
      <trkpt lat="44.88312" lon="-0.80489">
        <ele>40</ele>
        <time>2016-11-01T16:53:08.000Z</time>
      </trkpt>
      <trkpt lat="44.88302" lon="-0.80475">
        <ele>40.599998474121</ele>
        <time>2016-11-01T16:53:03.000Z</time>
      </trkpt>
      <trkpt lat="44.88302" lon="-0.80472">
        <ele>40.599998474121</ele>
        <time>2016-11-01T16:53:02.000Z</time>
      </trkpt>
      <trkpt lat="44.88301" lon="-0.80449">
        <ele>40.400001525879</ele>
        <time>2016-11-01T16:52:56.000Z</time>
      </trkpt>
      <trkpt lat="44.88305" lon="-0.80437">
        <ele>40</ele>
        <time>2016-11-01T16:52:53.000Z</time>
      </trkpt>
      <trkpt lat="44.8831" lon="-0.80427">
        <ele>39.799999237061</ele>
        <time>2016-11-01T16:52:50.000Z</time>
      </trkpt>
      <trkpt lat="44.88312" lon="-0.80415">
        <ele>39.599998474121</ele>
        <time>2016-11-01T16:52:46.000Z</time>
      </trkpt>
      <trkpt lat="44.88307" lon="-0.804">
        <ele>39.599998474121</ele>
        <time>2016-11-01T16:52:41.000Z</time>
      </trkpt>
      <trkpt lat="44.88311" lon="-0.80393">
        <ele>39.200000762939</ele>
        <time>2016-11-01T16:52:38.000Z</time>
      </trkpt>
      <trkpt lat="44.88317" lon="-0.80379">
        <ele>38.799999237061</ele>
        <time>2016-11-01T16:52:33.000Z</time>
      </trkpt>
      <trkpt lat="44.88315" lon="-0.80372">
        <ele>38.599998474121</ele>
        <time>2016-11-01T16:52:31.000Z</time>
      </trkpt>
      <trkpt lat="44.88313" lon="-0.80349">
        <ele>38.599998474121</ele>
        <time>2016-11-01T16:52:26.000Z</time>
      </trkpt>
      <trkpt lat="44.88313" lon="-0.80344">
        <ele>38.599998474121</ele>
        <time>2016-11-01T16:52:25.000Z</time>
      </trkpt>
      <trkpt lat="44.8831" lon="-0.80322">
        <ele>38.799999237061</ele>
        <time>2016-11-01T16:52:20.000Z</time>
      </trkpt>
      <trkpt lat="44.88309" lon="-0.80297">
        <ele>39</ele>
        <time>2016-11-01T16:52:14.000Z</time>
      </trkpt>
      <trkpt lat="44.88312" lon="-0.80287">
        <ele>38.799999237061</ele>
        <time>2016-11-01T16:52:12.000Z</time>
      </trkpt>
      <trkpt lat="44.88317" lon="-0.80269">
        <ele>38.599998474121</ele>
        <time>2016-11-01T16:52:08.000Z</time>
      </trkpt>
      <trkpt lat="44.8832" lon="-0.8026">
        <ele>38.400001525879</ele>
        <time>2016-11-01T16:52:06.000Z</time>
      </trkpt>
      <trkpt lat="44.88322" lon="-0.8024">
        <ele>38</ele>
        <time>2016-11-01T16:52:02.000Z</time>
      </trkpt>
      <trkpt lat="44.88321" lon="-0.80217">
        <ele>38</ele>
        <time>2016-11-01T16:51:58.000Z</time>
      </trkpt>
      <trkpt lat="44.88323" lon="-0.80195">
        <ele>38.400001525879</ele>
        <time>2016-11-01T16:51:53.000Z</time>
      </trkpt>
      <trkpt lat="44.88326" lon="-0.80193">
        <ele>38.400001525879</ele>
        <time>2016-11-01T16:51:52.000Z</time>
      </trkpt>
      <trkpt lat="44.88339" lon="-0.80174">
        <ele>38.400001525879</ele>
        <time>2016-11-01T16:51:45.000Z</time>
      </trkpt>
      <trkpt lat="44.88337" lon="-0.80163">
        <ele>38.799999237061</ele>
        <time>2016-11-01T16:51:43.000Z</time>
      </trkpt>
      <trkpt lat="44.88333" lon="-0.80156">
        <ele>39</ele>
        <time>2016-11-01T16:51:41.000Z</time>
      </trkpt>
      <trkpt lat="44.88331" lon="-0.80144">
        <ele>39.400001525879</ele>
        <time>2016-11-01T16:51:37.000Z</time>
      </trkpt>
      <trkpt lat="44.88325" lon="-0.80125">
        <ele>39.400001525879</ele>
        <time>2016-11-01T16:51:32.000Z</time>
      </trkpt>
      <trkpt lat="44.88323" lon="-0.80117">
        <ele>39.200000762939</ele>
        <time>2016-11-01T16:51:30.000Z</time>
      </trkpt>
      <trkpt lat="44.88316" lon="-0.80098">
        <ele>39.400001525879</ele>
        <time>2016-11-01T16:51:24.000Z</time>
      </trkpt>
      <trkpt lat="44.88316" lon="-0.80094">
        <ele>39.400001525879</ele>
        <time>2016-11-01T16:51:23.000Z</time>
      </trkpt>
      <trkpt lat="44.88309" lon="-0.80077">
        <ele>39.799999237061</ele>
        <time>2016-11-01T16:51:19.000Z</time>
      </trkpt>
      <trkpt lat="44.88291" lon="-0.80055">
        <ele>41</ele>
        <time>2016-11-01T16:51:12.000Z</time>
      </trkpt>
      <trkpt lat="44.88287" lon="-0.80048">
        <ele>41</ele>
        <time>2016-11-01T16:51:10.000Z</time>
      </trkpt>
      <trkpt lat="44.88279" lon="-0.80035">
        <ele>40.799999237061</ele>
        <time>2016-11-01T16:51:05.000Z</time>
      </trkpt>
      <trkpt lat="44.88273" lon="-0.80021">
        <ele>40.599998474121</ele>
        <time>2016-11-01T16:50:59.000Z</time>
      </trkpt>
      <trkpt lat="44.88269" lon="-0.80003">
        <ele>40.400001525879</ele>
        <time>2016-11-01T16:50:55.000Z</time>
      </trkpt>
      <trkpt lat="44.88269" lon="-0.79989">
        <ele>40.200000762939</ele>
        <time>2016-11-01T16:50:51.000Z</time>
      </trkpt>
      <trkpt lat="44.88272" lon="-0.7997">
        <ele>40.400001525879</ele>
        <time>2016-11-01T16:50:47.000Z</time>
      </trkpt>
      <trkpt lat="44.88278" lon="-0.79949">
        <ele>40.200000762939</ele>
        <time>2016-11-01T16:50:42.000Z</time>
      </trkpt>
      <trkpt lat="44.88283" lon="-0.79926">
        <ele>40.200000762939</ele>
        <time>2016-11-01T16:50:37.000Z</time>
      </trkpt>
      <trkpt lat="44.88288" lon="-0.79908">
        <ele>40</ele>
        <time>2016-11-01T16:50:32.000Z</time>
      </trkpt>
      <trkpt lat="44.88294" lon="-0.79892">
        <ele>40</ele>
        <time>2016-11-01T16:50:28.000Z</time>
      </trkpt>
      <trkpt lat="44.883" lon="-0.79871">
        <ele>39.400001525879</ele>
        <time>2016-11-01T16:50:23.000Z</time>
      </trkpt>
      <trkpt lat="44.88304" lon="-0.79854">
        <ele>38.799999237061</ele>
        <time>2016-11-01T16:50:19.000Z</time>
      </trkpt>
      <trkpt lat="44.88305" lon="-0.79825">
        <ele>37.799999237061</ele>
        <time>2016-11-01T16:50:12.000Z</time>
      </trkpt>
      <trkpt lat="44.88301" lon="-0.79815">
        <ele>37.400001525879</ele>
        <time>2016-11-01T16:50:09.000Z</time>
      </trkpt>
      <trkpt lat="44.88298" lon="-0.79797">
        <ele>37</ele>
        <time>2016-11-01T16:50:04.000Z</time>
      </trkpt>
      <trkpt lat="44.88295" lon="-0.79776">
        <ele>37.200000762939</ele>
        <time>2016-11-01T16:49:58.000Z</time>
      </trkpt>
      <trkpt lat="44.88291" lon="-0.7977">
        <ele>37.400001525879</ele>
        <time>2016-11-01T16:49:55.000Z</time>
      </trkpt>
      <trkpt lat="44.8829" lon="-0.79755">
        <ele>37.599998474121</ele>
        <time>2016-11-01T16:49:50.000Z</time>
      </trkpt>
      <trkpt lat="44.8829" lon="-0.79749">
        <ele>37.599998474121</ele>
        <time>2016-11-01T16:49:48.000Z</time>
      </trkpt>
      <trkpt lat="44.88296" lon="-0.79728">
        <ele>37.799999237061</ele>
        <time>2016-11-01T16:49:42.000Z</time>
      </trkpt>
      <trkpt lat="44.88294" lon="-0.79718">
        <ele>37.799999237061</ele>
        <time>2016-11-01T16:49:40.000Z</time>
      </trkpt>
      <trkpt lat="44.88291" lon="-0.79704">
        <ele>38</ele>
        <time>2016-11-01T16:49:36.000Z</time>
      </trkpt>
      <trkpt lat="44.88287" lon="-0.79689">
        <ele>38.400001525879</ele>
        <time>2016-11-01T16:49:32.000Z</time>
      </trkpt>
      <trkpt lat="44.8828" lon="-0.79679">
        <ele>38.799999237061</ele>
        <time>2016-11-01T16:49:28.000Z</time>
      </trkpt>
      <trkpt lat="44.88267" lon="-0.79662">
        <ele>39.200000762939</ele>
        <time>2016-11-01T16:49:23.000Z</time>
      </trkpt>
      <trkpt lat="44.88261" lon="-0.79647">
        <ele>39.599998474121</ele>
        <time>2016-11-01T16:49:19.000Z</time>
      </trkpt>
      <trkpt lat="44.88249" lon="-0.79626">
        <ele>39.599998474121</ele>
        <time>2016-11-01T16:49:14.000Z</time>
      </trkpt>
      <trkpt lat="44.88238" lon="-0.79609">
        <ele>39.599998474121</ele>
        <time>2016-11-01T16:49:08.000Z</time>
      </trkpt>
      <trkpt lat="44.88227" lon="-0.79592">
        <ele>39.599998474121</ele>
        <time>2016-11-01T16:49:03.000Z</time>
      </trkpt>
      <trkpt lat="44.8822" lon="-0.79571">
        <ele>39.599998474121</ele>
        <time>2016-11-01T16:48:58.000Z</time>
      </trkpt>
      <trkpt lat="44.88217" lon="-0.7955">
        <ele>39.400001525879</ele>
        <time>2016-11-01T16:48:54.000Z</time>
      </trkpt>
      <trkpt lat="44.88214" lon="-0.79534">
        <ele>38.599998474121</ele>
        <time>2016-11-01T16:48:49.000Z</time>
      </trkpt>
      <trkpt lat="44.88221" lon="-0.79515">
        <ele>37.400001525879</ele>
        <time>2016-11-01T16:48:43.000Z</time>
      </trkpt>
      <trkpt lat="44.88221" lon="-0.79512">
        <ele>37.200000762939</ele>
        <time>2016-11-01T16:48:42.000Z</time>
      </trkpt>
      <trkpt lat="44.88217" lon="-0.79498">
        <ele>36.799999237061</ele>
        <time>2016-11-01T16:48:37.000Z</time>
      </trkpt>
      <trkpt lat="44.88217" lon="-0.79498">
        <ele>36.799999237061</ele>
        <time>2016-11-01T16:48:28.000Z</time>
      </trkpt>
      <trkpt lat="44.88216" lon="-0.79493">
        <ele>36.599998474121</ele>
        <time>2016-11-01T16:48:21.000Z</time>
      </trkpt>
      <trkpt lat="44.88215" lon="-0.7949">
        <ele>36.400001525879</ele>
        <time>2016-11-01T16:48:19.000Z</time>
      </trkpt>
      <trkpt lat="44.8821" lon="-0.7948">
        <ele>36.200000762939</ele>
        <time>2016-11-01T16:48:09.000Z</time>
      </trkpt>
      <trkpt lat="44.88204" lon="-0.79472">
        <ele>36</ele>
        <time>2016-11-01T16:48:01.000Z</time>
      </trkpt>
      <trkpt lat="44.88202" lon="-0.7947">
        <ele>36</ele>
        <time>2016-11-01T16:47:58.000Z</time>
      </trkpt>
      <trkpt lat="44.882" lon="-0.79468">
        <ele>36.200000762939</ele>
        <time>2016-11-01T16:46:34.000Z</time>
      </trkpt>
      <trkpt lat="44.88199" lon="-0.79467">
        <ele>36.200000762939</ele>
        <time>2016-11-01T16:46:28.000Z</time>
      </trkpt>
      <trkpt lat="44.88196" lon="-0.79462">
        <ele>36.200000762939</ele>
        <time>2016-11-01T16:46:26.000Z</time>
      </trkpt>
      <trkpt lat="44.88194" lon="-0.79441">
        <ele>36</ele>
        <time>2016-11-01T16:46:21.000Z</time>
      </trkpt>
      <trkpt lat="44.88199" lon="-0.79416">
        <ele>35.599998474121</ele>
        <time>2016-11-01T16:46:16.000Z</time>
      </trkpt>
      <trkpt lat="44.88204" lon="-0.79384">
        <ele>35</ele>
        <time>2016-11-01T16:46:10.000Z</time>
      </trkpt>
      <trkpt lat="44.88207" lon="-0.79367">
        <ele>35.400001525879</ele>
        <time>2016-11-01T16:46:06.000Z</time>
      </trkpt>
      <trkpt lat="44.8821" lon="-0.79346">
        <ele>35.799999237061</ele>
        <time>2016-11-01T16:46:02.000Z</time>
      </trkpt>
      <trkpt lat="44.88203" lon="-0.79317">
        <ele>36.599998474121</ele>
        <time>2016-11-01T16:45:56.000Z</time>
      </trkpt>
      <trkpt lat="44.88199" lon="-0.79297">
        <ele>36.799999237061</ele>
        <time>2016-11-01T16:45:51.000Z</time>
      </trkpt>
      <trkpt lat="44.882" lon="-0.79266">
        <ele>36.400001525879</ele>
        <time>2016-11-01T16:45:44.000Z</time>
      </trkpt>
      <trkpt lat="44.88202" lon="-0.79253">
        <ele>36.200000762939</ele>
        <time>2016-11-01T16:45:41.000Z</time>
      </trkpt>
      <trkpt lat="44.88215" lon="-0.79247">
        <ele>36.200000762939</ele>
        <time>2016-11-01T16:45:37.000Z</time>
      </trkpt>
      <trkpt lat="44.88221" lon="-0.79233">
        <ele>36</ele>
        <time>2016-11-01T16:45:34.000Z</time>
      </trkpt>
      <trkpt lat="44.88224" lon="-0.79202">
        <ele>36</ele>
        <time>2016-11-01T16:45:28.000Z</time>
      </trkpt>
      <trkpt lat="44.88222" lon="-0.79178">
        <ele>36.400001525879</ele>
        <time>2016-11-01T16:45:23.000Z</time>
      </trkpt>
      <trkpt lat="44.88216" lon="-0.79173">
        <ele>36.400001525879</ele>
        <time>2016-11-01T16:45:21.000Z</time>
      </trkpt>
      <trkpt lat="44.88209" lon="-0.79168">
        <ele>36.599998474121</ele>
        <time>2016-11-01T16:45:17.000Z</time>
      </trkpt>
      <trkpt lat="44.88204" lon="-0.79153">
        <ele>36.799999237061</ele>
        <time>2016-11-01T16:45:13.000Z</time>
      </trkpt>
      <trkpt lat="44.88191" lon="-0.79128">
        <ele>36.200000762939</ele>
        <time>2016-11-01T16:45:07.000Z</time>
      </trkpt>
      <trkpt lat="44.88183" lon="-0.79115">
        <ele>35.599998474121</ele>
        <time>2016-11-01T16:45:04.000Z</time>
      </trkpt>
      <trkpt lat="44.88159" lon="-0.79094">
        <ele>34.200000762939</ele>
        <time>2016-11-01T16:44:57.000Z</time>
      </trkpt>
      <trkpt lat="44.88146" lon="-0.79083">
        <ele>33</ele>
        <time>2016-11-01T16:44:53.000Z</time>
      </trkpt>
      <trkpt lat="44.88136" lon="-0.79084">
        <ele>32.599998474121</ele>
        <time>2016-11-01T16:44:50.000Z</time>
      </trkpt>
      <trkpt lat="44.88128" lon="-0.79083">
        <ele>32.200000762939</ele>
        <time>2016-11-01T16:44:47.000Z</time>
      </trkpt>
      <trkpt lat="44.88117" lon="-0.79074">
        <ele>32</ele>
        <time>2016-11-01T16:44:43.000Z</time>
      </trkpt>
      <trkpt lat="44.88107" lon="-0.79074">
        <ele>32.200000762939</ele>
        <time>2016-11-01T16:44:40.000Z</time>
      </trkpt>
      <trkpt lat="44.8809" lon="-0.79064">
        <ele>32.799999237061</ele>
        <time>2016-11-01T16:44:36.000Z</time>
      </trkpt>
      <trkpt lat="44.88081" lon="-0.79049">
        <ele>33</ele>
        <time>2016-11-01T16:44:33.000Z</time>
      </trkpt>
      <trkpt lat="44.88069" lon="-0.79046">
        <ele>33.599998474121</ele>
        <time>2016-11-01T16:44:28.000Z</time>
      </trkpt>
      <trkpt lat="44.88066" lon="-0.79043">
        <ele>33.799999237061</ele>
        <time>2016-11-01T16:44:27.000Z</time>
      </trkpt>
      <trkpt lat="44.88049" lon="-0.79031">
        <ele>34.400001525879</ele>
        <time>2016-11-01T16:44:22.000Z</time>
      </trkpt>
      <trkpt lat="44.88039" lon="-0.79029">
        <ele>34.599998474121</ele>
        <time>2016-11-01T16:44:18.000Z</time>
      </trkpt>
      <trkpt lat="44.88033" lon="-0.79021">
        <ele>34.599998474121</ele>
        <time>2016-11-01T16:44:15.000Z</time>
      </trkpt>
      <trkpt lat="44.88022" lon="-0.79014">
        <ele>34.799999237061</ele>
        <time>2016-11-01T16:44:11.000Z</time>
      </trkpt>
      <trkpt lat="44.88009" lon="-0.79005">
        <ele>34.799999237061</ele>
        <time>2016-11-01T16:44:07.000Z</time>
      </trkpt>
      <trkpt lat="44.87998" lon="-0.78996">
        <ele>34.400001525879</ele>
        <time>2016-11-01T16:44:03.000Z</time>
      </trkpt>
      <trkpt lat="44.87985" lon="-0.78986">
        <ele>33.799999237061</ele>
        <time>2016-11-01T16:43:58.000Z</time>
      </trkpt>
      <trkpt lat="44.87977" lon="-0.78971">
        <ele>33.200000762939</ele>
        <time>2016-11-01T16:43:54.000Z</time>
      </trkpt>
      <trkpt lat="44.87972" lon="-0.78959">
        <ele>33.200000762939</ele>
        <time>2016-11-01T16:43:50.000Z</time>
      </trkpt>
      <trkpt lat="44.87963" lon="-0.78943">
        <ele>33.400001525879</ele>
        <time>2016-11-01T16:43:43.000Z</time>
      </trkpt>
      <trkpt lat="44.8796" lon="-0.78928">
        <ele>33.599998474121</ele>
        <time>2016-11-01T16:43:39.000Z</time>
      </trkpt>
      <trkpt lat="44.87962" lon="-0.78926">
        <ele>33.599998474121</ele>
        <time>2016-11-01T16:43:38.000Z</time>
      </trkpt>
      <trkpt lat="44.8798" lon="-0.78906">
        <ele>33.799999237061</ele>
        <time>2016-11-01T16:43:30.000Z</time>
      </trkpt>
      <trkpt lat="44.87997" lon="-0.78884">
        <ele>33.799999237061</ele>
        <time>2016-11-01T16:43:23.000Z</time>
      </trkpt>
      <trkpt lat="44.88009" lon="-0.78877">
        <ele>33.599998474121</ele>
        <time>2016-11-01T16:43:18.000Z</time>
      </trkpt>
      <trkpt lat="44.88017" lon="-0.78889">
        <ele>34</ele>
        <time>2016-11-01T16:43:13.000Z</time>
      </trkpt>
      <trkpt lat="44.88028" lon="-0.789">
        <ele>33.799999237061</ele>
        <time>2016-11-01T16:43:09.000Z</time>
      </trkpt>
      <trkpt lat="44.88036" lon="-0.78919">
        <ele>34</ele>
        <time>2016-11-01T16:43:04.000Z</time>
      </trkpt>
      <trkpt lat="44.88044" lon="-0.78931">
        <ele>34</ele>
        <time>2016-11-01T16:43:01.000Z</time>
      </trkpt>
      <trkpt lat="44.88054" lon="-0.78948">
        <ele>33.799999237061</ele>
        <time>2016-11-01T16:42:57.000Z</time>
      </trkpt>
      <trkpt lat="44.8806" lon="-0.78951">
        <ele>33.799999237061</ele>
        <time>2016-11-01T16:42:55.000Z</time>
      </trkpt>
      <trkpt lat="44.88077" lon="-0.78948">
        <ele>33.400001525879</ele>
        <time>2016-11-01T16:42:49.000Z</time>
      </trkpt>
      <trkpt lat="44.88085" lon="-0.78949">
        <ele>33.200000762939</ele>
        <time>2016-11-01T16:42:45.000Z</time>
      </trkpt>
      <trkpt lat="44.88097" lon="-0.78949">
        <ele>33</ele>
        <time>2016-11-01T16:42:41.000Z</time>
      </trkpt>
      <trkpt lat="44.88108" lon="-0.7895">
        <ele>32.599998474121</ele>
        <time>2016-11-01T16:42:36.000Z</time>
      </trkpt>
      <trkpt lat="44.88121" lon="-0.78961">
        <ele>32.200000762939</ele>
        <time>2016-11-01T16:42:31.000Z</time>
      </trkpt>
      <trkpt lat="44.88124" lon="-0.78964">
        <ele>32.200000762939</ele>
        <time>2016-11-01T16:42:30.000Z</time>
      </trkpt>
      <trkpt lat="44.88138" lon="-0.78985">
        <ele>32.599998474121</ele>
        <time>2016-11-01T16:42:24.000Z</time>
      </trkpt>
      <trkpt lat="44.88151" lon="-0.78999">
        <ele>33</ele>
        <time>2016-11-01T16:42:19.000Z</time>
      </trkpt>
      <trkpt lat="44.88163" lon="-0.79011">
        <ele>33.400001525879</ele>
        <time>2016-11-01T16:42:14.000Z</time>
      </trkpt>
      <trkpt lat="44.8817" lon="-0.79025">
        <ele>33.599998474121</ele>
        <time>2016-11-01T16:42:09.000Z</time>
      </trkpt>
      <trkpt lat="44.88171" lon="-0.79026">
        <ele>33.599998474121</ele>
        <time>2016-11-01T16:42:08.000Z</time>
      </trkpt>
      <trkpt lat="44.88176" lon="-0.7903">
        <ele>33.799999237061</ele>
        <time>2016-11-01T16:42:05.000Z</time>
      </trkpt>
      <trkpt lat="44.88189" lon="-0.7903">
        <ele>34.400001525879</ele>
        <time>2016-11-01T16:42:01.000Z</time>
      </trkpt>
      <trkpt lat="44.88203" lon="-0.79038">
        <ele>35</ele>
        <time>2016-11-01T16:41:56.000Z</time>
      </trkpt>
      <trkpt lat="44.88219" lon="-0.79037">
        <ele>35</ele>
        <time>2016-11-01T16:41:52.000Z</time>
      </trkpt>
      <trkpt lat="44.88233" lon="-0.79045">
        <ele>35.200000762939</ele>
        <time>2016-11-01T16:41:47.000Z</time>
      </trkpt>
      <trkpt lat="44.88235" lon="-0.79048">
        <ele>35.200000762939</ele>
        <time>2016-11-01T16:41:46.000Z</time>
      </trkpt>
      <trkpt lat="44.88244" lon="-0.79064">
        <ele>35.599998474121</ele>
        <time>2016-11-01T16:41:42.000Z</time>
      </trkpt>
      <trkpt lat="44.88255" lon="-0.79077">
        <ele>36.200000762939</ele>
        <time>2016-11-01T16:41:37.000Z</time>
      </trkpt>
      <trkpt lat="44.88264" lon="-0.79091">
        <ele>36.400001525879</ele>
        <time>2016-11-01T16:41:33.000Z</time>
      </trkpt>
      <trkpt lat="44.88267" lon="-0.79117">
        <ele>36.200000762939</ele>
        <time>2016-11-01T16:41:28.000Z</time>
      </trkpt>
      <trkpt lat="44.88274" lon="-0.79143">
        <ele>36.200000762939</ele>
        <time>2016-11-01T16:41:23.000Z</time>
      </trkpt>
      <trkpt lat="44.88272" lon="-0.79165">
        <ele>35.799999237061</ele>
        <time>2016-11-01T16:41:19.000Z</time>
      </trkpt>
      <trkpt lat="44.88273" lon="-0.79176">
        <ele>35.799999237061</ele>
        <time>2016-11-01T16:41:17.000Z</time>
      </trkpt>
      <trkpt lat="44.88277" lon="-0.79202">
        <ele>35.400001525879</ele>
        <time>2016-11-01T16:41:12.000Z</time>
      </trkpt>
      <trkpt lat="44.88278" lon="-0.79227">
        <ele>35.200000762939</ele>
        <time>2016-11-01T16:41:07.000Z</time>
      </trkpt>
      <trkpt lat="44.88278" lon="-0.79261">
        <ele>35</ele>
        <time>2016-11-01T16:41:01.000Z</time>
      </trkpt>
      <trkpt lat="44.88279" lon="-0.79266">
        <ele>34.799999237061</ele>
        <time>2016-11-01T16:41:00.000Z</time>
      </trkpt>
      <trkpt lat="44.88278" lon="-0.79284">
        <ele>34.599998474121</ele>
        <time>2016-11-01T16:40:56.000Z</time>
      </trkpt>
      <trkpt lat="44.88271" lon="-0.793">
        <ele>34.799999237061</ele>
        <time>2016-11-01T16:40:52.000Z</time>
      </trkpt>
      <trkpt lat="44.8827" lon="-0.79309">
        <ele>34.599998474121</ele>
        <time>2016-11-01T16:40:49.000Z</time>
      </trkpt>
      <trkpt lat="44.88265" lon="-0.79321">
        <ele>34.400001525879</ele>
        <time>2016-11-01T16:40:46.000Z</time>
      </trkpt>
      <trkpt lat="44.88264" lon="-0.79343">
        <ele>33.799999237061</ele>
        <time>2016-11-01T16:40:42.000Z</time>
      </trkpt>
      <trkpt lat="44.88262" lon="-0.79356">
        <ele>33.400001525879</ele>
        <time>2016-11-01T16:40:40.000Z</time>
      </trkpt>
      <trkpt lat="44.88262" lon="-0.79378">
        <ele>32.599998474121</ele>
        <time>2016-11-01T16:40:36.000Z</time>
      </trkpt>
      <trkpt lat="44.88256" lon="-0.79401">
        <ele>32.799999237061</ele>
        <time>2016-11-01T16:40:31.000Z</time>
      </trkpt>
      <trkpt lat="44.88253" lon="-0.79428">
        <ele>33.200000762939</ele>
        <time>2016-11-01T16:40:26.000Z</time>
      </trkpt>
      <trkpt lat="44.88252" lon="-0.7945">
        <ele>33.599998474121</ele>
        <time>2016-11-01T16:40:22.000Z</time>
      </trkpt>
      <trkpt lat="44.88248" lon="-0.79462">
        <ele>33.799999237061</ele>
        <time>2016-11-01T16:40:19.000Z</time>
      </trkpt>
      <trkpt lat="44.88247" lon="-0.79473">
        <ele>34.200000762939</ele>
        <time>2016-11-01T16:40:15.000Z</time>
      </trkpt>
      <trkpt lat="44.8825" lon="-0.79483">
        <ele>34.400001525879</ele>
        <time>2016-11-01T16:40:12.000Z</time>
      </trkpt>
      <trkpt lat="44.88252" lon="-0.79512">
        <ele>35.799999237061</ele>
        <time>2016-11-01T16:40:05.000Z</time>
      </trkpt>
      <trkpt lat="44.88254" lon="-0.79517">
        <ele>36</ele>
        <time>2016-11-01T16:40:03.000Z</time>
      </trkpt>
      <trkpt lat="44.88257" lon="-0.79526">
        <ele>36.400001525879</ele>
        <time>2016-11-01T16:40:00.000Z</time>
      </trkpt>
      <trkpt lat="44.88258" lon="-0.79538">
        <ele>37.200000762939</ele>
        <time>2016-11-01T16:39:56.000Z</time>
      </trkpt>
      <trkpt lat="44.88257" lon="-0.79556">
        <ele>38.200000762939</ele>
        <time>2016-11-01T16:39:52.000Z</time>
      </trkpt>
      <trkpt lat="44.88258" lon="-0.79561">
        <ele>38.200000762939</ele>
        <time>2016-11-01T16:39:51.000Z</time>
      </trkpt>
      <trkpt lat="44.8827" lon="-0.79585">
        <ele>38.200000762939</ele>
        <time>2016-11-01T16:39:45.000Z</time>
      </trkpt>
      <trkpt lat="44.88272" lon="-0.79587">
        <ele>38.200000762939</ele>
        <time>2016-11-01T16:39:44.000Z</time>
      </trkpt>
      <trkpt lat="44.88282" lon="-0.79597">
        <ele>38.200000762939</ele>
        <time>2016-11-01T16:39:40.000Z</time>
      </trkpt>
      <trkpt lat="44.88293" lon="-0.79596">
        <ele>37.799999237061</ele>
        <time>2016-11-01T16:39:37.000Z</time>
      </trkpt>
      <trkpt lat="44.88301" lon="-0.79593">
        <ele>37.599998474121</ele>
        <time>2016-11-01T16:39:33.000Z</time>
      </trkpt>
      <trkpt lat="44.88305" lon="-0.79591">
        <ele>37.400001525879</ele>
        <time>2016-11-01T16:39:30.000Z</time>
      </trkpt>
      <trkpt lat="44.88311" lon="-0.79582">
        <ele>36.799999237061</ele>
        <time>2016-11-01T16:39:26.000Z</time>
      </trkpt>
      <trkpt lat="44.88306" lon="-0.79571">
        <ele>36.799999237061</ele>
        <time>2016-11-01T16:39:23.000Z</time>
      </trkpt>
      <trkpt lat="44.88305" lon="-0.79541">
        <ele>36.599998474121</ele>
        <time>2016-11-01T16:39:17.000Z</time>
      </trkpt>
      <trkpt lat="44.88305" lon="-0.79521">
        <ele>35.599998474121</ele>
        <time>2016-11-01T16:39:12.000Z</time>
      </trkpt>
      <trkpt lat="44.88308" lon="-0.79493">
        <ele>34</ele>
        <time>2016-11-01T16:39:05.000Z</time>
      </trkpt>
      <trkpt lat="44.88308" lon="-0.7949">
        <ele>33.799999237061</ele>
        <time>2016-11-01T16:39:04.000Z</time>
      </trkpt>
      <trkpt lat="44.88312" lon="-0.79463">
        <ele>32.799999237061</ele>
        <time>2016-11-01T16:38:58.000Z</time>
      </trkpt>
      <trkpt lat="44.88314" lon="-0.79432">
        <ele>32.599998474121</ele>
        <time>2016-11-01T16:38:51.000Z</time>
      </trkpt>
      <trkpt lat="44.88315" lon="-0.79414">
        <ele>32.599998474121</ele>
        <time>2016-11-01T16:38:46.000Z</time>
      </trkpt>
      <trkpt lat="44.88325" lon="-0.79415">
        <ele>33</ele>
        <time>2016-11-01T16:38:42.000Z</time>
      </trkpt>
      <trkpt lat="44.88334" lon="-0.7942">
        <ele>33.599998474121</ele>
        <time>2016-11-01T16:38:39.000Z</time>
      </trkpt>
      <trkpt lat="44.88356" lon="-0.7941">
        <ele>34.400001525879</ele>
        <time>2016-11-01T16:38:34.000Z</time>
      </trkpt>
      <trkpt lat="44.88363" lon="-0.79403">
        <ele>34.599998474121</ele>
        <time>2016-11-01T16:38:32.000Z</time>
      </trkpt>
      <trkpt lat="44.88374" lon="-0.79394">
        <ele>35</ele>
        <time>2016-11-01T16:38:29.000Z</time>
      </trkpt>
      <trkpt lat="44.88394" lon="-0.7937">
        <ele>35.200000762939</ele>
        <time>2016-11-01T16:38:24.000Z</time>
      </trkpt>
      <trkpt lat="44.88398" lon="-0.79366">
        <ele>35.400001525879</ele>
        <time>2016-11-01T16:38:23.000Z</time>
      </trkpt>
      <trkpt lat="44.88415" lon="-0.7936">
        <ele>35.599998474121</ele>
        <time>2016-11-01T16:38:19.000Z</time>
      </trkpt>
      <trkpt lat="44.88439" lon="-0.79346">
        <ele>36</ele>
        <time>2016-11-01T16:38:15.000Z</time>
      </trkpt>
      <trkpt lat="44.88468" lon="-0.79329">
        <ele>37.200000762939</ele>
        <time>2016-11-01T16:38:10.000Z</time>
      </trkpt>
      <trkpt lat="44.88497" lon="-0.79312">
        <ele>39</ele>
        <time>2016-11-01T16:38:04.000Z</time>
      </trkpt>
      <trkpt lat="44.88507" lon="-0.79307">
        <ele>39.599998474121</ele>
        <time>2016-11-01T16:38:02.000Z</time>
      </trkpt>
      <trkpt lat="44.88525" lon="-0.79294">
        <ele>40.799999237061</ele>
        <time>2016-11-01T16:37:58.000Z</time>
      </trkpt>
      <trkpt lat="44.88534" lon="-0.79288">
        <ele>41.400001525879</ele>
        <time>2016-11-01T16:37:56.000Z</time>
      </trkpt>
      <trkpt lat="44.88547" lon="-0.79269">
        <ele>41.599998474121</ele>
        <time>2016-11-01T16:37:52.000Z</time>
      </trkpt>
      <trkpt lat="44.88554" lon="-0.79241">
        <ele>41.400001525879</ele>
        <time>2016-11-01T16:37:48.000Z</time>
      </trkpt>
      <trkpt lat="44.88564" lon="-0.79189">
        <ele>40</ele>
        <time>2016-11-01T16:37:41.000Z</time>
      </trkpt>
      <trkpt lat="44.88566" lon="-0.79183">
        <ele>39.799999237061</ele>
        <time>2016-11-01T16:37:40.000Z</time>
      </trkpt>
      <trkpt lat="44.88579" lon="-0.79123">
        <ele>38.400001525879</ele>
        <time>2016-11-01T16:37:32.000Z</time>
      </trkpt>
      <trkpt lat="44.88587" lon="-0.79075">
        <ele>37.799999237061</ele>
        <time>2016-11-01T16:37:26.000Z</time>
      </trkpt>
      <trkpt lat="44.88599" lon="-0.7902">
        <ele>39.599998474121</ele>
        <time>2016-11-01T16:37:19.000Z</time>
      </trkpt>
      <trkpt lat="44.88603" lon="-0.78999">
        <ele>40.799999237061</ele>
        <time>2016-11-01T16:37:16.000Z</time>
      </trkpt>
      <trkpt lat="44.88612" lon="-0.78957">
        <ele>42</ele>
        <time>2016-11-01T16:37:10.000Z</time>
      </trkpt>
      <trkpt lat="44.88623" lon="-0.78902">
        <ele>42.799999237061</ele>
        <time>2016-11-01T16:37:02.000Z</time>
      </trkpt>
      <trkpt lat="44.88635" lon="-0.78839">
        <ele>42.599998474121</ele>
        <time>2016-11-01T16:36:53.000Z</time>
      </trkpt>
      <trkpt lat="44.88642" lon="-0.78801">
        <ele>42.599998474121</ele>
        <time>2016-11-01T16:36:48.000Z</time>
      </trkpt>
      <trkpt lat="44.88655" lon="-0.7873">
        <ele>42.799999237061</ele>
        <time>2016-11-01T16:36:39.000Z</time>
      </trkpt>
      <trkpt lat="44.88659" lon="-0.787">
        <ele>43.400001525879</ele>
        <time>2016-11-01T16:36:35.000Z</time>
      </trkpt>
      <trkpt lat="44.88666" lon="-0.78658">
        <ele>43.799999237061</ele>
        <time>2016-11-01T16:36:29.000Z</time>
      </trkpt>
      <trkpt lat="44.88674" lon="-0.78619">
        <ele>43.799999237061</ele>
        <time>2016-11-01T16:36:23.000Z</time>
      </trkpt>
      <trkpt lat="44.88679" lon="-0.7859">
        <ele>44.200000762939</ele>
        <time>2016-11-01T16:36:18.000Z</time>
      </trkpt>
      <trkpt lat="44.88686" lon="-0.78551">
        <ele>44.400001525879</ele>
        <time>2016-11-01T16:36:12.000Z</time>
      </trkpt>
      <trkpt lat="44.88695" lon="-0.78501">
        <ele>43.400001525879</ele>
        <time>2016-11-01T16:36:05.000Z</time>
      </trkpt>
      <trkpt lat="44.88706" lon="-0.78445">
        <ele>42.400001525879</ele>
        <time>2016-11-01T16:35:57.000Z</time>
      </trkpt>
      <trkpt lat="44.88717" lon="-0.78393">
        <ele>41.200000762939</ele>
        <time>2016-11-01T16:35:49.000Z</time>
      </trkpt>
      <trkpt lat="44.88724" lon="-0.78344">
        <ele>40.799999237061</ele>
        <time>2016-11-01T16:35:42.000Z</time>
      </trkpt>
      <trkpt lat="44.88724" lon="-0.78338">
        <ele>40.599998474121</ele>
        <time>2016-11-01T16:35:41.000Z</time>
      </trkpt>
      <trkpt lat="44.88739" lon="-0.78312">
        <ele>40.799999237061</ele>
        <time>2016-11-01T16:35:36.000Z</time>
      </trkpt>
      <trkpt lat="44.88761" lon="-0.78299">
        <ele>41.599998474121</ele>
        <time>2016-11-01T16:35:31.000Z</time>
      </trkpt>
      <trkpt lat="44.8879" lon="-0.78276">
        <ele>43.400001525879</ele>
        <time>2016-11-01T16:35:25.000Z</time>
      </trkpt>
      <trkpt lat="44.88831" lon="-0.78249">
        <ele>43.200000762939</ele>
        <time>2016-11-01T16:35:17.000Z</time>
      </trkpt>
      <trkpt lat="44.88874" lon="-0.78218">
        <ele>43</ele>
        <time>2016-11-01T16:35:07.000Z</time>
      </trkpt>
      <trkpt lat="44.88883" lon="-0.78204">
        <ele>42.799999237061</ele>
        <time>2016-11-01T16:35:04.000Z</time>
      </trkpt>
      <trkpt lat="44.88892" lon="-0.78181">
        <ele>42.799999237061</ele>
        <time>2016-11-01T16:35:00.000Z</time>
      </trkpt>
      <trkpt lat="44.88904" lon="-0.78171">
        <ele>42.599998474121</ele>
        <time>2016-11-01T16:34:57.000Z</time>
      </trkpt>
      <trkpt lat="44.88925" lon="-0.78154">
        <ele>42.400001525879</ele>
        <time>2016-11-01T16:34:52.000Z</time>
      </trkpt>
      <trkpt lat="44.88939" lon="-0.78124">
        <ele>41.799999237061</ele>
        <time>2016-11-01T16:34:47.000Z</time>
      </trkpt>
      <trkpt lat="44.88953" lon="-0.78106">
        <ele>41.200000762939</ele>
        <time>2016-11-01T16:34:43.000Z</time>
      </trkpt>
      <trkpt lat="44.88966" lon="-0.78099">
        <ele>41.200000762939</ele>
        <time>2016-11-01T16:34:40.000Z</time>
      </trkpt>
      <trkpt lat="44.88979" lon="-0.78097">
        <ele>41.200000762939</ele>
        <time>2016-11-01T16:34:37.000Z</time>
      </trkpt>
      <trkpt lat="44.88993" lon="-0.7809">
        <ele>41.200000762939</ele>
        <time>2016-11-01T16:34:34.000Z</time>
      </trkpt>
      <trkpt lat="44.89005" lon="-0.78072">
        <ele>41</ele>
        <time>2016-11-01T16:34:30.000Z</time>
      </trkpt>
      <trkpt lat="44.89014" lon="-0.78051">
        <ele>40.599998474121</ele>
        <time>2016-11-01T16:34:26.000Z</time>
      </trkpt>
      <trkpt lat="44.89027" lon="-0.78037">
        <ele>40.799999237061</ele>
        <time>2016-11-01T16:34:23.000Z</time>
      </trkpt>
      <trkpt lat="44.89031" lon="-0.78025">
        <ele>40.799999237061</ele>
        <time>2016-11-01T16:34:19.000Z</time>
      </trkpt>
      <trkpt lat="44.89028" lon="-0.77994">
        <ele>40.799999237061</ele>
        <time>2016-11-01T16:34:14.000Z</time>
      </trkpt>
      <trkpt lat="44.8903" lon="-0.77957">
        <ele>41.200000762939</ele>
        <time>2016-11-01T16:34:08.000Z</time>
      </trkpt>
      <trkpt lat="44.89033" lon="-0.77945">
        <ele>41.599998474121</ele>
        <time>2016-11-01T16:34:06.000Z</time>
      </trkpt>
      <trkpt lat="44.8904" lon="-0.7792">
        <ele>42.200000762939</ele>
        <time>2016-11-01T16:34:02.000Z</time>
      </trkpt>
      <trkpt lat="44.89044" lon="-0.77905">
        <ele>42.599998474121</ele>
        <time>2016-11-01T16:33:59.000Z</time>
      </trkpt>
      <trkpt lat="44.89045" lon="-0.77892">
        <ele>42.799999237061</ele>
        <time>2016-11-01T16:33:57.000Z</time>
      </trkpt>
      <trkpt lat="44.89049" lon="-0.77879">
        <ele>43.200000762939</ele>
        <time>2016-11-01T16:33:54.000Z</time>
      </trkpt>
      <trkpt lat="44.89053" lon="-0.77857">
        <ele>43.400001525879</ele>
        <time>2016-11-01T16:33:51.000Z</time>
      </trkpt>
      <trkpt lat="44.89059" lon="-0.7782">
        <ele>43.400001525879</ele>
        <time>2016-11-01T16:33:46.000Z</time>
      </trkpt>
      <trkpt lat="44.89065" lon="-0.77808">
        <ele>43.599998474121</ele>
        <time>2016-11-01T16:33:44.000Z</time>
      </trkpt>
      <trkpt lat="44.89071" lon="-0.77789">
        <ele>43.200000762939</ele>
        <time>2016-11-01T16:33:41.000Z</time>
      </trkpt>
      <trkpt lat="44.89075" lon="-0.77761">
        <ele>42.400001525879</ele>
        <time>2016-11-01T16:33:36.000Z</time>
      </trkpt>
      <trkpt lat="44.8908" lon="-0.77741">
        <ele>42.200000762939</ele>
        <time>2016-11-01T16:33:32.000Z</time>
      </trkpt>
      <trkpt lat="44.89075" lon="-0.77726">
        <ele>42</ele>
        <time>2016-11-01T16:33:29.000Z</time>
      </trkpt>
      <trkpt lat="44.89074" lon="-0.7772">
        <ele>42</ele>
        <time>2016-11-01T16:33:28.000Z</time>
      </trkpt>
      <trkpt lat="44.89077" lon="-0.77707">
        <ele>42</ele>
        <time>2016-11-01T16:33:25.000Z</time>
      </trkpt>
      <trkpt lat="44.89069" lon="-0.7769">
        <ele>42</ele>
        <time>2016-11-01T16:33:21.000Z</time>
      </trkpt>
      <trkpt lat="44.89064" lon="-0.77668">
        <ele>42.400001525879</ele>
        <time>2016-11-01T16:33:17.000Z</time>
      </trkpt>
      <trkpt lat="44.89067" lon="-0.77657">
        <ele>42.400001525879</ele>
        <time>2016-11-01T16:33:14.000Z</time>
      </trkpt>
      <trkpt lat="44.89082" lon="-0.77656">
        <ele>42.200000762939</ele>
        <time>2016-11-01T16:33:10.000Z</time>
      </trkpt>
      <trkpt lat="44.8909" lon="-0.77644">
        <ele>42.400001525879</ele>
        <time>2016-11-01T16:33:07.000Z</time>
      </trkpt>
      <trkpt lat="44.89098" lon="-0.77635">
        <ele>42.200000762939</ele>
        <time>2016-11-01T16:33:04.000Z</time>
      </trkpt>
      <trkpt lat="44.89106" lon="-0.77621">
        <ele>42</ele>
        <time>2016-11-01T16:33:01.000Z</time>
      </trkpt>
      <trkpt lat="44.89118" lon="-0.77604">
        <ele>41.599998474121</ele>
        <time>2016-11-01T16:32:57.000Z</time>
      </trkpt>
      <trkpt lat="44.89118" lon="-0.7759">
        <ele>41.400001525879</ele>
        <time>2016-11-01T16:32:55.000Z</time>
      </trkpt>
      <trkpt lat="44.8912" lon="-0.77578">
        <ele>41.400001525879</ele>
        <time>2016-11-01T16:32:53.000Z</time>
      </trkpt>
      <trkpt lat="44.89121" lon="-0.77565">
        <ele>41.200000762939</ele>
        <time>2016-11-01T16:32:50.000Z</time>
      </trkpt>
      <trkpt lat="44.89125" lon="-0.77551">
        <ele>41</ele>
        <time>2016-11-01T16:32:47.000Z</time>
      </trkpt>
      <trkpt lat="44.89123" lon="-0.77524">
        <ele>40.599998474121</ele>
        <time>2016-11-01T16:32:42.000Z</time>
      </trkpt>
      <trkpt lat="44.89127" lon="-0.77509">
        <ele>40.599998474121</ele>
        <time>2016-11-01T16:32:39.000Z</time>
      </trkpt>
      <trkpt lat="44.89129" lon="-0.77499">
        <ele>40.400001525879</ele>
        <time>2016-11-01T16:32:37.000Z</time>
      </trkpt>
      <trkpt lat="44.89125" lon="-0.77481">
        <ele>40.200000762939</ele>
        <time>2016-11-01T16:32:33.000Z</time>
      </trkpt>
      <trkpt lat="44.89127" lon="-0.77465">
        <ele>40</ele>
        <time>2016-11-01T16:32:28.000Z</time>
      </trkpt>
      <trkpt lat="44.89132" lon="-0.77458">
        <ele>40.200000762939</ele>
        <time>2016-11-01T16:32:26.000Z</time>
      </trkpt>
      <trkpt lat="44.89121" lon="-0.77444">
        <ele>39.599998474121</ele>
        <time>2016-11-01T16:32:22.000Z</time>
      </trkpt>
      <trkpt lat="44.89088" lon="-0.77435">
        <ele>39.200000762939</ele>
        <time>2016-11-01T16:32:16.000Z</time>
      </trkpt>
      <trkpt lat="44.89049" lon="-0.77419">
        <ele>40.599998474121</ele>
        <time>2016-11-01T16:32:09.000Z</time>
      </trkpt>
      <trkpt lat="44.89028" lon="-0.77402">
        <ele>41.400001525879</ele>
        <time>2016-11-01T16:32:05.000Z</time>
      </trkpt>
      <trkpt lat="44.89017" lon="-0.7739">
        <ele>40.799999237061</ele>
        <time>2016-11-01T16:32:02.000Z</time>
      </trkpt>
      <trkpt lat="44.89" lon="-0.77373">
        <ele>40</ele>
        <time>2016-11-01T16:31:58.000Z</time>
      </trkpt>
      <trkpt lat="44.8898" lon="-0.7735">
        <ele>39.400001525879</ele>
        <time>2016-11-01T16:31:52.000Z</time>
      </trkpt>
      <trkpt lat="44.88973" lon="-0.77342">
        <ele>39.599998474121</ele>
        <time>2016-11-01T16:31:50.000Z</time>
      </trkpt>
      <trkpt lat="44.88941" lon="-0.77319">
        <ele>40.599998474121</ele>
        <time>2016-11-01T16:31:44.000Z</time>
      </trkpt>
      <trkpt lat="44.88914" lon="-0.77299">
        <ele>41</ele>
        <time>2016-11-01T16:31:38.000Z</time>
      </trkpt>
      <trkpt lat="44.88893" lon="-0.77284">
        <ele>41</ele>
        <time>2016-11-01T16:31:34.000Z</time>
      </trkpt>
      <trkpt lat="44.88874" lon="-0.77264">
        <ele>43</ele>
        <time>2016-11-01T16:31:29.000Z</time>
      </trkpt>
      <trkpt lat="44.88864" lon="-0.77253">
        <ele>43.599998474121</ele>
        <time>2016-11-01T16:31:26.000Z</time>
      </trkpt>
      <trkpt lat="44.88852" lon="-0.77237">
        <ele>44.400001525879</ele>
        <time>2016-11-01T16:31:22.000Z</time>
      </trkpt>
      <trkpt lat="44.88841" lon="-0.77219">
        <ele>44.200000762939</ele>
        <time>2016-11-01T16:31:18.000Z</time>
      </trkpt>
      <trkpt lat="44.88836" lon="-0.77199">
        <ele>43.799999237061</ele>
        <time>2016-11-01T16:31:14.000Z</time>
      </trkpt>
      <trkpt lat="44.8884" lon="-0.7718">
        <ele>43.799999237061</ele>
        <time>2016-11-01T16:31:11.000Z</time>
      </trkpt>
      <trkpt lat="44.88839" lon="-0.77169">
        <ele>43.599998474121</ele>
        <time>2016-11-01T16:31:09.000Z</time>
      </trkpt>
      <trkpt lat="44.8884" lon="-0.77142">
        <ele>44</ele>
        <time>2016-11-01T16:31:04.000Z</time>
      </trkpt>
      <trkpt lat="44.88842" lon="-0.7713">
        <ele>44</ele>
        <time>2016-11-01T16:31:02.000Z</time>
      </trkpt>
      <trkpt lat="44.88843" lon="-0.77117">
        <ele>43.799999237061</ele>
        <time>2016-11-01T16:30:59.000Z</time>
      </trkpt>
      <trkpt lat="44.88843" lon="-0.77096">
        <ele>43.400001525879</ele>
        <time>2016-11-01T16:30:55.000Z</time>
      </trkpt>
      <trkpt lat="44.88843" lon="-0.77091">
        <ele>43.400001525879</ele>
        <time>2016-11-01T16:30:54.000Z</time>
      </trkpt>
      <trkpt lat="44.8884" lon="-0.77068">
        <ele>43</ele>
        <time>2016-11-01T16:30:49.000Z</time>
      </trkpt>
      <trkpt lat="44.8884" lon="-0.77065">
        <ele>42.799999237061</ele>
        <time>2016-11-01T16:30:48.000Z</time>
      </trkpt>
      <trkpt lat="44.88835" lon="-0.77061">
        <ele>42.599998474121</ele>
        <time>2016-11-01T16:30:44.000Z</time>
      </trkpt>
      <trkpt lat="44.8883" lon="-0.77054">
        <ele>42.400001525879</ele>
        <time>2016-11-01T16:30:41.000Z</time>
      </trkpt>
      <trkpt lat="44.88833" lon="-0.77034">
        <ele>42</ele>
        <time>2016-11-01T16:30:37.000Z</time>
      </trkpt>
      <trkpt lat="44.88817" lon="-0.77015">
        <ele>41</ele>
        <time>2016-11-01T16:30:32.000Z</time>
      </trkpt>
      <trkpt lat="44.88813" lon="-0.77011">
        <ele>40.799999237061</ele>
        <time>2016-11-01T16:30:31.000Z</time>
      </trkpt>
      <trkpt lat="44.88797" lon="-0.76995">
        <ele>39.400001525879</ele>
        <time>2016-11-01T16:30:27.000Z</time>
      </trkpt>
      <trkpt lat="44.88782" lon="-0.7699">
        <ele>38.400001525879</ele>
        <time>2016-11-01T16:30:24.000Z</time>
      </trkpt>
      <trkpt lat="44.88762" lon="-0.76994">
        <ele>37.799999237061</ele>
        <time>2016-11-01T16:30:20.000Z</time>
      </trkpt>
      <trkpt lat="44.88743" lon="-0.76993">
        <ele>37.799999237061</ele>
        <time>2016-11-01T16:30:16.000Z</time>
      </trkpt>
      <trkpt lat="44.88734" lon="-0.76991">
        <ele>37.799999237061</ele>
        <time>2016-11-01T16:30:14.000Z</time>
      </trkpt>
      <trkpt lat="44.88717" lon="-0.76981">
        <ele>37.799999237061</ele>
        <time>2016-11-01T16:30:10.000Z</time>
      </trkpt>
      <trkpt lat="44.88701" lon="-0.76965">
        <ele>37.799999237061</ele>
        <time>2016-11-01T16:30:06.000Z</time>
      </trkpt>
      <trkpt lat="44.88696" lon="-0.76945">
        <ele>38.200000762939</ele>
        <time>2016-11-01T16:30:03.000Z</time>
      </trkpt>
      <trkpt lat="44.88687" lon="-0.7693">
        <ele>38</ele>
        <time>2016-11-01T16:30:00.000Z</time>
      </trkpt>
      <trkpt lat="44.88675" lon="-0.76903">
        <ele>38</ele>
        <time>2016-11-01T16:29:53.000Z</time>
      </trkpt>
      <trkpt lat="44.88673" lon="-0.76898">
        <ele>37.799999237061</ele>
        <time>2016-11-01T16:29:52.000Z</time>
      </trkpt>
      <trkpt lat="44.88663" lon="-0.76888">
        <ele>37.400001525879</ele>
        <time>2016-11-01T16:29:49.000Z</time>
      </trkpt>
      <trkpt lat="44.88651" lon="-0.76885">
        <ele>36.599998474121</ele>
        <time>2016-11-01T16:29:45.000Z</time>
      </trkpt>
      <trkpt lat="44.88648" lon="-0.76881">
        <ele>36.400001525879</ele>
        <time>2016-11-01T16:29:44.000Z</time>
      </trkpt>
      <trkpt lat="44.88637" lon="-0.76868">
        <ele>35.799999237061</ele>
        <time>2016-11-01T16:29:40.000Z</time>
      </trkpt>
      <trkpt lat="44.88627" lon="-0.7686">
        <ele>35.799999237061</ele>
        <time>2016-11-01T16:29:36.000Z</time>
      </trkpt>
      <trkpt lat="44.88619" lon="-0.76848">
        <ele>36</ele>
        <time>2016-11-01T16:29:32.000Z</time>
      </trkpt>
      <trkpt lat="44.88616" lon="-0.7684">
        <ele>36.200000762939</ele>
        <time>2016-11-01T16:29:30.000Z</time>
      </trkpt>
      <trkpt lat="44.88611" lon="-0.7683">
        <ele>36.599998474121</ele>
        <time>2016-11-01T16:29:28.000Z</time>
      </trkpt>
      <trkpt lat="44.88602" lon="-0.76809">
        <ele>36.599998474121</ele>
        <time>2016-11-01T16:29:24.000Z</time>
      </trkpt>
      <trkpt lat="44.88592" lon="-0.76793">
        <ele>36</ele>
        <time>2016-11-01T16:29:20.000Z</time>
      </trkpt>
      <trkpt lat="44.88583" lon="-0.7677">
        <ele>35.200000762939</ele>
        <time>2016-11-01T16:29:16.000Z</time>
      </trkpt>
      <trkpt lat="44.88574" lon="-0.76757">
        <ele>34.599998474121</ele>
        <time>2016-11-01T16:29:13.000Z</time>
      </trkpt>
      <trkpt lat="44.88572" lon="-0.76745">
        <ele>34</ele>
        <time>2016-11-01T16:29:11.000Z</time>
      </trkpt>
      <trkpt lat="44.88564" lon="-0.76718">
        <ele>32.799999237061</ele>
        <time>2016-11-01T16:29:06.000Z</time>
      </trkpt>
      <trkpt lat="44.88561" lon="-0.76713">
        <ele>32.599998474121</ele>
        <time>2016-11-01T16:29:05.000Z</time>
      </trkpt>
      <trkpt lat="44.88552" lon="-0.76698">
        <ele>32.400001525879</ele>
        <time>2016-11-01T16:29:02.000Z</time>
      </trkpt>
      <trkpt lat="44.88535" lon="-0.76686">
        <ele>32.799999237061</ele>
        <time>2016-11-01T16:28:58.000Z</time>
      </trkpt>
      <trkpt lat="44.88532" lon="-0.76674">
        <ele>33.200000762939</ele>
        <time>2016-11-01T16:28:56.000Z</time>
      </trkpt>
      <trkpt lat="44.88532" lon="-0.76654">
        <ele>33.799999237061</ele>
        <time>2016-11-01T16:28:53.000Z</time>
      </trkpt>
      <trkpt lat="44.88532" lon="-0.7664">
        <ele>34.200000762939</ele>
        <time>2016-11-01T16:28:51.000Z</time>
      </trkpt>
      <trkpt lat="44.88537" lon="-0.76623">
        <ele>34</ele>
        <time>2016-11-01T16:28:48.000Z</time>
      </trkpt>
      <trkpt lat="44.88544" lon="-0.76608">
        <ele>34</ele>
        <time>2016-11-01T16:28:45.000Z</time>
      </trkpt>
      <trkpt lat="44.88541" lon="-0.76587">
        <ele>34</ele>
        <time>2016-11-01T16:28:41.000Z</time>
      </trkpt>
      <trkpt lat="44.88541" lon="-0.76583">
        <ele>34</ele>
        <time>2016-11-01T16:28:40.000Z</time>
      </trkpt>
      <trkpt lat="44.88543" lon="-0.76564">
        <ele>34</ele>
        <time>2016-11-01T16:28:36.000Z</time>
      </trkpt>
      <trkpt lat="44.88559" lon="-0.76552">
        <ele>34</ele>
        <time>2016-11-01T16:28:31.000Z</time>
      </trkpt>
      <trkpt lat="44.88563" lon="-0.76549">
        <ele>33.799999237061</ele>
        <time>2016-11-01T16:28:30.000Z</time>
      </trkpt>
      <trkpt lat="44.88573" lon="-0.76536">
        <ele>33.599998474121</ele>
        <time>2016-11-01T16:28:26.000Z</time>
      </trkpt>
      <trkpt lat="44.88572" lon="-0.76518">
        <ele>33.200000762939</ele>
        <time>2016-11-01T16:28:23.000Z</time>
      </trkpt>
      <trkpt lat="44.88573" lon="-0.76513">
        <ele>33</ele>
        <time>2016-11-01T16:28:22.000Z</time>
      </trkpt>
      <trkpt lat="44.88561" lon="-0.76493">
        <ele>32.599998474121</ele>
        <time>2016-11-01T16:28:16.000Z</time>
      </trkpt>
      <trkpt lat="44.88558" lon="-0.76487">
        <ele>32.400001525879</ele>
        <time>2016-11-01T16:28:14.000Z</time>
      </trkpt>
      <trkpt lat="44.88547" lon="-0.76488">
        <ele>32.400001525879</ele>
        <time>2016-11-01T16:28:10.000Z</time>
      </trkpt>
      <trkpt lat="44.88541" lon="-0.76496">
        <ele>32.599998474121</ele>
        <time>2016-11-01T16:28:07.000Z</time>
      </trkpt>
      <trkpt lat="44.8853" lon="-0.76497">
        <ele>32.599998474121</ele>
        <time>2016-11-01T16:28:03.000Z</time>
      </trkpt>
      <trkpt lat="44.88523" lon="-0.76489">
        <ele>32.400001525879</ele>
        <time>2016-11-01T16:28:01.000Z</time>
      </trkpt>
      <trkpt lat="44.8852" lon="-0.76484">
        <ele>32.400001525879</ele>
        <time>2016-11-01T16:28:00.000Z</time>
      </trkpt>
      <trkpt lat="44.88511" lon="-0.76471">
        <ele>32.400001525879</ele>
        <time>2016-11-01T16:27:57.000Z</time>
      </trkpt>
      <trkpt lat="44.88505" lon="-0.76447">
        <ele>33</ele>
        <time>2016-11-01T16:27:52.000Z</time>
      </trkpt>
      <trkpt lat="44.88499" lon="-0.7644">
        <ele>33.200000762939</ele>
        <time>2016-11-01T16:27:49.000Z</time>
      </trkpt>
      <trkpt lat="44.88486" lon="-0.76433">
        <ele>33.599998474121</ele>
        <time>2016-11-01T16:27:44.000Z</time>
      </trkpt>
      <trkpt lat="44.88483" lon="-0.76436">
        <ele>33.599998474121</ele>
        <time>2016-11-01T16:27:41.000Z</time>
      </trkpt>
      <trkpt lat="44.88478" lon="-0.76447">
        <ele>33.400001525879</ele>
        <time>2016-11-01T16:27:37.000Z</time>
      </trkpt>
      <trkpt lat="44.88478" lon="-0.7646">
        <ele>33</ele>
        <time>2016-11-01T16:27:31.000Z</time>
      </trkpt>
      <trkpt lat="44.88478" lon="-0.76468">
        <ele>32.799999237061</ele>
        <time>2016-11-01T16:27:28.000Z</time>
      </trkpt>
      <trkpt lat="44.88483" lon="-0.76471">
        <ele>32.599998474121</ele>
        <time>2016-11-01T16:27:24.000Z</time>
      </trkpt>
      <trkpt lat="44.88492" lon="-0.76476">
        <ele>32.599998474121</ele>
        <time>2016-11-01T16:27:20.000Z</time>
      </trkpt>
      <trkpt lat="44.88505" lon="-0.76479">
        <ele>32.599998474121</ele>
        <time>2016-11-01T16:27:15.000Z</time>
      </trkpt>
      <trkpt lat="44.88507" lon="-0.76479">
        <ele>32.400001525879</ele>
        <time>2016-11-01T16:27:14.000Z</time>
      </trkpt>
      <trkpt lat="44.88514" lon="-0.76491">
        <ele>32.599998474121</ele>
        <time>2016-11-01T16:27:10.000Z</time>
      </trkpt>
      <trkpt lat="44.88519" lon="-0.76501">
        <ele>32.799999237061</ele>
        <time>2016-11-01T16:27:07.000Z</time>
      </trkpt>
      <trkpt lat="44.88514" lon="-0.765">
        <ele>32.799999237061</ele>
        <time>2016-11-01T16:27:02.000Z</time>
      </trkpt>
      <trkpt lat="44.88513" lon="-0.76498">
        <ele>32.599998474121</ele>
        <time>2016-11-01T16:27:01.000Z</time>
      </trkpt>
      <trkpt lat="44.88508" lon="-0.76497">
        <ele>32.599998474121</ele>
        <time>2016-11-01T16:26:58.000Z</time>
      </trkpt>
      <trkpt lat="44.88503" lon="-0.76503">
        <ele>32.799999237061</ele>
        <time>2016-11-01T16:26:55.000Z</time>
      </trkpt>
      <trkpt lat="44.88496" lon="-0.76503">
        <ele>33</ele>
        <time>2016-11-01T16:26:52.000Z</time>
      </trkpt>
      <trkpt lat="44.8849" lon="-0.76505">
        <ele>33</ele>
        <time>2016-11-01T16:26:49.000Z</time>
      </trkpt>
      <trkpt lat="44.8849" lon="-0.76514">
        <ele>33.200000762939</ele>
        <time>2016-11-01T16:26:45.000Z</time>
      </trkpt>
      <trkpt lat="44.88495" lon="-0.76516">
        <ele>33</ele>
        <time>2016-11-01T16:26:41.000Z</time>
      </trkpt>
      <trkpt lat="44.885" lon="-0.76514">
        <ele>33</ele>
        <time>2016-11-01T16:26:38.000Z</time>
      </trkpt>
      <trkpt lat="44.88509" lon="-0.76511">
        <ele>33</ele>
        <time>2016-11-01T16:26:34.000Z</time>
      </trkpt>
      <trkpt lat="44.88519" lon="-0.76517">
        <ele>33</ele>
        <time>2016-11-01T16:26:30.000Z</time>
      </trkpt>
      <trkpt lat="44.88525" lon="-0.76518">
        <ele>33.200000762939</ele>
        <time>2016-11-01T16:26:27.000Z</time>
      </trkpt>
      <trkpt lat="44.88532" lon="-0.76514">
        <ele>33</ele>
        <time>2016-11-01T16:26:23.000Z</time>
      </trkpt>
      <trkpt lat="44.88537" lon="-0.76517">
        <ele>33.200000762939</ele>
        <time>2016-11-01T16:26:20.000Z</time>
      </trkpt>
      <trkpt lat="44.88539" lon="-0.76523">
        <ele>33.200000762939</ele>
        <time>2016-11-01T16:26:17.000Z</time>
      </trkpt>
      <trkpt lat="44.88533" lon="-0.76528">
        <ele>33.400001525879</ele>
        <time>2016-11-01T16:26:14.000Z</time>
      </trkpt>
      <trkpt lat="44.88526" lon="-0.76532">
        <ele>33.400001525879</ele>
        <time>2016-11-01T16:26:11.000Z</time>
      </trkpt>
      <trkpt lat="44.88517" lon="-0.76536">
        <ele>33.599998474121</ele>
        <time>2016-11-01T16:26:07.000Z</time>
      </trkpt>
      <trkpt lat="44.88511" lon="-0.76531">
        <ele>33.400001525879</ele>
        <time>2016-11-01T16:26:04.000Z</time>
      </trkpt>
      <trkpt lat="44.88505" lon="-0.76529">
        <ele>33.400001525879</ele>
        <time>2016-11-01T16:26:00.000Z</time>
      </trkpt>
      <trkpt lat="44.88492" lon="-0.76552">
        <ele>34</ele>
        <time>2016-11-01T16:25:54.000Z</time>
      </trkpt>
      <trkpt lat="44.88491" lon="-0.7656">
        <ele>34.200000762939</ele>
        <time>2016-11-01T16:25:51.000Z</time>
      </trkpt>
      <trkpt lat="44.88497" lon="-0.7656">
        <ele>34.200000762939</ele>
        <time>2016-11-01T16:25:47.000Z</time>
      </trkpt>
      <trkpt lat="44.88499" lon="-0.76553">
        <ele>34</ele>
        <time>2016-11-01T16:25:44.000Z</time>
      </trkpt>
      <trkpt lat="44.88501" lon="-0.76552">
        <ele>34</ele>
        <time>2016-11-01T16:25:43.000Z</time>
      </trkpt>
      <trkpt lat="44.88517" lon="-0.76559">
        <ele>34.200000762939</ele>
        <time>2016-11-01T16:25:38.000Z</time>
      </trkpt>
      <trkpt lat="44.88521" lon="-0.76568">
        <ele>34.400001525879</ele>
        <time>2016-11-01T16:25:36.000Z</time>
      </trkpt>
      <trkpt lat="44.88522" lon="-0.76573">
        <ele>34.400001525879</ele>
        <time>2016-11-01T16:25:34.000Z</time>
      </trkpt>
      <trkpt lat="44.88521" lon="-0.7658">
        <ele>34.400001525879</ele>
        <time>2016-11-01T16:25:31.000Z</time>
      </trkpt>
      <trkpt lat="44.88518" lon="-0.76587">
        <ele>34.599998474121</ele>
        <time>2016-11-01T16:25:25.000Z</time>
      </trkpt>
      <trkpt lat="44.88516" lon="-0.7659">
        <ele>34.599998474121</ele>
        <time>2016-11-01T16:25:23.000Z</time>
      </trkpt>
      <trkpt lat="44.88518" lon="-0.76599">
        <ele>34.599998474121</ele>
        <time>2016-11-01T16:25:19.000Z</time>
      </trkpt>
      <trkpt lat="44.88519" lon="-0.76608">
        <ele>34.400001525879</ele>
        <time>2016-11-01T16:25:16.000Z</time>
      </trkpt>
      <trkpt lat="44.88517" lon="-0.76617">
        <ele>34.599998474121</ele>
        <time>2016-11-01T16:25:13.000Z</time>
      </trkpt>
      <trkpt lat="44.8851" lon="-0.76624">
        <ele>34.799999237061</ele>
        <time>2016-11-01T16:25:09.000Z</time>
      </trkpt>
      <trkpt lat="44.88505" lon="-0.76619">
        <ele>34.799999237061</ele>
        <time>2016-11-01T16:25:06.000Z</time>
      </trkpt>
      <trkpt lat="44.885" lon="-0.76607">
        <ele>35</ele>
        <time>2016-11-01T16:25:02.000Z</time>
      </trkpt>
      <trkpt lat="44.88497" lon="-0.76593">
        <ele>35</ele>
        <time>2016-11-01T16:24:59.000Z</time>
      </trkpt>
      <trkpt lat="44.88495" lon="-0.76585">
        <ele>34.799999237061</ele>
        <time>2016-11-01T16:24:57.000Z</time>
      </trkpt>
      <trkpt lat="44.88486" lon="-0.76581">
        <ele>34.599998474121</ele>
        <time>2016-11-01T16:24:53.000Z</time>
      </trkpt>
      <trkpt lat="44.88483" lon="-0.76578">
        <ele>34.599998474121</ele>
        <time>2016-11-01T16:24:52.000Z</time>
      </trkpt>
      <trkpt lat="44.88474" lon="-0.76554">
        <ele>34</ele>
        <time>2016-11-01T16:24:47.000Z</time>
      </trkpt>
      <trkpt lat="44.88466" lon="-0.76531">
        <ele>33.599998474121</ele>
        <time>2016-11-01T16:24:43.000Z</time>
      </trkpt>
      <trkpt lat="44.88462" lon="-0.76522">
        <ele>33.599998474121</ele>
        <time>2016-11-01T16:24:41.000Z</time>
      </trkpt>
      <trkpt lat="44.88453" lon="-0.76501">
        <ele>33.400001525879</ele>
        <time>2016-11-01T16:24:36.000Z</time>
      </trkpt>
      <trkpt lat="44.88449" lon="-0.76485">
        <ele>33.400001525879</ele>
        <time>2016-11-01T16:24:32.000Z</time>
      </trkpt>
      <trkpt lat="44.88451" lon="-0.76478">
        <ele>33.200000762939</ele>
        <time>2016-11-01T16:24:30.000Z</time>
      </trkpt>
      <trkpt lat="44.88447" lon="-0.7646">
        <ele>33.400001525879</ele>
        <time>2016-11-01T16:24:24.000Z</time>
      </trkpt>
      <trkpt lat="44.88446" lon="-0.76454">
        <ele>33.599998474121</ele>
        <time>2016-11-01T16:24:22.000Z</time>
      </trkpt>
      <trkpt lat="44.88442" lon="-0.76447">
        <ele>33.799999237061</ele>
        <time>2016-11-01T16:24:19.000Z</time>
      </trkpt>
      <trkpt lat="44.88434" lon="-0.76438">
        <ele>34.200000762939</ele>
        <time>2016-11-01T16:24:14.000Z</time>
      </trkpt>
      <trkpt lat="44.88435" lon="-0.76427">
        <ele>34.599998474121</ele>
        <time>2016-11-01T16:23:44.000Z</time>
      </trkpt>
      <trkpt lat="44.88431" lon="-0.76414">
        <ele>35</ele>
        <time>2016-11-01T16:23:40.000Z</time>
      </trkpt>
      <trkpt lat="44.88425" lon="-0.76404">
        <ele>35.200000762939</ele>
        <time>2016-11-01T16:23:36.000Z</time>
      </trkpt>
      <trkpt lat="44.88428" lon="-0.76395">
        <ele>35.400001525879</ele>
        <time>2016-11-01T16:23:32.000Z</time>
      </trkpt>
      <trkpt lat="44.88438" lon="-0.76402">
        <ele>35.400001525879</ele>
        <time>2016-11-01T16:23:27.000Z</time>
      </trkpt>
      <trkpt lat="44.88442" lon="-0.76407">
        <ele>35.400001525879</ele>
        <time>2016-11-01T16:23:25.000Z</time>
      </trkpt>
      <trkpt lat="44.88445" lon="-0.76405">
        <ele>35.400001525879</ele>
        <time>2016-11-01T16:23:21.000Z</time>
      </trkpt>
      <trkpt lat="44.88443" lon="-0.76393">
        <ele>35.799999237061</ele>
        <time>2016-11-01T16:23:18.000Z</time>
      </trkpt>
      <trkpt lat="44.88433" lon="-0.76379">
        <ele>35.599998474121</ele>
        <time>2016-11-01T16:23:14.000Z</time>
      </trkpt>
      <trkpt lat="44.88423" lon="-0.76373">
        <ele>35.400001525879</ele>
        <time>2016-11-01T16:23:10.000Z</time>
      </trkpt>
      <trkpt lat="44.88413" lon="-0.76376">
        <ele>35.400001525879</ele>
        <time>2016-11-01T16:23:07.000Z</time>
      </trkpt>
      <trkpt lat="44.88404" lon="-0.76376">
        <ele>35.200000762939</ele>
        <time>2016-11-01T16:23:02.000Z</time>
      </trkpt>
      <trkpt lat="44.88401" lon="-0.7637">
        <ele>35.200000762939</ele>
        <time>2016-11-01T16:23:00.000Z</time>
      </trkpt>
      <trkpt lat="44.88397" lon="-0.76353">
        <ele>35</ele>
        <time>2016-11-01T16:22:57.000Z</time>
      </trkpt>
      <trkpt lat="44.88395" lon="-0.76338">
        <ele>35</ele>
        <time>2016-11-01T16:22:54.000Z</time>
      </trkpt>
      <trkpt lat="44.88393" lon="-0.7633">
        <ele>35</ele>
        <time>2016-11-01T16:22:51.000Z</time>
      </trkpt>
      <trkpt lat="44.88405" lon="-0.76338">
        <ele>35</ele>
        <time>2016-11-01T16:22:45.000Z</time>
      </trkpt>
      <trkpt lat="44.88413" lon="-0.76333">
        <ele>35</ele>
        <time>2016-11-01T16:22:41.000Z</time>
      </trkpt>
      <trkpt lat="44.88414" lon="-0.76324">
        <ele>35</ele>
        <time>2016-11-01T16:22:38.000Z</time>
      </trkpt>
      <trkpt lat="44.88412" lon="-0.76319">
        <ele>35</ele>
        <time>2016-11-01T16:22:36.000Z</time>
      </trkpt>
      <trkpt lat="44.88409" lon="-0.76315">
        <ele>35</ele>
        <time>2016-11-01T16:22:34.000Z</time>
      </trkpt>
      <trkpt lat="44.88404" lon="-0.76314">
        <ele>35</ele>
        <time>2016-11-01T16:22:32.000Z</time>
      </trkpt>
      <trkpt lat="44.88397" lon="-0.76316">
        <ele>35</ele>
        <time>2016-11-01T16:22:27.000Z</time>
      </trkpt>
      <trkpt lat="44.88397" lon="-0.7631">
        <ele>35</ele>
        <time>2016-11-01T16:22:25.000Z</time>
      </trkpt>
      <trkpt lat="44.88394" lon="-0.763">
        <ele>35</ele>
        <time>2016-11-01T16:22:22.000Z</time>
      </trkpt>
      <trkpt lat="44.88398" lon="-0.7629">
        <ele>34.799999237061</ele>
        <time>2016-11-01T16:22:19.000Z</time>
      </trkpt>
      <trkpt lat="44.88391" lon="-0.76283">
        <ele>34.799999237061</ele>
        <time>2016-11-01T16:22:13.000Z</time>
      </trkpt>
      <trkpt lat="44.8839" lon="-0.76283">
        <ele>34.799999237061</ele>
        <time>2016-11-01T16:22:12.000Z</time>
      </trkpt>
      <trkpt lat="44.88387" lon="-0.76276">
        <ele>34.799999237061</ele>
        <time>2016-11-01T16:22:09.000Z</time>
      </trkpt>
      <trkpt lat="44.88389" lon="-0.76268">
        <ele>34.799999237061</ele>
        <time>2016-11-01T16:22:06.000Z</time>
      </trkpt>
      <trkpt lat="44.88384" lon="-0.76267">
        <ele>34.799999237061</ele>
        <time>2016-11-01T16:22:02.000Z</time>
      </trkpt>
      <trkpt lat="44.88377" lon="-0.76264">
        <ele>35</ele>
        <time>2016-11-01T16:21:59.000Z</time>
      </trkpt>
      <trkpt lat="44.88369" lon="-0.76256">
        <ele>35</ele>
        <time>2016-11-01T16:21:55.000Z</time>
      </trkpt>
      <trkpt lat="44.8837" lon="-0.76247">
        <ele>35</ele>
        <time>2016-11-01T16:21:52.000Z</time>
      </trkpt>
      <trkpt lat="44.88374" lon="-0.76249">
        <ele>35</ele>
        <time>2016-11-01T16:21:49.000Z</time>
      </trkpt>
      <trkpt lat="44.88376" lon="-0.76255">
        <ele>35</ele>
        <time>2016-11-01T16:21:46.000Z</time>
      </trkpt>
      <trkpt lat="44.88378" lon="-0.76245">
        <ele>35</ele>
        <time>2016-11-01T16:21:43.000Z</time>
      </trkpt>
      <trkpt lat="44.88373" lon="-0.76239">
        <ele>35</ele>
        <time>2016-11-01T16:21:40.000Z</time>
      </trkpt>
      <trkpt lat="44.88367" lon="-0.76235">
        <ele>35</ele>
        <time>2016-11-01T16:21:37.000Z</time>
      </trkpt>
      <trkpt lat="44.88359" lon="-0.76221">
        <ele>34.599998474121</ele>
        <time>2016-11-01T16:21:33.000Z</time>
      </trkpt>
      <trkpt lat="44.88355" lon="-0.76218">
        <ele>34.599998474121</ele>
        <time>2016-11-01T16:21:31.000Z</time>
      </trkpt>
      <trkpt lat="44.88349" lon="-0.76223">
        <ele>34.400001525879</ele>
        <time>2016-11-01T16:21:27.000Z</time>
      </trkpt>
      <trkpt lat="44.88342" lon="-0.76222">
        <ele>34.200000762939</ele>
        <time>2016-11-01T16:21:22.000Z</time>
      </trkpt>
      <trkpt lat="44.88341" lon="-0.76217">
        <ele>34.200000762939</ele>
        <time>2016-11-01T16:21:20.000Z</time>
      </trkpt>
      <trkpt lat="44.88338" lon="-0.76206">
        <ele>34</ele>
        <time>2016-11-01T16:21:16.000Z</time>
      </trkpt>
      <trkpt lat="44.8833" lon="-0.76191">
        <ele>33.599998474121</ele>
        <time>2016-11-01T16:21:09.000Z</time>
      </trkpt>
      <trkpt lat="44.88334" lon="-0.76186">
        <ele>33.599998474121</ele>
        <time>2016-11-01T16:21:05.000Z</time>
      </trkpt>
      <trkpt lat="44.88341" lon="-0.76184">
        <ele>33.799999237061</ele>
        <time>2016-11-01T16:21:02.000Z</time>
      </trkpt>
      <trkpt lat="44.88343" lon="-0.76192">
        <ele>34</ele>
        <time>2016-11-01T16:21:00.000Z</time>
      </trkpt>
      <trkpt lat="44.88342" lon="-0.76202">
        <ele>34</ele>
        <time>2016-11-01T16:20:56.000Z</time>
      </trkpt>
      <trkpt lat="44.88346" lon="-0.762">
        <ele>34</ele>
        <time>2016-11-01T16:20:53.000Z</time>
      </trkpt>
      <trkpt lat="44.88347" lon="-0.7619">
        <ele>34</ele>
        <time>2016-11-01T16:20:50.000Z</time>
      </trkpt>
      <trkpt lat="44.88347" lon="-0.7618">
        <ele>33.799999237061</ele>
        <time>2016-11-01T16:20:46.000Z</time>
      </trkpt>
      <trkpt lat="44.88343" lon="-0.76174">
        <ele>33.799999237061</ele>
        <time>2016-11-01T16:20:43.000Z</time>
      </trkpt>
      <trkpt lat="44.88338" lon="-0.7618">
        <ele>33.599998474121</ele>
        <time>2016-11-01T16:20:38.000Z</time>
      </trkpt>
      <trkpt lat="44.88338" lon="-0.7618">
        <ele>33.599998474121</ele>
        <time>2016-11-01T16:20:37.000Z</time>
      </trkpt>
      <trkpt lat="44.8833" lon="-0.76171">
        <ele>33.599998474121</ele>
        <time>2016-11-01T16:20:32.000Z</time>
      </trkpt>
      <trkpt lat="44.88327" lon="-0.76165">
        <ele>33.599998474121</ele>
        <time>2016-11-01T16:20:30.000Z</time>
      </trkpt>
      <trkpt lat="44.88331" lon="-0.76162">
        <ele>33.799999237061</ele>
        <time>2016-11-01T16:20:25.000Z</time>
      </trkpt>
      <trkpt lat="44.88335" lon="-0.76163">
        <ele>33.799999237061</ele>
        <time>2016-11-01T16:20:22.000Z</time>
      </trkpt>
      <trkpt lat="44.88339" lon="-0.76161">
        <ele>33.799999237061</ele>
        <time>2016-11-01T16:20:18.000Z</time>
      </trkpt>
      <trkpt lat="44.88333" lon="-0.76152">
        <ele>33.799999237061</ele>
        <time>2016-11-01T16:20:13.000Z</time>
      </trkpt>
      <trkpt lat="44.88322" lon="-0.76147">
        <ele>33.799999237061</ele>
        <time>2016-11-01T16:20:08.000Z</time>
      </trkpt>
      <trkpt lat="44.88319" lon="-0.76139">
        <ele>34</ele>
        <time>2016-11-01T16:20:05.000Z</time>
      </trkpt>
      <trkpt lat="44.88327" lon="-0.7614">
        <ele>34</ele>
        <time>2016-11-01T16:19:59.000Z</time>
      </trkpt>
      <trkpt lat="44.8833" lon="-0.76147">
        <ele>33.799999237061</ele>
        <time>2016-11-01T16:19:56.000Z</time>
      </trkpt>
      <trkpt lat="44.88332" lon="-0.76144">
        <ele>34</ele>
        <time>2016-11-01T16:19:52.000Z</time>
      </trkpt>
      <trkpt lat="44.88327" lon="-0.76128">
        <ele>33.799999237061</ele>
        <time>2016-11-01T16:19:46.000Z</time>
      </trkpt>
      <trkpt lat="44.88333" lon="-0.76122">
        <ele>33.799999237061</ele>
        <time>2016-11-01T16:19:22.000Z</time>
      </trkpt>
      <trkpt lat="44.88334" lon="-0.76123">
        <ele>33.799999237061</ele>
        <time>2016-11-01T16:19:21.000Z</time>
      </trkpt>
      <trkpt lat="44.88338" lon="-0.76129">
        <ele>34</ele>
        <time>2016-11-01T16:19:18.000Z</time>
      </trkpt>
      <trkpt lat="44.88346" lon="-0.76142">
        <ele>34</ele>
        <time>2016-11-01T16:19:12.000Z</time>
      </trkpt>
      <trkpt lat="44.88349" lon="-0.76145">
        <ele>34</ele>
        <time>2016-11-01T16:19:10.000Z</time>
      </trkpt>
      <trkpt lat="44.88356" lon="-0.76154">
        <ele>33.799999237061</ele>
        <time>2016-11-01T16:19:05.000Z</time>
      </trkpt>
      <trkpt lat="44.88361" lon="-0.76152">
        <ele>33.799999237061</ele>
        <time>2016-11-01T16:19:00.000Z</time>
      </trkpt>
      <trkpt lat="44.88361" lon="-0.76145">
        <ele>34</ele>
        <time>2016-11-01T16:18:57.000Z</time>
      </trkpt>
      <trkpt lat="44.88357" lon="-0.7613">
        <ele>34</ele>
        <time>2016-11-01T16:18:52.000Z</time>
      </trkpt>
      <trkpt lat="44.88353" lon="-0.76125">
        <ele>33.799999237061</ele>
        <time>2016-11-01T16:18:49.000Z</time>
      </trkpt>
      <trkpt lat="44.88351" lon="-0.76112">
        <ele>33.599998474121</ele>
        <time>2016-11-01T16:18:44.000Z</time>
      </trkpt>
      <trkpt lat="44.88344" lon="-0.76107">
        <ele>33.599998474121</ele>
        <time>2016-11-01T16:18:42.000Z</time>
      </trkpt>
      <trkpt lat="44.88334" lon="-0.76097">
        <ele>33.599998474121</ele>
        <time>2016-11-01T16:18:38.000Z</time>
      </trkpt>
      <trkpt lat="44.88333" lon="-0.76095">
        <ele>33.400001525879</ele>
        <time>2016-11-01T16:18:34.000Z</time>
      </trkpt>
      <trkpt lat="44.88334" lon="-0.76099">
        <ele>33.599998474121</ele>
        <time>2016-11-01T16:18:29.000Z</time>
      </trkpt>
      <trkpt lat="44.88338" lon="-0.76106">
        <ele>33.599998474121</ele>
        <time>2016-11-01T16:18:25.000Z</time>
      </trkpt>
      <trkpt lat="44.8834" lon="-0.76106">
        <ele>33.599998474121</ele>
        <time>2016-11-01T16:18:22.000Z</time>
      </trkpt>
      <trkpt lat="44.8834" lon="-0.76101">
        <ele>33.599998474121</ele>
        <time>2016-11-01T16:18:03.000Z</time>
      </trkpt>
      <trkpt lat="44.88342" lon="-0.76102">
        <ele>33.599998474121</ele>
        <time>2016-11-01T16:17:58.000Z</time>
      </trkpt>
      <trkpt lat="44.88345" lon="-0.76101">
        <ele>33.599998474121</ele>
        <time>2016-11-01T16:17:54.000Z</time>
      </trkpt>
      <trkpt lat="44.88345" lon="-0.76104">
        <ele>33.599998474121</ele>
        <time>2016-11-01T16:17:48.000Z</time>
      </trkpt>
      <trkpt lat="44.88343" lon="-0.76104">
        <ele>33.599998474121</ele>
        <time>2016-11-01T16:17:44.000Z</time>
      </trkpt>
      <trkpt lat="44.88343" lon="-0.76093">
        <ele>33.400001525879</ele>
        <time>2016-11-01T16:17:39.000Z</time>
      </trkpt>
      <trkpt lat="44.88331" lon="-0.76083">
        <ele>33.599998474121</ele>
        <time>2016-11-01T16:17:36.000Z</time>
      </trkpt>
      <trkpt lat="44.88322" lon="-0.76071">
        <ele>34</ele>
        <time>2016-11-01T16:17:32.000Z</time>
      </trkpt>
      <trkpt lat="44.88321" lon="-0.76068">
        <ele>34</ele>
        <time>2016-11-01T16:17:29.000Z</time>
      </trkpt>
      <trkpt lat="44.88321" lon="-0.76067">
        <ele>34.200000762939</ele>
        <time>2016-11-01T16:17:28.000Z</time>
      </trkpt>
      <trkpt lat="44.88317" lon="-0.76049">
        <ele>34.200000762939</ele>
        <time>2016-11-01T16:17:23.000Z</time>
      </trkpt>
      <trkpt lat="44.88308" lon="-0.76031">
        <ele>34</ele>
        <time>2016-11-01T16:17:19.000Z</time>
      </trkpt>
      <trkpt lat="44.88295" lon="-0.7601">
        <ele>33.799999237061</ele>
        <time>2016-11-01T16:17:13.000Z</time>
      </trkpt>
      <trkpt lat="44.88292" lon="-0.75997">
        <ele>33.599998474121</ele>
        <time>2016-11-01T16:17:09.000Z</time>
      </trkpt>
      <trkpt lat="44.88283" lon="-0.75989">
        <ele>33.400001525879</ele>
        <time>2016-11-01T16:17:05.000Z</time>
      </trkpt>
      <trkpt lat="44.8828" lon="-0.75987">
        <ele>33.200000762939</ele>
        <time>2016-11-01T16:17:04.000Z</time>
      </trkpt>
      <trkpt lat="44.88272" lon="-0.75982">
        <ele>33.200000762939</ele>
        <time>2016-11-01T16:17:00.000Z</time>
      </trkpt>
      <trkpt lat="44.88271" lon="-0.7598">
        <ele>33.200000762939</ele>
        <time>2016-11-01T16:16:55.000Z</time>
      </trkpt>
      <trkpt lat="44.88268" lon="-0.75977">
        <ele>33</ele>
        <time>2016-11-01T16:16:50.000Z</time>
      </trkpt>
      <trkpt lat="44.88263" lon="-0.75972">
        <ele>33</ele>
        <time>2016-11-01T16:16:44.000Z</time>
      </trkpt>
      <trkpt lat="44.88262" lon="-0.75969">
        <ele>33</ele>
        <time>2016-11-01T16:16:43.000Z</time>
      </trkpt>
      <trkpt lat="44.88256" lon="-0.75947">
        <ele>32.799999237061</ele>
        <time>2016-11-01T16:16:36.000Z</time>
      </trkpt>
      <trkpt lat="44.88249" lon="-0.75942">
        <ele>32.599998474121</ele>
        <time>2016-11-01T16:16:32.000Z</time>
      </trkpt>
      <trkpt lat="44.88244" lon="-0.75948">
        <ele>32.799999237061</ele>
        <time>2016-11-01T16:16:29.000Z</time>
      </trkpt>
      <trkpt lat="44.88241" lon="-0.75949">
        <ele>32.799999237061</ele>
        <time>2016-11-01T16:16:27.000Z</time>
      </trkpt>
      <trkpt lat="44.88235" lon="-0.75948">
        <ele>32.799999237061</ele>
        <time>2016-11-01T16:16:22.000Z</time>
      </trkpt>
      <trkpt lat="44.88225" lon="-0.75945">
        <ele>32.599998474121</ele>
        <time>2016-11-01T16:16:17.000Z</time>
      </trkpt>
      <trkpt lat="44.88221" lon="-0.75939">
        <ele>32.599998474121</ele>
        <time>2016-11-01T16:16:15.000Z</time>
      </trkpt>
      <trkpt lat="44.88209" lon="-0.75932">
        <ele>32.599998474121</ele>
        <time>2016-11-01T16:16:11.000Z</time>
      </trkpt>
      <trkpt lat="44.88202" lon="-0.75931">
        <ele>32.599998474121</ele>
        <time>2016-11-01T16:16:09.000Z</time>
      </trkpt>
      <trkpt lat="44.88187" lon="-0.7592">
        <ele>32.799999237061</ele>
        <time>2016-11-01T16:16:05.000Z</time>
      </trkpt>
      <trkpt lat="44.88177" lon="-0.759">
        <ele>32.799999237061</ele>
        <time>2016-11-01T16:16:01.000Z</time>
      </trkpt>
      <trkpt lat="44.88173" lon="-0.75886">
        <ele>32.799999237061</ele>
        <time>2016-11-01T16:15:58.000Z</time>
      </trkpt>
      <trkpt lat="44.88168" lon="-0.75861">
        <ele>33.599998474121</ele>
        <time>2016-11-01T16:15:52.000Z</time>
      </trkpt>
      <trkpt lat="44.88166" lon="-0.75857">
        <ele>33.599998474121</ele>
        <time>2016-11-01T16:15:51.000Z</time>
      </trkpt>
      <trkpt lat="44.88166" lon="-0.75834">
        <ele>34</ele>
        <time>2016-11-01T16:15:47.000Z</time>
      </trkpt>
      <trkpt lat="44.88167" lon="-0.75827">
        <ele>34</ele>
        <time>2016-11-01T16:15:46.000Z</time>
      </trkpt>
      <trkpt lat="44.88168" lon="-0.75791">
        <ele>33.799999237061</ele>
        <time>2016-11-01T16:15:41.000Z</time>
      </trkpt>
      <trkpt lat="44.88166" lon="-0.75783">
        <ele>33.799999237061</ele>
        <time>2016-11-01T16:15:40.000Z</time>
      </trkpt>
      <trkpt lat="44.88165" lon="-0.75748">
        <ele>33.400001525879</ele>
        <time>2016-11-01T16:15:34.000Z</time>
      </trkpt>
      <trkpt lat="44.88166" lon="-0.75729">
        <ele>33.400001525879</ele>
        <time>2016-11-01T16:15:31.000Z</time>
      </trkpt>
      <trkpt lat="44.88163" lon="-0.7571">
        <ele>33.200000762939</ele>
        <time>2016-11-01T16:15:27.000Z</time>
      </trkpt>
      <trkpt lat="44.88162" lon="-0.75687">
        <ele>32.799999237061</ele>
        <time>2016-11-01T16:15:22.000Z</time>
      </trkpt>
      <trkpt lat="44.88163" lon="-0.75672">
        <ele>32.400001525879</ele>
        <time>2016-11-01T16:15:18.000Z</time>
      </trkpt>
      <trkpt lat="44.88157" lon="-0.75646">
        <ele>32.200000762939</ele>
        <time>2016-11-01T16:15:12.000Z</time>
      </trkpt>
      <trkpt lat="44.88151" lon="-0.7562">
        <ele>32</ele>
        <time>2016-11-01T16:15:08.000Z</time>
      </trkpt>
      <trkpt lat="44.88146" lon="-0.75598">
        <ele>31.60000038147</ele>
        <time>2016-11-01T16:15:05.000Z</time>
      </trkpt>
      <trkpt lat="44.88137" lon="-0.75567">
        <ele>31</ele>
        <time>2016-11-01T16:15:00.000Z</time>
      </trkpt>
      <trkpt lat="44.88126" lon="-0.75536">
        <ele>30.799999237061</ele>
        <time>2016-11-01T16:14:55.000Z</time>
      </trkpt>
      <trkpt lat="44.8812" lon="-0.75523">
        <ele>31</ele>
        <time>2016-11-01T16:14:53.000Z</time>
      </trkpt>
      <trkpt lat="44.88118" lon="-0.75515">
        <ele>30.799999237061</ele>
        <time>2016-11-01T16:14:52.000Z</time>
      </trkpt>
      <trkpt lat="44.88114" lon="-0.7548">
        <ele>30.799999237061</ele>
        <time>2016-11-01T16:14:48.000Z</time>
      </trkpt>
      <trkpt lat="44.88114" lon="-0.7546">
        <ele>31.200000762939</ele>
        <time>2016-11-01T16:14:45.000Z</time>
      </trkpt>
      <trkpt lat="44.88115" lon="-0.75455">
        <ele>31.39999961853</ele>
        <time>2016-11-01T16:14:44.000Z</time>
      </trkpt>
      <trkpt lat="44.88122" lon="-0.75439">
        <ele>32.200000762939</ele>
        <time>2016-11-01T16:14:41.000Z</time>
      </trkpt>
      <trkpt lat="44.88123" lon="-0.75407">
        <ele>33.200000762939</ele>
        <time>2016-11-01T16:14:36.000Z</time>
      </trkpt>
      <trkpt lat="44.88122" lon="-0.75388">
        <ele>34</ele>
        <time>2016-11-01T16:14:33.000Z</time>
      </trkpt>
      <trkpt lat="44.88124" lon="-0.75376">
        <ele>34</ele>
        <time>2016-11-01T16:14:31.000Z</time>
      </trkpt>
      <trkpt lat="44.88123" lon="-0.75362">
        <ele>34</ele>
        <time>2016-11-01T16:14:29.000Z</time>
      </trkpt>
      <trkpt lat="44.88123" lon="-0.75337">
        <ele>34</ele>
        <time>2016-11-01T16:14:25.000Z</time>
      </trkpt>
      <trkpt lat="44.88124" lon="-0.75319">
        <ele>34</ele>
        <time>2016-11-01T16:14:21.000Z</time>
      </trkpt>
      <trkpt lat="44.88118" lon="-0.75302">
        <ele>34</ele>
        <time>2016-11-01T16:14:17.000Z</time>
      </trkpt>
      <trkpt lat="44.88111" lon="-0.75275">
        <ele>33.200000762939</ele>
        <time>2016-11-01T16:14:12.000Z</time>
      </trkpt>
      <trkpt lat="44.88109" lon="-0.7527">
        <ele>33.200000762939</ele>
        <time>2016-11-01T16:14:11.000Z</time>
      </trkpt>
      <trkpt lat="44.88101" lon="-0.75255">
        <ele>32.799999237061</ele>
        <time>2016-11-01T16:14:07.000Z</time>
      </trkpt>
      <trkpt lat="44.88095" lon="-0.75254">
        <ele>32.799999237061</ele>
        <time>2016-11-01T16:14:05.000Z</time>
      </trkpt>
      <trkpt lat="44.88071" lon="-0.75257">
        <ele>33.799999237061</ele>
        <time>2016-11-01T16:13:59.000Z</time>
      </trkpt>
      <trkpt lat="44.8806" lon="-0.75269">
        <ele>34.400001525879</ele>
        <time>2016-11-01T16:13:55.000Z</time>
      </trkpt>
      <trkpt lat="44.88056" lon="-0.75288">
        <ele>35</ele>
        <time>2016-11-01T16:13:51.000Z</time>
      </trkpt>
      <trkpt lat="44.88051" lon="-0.75303">
        <ele>35.599998474121</ele>
        <time>2016-11-01T16:13:49.000Z</time>
      </trkpt>
      <trkpt lat="44.88042" lon="-0.75351">
        <ele>33.599998474121</ele>
        <time>2016-11-01T16:13:43.000Z</time>
      </trkpt>
      <trkpt lat="44.88038" lon="-0.75372">
        <ele>32.799999237061</ele>
        <time>2016-11-01T16:13:40.000Z</time>
      </trkpt>
      <trkpt lat="44.88035" lon="-0.75403">
        <ele>31.60000038147</ele>
        <time>2016-11-01T16:13:35.000Z</time>
      </trkpt>
      <trkpt lat="44.88028" lon="-0.75423">
        <ele>31.200000762939</ele>
        <time>2016-11-01T16:13:31.000Z</time>
      </trkpt>
      <trkpt lat="44.88019" lon="-0.75435">
        <ele>30.799999237061</ele>
        <time>2016-11-01T16:13:27.000Z</time>
      </trkpt>
      <trkpt lat="44.8802" lon="-0.75446">
        <ele>30.60000038147</ele>
        <time>2016-11-01T16:13:24.000Z</time>
      </trkpt>
      <trkpt lat="44.88014" lon="-0.7546">
        <ele>30.200000762939</ele>
        <time>2016-11-01T16:13:20.000Z</time>
      </trkpt>
      <trkpt lat="44.88014" lon="-0.75477">
        <ele>30</ele>
        <time>2016-11-01T16:13:16.000Z</time>
      </trkpt>
      <trkpt lat="44.88006" lon="-0.75484">
        <ele>30.200000762939</ele>
        <time>2016-11-01T16:13:13.000Z</time>
      </trkpt>
      <trkpt lat="44.87996" lon="-0.75488">
        <ele>30.200000762939</ele>
        <time>2016-11-01T16:13:09.000Z</time>
      </trkpt>
      <trkpt lat="44.87986" lon="-0.75501">
        <ele>30.39999961853</ele>
        <time>2016-11-01T16:13:05.000Z</time>
      </trkpt>
      <trkpt lat="44.87982" lon="-0.75507">
        <ele>30.39999961853</ele>
        <time>2016-11-01T16:13:03.000Z</time>
      </trkpt>
      <trkpt lat="44.87977" lon="-0.75509">
        <ele>30.39999961853</ele>
        <time>2016-11-01T16:13:00.000Z</time>
      </trkpt>
      <trkpt lat="44.87971" lon="-0.75519">
        <ele>30.60000038147</ele>
        <time>2016-11-01T16:12:56.000Z</time>
      </trkpt>
      <trkpt lat="44.87964" lon="-0.75533">
        <ele>30.799999237061</ele>
        <time>2016-11-01T16:12:52.000Z</time>
      </trkpt>
      <trkpt lat="44.87961" lon="-0.75547">
        <ele>31</ele>
        <time>2016-11-01T16:12:47.000Z</time>
      </trkpt>
      <trkpt lat="44.87959" lon="-0.75557">
        <ele>31</ele>
        <time>2016-11-01T16:12:45.000Z</time>
      </trkpt>
      <trkpt lat="44.87957" lon="-0.75565">
        <ele>31.200000762939</ele>
        <time>2016-11-01T16:12:42.000Z</time>
      </trkpt>
      <trkpt lat="44.87956" lon="-0.75575">
        <ele>31.200000762939</ele>
        <time>2016-11-01T16:12:39.000Z</time>
      </trkpt>
      <trkpt lat="44.87952" lon="-0.75586">
        <ele>31.39999961853</ele>
        <time>2016-11-01T16:12:36.000Z</time>
      </trkpt>
      <trkpt lat="44.87954" lon="-0.75608">
        <ele>31.60000038147</ele>
        <time>2016-11-01T16:12:31.000Z</time>
      </trkpt>
      <trkpt lat="44.87953" lon="-0.75612">
        <ele>31.60000038147</ele>
        <time>2016-11-01T16:12:30.000Z</time>
      </trkpt>
      <trkpt lat="44.87955" lon="-0.75622">
        <ele>31.799999237061</ele>
        <time>2016-11-01T16:12:27.000Z</time>
      </trkpt>
      <trkpt lat="44.87957" lon="-0.75637">
        <ele>32</ele>
        <time>2016-11-01T16:12:23.000Z</time>
      </trkpt>
      <trkpt lat="44.8795" lon="-0.75641">
        <ele>32</ele>
        <time>2016-11-01T16:12:21.000Z</time>
      </trkpt>
      <trkpt lat="44.87947" lon="-0.7565">
        <ele>32.200000762939</ele>
        <time>2016-11-01T16:12:18.000Z</time>
      </trkpt>
      <trkpt lat="44.87959" lon="-0.7568">
        <ele>32</ele>
        <time>2016-11-01T16:12:12.000Z</time>
      </trkpt>
      <trkpt lat="44.87962" lon="-0.757">
        <ele>31.799999237061</ele>
        <time>2016-11-01T16:12:08.000Z</time>
      </trkpt>
      <trkpt lat="44.87957" lon="-0.7571">
        <ele>32</ele>
        <time>2016-11-01T16:12:06.000Z</time>
      </trkpt>
      <trkpt lat="44.8794" lon="-0.75735">
        <ele>32.400001525879</ele>
        <time>2016-11-01T16:12:01.000Z</time>
      </trkpt>
      <trkpt lat="44.87929" lon="-0.75757">
        <ele>32.799999237061</ele>
        <time>2016-11-01T16:11:57.000Z</time>
      </trkpt>
      <trkpt lat="44.87922" lon="-0.75766">
        <ele>33</ele>
        <time>2016-11-01T16:11:55.000Z</time>
      </trkpt>
      <trkpt lat="44.87909" lon="-0.75784">
        <ele>33.400001525879</ele>
        <time>2016-11-01T16:11:51.000Z</time>
      </trkpt>
      <trkpt lat="44.87885" lon="-0.7579">
        <ele>33.599998474121</ele>
        <time>2016-11-01T16:11:46.000Z</time>
      </trkpt>
      <trkpt lat="44.87872" lon="-0.75792">
        <ele>33.799999237061</ele>
        <time>2016-11-01T16:11:43.000Z</time>
      </trkpt>
      <trkpt lat="44.87855" lon="-0.75792">
        <ele>33.400001525879</ele>
        <time>2016-11-01T16:11:39.000Z</time>
      </trkpt>
      <trkpt lat="44.87847" lon="-0.75788">
        <ele>33.200000762939</ele>
        <time>2016-11-01T16:11:37.000Z</time>
      </trkpt>
      <trkpt lat="44.87828" lon="-0.75774">
        <ele>32.599998474121</ele>
        <time>2016-11-01T16:11:32.000Z</time>
      </trkpt>
      <trkpt lat="44.87816" lon="-0.75764">
        <ele>32</ele>
        <time>2016-11-01T16:11:29.000Z</time>
      </trkpt>
      <trkpt lat="44.87797" lon="-0.75756">
        <ele>31.200000762939</ele>
        <time>2016-11-01T16:11:25.000Z</time>
      </trkpt>
      <trkpt lat="44.87778" lon="-0.75759">
        <ele>30.60000038147</ele>
        <time>2016-11-01T16:11:21.000Z</time>
      </trkpt>
      <trkpt lat="44.8776" lon="-0.75763">
        <ele>30.39999961853</ele>
        <time>2016-11-01T16:11:17.000Z</time>
      </trkpt>
      <trkpt lat="44.87748" lon="-0.7577">
        <ele>30.200000762939</ele>
        <time>2016-11-01T16:11:14.000Z</time>
      </trkpt>
      <trkpt lat="44.87731" lon="-0.75781">
        <ele>30</ele>
        <time>2016-11-01T16:11:10.000Z</time>
      </trkpt>
      <trkpt lat="44.87722" lon="-0.75784">
        <ele>29.799999237061</ele>
        <time>2016-11-01T16:11:08.000Z</time>
      </trkpt>
      <trkpt lat="44.87718" lon="-0.75785">
        <ele>29.799999237061</ele>
        <time>2016-11-01T16:11:07.000Z</time>
      </trkpt>
      <trkpt lat="44.87689" lon="-0.75799">
        <ele>29.200000762939</ele>
        <time>2016-11-01T16:11:01.000Z</time>
      </trkpt>
      <trkpt lat="44.87665" lon="-0.75813">
        <ele>29</ele>
        <time>2016-11-01T16:10:56.000Z</time>
      </trkpt>
      <trkpt lat="44.87648" lon="-0.75824">
        <ele>29.200000762939</ele>
        <time>2016-11-01T16:10:52.000Z</time>
      </trkpt>
      <trkpt lat="44.87628" lon="-0.75838">
        <ele>29.200000762939</ele>
        <time>2016-11-01T16:10:47.000Z</time>
      </trkpt>
      <trkpt lat="44.8761" lon="-0.75847">
        <ele>29.200000762939</ele>
        <time>2016-11-01T16:10:43.000Z</time>
      </trkpt>
      <trkpt lat="44.87602" lon="-0.75852">
        <ele>29.39999961853</ele>
        <time>2016-11-01T16:10:41.000Z</time>
      </trkpt>
      <trkpt lat="44.87588" lon="-0.75864">
        <ele>29.799999237061</ele>
        <time>2016-11-01T16:10:37.000Z</time>
      </trkpt>
      <trkpt lat="44.87586" lon="-0.75874">
        <ele>30.39999961853</ele>
        <time>2016-11-01T16:10:33.000Z</time>
      </trkpt>
      <trkpt lat="44.87588" lon="-0.75882">
        <ele>30.799999237061</ele>
        <time>2016-11-01T16:10:31.000Z</time>
      </trkpt>
      <trkpt lat="44.87585" lon="-0.75904">
        <ele>31</ele>
        <time>2016-11-01T16:10:26.000Z</time>
      </trkpt>
      <trkpt lat="44.87584" lon="-0.75921">
        <ele>30.60000038147</ele>
        <time>2016-11-01T16:10:22.000Z</time>
      </trkpt>
      <trkpt lat="44.87584" lon="-0.75924">
        <ele>30.60000038147</ele>
        <time>2016-11-01T16:10:21.000Z</time>
      </trkpt>
      <trkpt lat="44.87586" lon="-0.75937">
        <ele>30.39999961853</ele>
        <time>2016-11-01T16:10:17.000Z</time>
      </trkpt>
      <trkpt lat="44.87584" lon="-0.75944">
        <ele>30.200000762939</ele>
        <time>2016-11-01T16:10:15.000Z</time>
      </trkpt>
      <trkpt lat="44.87583" lon="-0.75953">
        <ele>30</ele>
        <time>2016-11-01T16:10:13.000Z</time>
      </trkpt>
      <trkpt lat="44.87582" lon="-0.75977">
        <ele>29.60000038147</ele>
        <time>2016-11-01T16:10:08.000Z</time>
      </trkpt>
      <trkpt lat="44.87583" lon="-0.76011">
        <ele>30</ele>
        <time>2016-11-01T16:10:02.000Z</time>
      </trkpt>
      <trkpt lat="44.8758" lon="-0.76022">
        <ele>30.200000762939</ele>
        <time>2016-11-01T16:10:00.000Z</time>
      </trkpt>
      <trkpt lat="44.87568" lon="-0.7603">
        <ele>30.200000762939</ele>
        <time>2016-11-01T16:09:56.000Z</time>
      </trkpt>
      <trkpt lat="44.87563" lon="-0.76027">
        <ele>30</ele>
        <time>2016-11-01T16:09:54.000Z</time>
      </trkpt>
      <trkpt lat="44.87559" lon="-0.76027">
        <ele>30</ele>
        <time>2016-11-01T16:09:52.000Z</time>
      </trkpt>
      <trkpt lat="44.87556" lon="-0.7603">
        <ele>30</ele>
        <time>2016-11-01T16:09:50.000Z</time>
      </trkpt>
      <trkpt lat="44.8755" lon="-0.7604">
        <ele>30</ele>
        <time>2016-11-01T16:09:46.000Z</time>
      </trkpt>
      <trkpt lat="44.87554" lon="-0.76054">
        <ele>30.39999961853</ele>
        <time>2016-11-01T16:09:41.000Z</time>
      </trkpt>
      <trkpt lat="44.87549" lon="-0.76071">
        <ele>30.200000762939</ele>
        <time>2016-11-01T16:09:36.000Z</time>
      </trkpt>
      <trkpt lat="44.87545" lon="-0.76078">
        <ele>30.200000762939</ele>
        <time>2016-11-01T16:09:34.000Z</time>
      </trkpt>
      <trkpt lat="44.87546" lon="-0.76089">
        <ele>30.200000762939</ele>
        <time>2016-11-01T16:09:31.000Z</time>
      </trkpt>
      <trkpt lat="44.87545" lon="-0.76121">
        <ele>30.200000762939</ele>
        <time>2016-11-01T16:09:25.000Z</time>
      </trkpt>
      <trkpt lat="44.87545" lon="-0.76127">
        <ele>30.200000762939</ele>
        <time>2016-11-01T16:09:24.000Z</time>
      </trkpt>
      <trkpt lat="44.87549" lon="-0.76155">
        <ele>30</ele>
        <time>2016-11-01T16:09:19.000Z</time>
      </trkpt>
      <trkpt lat="44.87541" lon="-0.76204">
        <ele>29.200000762939</ele>
        <time>2016-11-01T16:09:12.000Z</time>
      </trkpt>
      <trkpt lat="44.87534" lon="-0.76245">
        <ele>29</ele>
        <time>2016-11-01T16:09:06.000Z</time>
      </trkpt>
      <trkpt lat="44.87527" lon="-0.76271">
        <ele>29.200000762939</ele>
        <time>2016-11-01T16:09:01.000Z</time>
      </trkpt>
      <trkpt lat="44.87519" lon="-0.76291">
        <ele>29.200000762939</ele>
        <time>2016-11-01T16:08:55.000Z</time>
      </trkpt>
      <trkpt lat="44.87509" lon="-0.76309">
        <ele>28.799999237061</ele>
        <time>2016-11-01T16:08:50.000Z</time>
      </trkpt>
      <trkpt lat="44.87505" lon="-0.76331">
        <ele>28.799999237061</ele>
        <time>2016-11-01T16:08:46.000Z</time>
      </trkpt>
      <trkpt lat="44.87509" lon="-0.76347">
        <ele>29</ele>
        <time>2016-11-01T16:08:43.000Z</time>
      </trkpt>
      <trkpt lat="44.87507" lon="-0.76366">
        <ele>29.200000762939</ele>
        <time>2016-11-01T16:08:39.000Z</time>
      </trkpt>
      <trkpt lat="44.87509" lon="-0.7638">
        <ele>29.39999961853</ele>
        <time>2016-11-01T16:08:36.000Z</time>
      </trkpt>
      <trkpt lat="44.87513" lon="-0.7639">
        <ele>29.799999237061</ele>
        <time>2016-11-01T16:08:33.000Z</time>
      </trkpt>
      <trkpt lat="44.87516" lon="-0.76408">
        <ele>30.39999961853</ele>
        <time>2016-11-01T16:08:28.000Z</time>
      </trkpt>
      <trkpt lat="44.87511" lon="-0.76419">
        <ele>30.39999961853</ele>
        <time>2016-11-01T16:08:24.000Z</time>
      </trkpt>
      <trkpt lat="44.87511" lon="-0.76422">
        <ele>30.60000038147</ele>
        <time>2016-11-01T16:08:23.000Z</time>
      </trkpt>
      <trkpt lat="44.87512" lon="-0.76436">
        <ele>31.200000762939</ele>
        <time>2016-11-01T16:08:17.000Z</time>
      </trkpt>
      <trkpt lat="44.87517" lon="-0.76447">
        <ele>31.799999237061</ele>
        <time>2016-11-01T16:07:37.000Z</time>
      </trkpt>
      <trkpt lat="44.87522" lon="-0.7645">
        <ele>32.200000762939</ele>
        <time>2016-11-01T16:07:33.000Z</time>
      </trkpt>
      <trkpt lat="44.87531" lon="-0.7645">
        <ele>32.799999237061</ele>
        <time>2016-11-01T16:07:31.000Z</time>
      </trkpt>
      <trkpt lat="44.8754" lon="-0.76453">
        <ele>33.400001525879</ele>
        <time>2016-11-01T16:07:27.000Z</time>
      </trkpt>
      <trkpt lat="44.87539" lon="-0.76455">
        <ele>33.400001525879</ele>
        <time>2016-11-01T16:07:26.000Z</time>
      </trkpt>
      <trkpt lat="44.87536" lon="-0.76464">
        <ele>33.599998474121</ele>
        <time>2016-11-01T16:07:15.000Z</time>
      </trkpt>
      <trkpt lat="44.87537" lon="-0.76469">
        <ele>33.799999237061</ele>
        <time>2016-11-01T16:07:06.000Z</time>
      </trkpt>
      <trkpt lat="44.87536" lon="-0.76474">
        <ele>33.799999237061</ele>
        <time>2016-11-01T16:07:03.000Z</time>
      </trkpt>
      <trkpt lat="44.87535" lon="-0.76483">
        <ele>33.599998474121</ele>
        <time>2016-11-01T16:06:58.000Z</time>
      </trkpt>
      <trkpt lat="44.87536" lon="-0.76497">
        <ele>33.200000762939</ele>
        <time>2016-11-01T16:06:54.000Z</time>
      </trkpt>
      <trkpt lat="44.87541" lon="-0.76514">
        <ele>33</ele>
        <time>2016-11-01T16:06:50.000Z</time>
      </trkpt>
      <trkpt lat="44.87548" lon="-0.76524">
        <ele>32.799999237061</ele>
        <time>2016-11-01T16:06:45.000Z</time>
      </trkpt>
      <trkpt lat="44.87552" lon="-0.7653">
        <ele>32.799999237061</ele>
        <time>2016-11-01T16:06:43.000Z</time>
      </trkpt>
      <trkpt lat="44.87558" lon="-0.76538">
        <ele>32.599998474121</ele>
        <time>2016-11-01T16:06:38.000Z</time>
      </trkpt>
      <trkpt lat="44.87565" lon="-0.76547">
        <ele>32.799999237061</ele>
        <time>2016-11-01T16:06:33.000Z</time>
      </trkpt>
      <trkpt lat="44.87564" lon="-0.76559">
        <ele>32.200000762939</ele>
        <time>2016-11-01T16:06:29.000Z</time>
      </trkpt>
      <trkpt lat="44.8756" lon="-0.76564">
        <ele>31.799999237061</ele>
        <time>2016-11-01T16:06:27.000Z</time>
      </trkpt>
      <trkpt lat="44.87558" lon="-0.76567">
        <ele>31.60000038147</ele>
        <time>2016-11-01T16:06:26.000Z</time>
      </trkpt>
      <trkpt lat="44.87552" lon="-0.76567">
        <ele>31.39999961853</ele>
        <time>2016-11-01T16:06:20.000Z</time>
      </trkpt>
      <trkpt lat="44.87549" lon="-0.76556">
        <ele>32</ele>
        <time>2016-11-01T16:06:16.000Z</time>
      </trkpt>
      <trkpt lat="44.87546" lon="-0.76544">
        <ele>32.400001525879</ele>
        <time>2016-11-01T16:06:12.000Z</time>
      </trkpt>
      <trkpt lat="44.87537" lon="-0.76535">
        <ele>32.400001525879</ele>
        <time>2016-11-01T16:06:08.000Z</time>
      </trkpt>
      <trkpt lat="44.87531" lon="-0.76526">
        <ele>32.400001525879</ele>
        <time>2016-11-01T16:06:05.000Z</time>
      </trkpt>
      <trkpt lat="44.87527" lon="-0.7651">
        <ele>32.599998474121</ele>
        <time>2016-11-01T16:06:01.000Z</time>
      </trkpt>
      <trkpt lat="44.87523" lon="-0.76503">
        <ele>32.599998474121</ele>
        <time>2016-11-01T16:05:58.000Z</time>
      </trkpt>
      <trkpt lat="44.8752" lon="-0.76509">
        <ele>32.400001525879</ele>
        <time>2016-11-01T16:05:54.000Z</time>
      </trkpt>
      <trkpt lat="44.8752" lon="-0.76514">
        <ele>32.200000762939</ele>
        <time>2016-11-01T16:05:51.000Z</time>
      </trkpt>
      <trkpt lat="44.87522" lon="-0.76523">
        <ele>32.200000762939</ele>
        <time>2016-11-01T16:05:48.000Z</time>
      </trkpt>
      <trkpt lat="44.87515" lon="-0.76525">
        <ele>31.799999237061</ele>
        <time>2016-11-01T16:05:45.000Z</time>
      </trkpt>
      <trkpt lat="44.87511" lon="-0.76519">
        <ele>31.799999237061</ele>
        <time>2016-11-01T16:05:42.000Z</time>
      </trkpt>
      <trkpt lat="44.87512" lon="-0.76529">
        <ele>31.60000038147</ele>
        <time>2016-11-01T16:05:38.000Z</time>
      </trkpt>
      <trkpt lat="44.8752" lon="-0.76537">
        <ele>31.60000038147</ele>
        <time>2016-11-01T16:05:35.000Z</time>
      </trkpt>
      <trkpt lat="44.87521" lon="-0.76541">
        <ele>31.60000038147</ele>
        <time>2016-11-01T16:05:34.000Z</time>
      </trkpt>
      <trkpt lat="44.87528" lon="-0.76558">
        <ele>31.60000038147</ele>
        <time>2016-11-01T16:05:28.000Z</time>
      </trkpt>
      <trkpt lat="44.87532" lon="-0.76563">
        <ele>31.60000038147</ele>
        <time>2016-11-01T16:05:26.000Z</time>
      </trkpt>
      <trkpt lat="44.87528" lon="-0.76568">
        <ele>31.39999961853</ele>
        <time>2016-11-01T16:05:23.000Z</time>
      </trkpt>
      <trkpt lat="44.87524" lon="-0.76573">
        <ele>31.200000762939</ele>
        <time>2016-11-01T16:05:20.000Z</time>
      </trkpt>
      <trkpt lat="44.87533" lon="-0.76583">
        <ele>30.200000762939</ele>
        <time>2016-11-01T16:05:15.000Z</time>
      </trkpt>
      <trkpt lat="44.87538" lon="-0.76581">
        <ele>30.200000762939</ele>
        <time>2016-11-01T16:05:13.000Z</time>
      </trkpt>
      <trkpt lat="44.87545" lon="-0.7658">
        <ele>30.39999961853</ele>
        <time>2016-11-01T16:05:11.000Z</time>
      </trkpt>
      <trkpt lat="44.87556" lon="-0.76583">
        <ele>30.200000762939</ele>
        <time>2016-11-01T16:05:07.000Z</time>
      </trkpt>
      <trkpt lat="44.87564" lon="-0.76584">
        <ele>30.39999961853</ele>
        <time>2016-11-01T16:05:04.000Z</time>
      </trkpt>
      <trkpt lat="44.87572" lon="-0.76585">
        <ele>30.60000038147</ele>
        <time>2016-11-01T16:05:01.000Z</time>
      </trkpt>
      <trkpt lat="44.8758" lon="-0.76607">
        <ele>28.799999237061</ele>
        <time>2016-11-01T16:04:55.000Z</time>
      </trkpt>
      <trkpt lat="44.87579" lon="-0.76616">
        <ele>27.799999237061</ele>
        <time>2016-11-01T16:04:53.000Z</time>
      </trkpt>
      <trkpt lat="44.87574" lon="-0.76637">
        <ele>25.60000038147</ele>
        <time>2016-11-01T16:04:48.000Z</time>
      </trkpt>
      <trkpt lat="44.87565" lon="-0.7665">
        <ele>25.60000038147</ele>
        <time>2016-11-01T16:04:44.000Z</time>
      </trkpt>
      <trkpt lat="44.87554" lon="-0.76647">
        <ele>25.799999237061</ele>
        <time>2016-11-01T16:04:41.000Z</time>
      </trkpt>
      <trkpt lat="44.87534" lon="-0.76654">
        <ele>26.200000762939</ele>
        <time>2016-11-01T16:04:36.000Z</time>
      </trkpt>
      <trkpt lat="44.87519" lon="-0.76665">
        <ele>26.39999961853</ele>
        <time>2016-11-01T16:04:33.000Z</time>
      </trkpt>
      <trkpt lat="44.87506" lon="-0.76677">
        <ele>26.799999237061</ele>
        <time>2016-11-01T16:04:30.000Z</time>
      </trkpt>
      <trkpt lat="44.87488" lon="-0.76694">
        <ele>27.200000762939</ele>
        <time>2016-11-01T16:04:26.000Z</time>
      </trkpt>
      <trkpt lat="44.87469" lon="-0.76712">
        <ele>27.60000038147</ele>
        <time>2016-11-01T16:04:22.000Z</time>
      </trkpt>
      <trkpt lat="44.87442" lon="-0.76742">
        <ele>28.39999961853</ele>
        <time>2016-11-01T16:04:16.000Z</time>
      </trkpt>
      <trkpt lat="44.87404" lon="-0.76784">
        <ele>29.200000762939</ele>
        <time>2016-11-01T16:04:07.000Z</time>
      </trkpt>
      <trkpt lat="44.87392" lon="-0.76795">
        <ele>29.60000038147</ele>
        <time>2016-11-01T16:04:04.000Z</time>
      </trkpt>
      <trkpt lat="44.87375" lon="-0.76793">
        <ele>29.799999237061</ele>
        <time>2016-11-01T16:04:00.000Z</time>
      </trkpt>
      <trkpt lat="44.87359" lon="-0.76772">
        <ele>29.200000762939</ele>
        <time>2016-11-01T16:03:54.000Z</time>
      </trkpt>
      <trkpt lat="44.87351" lon="-0.76762">
        <ele>29</ele>
        <time>2016-11-01T16:03:50.000Z</time>
      </trkpt>
      <trkpt lat="44.87348" lon="-0.76744">
        <ele>28.799999237061</ele>
        <time>2016-11-01T16:03:46.000Z</time>
      </trkpt>
      <trkpt lat="44.87345" lon="-0.76722">
        <ele>29.39999961853</ele>
        <time>2016-11-01T16:03:40.000Z</time>
      </trkpt>
      <trkpt lat="44.87341" lon="-0.76714">
        <ele>29.39999961853</ele>
        <time>2016-11-01T16:03:37.000Z</time>
      </trkpt>
      <trkpt lat="44.87335" lon="-0.76709">
        <ele>29.60000038147</ele>
        <time>2016-11-01T16:03:34.000Z</time>
      </trkpt>
      <trkpt lat="44.87331" lon="-0.76694">
        <ele>29.799999237061</ele>
        <time>2016-11-01T16:03:30.000Z</time>
      </trkpt>
      <trkpt lat="44.87327" lon="-0.76683">
        <ele>30</ele>
        <time>2016-11-01T16:03:26.000Z</time>
      </trkpt>
      <trkpt lat="44.87328" lon="-0.76671">
        <ele>30.60000038147</ele>
        <time>2016-11-01T16:03:23.000Z</time>
      </trkpt>
      <trkpt lat="44.87323" lon="-0.76661">
        <ele>31.200000762939</ele>
        <time>2016-11-01T16:03:19.000Z</time>
      </trkpt>
      <trkpt lat="44.87316" lon="-0.76647">
        <ele>32.400001525879</ele>
        <time>2016-11-01T16:03:15.000Z</time>
      </trkpt>
      <trkpt lat="44.87305" lon="-0.76632">
        <ele>33.200000762939</ele>
        <time>2016-11-01T16:03:10.000Z</time>
      </trkpt>
      <trkpt lat="44.87298" lon="-0.76616">
        <ele>33.200000762939</ele>
        <time>2016-11-01T16:03:05.000Z</time>
      </trkpt>
      <trkpt lat="44.873" lon="-0.76611">
        <ele>33</ele>
        <time>2016-11-01T16:03:04.000Z</time>
      </trkpt>
      <trkpt lat="44.87312" lon="-0.76592">
        <ele>32</ele>
        <time>2016-11-01T16:02:59.000Z</time>
      </trkpt>
      <trkpt lat="44.87315" lon="-0.76589">
        <ele>32</ele>
        <time>2016-11-01T16:02:58.000Z</time>
      </trkpt>
      <trkpt lat="44.8732" lon="-0.76579">
        <ele>31.60000038147</ele>
        <time>2016-11-01T16:02:55.000Z</time>
      </trkpt>
      <trkpt lat="44.87324" lon="-0.76569">
        <ele>31</ele>
        <time>2016-11-01T16:02:52.000Z</time>
      </trkpt>
      <trkpt lat="44.87319" lon="-0.7655">
        <ele>30.60000038147</ele>
        <time>2016-11-01T16:02:47.000Z</time>
      </trkpt>
      <trkpt lat="44.87317" lon="-0.76539">
        <ele>30.39999961853</ele>
        <time>2016-11-01T16:02:43.000Z</time>
      </trkpt>
      <trkpt lat="44.87313" lon="-0.76533">
        <ele>30.39999961853</ele>
        <time>2016-11-01T16:02:41.000Z</time>
      </trkpt>
      <trkpt lat="44.87312" lon="-0.76528">
        <ele>30.39999961853</ele>
        <time>2016-11-01T16:02:39.000Z</time>
      </trkpt>
      <trkpt lat="44.87313" lon="-0.76506">
        <ele>30.200000762939</ele>
        <time>2016-11-01T16:02:33.000Z</time>
      </trkpt>
      <trkpt lat="44.87312" lon="-0.76503">
        <ele>30.200000762939</ele>
        <time>2016-11-01T16:02:32.000Z</time>
      </trkpt>
      <trkpt lat="44.87313" lon="-0.76494">
        <ele>30</ele>
        <time>2016-11-01T16:02:29.000Z</time>
      </trkpt>
      <trkpt lat="44.87314" lon="-0.76485">
        <ele>29.799999237061</ele>
        <time>2016-11-01T16:02:26.000Z</time>
      </trkpt>
      <trkpt lat="44.8732" lon="-0.76477">
        <ele>29.799999237061</ele>
        <time>2016-11-01T16:02:23.000Z</time>
      </trkpt>
      <trkpt lat="44.87318" lon="-0.76465">
        <ele>29.60000038147</ele>
        <time>2016-11-01T16:02:20.000Z</time>
      </trkpt>
      <trkpt lat="44.87309" lon="-0.76466">
        <ele>29.799999237061</ele>
        <time>2016-11-01T16:02:16.000Z</time>
      </trkpt>
      <trkpt lat="44.87308" lon="-0.76456">
        <ele>29.60000038147</ele>
        <time>2016-11-01T16:02:10.000Z</time>
      </trkpt>
      <trkpt lat="44.87307" lon="-0.76452">
        <ele>29.60000038147</ele>
        <time>2016-11-01T16:02:08.000Z</time>
      </trkpt>
      <trkpt lat="44.87297" lon="-0.76446">
        <ele>30</ele>
        <time>2016-11-01T16:02:04.000Z</time>
      </trkpt>
      <trkpt lat="44.87294" lon="-0.76442">
        <ele>30.200000762939</ele>
        <time>2016-11-01T16:02:03.000Z</time>
      </trkpt>
      <trkpt lat="44.87281" lon="-0.76423">
        <ele>30.799999237061</ele>
        <time>2016-11-01T16:01:59.000Z</time>
      </trkpt>
      <trkpt lat="44.87273" lon="-0.76405">
        <ele>31.39999961853</ele>
        <time>2016-11-01T16:01:54.000Z</time>
      </trkpt>
      <trkpt lat="44.87274" lon="-0.76402">
        <ele>31.39999961853</ele>
        <time>2016-11-01T16:01:52.000Z</time>
      </trkpt>
      <trkpt lat="44.87275" lon="-0.76397">
        <ele>31.39999961853</ele>
        <time>2016-11-01T16:01:49.000Z</time>
      </trkpt>
      <trkpt lat="44.87269" lon="-0.76386">
        <ele>31.799999237061</ele>
        <time>2016-11-01T16:01:46.000Z</time>
      </trkpt>
      <trkpt lat="44.87263" lon="-0.76374">
        <ele>32</ele>
        <time>2016-11-01T16:01:42.000Z</time>
      </trkpt>
      <trkpt lat="44.87253" lon="-0.7636">
        <ele>32.400001525879</ele>
        <time>2016-11-01T16:01:39.000Z</time>
      </trkpt>
      <trkpt lat="44.87246" lon="-0.76346">
        <ele>32.599998474121</ele>
        <time>2016-11-01T16:01:35.000Z</time>
      </trkpt>
      <trkpt lat="44.87249" lon="-0.76336">
        <ele>32.400001525879</ele>
        <time>2016-11-01T16:01:32.000Z</time>
      </trkpt>
      <trkpt lat="44.8726" lon="-0.76328">
        <ele>32</ele>
        <time>2016-11-01T16:01:29.000Z</time>
      </trkpt>
      <trkpt lat="44.8727" lon="-0.76323">
        <ele>31.799999237061</ele>
        <time>2016-11-01T16:01:25.000Z</time>
      </trkpt>
      <trkpt lat="44.87278" lon="-0.76327">
        <ele>31.39999961853</ele>
        <time>2016-11-01T16:01:20.000Z</time>
      </trkpt>
      <trkpt lat="44.87282" lon="-0.76324">
        <ele>31.200000762939</ele>
        <time>2016-11-01T16:01:18.000Z</time>
      </trkpt>
      <trkpt lat="44.87283" lon="-0.7631">
        <ele>31.200000762939</ele>
        <time>2016-11-01T16:01:14.000Z</time>
      </trkpt>
      <trkpt lat="44.87279" lon="-0.76296">
        <ele>31.200000762939</ele>
        <time>2016-11-01T16:01:11.000Z</time>
      </trkpt>
      <trkpt lat="44.87272" lon="-0.76283">
        <ele>31.39999961853</ele>
        <time>2016-11-01T16:01:06.000Z</time>
      </trkpt>
      <trkpt lat="44.8727" lon="-0.76273">
        <ele>31.39999961853</ele>
        <time>2016-11-01T16:01:01.000Z</time>
      </trkpt>
      <trkpt lat="44.87264" lon="-0.7628">
        <ele>31.60000038147</ele>
        <time>2016-11-01T16:00:56.000Z</time>
      </trkpt>
      <trkpt lat="44.87263" lon="-0.76284">
        <ele>31.799999237061</ele>
        <time>2016-11-01T16:00:55.000Z</time>
      </trkpt>
      <trkpt lat="44.87254" lon="-0.76289">
        <ele>32.200000762939</ele>
        <time>2016-11-01T16:00:52.000Z</time>
      </trkpt>
      <trkpt lat="44.87243" lon="-0.76304">
        <ele>32.599998474121</ele>
        <time>2016-11-01T16:00:49.000Z</time>
      </trkpt>
      <trkpt lat="44.87242" lon="-0.76306">
        <ele>32.799999237061</ele>
        <time>2016-11-01T16:00:48.000Z</time>
      </trkpt>
      <trkpt lat="44.87234" lon="-0.76318">
        <ele>33</ele>
        <time>2016-11-01T16:00:43.000Z</time>
      </trkpt>
      <trkpt lat="44.87231" lon="-0.76321">
        <ele>33.200000762939</ele>
        <time>2016-11-01T16:00:41.000Z</time>
      </trkpt>
      <trkpt lat="44.87227" lon="-0.76323">
        <ele>33.200000762939</ele>
        <time>2016-11-01T16:00:37.000Z</time>
      </trkpt>
      <trkpt lat="44.87227" lon="-0.7632">
        <ele>33.200000762939</ele>
        <time>2016-11-01T16:00:36.000Z</time>
      </trkpt>
      <trkpt lat="44.87234" lon="-0.76299">
        <ele>33</ele>
        <time>2016-11-01T16:00:31.000Z</time>
      </trkpt>
      <trkpt lat="44.87234" lon="-0.76295">
        <ele>32.799999237061</ele>
        <time>2016-11-01T16:00:30.000Z</time>
      </trkpt>
      <trkpt lat="44.87231" lon="-0.76286">
        <ele>32.799999237061</ele>
        <time>2016-11-01T16:00:27.000Z</time>
      </trkpt>
      <trkpt lat="44.87223" lon="-0.76268">
        <ele>32.799999237061</ele>
        <time>2016-11-01T16:00:22.000Z</time>
      </trkpt>
      <trkpt lat="44.87222" lon="-0.76265">
        <ele>32.599998474121</ele>
        <time>2016-11-01T16:00:21.000Z</time>
      </trkpt>
      <trkpt lat="44.87224" lon="-0.76249">
        <ele>32.200000762939</ele>
        <time>2016-11-01T16:00:17.000Z</time>
      </trkpt>
      <trkpt lat="44.87233" lon="-0.76237">
        <ele>31.799999237061</ele>
        <time>2016-11-01T16:00:14.000Z</time>
      </trkpt>
      <trkpt lat="44.8724" lon="-0.76221">
        <ele>31.200000762939</ele>
        <time>2016-11-01T16:00:10.000Z</time>
      </trkpt>
      <trkpt lat="44.87254" lon="-0.76214">
        <ele>30.60000038147</ele>
        <time>2016-11-01T16:00:05.000Z</time>
      </trkpt>
      <trkpt lat="44.87269" lon="-0.76225">
        <ele>30.60000038147</ele>
        <time>2016-11-01T16:00:01.000Z</time>
      </trkpt>
      <trkpt lat="44.8728" lon="-0.76241">
        <ele>30.60000038147</ele>
        <time>2016-11-01T15:59:56.000Z</time>
      </trkpt>
      <trkpt lat="44.87288" lon="-0.76252">
        <ele>30.39999961853</ele>
        <time>2016-11-01T15:59:50.000Z</time>
      </trkpt>
      <trkpt lat="44.87293" lon="-0.76255">
        <ele>30.200000762939</ele>
        <time>2016-11-01T15:59:48.000Z</time>
      </trkpt>
      <trkpt lat="44.873" lon="-0.76265">
        <ele>30</ele>
        <time>2016-11-01T15:59:44.000Z</time>
      </trkpt>
      <trkpt lat="44.87304" lon="-0.76265">
        <ele>29.799999237061</ele>
        <time>2016-11-01T15:59:39.000Z</time>
      </trkpt>
      <trkpt lat="44.87303" lon="-0.76259">
        <ele>29.799999237061</ele>
        <time>2016-11-01T15:59:34.000Z</time>
      </trkpt>
      <trkpt lat="44.87302" lon="-0.76258">
        <ele>29.799999237061</ele>
        <time>2016-11-01T15:59:29.000Z</time>
      </trkpt>
      <trkpt lat="44.87305" lon="-0.76255">
        <ele>29.60000038147</ele>
        <time>2016-11-01T15:59:24.000Z</time>
      </trkpt>
      <trkpt lat="44.87307" lon="-0.76239">
        <ele>29.39999961853</ele>
        <time>2016-11-01T15:59:19.000Z</time>
      </trkpt>
      <trkpt lat="44.87311" lon="-0.76232">
        <ele>29.200000762939</ele>
        <time>2016-11-01T15:59:17.000Z</time>
      </trkpt>
      <trkpt lat="44.87316" lon="-0.76214">
        <ele>28.799999237061</ele>
        <time>2016-11-01T15:59:12.000Z</time>
      </trkpt>
      <trkpt lat="44.87318" lon="-0.7621">
        <ele>28.60000038147</ele>
        <time>2016-11-01T15:59:11.000Z</time>
      </trkpt>
      <trkpt lat="44.8733" lon="-0.76193">
        <ele>28</ele>
        <time>2016-11-01T15:59:06.000Z</time>
      </trkpt>
      <trkpt lat="44.87344" lon="-0.7618">
        <ele>27.39999961853</ele>
        <time>2016-11-01T15:59:02.000Z</time>
      </trkpt>
      <trkpt lat="44.8736" lon="-0.76178">
        <ele>26.60000038147</ele>
        <time>2016-11-01T15:58:58.000Z</time>
      </trkpt>
      <trkpt lat="44.87367" lon="-0.76175">
        <ele>26.200000762939</ele>
        <time>2016-11-01T15:58:55.000Z</time>
      </trkpt>
      <trkpt lat="44.87385" lon="-0.76161">
        <ele>26.200000762939</ele>
        <time>2016-11-01T15:58:50.000Z</time>
      </trkpt>
      <trkpt lat="44.87388" lon="-0.76136">
        <ele>26.39999961853</ele>
        <time>2016-11-01T15:58:46.000Z</time>
      </trkpt>
      <trkpt lat="44.87388" lon="-0.76131">
        <ele>26.200000762939</ele>
        <time>2016-11-01T15:58:45.000Z</time>
      </trkpt>
      <trkpt lat="44.87379" lon="-0.76108">
        <ele>26</ele>
        <time>2016-11-01T15:58:39.000Z</time>
      </trkpt>
      <trkpt lat="44.8737" lon="-0.76095">
        <ele>26</ele>
        <time>2016-11-01T15:58:34.000Z</time>
      </trkpt>
      <trkpt lat="44.87367" lon="-0.76094">
        <ele>26.200000762939</ele>
        <time>2016-11-01T15:58:33.000Z</time>
      </trkpt>
      <trkpt lat="44.87359" lon="-0.7608">
        <ele>26.39999961853</ele>
        <time>2016-11-01T15:58:30.000Z</time>
      </trkpt>
      <trkpt lat="44.87359" lon="-0.76054">
        <ele>26.200000762939</ele>
        <time>2016-11-01T15:58:26.000Z</time>
      </trkpt>
      <trkpt lat="44.87363" lon="-0.76034">
        <ele>27.39999961853</ele>
        <time>2016-11-01T15:58:23.000Z</time>
      </trkpt>
      <trkpt lat="44.87353" lon="-0.76015">
        <ele>28.60000038147</ele>
        <time>2016-11-01T15:58:20.000Z</time>
      </trkpt>
      <trkpt lat="44.87337" lon="-0.76007">
        <ele>29.200000762939</ele>
        <time>2016-11-01T15:58:16.000Z</time>
      </trkpt>
      <trkpt lat="44.87324" lon="-0.76016">
        <ele>28.60000038147</ele>
        <time>2016-11-01T15:58:13.000Z</time>
      </trkpt>
      <trkpt lat="44.87319" lon="-0.76019">
        <ele>28.39999961853</ele>
        <time>2016-11-01T15:58:12.000Z</time>
      </trkpt>
      <trkpt lat="44.87303" lon="-0.76016">
        <ele>28</ele>
        <time>2016-11-01T15:58:09.000Z</time>
      </trkpt>
      <trkpt lat="44.8729" lon="-0.76003">
        <ele>27.60000038147</ele>
        <time>2016-11-01T15:58:05.000Z</time>
      </trkpt>
      <trkpt lat="44.87283" lon="-0.76005">
        <ele>28</ele>
        <time>2016-11-01T15:58:03.000Z</time>
      </trkpt>
      <trkpt lat="44.8727" lon="-0.76006">
        <ele>28.60000038147</ele>
        <time>2016-11-01T15:57:59.000Z</time>
      </trkpt>
      <trkpt lat="44.87262" lon="-0.76003">
        <ele>29</ele>
        <time>2016-11-01T15:57:57.000Z</time>
      </trkpt>
      <trkpt lat="44.8725" lon="-0.76001">
        <ele>29.39999961853</ele>
        <time>2016-11-01T15:57:53.000Z</time>
      </trkpt>
      <trkpt lat="44.87242" lon="-0.7601">
        <ele>29.60000038147</ele>
        <time>2016-11-01T15:57:50.000Z</time>
      </trkpt>
      <trkpt lat="44.87238" lon="-0.76018">
        <ele>29.799999237061</ele>
        <time>2016-11-01T15:57:48.000Z</time>
      </trkpt>
      <trkpt lat="44.87236" lon="-0.76038">
        <ele>29.799999237061</ele>
        <time>2016-11-01T15:57:44.000Z</time>
      </trkpt>
      <trkpt lat="44.87227" lon="-0.76052">
        <ele>30</ele>
        <time>2016-11-01T15:57:40.000Z</time>
      </trkpt>
      <trkpt lat="44.87217" lon="-0.7607">
        <ele>30.200000762939</ele>
        <time>2016-11-01T15:57:35.000Z</time>
      </trkpt>
      <trkpt lat="44.87209" lon="-0.76087">
        <ele>30.39999961853</ele>
        <time>2016-11-01T15:57:30.000Z</time>
      </trkpt>
      <trkpt lat="44.87207" lon="-0.76089">
        <ele>30.60000038147</ele>
        <time>2016-11-01T15:57:28.000Z</time>
      </trkpt>
      <trkpt lat="44.872" lon="-0.76098">
        <ele>30.799999237061</ele>
        <time>2016-11-01T15:57:22.000Z</time>
      </trkpt>
      <trkpt lat="44.87199" lon="-0.76103">
        <ele>30.799999237061</ele>
        <time>2016-11-01T15:57:21.000Z</time>
      </trkpt>
      <trkpt lat="44.87197" lon="-0.76127">
        <ele>30.60000038147</ele>
        <time>2016-11-01T15:57:16.000Z</time>
      </trkpt>
      <trkpt lat="44.87195" lon="-0.76141">
        <ele>30.39999961853</ele>
        <time>2016-11-01T15:57:11.000Z</time>
      </trkpt>
      <trkpt lat="44.87193" lon="-0.76143">
        <ele>30.39999961853</ele>
        <time>2016-11-01T15:57:10.000Z</time>
      </trkpt>
      <trkpt lat="44.87186" lon="-0.76155">
        <ele>30.39999961853</ele>
        <time>2016-11-01T15:56:58.000Z</time>
      </trkpt>
      <trkpt lat="44.87184" lon="-0.76161">
        <ele>30.200000762939</ele>
        <time>2016-11-01T15:56:52.000Z</time>
      </trkpt>
      <trkpt lat="44.87182" lon="-0.76173">
        <ele>30.60000038147</ele>
        <time>2016-11-01T15:56:49.000Z</time>
      </trkpt>
      <trkpt lat="44.87185" lon="-0.76182">
        <ele>30.799999237061</ele>
        <time>2016-11-01T15:56:47.000Z</time>
      </trkpt>
      <trkpt lat="44.87191" lon="-0.76196">
        <ele>31.200000762939</ele>
        <time>2016-11-01T15:56:43.000Z</time>
      </trkpt>
      <trkpt lat="44.87182" lon="-0.76211">
        <ele>31.39999961853</ele>
        <time>2016-11-01T15:56:39.000Z</time>
      </trkpt>
      <trkpt lat="44.87176" lon="-0.76224">
        <ele>31.60000038147</ele>
        <time>2016-11-01T15:56:36.000Z</time>
      </trkpt>
      <trkpt lat="44.87166" lon="-0.76234">
        <ele>31.60000038147</ele>
        <time>2016-11-01T15:56:32.000Z</time>
      </trkpt>
      <trkpt lat="44.87146" lon="-0.76238">
        <ele>31.39999961853</ele>
        <time>2016-11-01T15:56:28.000Z</time>
      </trkpt>
      <trkpt lat="44.87118" lon="-0.76245">
        <ele>31.200000762939</ele>
        <time>2016-11-01T15:56:23.000Z</time>
      </trkpt>
      <trkpt lat="44.87113" lon="-0.76246">
        <ele>31.39999961853</ele>
        <time>2016-11-01T15:56:22.000Z</time>
      </trkpt>
      <trkpt lat="44.87081" lon="-0.76257">
        <ele>31.60000038147</ele>
        <time>2016-11-01T15:56:16.000Z</time>
      </trkpt>
      <trkpt lat="44.87054" lon="-0.76263">
        <ele>32.200000762939</ele>
        <time>2016-11-01T15:56:11.000Z</time>
      </trkpt>
      <trkpt lat="44.87034" lon="-0.76269">
        <ele>32.400001525879</ele>
        <time>2016-11-01T15:56:07.000Z</time>
      </trkpt>
      <trkpt lat="44.87016" lon="-0.76273">
        <ele>32.599998474121</ele>
        <time>2016-11-01T15:56:02.000Z</time>
      </trkpt>
      <trkpt lat="44.87006" lon="-0.76277">
        <ele>32.799999237061</ele>
        <time>2016-11-01T15:55:59.000Z</time>
      </trkpt>
      <trkpt lat="44.86994" lon="-0.76263">
        <ele>33</ele>
        <time>2016-11-01T15:55:55.000Z</time>
      </trkpt>
      <trkpt lat="44.86988" lon="-0.76249">
        <ele>33.599998474121</ele>
        <time>2016-11-01T15:55:53.000Z</time>
      </trkpt>
      <trkpt lat="44.86969" lon="-0.76197">
        <ele>34.799999237061</ele>
        <time>2016-11-01T15:55:46.000Z</time>
      </trkpt>
      <trkpt lat="44.86957" lon="-0.76147">
        <ele>35</ele>
        <time>2016-11-01T15:55:40.000Z</time>
      </trkpt>
      <trkpt lat="44.86956" lon="-0.76099">
        <ele>36.400001525879</ele>
        <time>2016-11-01T15:55:34.000Z</time>
      </trkpt>
      <trkpt lat="44.86963" lon="-0.76052">
        <ele>37.799999237061</ele>
        <time>2016-11-01T15:55:28.000Z</time>
      </trkpt>
      <trkpt lat="44.86982" lon="-0.75997">
        <ele>39.200000762939</ele>
        <time>2016-11-01T15:55:20.000Z</time>
      </trkpt>
      <trkpt lat="44.87004" lon="-0.75945">
        <ele>39.599998474121</ele>
        <time>2016-11-01T15:55:12.000Z</time>
      </trkpt>
      <trkpt lat="44.87033" lon="-0.75881">
        <ele>39.200000762939</ele>
        <time>2016-11-01T15:55:02.000Z</time>
      </trkpt>
      <trkpt lat="44.87052" lon="-0.75837">
        <ele>37.799999237061</ele>
        <time>2016-11-01T15:54:55.000Z</time>
      </trkpt>
      <trkpt lat="44.87078" lon="-0.75778">
        <ele>36.400001525879</ele>
        <time>2016-11-01T15:54:45.000Z</time>
      </trkpt>
      <trkpt lat="44.87097" lon="-0.75734">
        <ele>36</ele>
        <time>2016-11-01T15:54:37.000Z</time>
      </trkpt>
      <trkpt lat="44.87116" lon="-0.75692">
        <ele>35.200000762939</ele>
        <time>2016-11-01T15:54:31.000Z</time>
      </trkpt>
      <trkpt lat="44.87128" lon="-0.75667">
        <ele>34.799999237061</ele>
        <time>2016-11-01T15:54:27.000Z</time>
      </trkpt>
      <trkpt lat="44.87149" lon="-0.7562">
        <ele>34.799999237061</ele>
        <time>2016-11-01T15:54:18.000Z</time>
      </trkpt>
      <trkpt lat="44.87162" lon="-0.75589">
        <ele>34.799999237061</ele>
        <time>2016-11-01T15:54:11.000Z</time>
      </trkpt>
      <trkpt lat="44.87172" lon="-0.75576">
        <ele>34.799999237061</ele>
        <time>2016-11-01T15:54:06.000Z</time>
      </trkpt>
      <trkpt lat="44.87178" lon="-0.75577">
        <ele>35</ele>
        <time>2016-11-01T15:54:02.000Z</time>
      </trkpt>
      <trkpt lat="44.87179" lon="-0.75577">
        <ele>35</ele>
        <time>2016-11-01T15:54:01.000Z</time>
      </trkpt>
      <trkpt lat="44.8718" lon="-0.75576">
        <ele>35</ele>
        <time>2016-11-01T15:53:42.000Z</time>
      </trkpt>
      <trkpt lat="44.87178" lon="-0.75577">
        <ele>35</ele>
        <time>2016-11-01T15:53:20.000Z</time>
      </trkpt>
      <trkpt lat="44.87174" lon="-0.75576">
        <ele>34.799999237061</ele>
        <time>2016-11-01T15:52:33.000Z</time>
      </trkpt>
      <trkpt lat="44.87172" lon="-0.75571">
        <ele>34.799999237061</ele>
        <time>2016-11-01T15:51:42.000Z</time>
      </trkpt>
      <trkpt lat="44.87169" lon="-0.7557">
        <ele>34.799999237061</ele>
        <time>2016-11-01T15:51:38.000Z</time>
      </trkpt>
      <trkpt lat="44.87156" lon="-0.75578">
        <ele>34.599998474121</ele>
        <time>2016-11-01T15:51:33.000Z</time>
      </trkpt>
      <trkpt lat="44.87145" lon="-0.75589">
        <ele>34.599998474121</ele>
        <time>2016-11-01T15:51:29.000Z</time>
      </trkpt>
      <trkpt lat="44.87129" lon="-0.75595">
        <ele>34.599998474121</ele>
        <time>2016-11-01T15:51:25.000Z</time>
      </trkpt>
      <trkpt lat="44.87121" lon="-0.75599">
        <ele>34.599998474121</ele>
        <time>2016-11-01T15:51:23.000Z</time>
      </trkpt>
      <trkpt lat="44.87092" lon="-0.75612">
        <ele>35</ele>
        <time>2016-11-01T15:51:16.000Z</time>
      </trkpt>
      <trkpt lat="44.8707" lon="-0.75625">
        <ele>35.400001525879</ele>
        <time>2016-11-01T15:51:10.000Z</time>
      </trkpt>
      <trkpt lat="44.87048" lon="-0.75642">
        <ele>36</ele>
        <time>2016-11-01T15:51:04.000Z</time>
      </trkpt>
      <trkpt lat="44.87036" lon="-0.75656">
        <ele>36.599998474121</ele>
        <time>2016-11-01T15:51:00.000Z</time>
      </trkpt>
      <trkpt lat="44.87015" lon="-0.75669">
        <ele>37.599998474121</ele>
        <time>2016-11-01T15:50:55.000Z</time>
      </trkpt>
      <trkpt lat="44.87006" lon="-0.75674">
        <ele>38.200000762939</ele>
        <time>2016-11-01T15:50:53.000Z</time>
      </trkpt>
      <trkpt lat="44.86988" lon="-0.75682">
        <ele>38.599998474121</ele>
        <time>2016-11-01T15:50:49.000Z</time>
      </trkpt>
      <trkpt lat="44.86962" lon="-0.75677">
        <ele>38.400001525879</ele>
        <time>2016-11-01T15:50:44.000Z</time>
      </trkpt>
      <trkpt lat="44.86941" lon="-0.7567">
        <ele>36.400001525879</ele>
        <time>2016-11-01T15:50:39.000Z</time>
      </trkpt>
      <trkpt lat="44.86927" lon="-0.75663">
        <ele>35</ele>
        <time>2016-11-01T15:50:35.000Z</time>
      </trkpt>
      <trkpt lat="44.86907" lon="-0.75655">
        <ele>33.799999237061</ele>
        <time>2016-11-01T15:50:30.000Z</time>
      </trkpt>
      <trkpt lat="44.86889" lon="-0.7565">
        <ele>33</ele>
        <time>2016-11-01T15:50:25.000Z</time>
      </trkpt>
      <trkpt lat="44.86882" lon="-0.75645">
        <ele>32.599998474121</ele>
        <time>2016-11-01T15:50:23.000Z</time>
      </trkpt>
      <trkpt lat="44.86879" lon="-0.75642">
        <ele>32.400001525879</ele>
        <time>2016-11-01T15:50:22.000Z</time>
      </trkpt>
      <trkpt lat="44.86872" lon="-0.75642">
        <ele>32</ele>
        <time>2016-11-01T15:50:20.000Z</time>
      </trkpt>
      <trkpt lat="44.86862" lon="-0.75647">
        <ele>31.60000038147</ele>
        <time>2016-11-01T15:50:17.000Z</time>
      </trkpt>
      <trkpt lat="44.86851" lon="-0.75636">
        <ele>31.200000762939</ele>
        <time>2016-11-01T15:50:13.000Z</time>
      </trkpt>
      <trkpt lat="44.8684" lon="-0.75629">
        <ele>30.799999237061</ele>
        <time>2016-11-01T15:50:10.000Z</time>
      </trkpt>
      <trkpt lat="44.86833" lon="-0.75621">
        <ele>30.39999961853</ele>
        <time>2016-11-01T15:50:07.000Z</time>
      </trkpt>
      <trkpt lat="44.86816" lon="-0.75622">
        <ele>29.799999237061</ele>
        <time>2016-11-01T15:50:02.000Z</time>
      </trkpt>
      <trkpt lat="44.86804" lon="-0.75624">
        <ele>29.39999961853</ele>
        <time>2016-11-01T15:49:59.000Z</time>
      </trkpt>
      <trkpt lat="44.86795" lon="-0.75637">
        <ele>29.200000762939</ele>
        <time>2016-11-01T15:49:55.000Z</time>
      </trkpt>
      <trkpt lat="44.86786" lon="-0.75648">
        <ele>29.200000762939</ele>
        <time>2016-11-01T15:49:52.000Z</time>
      </trkpt>
      <trkpt lat="44.86775" lon="-0.75653">
        <ele>29.60000038147</ele>
        <time>2016-11-01T15:49:48.000Z</time>
      </trkpt>
      <trkpt lat="44.86764" lon="-0.75655">
        <ele>30</ele>
        <time>2016-11-01T15:49:44.000Z</time>
      </trkpt>
      <trkpt lat="44.86766" lon="-0.75668">
        <ele>29.799999237061</ele>
        <time>2016-11-01T15:49:40.000Z</time>
      </trkpt>
      <trkpt lat="44.86772" lon="-0.75675">
        <ele>29.60000038147</ele>
        <time>2016-11-01T15:49:36.000Z</time>
      </trkpt>
      <trkpt lat="44.86775" lon="-0.75679">
        <ele>29.60000038147</ele>
        <time>2016-11-01T15:49:34.000Z</time>
      </trkpt>
      <trkpt lat="44.86772" lon="-0.75698">
        <ele>29.60000038147</ele>
        <time>2016-11-01T15:49:30.000Z</time>
      </trkpt>
      <trkpt lat="44.86771" lon="-0.75719">
        <ele>29.60000038147</ele>
        <time>2016-11-01T15:49:26.000Z</time>
      </trkpt>
      <trkpt lat="44.86765" lon="-0.7574">
        <ele>29.60000038147</ele>
        <time>2016-11-01T15:49:22.000Z</time>
      </trkpt>
      <trkpt lat="44.86762" lon="-0.75752">
        <ele>29.60000038147</ele>
        <time>2016-11-01T15:49:20.000Z</time>
      </trkpt>
      <trkpt lat="44.8676" lon="-0.75757">
        <ele>29.799999237061</ele>
        <time>2016-11-01T15:49:19.000Z</time>
      </trkpt>
      <trkpt lat="44.86748" lon="-0.75791">
        <ele>30</ele>
        <time>2016-11-01T15:49:13.000Z</time>
      </trkpt>
      <trkpt lat="44.86737" lon="-0.7582">
        <ele>29.799999237061</ele>
        <time>2016-11-01T15:49:08.000Z</time>
      </trkpt>
      <trkpt lat="44.86734" lon="-0.75839">
        <ele>29.39999961853</ele>
        <time>2016-11-01T15:49:05.000Z</time>
      </trkpt>
      <trkpt lat="44.86726" lon="-0.75857">
        <ele>29.200000762939</ele>
        <time>2016-11-01T15:49:01.000Z</time>
      </trkpt>
      <trkpt lat="44.86716" lon="-0.75872">
        <ele>29.200000762939</ele>
        <time>2016-11-01T15:48:57.000Z</time>
      </trkpt>
      <trkpt lat="44.86707" lon="-0.75885">
        <ele>29</ele>
        <time>2016-11-01T15:48:53.000Z</time>
      </trkpt>
      <trkpt lat="44.86693" lon="-0.75903">
        <ele>28.39999961853</ele>
        <time>2016-11-01T15:48:48.000Z</time>
      </trkpt>
      <trkpt lat="44.86679" lon="-0.75918">
        <ele>27.799999237061</ele>
        <time>2016-11-01T15:48:43.000Z</time>
      </trkpt>
      <trkpt lat="44.86671" lon="-0.75919">
        <ele>27.60000038147</ele>
        <time>2016-11-01T15:48:39.000Z</time>
      </trkpt>
      <trkpt lat="44.8666" lon="-0.75912">
        <ele>27.799999237061</ele>
        <time>2016-11-01T15:48:35.000Z</time>
      </trkpt>
      <trkpt lat="44.86656" lon="-0.75907">
        <ele>28</ele>
        <time>2016-11-01T15:48:33.000Z</time>
      </trkpt>
      <trkpt lat="44.86646" lon="-0.75897">
        <ele>28.60000038147</ele>
        <time>2016-11-01T15:48:29.000Z</time>
      </trkpt>
      <trkpt lat="44.86636" lon="-0.75889">
        <ele>29</ele>
        <time>2016-11-01T15:48:25.000Z</time>
      </trkpt>
      <trkpt lat="44.86619" lon="-0.75886">
        <ele>29.39999961853</ele>
        <time>2016-11-01T15:48:21.000Z</time>
      </trkpt>
      <trkpt lat="44.86607" lon="-0.75884">
        <ele>30</ele>
        <time>2016-11-01T15:48:18.000Z</time>
      </trkpt>
      <trkpt lat="44.86595" lon="-0.75888">
        <ele>30.60000038147</ele>
        <time>2016-11-01T15:48:15.000Z</time>
      </trkpt>
      <trkpt lat="44.86586" lon="-0.75899">
        <ele>30.799999237061</ele>
        <time>2016-11-01T15:48:12.000Z</time>
      </trkpt>
      <trkpt lat="44.86577" lon="-0.75923">
        <ele>30.39999961853</ele>
        <time>2016-11-01T15:48:08.000Z</time>
      </trkpt>
      <trkpt lat="44.86573" lon="-0.75947">
        <ele>29.799999237061</ele>
        <time>2016-11-01T15:48:04.000Z</time>
      </trkpt>
      <trkpt lat="44.86572" lon="-0.75976">
        <ele>28.60000038147</ele>
        <time>2016-11-01T15:47:59.000Z</time>
      </trkpt>
      <trkpt lat="44.86565" lon="-0.76">
        <ele>28.39999961853</ele>
        <time>2016-11-01T15:47:55.000Z</time>
      </trkpt>
      <trkpt lat="44.86562" lon="-0.76012">
        <ele>28.39999961853</ele>
        <time>2016-11-01T15:47:53.000Z</time>
      </trkpt>
      <trkpt lat="44.8655" lon="-0.76031">
        <ele>28.799999237061</ele>
        <time>2016-11-01T15:47:49.000Z</time>
      </trkpt>
      <trkpt lat="44.86541" lon="-0.76045">
        <ele>29.200000762939</ele>
        <time>2016-11-01T15:47:46.000Z</time>
      </trkpt>
      <trkpt lat="44.8653" lon="-0.76067">
        <ele>29.200000762939</ele>
        <time>2016-11-01T15:47:41.000Z</time>
      </trkpt>
      <trkpt lat="44.86525" lon="-0.76076">
        <ele>29.39999961853</ele>
        <time>2016-11-01T15:47:39.000Z</time>
      </trkpt>
      <trkpt lat="44.86512" lon="-0.76099">
        <ele>29.799999237061</ele>
        <time>2016-11-01T15:47:34.000Z</time>
      </trkpt>
      <trkpt lat="44.86497" lon="-0.76119">
        <ele>30.200000762939</ele>
        <time>2016-11-01T15:47:29.000Z</time>
      </trkpt>
      <trkpt lat="44.86487" lon="-0.76136">
        <ele>30.60000038147</ele>
        <time>2016-11-01T15:47:26.000Z</time>
      </trkpt>
      <trkpt lat="44.8647" lon="-0.76168">
        <ele>31</ele>
        <time>2016-11-01T15:47:20.000Z</time>
      </trkpt>
      <trkpt lat="44.86466" lon="-0.76179">
        <ele>31</ele>
        <time>2016-11-01T15:47:18.000Z</time>
      </trkpt>
      <trkpt lat="44.8645" lon="-0.76207">
        <ele>31.200000762939</ele>
        <time>2016-11-01T15:47:12.000Z</time>
      </trkpt>
      <trkpt lat="44.86442" lon="-0.76236">
        <ele>31.39999961853</ele>
        <time>2016-11-01T15:47:07.000Z</time>
      </trkpt>
      <trkpt lat="44.86433" lon="-0.76255">
        <ele>31.60000038147</ele>
        <time>2016-11-01T15:47:04.000Z</time>
      </trkpt>
      <trkpt lat="44.86418" lon="-0.76275">
        <ele>32</ele>
        <time>2016-11-01T15:47:00.000Z</time>
      </trkpt>
      <trkpt lat="44.86401" lon="-0.76292">
        <ele>32.400001525879</ele>
        <time>2016-11-01T15:46:56.000Z</time>
      </trkpt>
      <trkpt lat="44.86379" lon="-0.76307">
        <ele>32.799999237061</ele>
        <time>2016-11-01T15:46:52.000Z</time>
      </trkpt>
      <trkpt lat="44.86375" lon="-0.76312">
        <ele>33</ele>
        <time>2016-11-01T15:46:51.000Z</time>
      </trkpt>
      <trkpt lat="44.86364" lon="-0.76328">
        <ele>33</ele>
        <time>2016-11-01T15:46:47.000Z</time>
      </trkpt>
      <trkpt lat="44.8635" lon="-0.76351">
        <ele>33</ele>
        <time>2016-11-01T15:46:41.000Z</time>
      </trkpt>
      <trkpt lat="44.86337" lon="-0.76393">
        <ele>33</ele>
        <time>2016-11-01T15:46:33.000Z</time>
      </trkpt>
      <trkpt lat="44.86334" lon="-0.76404">
        <ele>33.200000762939</ele>
        <time>2016-11-01T15:46:31.000Z</time>
      </trkpt>
      <trkpt lat="44.86334" lon="-0.76432">
        <ele>33.400001525879</ele>
        <time>2016-11-01T15:46:26.000Z</time>
      </trkpt>
      <trkpt lat="44.86335" lon="-0.76462">
        <ele>33.400001525879</ele>
        <time>2016-11-01T15:46:22.000Z</time>
      </trkpt>
      <trkpt lat="44.86335" lon="-0.7647">
        <ele>33.400001525879</ele>
        <time>2016-11-01T15:46:21.000Z</time>
      </trkpt>
      <trkpt lat="44.86338" lon="-0.76492">
        <ele>33</ele>
        <time>2016-11-01T15:46:18.000Z</time>
      </trkpt>
      <trkpt lat="44.86343" lon="-0.76505">
        <ele>32.799999237061</ele>
        <time>2016-11-01T15:46:16.000Z</time>
      </trkpt>
      <trkpt lat="44.86332" lon="-0.76522">
        <ele>32.799999237061</ele>
        <time>2016-11-01T15:46:13.000Z</time>
      </trkpt>
      <trkpt lat="44.86312" lon="-0.76529">
        <ele>32.400001525879</ele>
        <time>2016-11-01T15:46:09.000Z</time>
      </trkpt>
      <trkpt lat="44.86294" lon="-0.76521">
        <ele>32.799999237061</ele>
        <time>2016-11-01T15:46:05.000Z</time>
      </trkpt>
      <trkpt lat="44.8628" lon="-0.76519">
        <ele>33</ele>
        <time>2016-11-01T15:46:02.000Z</time>
      </trkpt>
      <trkpt lat="44.86269" lon="-0.76533">
        <ele>32.799999237061</ele>
        <time>2016-11-01T15:45:59.000Z</time>
      </trkpt>
      <trkpt lat="44.86255" lon="-0.76557">
        <ele>32.400001525879</ele>
        <time>2016-11-01T15:45:54.000Z</time>
      </trkpt>
      <trkpt lat="44.86252" lon="-0.76561">
        <ele>32.599998474121</ele>
        <time>2016-11-01T15:45:53.000Z</time>
      </trkpt>
      <trkpt lat="44.86244" lon="-0.76572">
        <ele>32.799999237061</ele>
        <time>2016-11-01T15:45:50.000Z</time>
      </trkpt>
      <trkpt lat="44.86233" lon="-0.76579">
        <ele>33</ele>
        <time>2016-11-01T15:45:46.000Z</time>
      </trkpt>
      <trkpt lat="44.86226" lon="-0.76589">
        <ele>33.200000762939</ele>
        <time>2016-11-01T15:45:43.000Z</time>
      </trkpt>
      <trkpt lat="44.86219" lon="-0.76603">
        <ele>33.400001525879</ele>
        <time>2016-11-01T15:45:40.000Z</time>
      </trkpt>
      <trkpt lat="44.86213" lon="-0.76615">
        <ele>33.599998474121</ele>
        <time>2016-11-01T15:45:37.000Z</time>
      </trkpt>
      <trkpt lat="44.86208" lon="-0.76636">
        <ele>34</ele>
        <time>2016-11-01T15:45:33.000Z</time>
      </trkpt>
      <trkpt lat="44.86198" lon="-0.76645">
        <ele>34.200000762939</ele>
        <time>2016-11-01T15:45:30.000Z</time>
      </trkpt>
      <trkpt lat="44.86206" lon="-0.76668">
        <ele>34</ele>
        <time>2016-11-01T15:45:26.000Z</time>
      </trkpt>
      <trkpt lat="44.86213" lon="-0.7669">
        <ele>33.799999237061</ele>
        <time>2016-11-01T15:45:22.000Z</time>
      </trkpt>
      <trkpt lat="44.86215" lon="-0.76694">
        <ele>33.599998474121</ele>
        <time>2016-11-01T15:45:21.000Z</time>
      </trkpt>
      <trkpt lat="44.86218" lon="-0.76716">
        <ele>33.599998474121</ele>
        <time>2016-11-01T15:45:17.000Z</time>
      </trkpt>
      <trkpt lat="44.86219" lon="-0.76731">
        <ele>34</ele>
        <time>2016-11-01T15:45:15.000Z</time>
      </trkpt>
      <trkpt lat="44.86219" lon="-0.76746">
        <ele>34.200000762939</ele>
        <time>2016-11-01T15:45:13.000Z</time>
      </trkpt>
      <trkpt lat="44.86219" lon="-0.76761">
        <ele>34.599998474121</ele>
        <time>2016-11-01T15:45:11.000Z</time>
      </trkpt>
      <trkpt lat="44.8622" lon="-0.76775">
        <ele>35</ele>
        <time>2016-11-01T15:45:09.000Z</time>
      </trkpt>
      <trkpt lat="44.86208" lon="-0.7679">
        <ele>35.599998474121</ele>
        <time>2016-11-01T15:45:06.000Z</time>
      </trkpt>
      <trkpt lat="44.86191" lon="-0.76801">
        <ele>36.400001525879</ele>
        <time>2016-11-01T15:45:03.000Z</time>
      </trkpt>
      <trkpt lat="44.86178" lon="-0.76818">
        <ele>36.400001525879</ele>
        <time>2016-11-01T15:44:59.000Z</time>
      </trkpt>
      <trkpt lat="44.86171" lon="-0.7682">
        <ele>36.599998474121</ele>
        <time>2016-11-01T15:44:57.000Z</time>
      </trkpt>
      <trkpt lat="44.86168" lon="-0.76819">
        <ele>36.599998474121</ele>
        <time>2016-11-01T15:44:56.000Z</time>
      </trkpt>
      <trkpt lat="44.86163" lon="-0.76819">
        <ele>36.799999237061</ele>
        <time>2016-11-01T15:44:54.000Z</time>
      </trkpt>
      <trkpt lat="44.86155" lon="-0.76833">
        <ele>36.400001525879</ele>
        <time>2016-11-01T15:44:50.000Z</time>
      </trkpt>
      <trkpt lat="44.86146" lon="-0.76836">
        <ele>36.599998474121</ele>
        <time>2016-11-01T15:44:47.000Z</time>
      </trkpt>
      <trkpt lat="44.8614" lon="-0.76857">
        <ele>35.799999237061</ele>
        <time>2016-11-01T15:44:42.000Z</time>
      </trkpt>
      <trkpt lat="44.86136" lon="-0.76871">
        <ele>35.400001525879</ele>
        <time>2016-11-01T15:44:39.000Z</time>
      </trkpt>
      <trkpt lat="44.86145" lon="-0.76881">
        <ele>35.200000762939</ele>
        <time>2016-11-01T15:44:35.000Z</time>
      </trkpt>
      <trkpt lat="44.86156" lon="-0.76904">
        <ele>35.400001525879</ele>
        <time>2016-11-01T15:44:29.000Z</time>
      </trkpt>
      <trkpt lat="44.86169" lon="-0.76912">
        <ele>35.599998474121</ele>
        <time>2016-11-01T15:44:24.000Z</time>
      </trkpt>
      <trkpt lat="44.86175" lon="-0.76905">
        <ele>35.599998474121</ele>
        <time>2016-11-01T15:44:22.000Z</time>
      </trkpt>
      <trkpt lat="44.86193" lon="-0.76888">
        <ele>35.799999237061</ele>
        <time>2016-11-01T15:44:15.000Z</time>
      </trkpt>
      <trkpt lat="44.86195" lon="-0.76887">
        <ele>35.799999237061</ele>
        <time>2016-11-01T15:44:14.000Z</time>
      </trkpt>
      <trkpt lat="44.86209" lon="-0.76885">
        <ele>36</ele>
        <time>2016-11-01T15:44:10.000Z</time>
      </trkpt>
      <trkpt lat="44.86213" lon="-0.76889">
        <ele>36.400001525879</ele>
        <time>2016-11-01T15:44:09.000Z</time>
      </trkpt>
      <trkpt lat="44.86237" lon="-0.769">
        <ele>37.400001525879</ele>
        <time>2016-11-01T15:44:02.000Z</time>
      </trkpt>
      <trkpt lat="44.86246" lon="-0.76905">
        <ele>38</ele>
        <time>2016-11-01T15:43:59.000Z</time>
      </trkpt>
      <trkpt lat="44.86254" lon="-0.76907">
        <ele>38.200000762939</ele>
        <time>2016-11-01T15:43:56.000Z</time>
      </trkpt>
      <trkpt lat="44.86259" lon="-0.76895">
        <ele>38.599998474121</ele>
        <time>2016-11-01T15:43:52.000Z</time>
      </trkpt>
      <trkpt lat="44.86255" lon="-0.7688">
        <ele>38</ele>
        <time>2016-11-01T15:43:48.000Z</time>
      </trkpt>
      <trkpt lat="44.86257" lon="-0.76861">
        <ele>37.400001525879</ele>
        <time>2016-11-01T15:43:43.000Z</time>
      </trkpt>
      <trkpt lat="44.86258" lon="-0.76857">
        <ele>37.400001525879</ele>
        <time>2016-11-01T15:43:42.000Z</time>
      </trkpt>
      <trkpt lat="44.86263" lon="-0.76849">
        <ele>37.400001525879</ele>
        <time>2016-11-01T15:43:39.000Z</time>
      </trkpt>
      <trkpt lat="44.86274" lon="-0.76847">
        <ele>37.799999237061</ele>
        <time>2016-11-01T15:43:35.000Z</time>
      </trkpt>
      <trkpt lat="44.8628" lon="-0.76845">
        <ele>38</ele>
        <time>2016-11-01T15:43:32.000Z</time>
      </trkpt>
      <trkpt lat="44.86287" lon="-0.76856">
        <ele>38.799999237061</ele>
        <time>2016-11-01T15:43:28.000Z</time>
      </trkpt>
      <trkpt lat="44.86288" lon="-0.76859">
        <ele>36.4</ele>
      </trkpt>
      <trkpt lat="44.86289" lon="-0.76858">
        <ele>36.4</ele>
      </trkpt>
      <trkpt lat="44.86292" lon="-0.7686">
        <ele>39</ele>
        <time>2016-11-01T15:43:23.000Z</time>
      </trkpt>
      <trkpt lat="44.86289" lon="-0.76861">
        <ele>36.4</ele>
      </trkpt>
      <trkpt lat="44.86294" lon="-0.76879">
        <ele>39.400001525879</ele>
        <time>2016-11-01T15:42:54.000Z</time>
      </trkpt>
      <trkpt lat="44.86296" lon="-0.76879">
        <ele>39.400001525879</ele>
        <time>2016-11-01T15:42:51.000Z</time>
      </trkpt>
      <trkpt lat="44.86296" lon="-0.76879">
        <ele>39.400001525879</ele>
        <time>2016-11-01T15:42:50.000Z</time>
      </trkpt>
      <trkpt lat="44.86301" lon="-0.76886">
        <ele>39.200000762939</ele>
        <time>2016-11-01T15:42:44.000Z</time>
      </trkpt>
      <trkpt lat="44.86308" lon="-0.76887">
        <ele>36.2</ele>
      </trkpt>
      <trkpt lat="44.86308" lon="-0.76887">
        <ele>36.2</ele>
      </trkpt>
      <trkpt lat="44.86308" lon="-0.76889">
        <ele>36.2</ele>
      </trkpt>
      <trkpt lat="44.86311" lon="-0.76892">
        <ele>38.799999237061</ele>
        <time>2016-11-01T15:41:04.000Z</time>
      </trkpt>
      <trkpt lat="44.8631" lon="-0.7689">
        <ele>38.799999237061</ele>
        <time>2016-11-01T15:41:02.000Z</time>
      </trkpt>
      <trkpt lat="44.86313" lon="-0.76881">
        <ele>38.400001525879</ele>
        <time>2016-11-01T15:40:56.000Z</time>
      </trkpt>
      <trkpt lat="44.8632" lon="-0.76873">
        <ele>38</ele>
        <time>2016-11-01T15:40:49.000Z</time>
      </trkpt>
      <trkpt lat="44.86325" lon="-0.76863">
        <ele>37.599998474121</ele>
        <time>2016-11-01T15:40:42.000Z</time>
      </trkpt>
      <trkpt lat="44.86331" lon="-0.76852">
        <ele>37</ele>
        <time>2016-11-01T15:40:33.000Z</time>
      </trkpt>
      <trkpt lat="44.86338" lon="-0.7684">
        <ele>36.599998474121</ele>
        <time>2016-11-01T15:40:25.000Z</time>
      </trkpt>
      <trkpt lat="44.86344" lon="-0.76827">
        <ele>35.799999237061</ele>
        <time>2016-11-01T15:40:16.000Z</time>
      </trkpt>
      <trkpt lat="44.86344" lon="-0.7683">
        <ele>36</ele>
        <time>2016-11-01T15:40:11.000Z</time>
      </trkpt>
      <trkpt lat="44.86344" lon="-0.76834">
        <ele>36</ele>
        <time>2016-11-01T15:40:07.000Z</time>
      </trkpt>
      <trkpt lat="44.8635" lon="-0.76834">
        <ele>35.799999237061</ele>
        <time>2016-11-01T15:40:01.000Z</time>
      </trkpt>
      <trkpt lat="44.86352" lon="-0.76839">
        <ele>35.599998474121</ele>
        <time>2016-11-01T15:39:55.000Z</time>
      </trkpt>
      <trkpt lat="44.86352" lon="-0.76839">
        <ele>35.599998474121</ele>
        <time>2016-11-01T15:39:52.000Z</time>
      </trkpt>
      <trkpt lat="44.86357" lon="-0.76847">
        <ele>35.400001525879</ele>
        <time>2016-11-01T15:39:43.000Z</time>
      </trkpt>
      <trkpt lat="44.86354" lon="-0.76851">
        <ele>35.599998474121</ele>
        <time>2016-11-01T15:39:39.000Z</time>
      </trkpt>
      <trkpt lat="44.86352" lon="-0.76853">
        <ele>35.799999237061</ele>
        <time>2016-11-01T15:39:31.000Z</time>
      </trkpt>
      <trkpt lat="44.8635" lon="-0.76857">
        <ele>36</ele>
        <time>2016-11-01T15:39:26.000Z</time>
      </trkpt>
      <trkpt lat="44.86346" lon="-0.7686">
        <ele>36.200000762939</ele>
        <time>2016-11-01T15:39:19.000Z</time>
      </trkpt>
      <trkpt lat="44.86342" lon="-0.76861">
        <ele>36.400001525879</ele>
        <time>2016-11-01T15:39:13.000Z</time>
      </trkpt>
      <trkpt lat="44.86336" lon="-0.76867">
        <ele>37</ele>
        <time>2016-11-01T15:39:06.000Z</time>
      </trkpt>
      <trkpt lat="44.86335" lon="-0.76868">
        <ele>37</ele>
        <time>2016-11-01T15:39:04.000Z</time>
      </trkpt>
      <trkpt lat="44.86336" lon="-0.76872">
        <ele>37</ele>
        <time>2016-11-01T15:38:58.000Z</time>
      </trkpt>
      <trkpt lat="44.86339" lon="-0.76875">
        <ele>36.799999237061</ele>
        <time>2016-11-01T15:38:54.000Z</time>
      </trkpt>
      <trkpt lat="44.86339" lon="-0.76876">
        <ele>37</ele>
        <time>2016-11-01T15:38:47.000Z</time>
      </trkpt>
      <trkpt lat="44.86343" lon="-0.76879">
        <ele>36.599998474121</ele>
        <time>2016-11-01T15:38:42.000Z</time>
      </trkpt>
      <trkpt lat="44.86348" lon="-0.76883">
        <ele>36.400001525879</ele>
        <time>2016-11-01T15:38:37.000Z</time>
      </trkpt>
      <trkpt lat="44.86355" lon="-0.76889">
        <ele>36</ele>
        <time>2016-11-01T15:38:31.000Z</time>
      </trkpt>
      <trkpt lat="44.86355" lon="-0.7689">
        <ele>36</ele>
        <time>2016-11-01T15:38:29.000Z</time>
      </trkpt>
      <trkpt lat="44.86355" lon="-0.76891">
        <ele>36</ele>
        <time>2016-11-01T15:38:25.000Z</time>
      </trkpt>
      <trkpt lat="44.86353" lon="-0.76893">
        <ele>36.200000762939</ele>
        <time>2016-11-01T15:38:20.000Z</time>
      </trkpt>
      <trkpt lat="44.86351" lon="-0.76896">
        <ele>36.400001525879</ele>
        <time>2016-11-01T15:38:13.000Z</time>
      </trkpt>
      <trkpt lat="44.86347" lon="-0.76898">
        <ele>36.599998474121</ele>
        <time>2016-11-01T15:38:06.000Z</time>
      </trkpt>
      <trkpt lat="44.86346" lon="-0.769">
        <ele>36.599998474121</ele>
        <time>2016-11-01T15:38:04.000Z</time>
      </trkpt>
      <trkpt lat="44.86343" lon="-0.769">
        <ele>36.799999237061</ele>
        <time>2016-11-01T15:38:01.000Z</time>
      </trkpt>
      <trkpt lat="44.86339" lon="-0.769">
        <ele>37</ele>
        <time>2016-11-01T15:37:55.000Z</time>
      </trkpt>
      <trkpt lat="44.86334" lon="-0.76901">
        <ele>37.400001525879</ele>
        <time>2016-11-01T15:37:47.000Z</time>
      </trkpt>
      <trkpt lat="44.86327" lon="-0.76898">
        <ele>37.799999237061</ele>
        <time>2016-11-01T15:37:40.000Z</time>
      </trkpt>
      <trkpt lat="44.86323" lon="-0.76899">
        <ele>38</ele>
        <time>2016-11-01T15:37:36.000Z</time>
      </trkpt>
      <trkpt lat="44.8632" lon="-0.76904">
        <ele>38.200000762939</ele>
        <time>2016-11-01T15:37:30.000Z</time>
      </trkpt>
      <trkpt lat="44.86318" lon="-0.76906">
        <ele>38.400001525879</ele>
        <time>2016-11-01T15:37:22.000Z</time>
      </trkpt>
      <trkpt lat="44.86309" lon="-0.76902">
        <ele>36.2</ele>
      </trkpt>
      <trkpt lat="44.86318" lon="-0.76906">
        <ele>38.400001525879</ele>
        <time>2016-11-01T15:37:22.000Z</time>
      </trkpt>
      <trkpt lat="44.8631" lon="-0.76903">
        <ele>36.2</ele>
      </trkpt>
      <trkpt lat="44.86301" lon="-0.7689">
        <ele>39.400001525879</ele>
        <time>2016-11-01T15:36:52.000Z</time>
      </trkpt>
      <trkpt lat="44.863" lon="-0.76889">
        <ele>39.400001525879</ele>
        <time>2016-11-01T15:36:42.000Z</time>
      </trkpt>
      <trkpt lat="44.86298" lon="-0.76886">
        <ele>39.400001525879</ele>
        <time>2016-11-01T15:36:37.000Z</time>
      </trkpt>
      <trkpt lat="44.86294" lon="-0.76879">
        <ele>39.599998474121</ele>
        <time>2016-11-01T15:36:17.000Z</time>
      </trkpt>
      <trkpt lat="44.86293" lon="-0.76877">
        <ele>39.400001525879</ele>
        <time>2016-11-01T15:36:16.000Z</time>
      </trkpt>
      <trkpt lat="44.86286" lon="-0.76866">
        <ele>39</ele>
        <time>2016-11-01T15:36:07.000Z</time>
      </trkpt>
      <trkpt lat="44.86282" lon="-0.76858">
        <ele>38.599998474121</ele>
        <time>2016-11-01T15:36:02.000Z</time>
      </trkpt>
      <trkpt lat="44.86279" lon="-0.76855">
        <ele>38.200000762939</ele>
        <time>2016-11-01T15:36:00.000Z</time>
      </trkpt>
      <trkpt lat="44.86274" lon="-0.76849">
        <ele>37.799999237061</ele>
        <time>2016-11-01T15:35:58.000Z</time>
      </trkpt>
      <trkpt lat="44.86265" lon="-0.76846">
        <ele>37.400001525879</ele>
        <time>2016-11-01T15:35:54.000Z</time>
      </trkpt>
      <trkpt lat="44.8625" lon="-0.76855">
        <ele>36.799999237061</ele>
        <time>2016-11-01T15:35:48.000Z</time>
      </trkpt>
      <trkpt lat="44.86248" lon="-0.76862">
        <ele>37.200000762939</ele>
        <time>2016-11-01T15:35:46.000Z</time>
      </trkpt>
      <trkpt lat="44.86246" lon="-0.76884">
        <ele>37.799999237061</ele>
        <time>2016-11-01T15:35:41.000Z</time>
      </trkpt>
      <trkpt lat="44.86251" lon="-0.76897">
        <ele>38.200000762939</ele>
        <time>2016-11-01T15:35:37.000Z</time>
      </trkpt>
      <trkpt lat="44.86248" lon="-0.76907">
        <ele>38</ele>
        <time>2016-11-01T15:35:34.000Z</time>
      </trkpt>
      <trkpt lat="44.86228" lon="-0.76905">
        <ele>37</ele>
        <time>2016-11-01T15:35:26.000Z</time>
      </trkpt>
      <trkpt lat="44.8621" lon="-0.76899">
        <ele>36.200000762939</ele>
        <time>2016-11-01T15:35:20.000Z</time>
      </trkpt>
      <trkpt lat="44.86207" lon="-0.76897">
        <ele>36</ele>
        <time>2016-11-01T15:35:19.000Z</time>
      </trkpt>
      <trkpt lat="44.86196" lon="-0.76891">
        <ele>35.799999237061</ele>
        <time>2016-11-01T15:35:15.000Z</time>
      </trkpt>
      <trkpt lat="44.86189" lon="-0.76895">
        <ele>35.799999237061</ele>
        <time>2016-11-01T15:35:13.000Z</time>
      </trkpt>
      <trkpt lat="44.86163" lon="-0.76919">
        <ele>35.400001525879</ele>
        <time>2016-11-01T15:35:04.000Z</time>
      </trkpt>
      <trkpt lat="44.86158" lon="-0.76927">
        <ele>35.400001525879</ele>
        <time>2016-11-01T15:34:44.000Z</time>
      </trkpt>
      <trkpt lat="44.86148" lon="-0.76938">
        <ele>35.400001525879</ele>
        <time>2016-11-01T15:34:39.000Z</time>
      </trkpt>
      <trkpt lat="44.8614" lon="-0.76952">
        <ele>35.200000762939</ele>
        <time>2016-11-01T15:34:36.000Z</time>
      </trkpt>
      <trkpt lat="44.86136" lon="-0.76963">
        <ele>35.200000762939</ele>
        <time>2016-11-01T15:34:34.000Z</time>
      </trkpt>
      <trkpt lat="44.86109" lon="-0.7698">
        <ele>35.400001525879</ele>
        <time>2016-11-01T15:34:27.000Z</time>
      </trkpt>
      <trkpt lat="44.86098" lon="-0.76978">
        <ele>35.799999237061</ele>
        <time>2016-11-01T15:34:24.000Z</time>
      </trkpt>
      <trkpt lat="44.86089" lon="-0.76988">
        <ele>36.200000762939</ele>
        <time>2016-11-01T15:34:20.000Z</time>
      </trkpt>
      <trkpt lat="44.86081" lon="-0.76987">
        <ele>36.599998474121</ele>
        <time>2016-11-01T15:34:17.000Z</time>
      </trkpt>
      <trkpt lat="44.86078" lon="-0.76987">
        <ele>36.599998474121</ele>
        <time>2016-11-01T15:34:16.000Z</time>
      </trkpt>
      <trkpt lat="44.86084" lon="-0.77003">
        <ele>36.400001525879</ele>
        <time>2016-11-01T15:34:09.000Z</time>
      </trkpt>
      <trkpt lat="44.86094" lon="-0.77001">
        <ele>36</ele>
        <time>2016-11-01T15:34:05.000Z</time>
      </trkpt>
      <trkpt lat="44.86101" lon="-0.77003">
        <ele>35.799999237061</ele>
        <time>2016-11-01T15:34:02.000Z</time>
      </trkpt>
      <trkpt lat="44.86104" lon="-0.77022">
        <ele>35.599998474121</ele>
        <time>2016-11-01T15:33:57.000Z</time>
      </trkpt>
      <trkpt lat="44.86107" lon="-0.77032">
        <ele>35.599998474121</ele>
        <time>2016-11-01T15:33:54.000Z</time>
      </trkpt>
      <trkpt lat="44.86115" lon="-0.77048">
        <ele>35.200000762939</ele>
        <time>2016-11-01T15:33:48.000Z</time>
      </trkpt>
      <trkpt lat="44.86123" lon="-0.77059">
        <ele>34.799999237061</ele>
        <time>2016-11-01T15:33:44.000Z</time>
      </trkpt>
      <trkpt lat="44.86117" lon="-0.77073">
        <ele>34.799999237061</ele>
        <time>2016-11-01T15:33:40.000Z</time>
      </trkpt>
      <trkpt lat="44.86114" lon="-0.77097">
        <ele>34.400001525879</ele>
        <time>2016-11-01T15:33:36.000Z</time>
      </trkpt>
      <trkpt lat="44.8611" lon="-0.77107">
        <ele>34.200000762939</ele>
        <time>2016-11-01T15:33:34.000Z</time>
      </trkpt>
      <trkpt lat="44.86091" lon="-0.77128">
        <ele>34.400001525879</ele>
        <time>2016-11-01T15:33:28.000Z</time>
      </trkpt>
      <trkpt lat="44.86079" lon="-0.77149">
        <ele>34.400001525879</ele>
        <time>2016-11-01T15:33:23.000Z</time>
      </trkpt>
      <trkpt lat="44.86077" lon="-0.77153">
        <ele>34.400001525879</ele>
        <time>2016-11-01T15:33:22.000Z</time>
      </trkpt>
      <trkpt lat="44.86072" lon="-0.77167">
        <ele>34.400001525879</ele>
        <time>2016-11-01T15:33:19.000Z</time>
      </trkpt>
      <trkpt lat="44.86076" lon="-0.7718">
        <ele>34.200000762939</ele>
        <time>2016-11-01T15:33:16.000Z</time>
      </trkpt>
      <trkpt lat="44.86069" lon="-0.77187">
        <ele>34.400001525879</ele>
        <time>2016-11-01T15:33:10.000Z</time>
      </trkpt>
      <trkpt lat="44.86063" lon="-0.77181">
        <ele>34.599998474121</ele>
        <time>2016-11-01T15:33:06.000Z</time>
      </trkpt>
      <trkpt lat="44.86055" lon="-0.77193">
        <ele>34.799999237061</ele>
        <time>2016-11-01T15:33:01.000Z</time>
      </trkpt>
      <trkpt lat="44.86055" lon="-0.77195">
        <ele>34.799999237061</ele>
        <time>2016-11-01T15:33:00.000Z</time>
      </trkpt>
      <trkpt lat="44.86057" lon="-0.772">
        <ele>34.599998474121</ele>
        <time>2016-11-01T15:32:56.000Z</time>
      </trkpt>
      <trkpt lat="44.86079" lon="-0.77204">
        <ele>33.200000762939</ele>
        <time>2016-11-01T15:32:47.000Z</time>
      </trkpt>
      <trkpt lat="44.86082" lon="-0.77214">
        <ele>32.799999237061</ele>
        <time>2016-11-01T15:32:44.000Z</time>
      </trkpt>
      <trkpt lat="44.86079" lon="-0.77229">
        <ele>32.799999237061</ele>
        <time>2016-11-01T15:32:40.000Z</time>
      </trkpt>
      <trkpt lat="44.86075" lon="-0.77236">
        <ele>33</ele>
        <time>2016-11-01T15:32:35.000Z</time>
      </trkpt>
      <trkpt lat="44.86074" lon="-0.77234">
        <ele>33.200000762939</ele>
        <time>2016-11-01T15:32:33.000Z</time>
      </trkpt>
      <trkpt lat="44.86063" lon="-0.77228">
        <ele>33.599998474121</ele>
        <time>2016-11-01T15:32:28.000Z</time>
      </trkpt>
      <trkpt lat="44.86055" lon="-0.77225">
        <ele>34.200000762939</ele>
        <time>2016-11-01T15:32:24.000Z</time>
      </trkpt>
      <trkpt lat="44.8604" lon="-0.77197">
        <ele>35.200000762939</ele>
        <time>2016-11-01T15:32:19.000Z</time>
      </trkpt>
      <trkpt lat="44.86032" lon="-0.77177">
        <ele>35.799999237061</ele>
        <time>2016-11-01T15:32:15.000Z</time>
      </trkpt>
      <trkpt lat="44.86023" lon="-0.77165">
        <ele>36.400001525879</ele>
        <time>2016-11-01T15:32:12.000Z</time>
      </trkpt>
      <trkpt lat="44.86004" lon="-0.77136">
        <ele>36</ele>
        <time>2016-11-01T15:32:05.000Z</time>
      </trkpt>
      <trkpt lat="44.86002" lon="-0.7713">
        <ele>36.200000762939</ele>
        <time>2016-11-01T15:32:04.000Z</time>
      </trkpt>
      <trkpt lat="44.85992" lon="-0.77121">
        <ele>36.400001525879</ele>
        <time>2016-11-01T15:32:01.000Z</time>
      </trkpt>
      <trkpt lat="44.85978" lon="-0.7711">
        <ele>36.599998474121</ele>
        <time>2016-11-01T15:31:57.000Z</time>
      </trkpt>
      <trkpt lat="44.85969" lon="-0.771">
        <ele>36.400001525879</ele>
        <time>2016-11-01T15:31:54.000Z</time>
      </trkpt>
      <trkpt lat="44.85946" lon="-0.7707">
        <ele>36.400001525879</ele>
        <time>2016-11-01T15:31:47.000Z</time>
      </trkpt>
      <trkpt lat="44.85943" lon="-0.77065">
        <ele>36.400001525879</ele>
        <time>2016-11-01T15:31:46.000Z</time>
      </trkpt>
      <trkpt lat="44.85926" lon="-0.77045">
        <ele>36.400001525879</ele>
        <time>2016-11-01T15:31:42.000Z</time>
      </trkpt>
      <trkpt lat="44.85914" lon="-0.77039">
        <ele>36.799999237061</ele>
        <time>2016-11-01T15:31:40.000Z</time>
      </trkpt>
      <trkpt lat="44.859" lon="-0.77029">
        <ele>37.200000762939</ele>
        <time>2016-11-01T15:31:37.000Z</time>
      </trkpt>
      <trkpt lat="44.85877" lon="-0.76999">
        <ele>36.200000762939</ele>
        <time>2016-11-01T15:31:30.000Z</time>
      </trkpt>
      <trkpt lat="44.85864" lon="-0.76987">
        <ele>36.200000762939</ele>
        <time>2016-11-01T15:31:25.000Z</time>
      </trkpt>
      <trkpt lat="44.85846" lon="-0.76969">
        <ele>36</ele>
        <time>2016-11-01T15:31:20.000Z</time>
      </trkpt>
      <trkpt lat="44.8584" lon="-0.76965">
        <ele>36.200000762939</ele>
        <time>2016-11-01T15:31:18.000Z</time>
      </trkpt>
      <trkpt lat="44.85818" lon="-0.76952">
        <ele>36.400001525879</ele>
        <time>2016-11-01T15:31:12.000Z</time>
      </trkpt>
      <trkpt lat="44.85789" lon="-0.76941">
        <ele>36</ele>
        <time>2016-11-01T15:31:03.000Z</time>
      </trkpt>
      <trkpt lat="44.85781" lon="-0.76926">
        <ele>36</ele>
        <time>2016-11-01T15:31:00.000Z</time>
      </trkpt>
      <trkpt lat="44.85779" lon="-0.76914">
        <ele>35.799999237061</ele>
        <time>2016-11-01T15:30:58.000Z</time>
      </trkpt>
      <trkpt lat="44.85773" lon="-0.76903">
        <ele>35.799999237061</ele>
        <time>2016-11-01T15:30:56.000Z</time>
      </trkpt>
      <trkpt lat="44.85758" lon="-0.76879">
        <ele>36.200000762939</ele>
        <time>2016-11-01T15:30:51.000Z</time>
      </trkpt>
      <trkpt lat="44.85744" lon="-0.76864">
        <ele>36.599998474121</ele>
        <time>2016-11-01T15:30:45.000Z</time>
      </trkpt>
      <trkpt lat="44.85729" lon="-0.76848">
        <ele>36.200000762939</ele>
        <time>2016-11-01T15:30:40.000Z</time>
      </trkpt>
      <trkpt lat="44.85724" lon="-0.76834">
        <ele>35.599998474121</ele>
        <time>2016-11-01T15:30:34.000Z</time>
      </trkpt>
      <trkpt lat="44.85722" lon="-0.7683">
        <ele>35.400001525879</ele>
        <time>2016-11-01T15:30:32.000Z</time>
      </trkpt>
      <trkpt lat="44.85723" lon="-0.76802">
        <ele>34.599998474121</ele>
        <time>2016-11-01T15:30:27.000Z</time>
      </trkpt>
      <trkpt lat="44.85724" lon="-0.76777">
        <ele>33.599998474121</ele>
        <time>2016-11-01T15:30:22.000Z</time>
      </trkpt>
      <trkpt lat="44.85714" lon="-0.76764">
        <ele>32.799999237061</ele>
        <time>2016-11-01T15:30:17.000Z</time>
      </trkpt>
      <trkpt lat="44.8571" lon="-0.76753">
        <ele>32.400001525879</ele>
        <time>2016-11-01T15:30:14.000Z</time>
      </trkpt>
      <trkpt lat="44.85706" lon="-0.76739">
        <ele>31.60000038147</ele>
        <time>2016-11-01T15:30:10.000Z</time>
      </trkpt>
      <trkpt lat="44.85705" lon="-0.76727">
        <ele>31.200000762939</ele>
        <time>2016-11-01T15:30:06.000Z</time>
      </trkpt>
      <trkpt lat="44.85717" lon="-0.76705">
        <ele>30.60000038147</ele>
        <time>2016-11-01T15:30:01.000Z</time>
      </trkpt>
      <trkpt lat="44.85717" lon="-0.76694">
        <ele>30.200000762939</ele>
        <time>2016-11-01T15:29:56.000Z</time>
      </trkpt>
      <trkpt lat="44.85715" lon="-0.76681">
        <ele>29.60000038147</ele>
        <time>2016-11-01T15:29:53.000Z</time>
      </trkpt>
      <trkpt lat="44.85708" lon="-0.76667">
        <ele>29</ele>
        <time>2016-11-01T15:29:50.000Z</time>
      </trkpt>
      <trkpt lat="44.8569" lon="-0.76668">
        <ele>29.200000762939</ele>
        <time>2016-11-01T15:29:47.000Z</time>
      </trkpt>
      <trkpt lat="44.85662" lon="-0.76647">
        <ele>29.200000762939</ele>
        <time>2016-11-01T15:29:41.000Z</time>
      </trkpt>
      <trkpt lat="44.85634" lon="-0.76654">
        <ele>30.200000762939</ele>
        <time>2016-11-01T15:29:36.000Z</time>
      </trkpt>
      <trkpt lat="44.85617" lon="-0.76669">
        <ele>31</ele>
        <time>2016-11-01T15:29:33.000Z</time>
      </trkpt>
      <trkpt lat="44.85597" lon="-0.76679">
        <ele>32</ele>
        <time>2016-11-01T15:29:30.000Z</time>
      </trkpt>
      <trkpt lat="44.85569" lon="-0.76694">
        <ele>33.200000762939</ele>
        <time>2016-11-01T15:29:25.000Z</time>
      </trkpt>
      <trkpt lat="44.85538" lon="-0.76697">
        <ele>34.599998474121</ele>
        <time>2016-11-01T15:29:18.000Z</time>
      </trkpt>
      <trkpt lat="44.85533" lon="-0.76697">
        <ele>34.799999237061</ele>
        <time>2016-11-01T15:29:17.000Z</time>
      </trkpt>
      <trkpt lat="44.8552" lon="-0.76688">
        <ele>35.400001525879</ele>
        <time>2016-11-01T15:29:14.000Z</time>
      </trkpt>
      <trkpt lat="44.85493" lon="-0.76677">
        <ele>36.599998474121</ele>
        <time>2016-11-01T15:29:08.000Z</time>
      </trkpt>
      <trkpt lat="44.85487" lon="-0.76677">
        <ele>37</ele>
        <time>2016-11-01T15:29:07.000Z</time>
      </trkpt>
      <trkpt lat="44.85454" lon="-0.76673">
        <ele>38.200000762939</ele>
        <time>2016-11-01T15:29:00.000Z</time>
      </trkpt>
      <trkpt lat="44.85436" lon="-0.76684">
        <ele>37.400001525879</ele>
        <time>2016-11-01T15:28:56.000Z</time>
      </trkpt>
      <trkpt lat="44.85426" lon="-0.76685">
        <ele>36.799999237061</ele>
        <time>2016-11-01T15:28:54.000Z</time>
      </trkpt>
      <trkpt lat="44.85406" lon="-0.76697">
        <ele>36.200000762939</ele>
        <time>2016-11-01T15:28:49.000Z</time>
      </trkpt>
      <trkpt lat="44.85393" lon="-0.76705">
        <ele>35.599998474121</ele>
        <time>2016-11-01T15:28:45.000Z</time>
      </trkpt>
      <trkpt lat="44.85363" lon="-0.76706">
        <ele>34.799999237061</ele>
        <time>2016-11-01T15:28:35.000Z</time>
      </trkpt>
      <trkpt lat="44.85358" lon="-0.76702">
        <ele>34.599998474121</ele>
        <time>2016-11-01T15:28:33.000Z</time>
      </trkpt>
      <trkpt lat="44.85342" lon="-0.76697">
        <ele>34.400001525879</ele>
        <time>2016-11-01T15:28:29.000Z</time>
      </trkpt>
      <trkpt lat="44.85322" lon="-0.76703">
        <ele>34.200000762939</ele>
        <time>2016-11-01T15:28:25.000Z</time>
      </trkpt>
      <trkpt lat="44.85299" lon="-0.76718">
        <ele>34</ele>
        <time>2016-11-01T15:28:20.000Z</time>
      </trkpt>
      <trkpt lat="44.85265" lon="-0.76738">
        <ele>34.599998474121</ele>
        <time>2016-11-01T15:28:11.000Z</time>
      </trkpt>
      <trkpt lat="44.85253" lon="-0.76734">
        <ele>34.799999237061</ele>
        <time>2016-11-01T15:28:07.000Z</time>
      </trkpt>
      <trkpt lat="44.85248" lon="-0.76718">
        <ele>34.400001525879</ele>
        <time>2016-11-01T15:28:03.000Z</time>
      </trkpt>
      <trkpt lat="44.85237" lon="-0.76712">
        <ele>34.599998474121</ele>
        <time>2016-11-01T15:27:59.000Z</time>
      </trkpt>
      <trkpt lat="44.85231" lon="-0.76716">
        <ele>34.599998474121</ele>
        <time>2016-11-01T15:27:57.000Z</time>
      </trkpt>
      <trkpt lat="44.85207" lon="-0.76711">
        <ele>35</ele>
        <time>2016-11-01T15:27:47.000Z</time>
      </trkpt>
      <trkpt lat="44.85198" lon="-0.76698">
        <ele>35.200000762939</ele>
        <time>2016-11-01T15:27:43.000Z</time>
      </trkpt>
      <trkpt lat="44.85177" lon="-0.76686">
        <ele>35</ele>
        <time>2016-11-01T15:27:37.000Z</time>
      </trkpt>
      <trkpt lat="44.8516" lon="-0.76685">
        <ele>34.799999237061</ele>
        <time>2016-11-01T15:27:32.000Z</time>
      </trkpt>
      <trkpt lat="44.85155" lon="-0.76679">
        <ele>35</ele>
        <time>2016-11-01T15:27:30.000Z</time>
      </trkpt>
      <trkpt lat="44.85128" lon="-0.76668">
        <ele>35.200000762939</ele>
        <time>2016-11-01T15:27:23.000Z</time>
      </trkpt>
      <trkpt lat="44.85114" lon="-0.76658">
        <ele>35.400001525879</ele>
        <time>2016-11-01T15:27:19.000Z</time>
      </trkpt>
      <trkpt lat="44.85099" lon="-0.76642">
        <ele>35.599998474121</ele>
        <time>2016-11-01T15:27:14.000Z</time>
      </trkpt>
      <trkpt lat="44.85088" lon="-0.76637">
        <ele>35.599998474121</ele>
        <time>2016-11-01T15:27:11.000Z</time>
      </trkpt>
      <trkpt lat="44.85073" lon="-0.76629">
        <ele>35</ele>
        <time>2016-11-01T15:27:06.000Z</time>
      </trkpt>
      <trkpt lat="44.8506" lon="-0.76622">
        <ele>34.599998474121</ele>
        <time>2016-11-01T15:26:59.000Z</time>
      </trkpt>
      <trkpt lat="44.85056" lon="-0.76615">
        <ele>34.599998474121</ele>
        <time>2016-11-01T15:26:45.000Z</time>
      </trkpt>
      <trkpt lat="44.85052" lon="-0.76604">
        <ele>35</ele>
        <time>2016-11-01T15:26:40.000Z</time>
      </trkpt>
      <trkpt lat="44.85044" lon="-0.76597">
        <ele>35.400001525879</ele>
        <time>2016-11-01T15:26:37.000Z</time>
      </trkpt>
      <trkpt lat="44.85028" lon="-0.76598">
        <ele>35.400001525879</ele>
        <time>2016-11-01T15:26:33.000Z</time>
      </trkpt>
      <trkpt lat="44.85007" lon="-0.76599">
        <ele>35</ele>
        <time>2016-11-01T15:26:27.000Z</time>
      </trkpt>
      <trkpt lat="44.85003" lon="-0.76601">
        <ele>35</ele>
        <time>2016-11-01T15:26:26.000Z</time>
      </trkpt>
      <trkpt lat="44.84985" lon="-0.76607">
        <ele>34.799999237061</ele>
        <time>2016-11-01T15:26:22.000Z</time>
      </trkpt>
      <trkpt lat="44.84963" lon="-0.76612">
        <ele>35</ele>
        <time>2016-11-01T15:26:17.000Z</time>
      </trkpt>
      <trkpt lat="44.84959" lon="-0.76617">
        <ele>35</ele>
        <time>2016-11-01T15:26:15.000Z</time>
      </trkpt>
      <trkpt lat="44.84937" lon="-0.76626">
        <ele>34.599998474121</ele>
        <time>2016-11-01T15:26:08.000Z</time>
      </trkpt>
      <trkpt lat="44.84923" lon="-0.7665">
        <ele>33.799999237061</ele>
        <time>2016-11-01T15:26:03.000Z</time>
      </trkpt>
      <trkpt lat="44.84917" lon="-0.76667">
        <ele>33.200000762939</ele>
        <time>2016-11-01T15:25:59.000Z</time>
      </trkpt>
      <trkpt lat="44.84906" lon="-0.76674">
        <ele>33.200000762939</ele>
        <time>2016-11-01T15:25:55.000Z</time>
      </trkpt>
      <trkpt lat="44.84893" lon="-0.76677">
        <ele>33</ele>
        <time>2016-11-01T15:25:51.000Z</time>
      </trkpt>
      <trkpt lat="44.84882" lon="-0.76692">
        <ele>32.599998474121</ele>
        <time>2016-11-01T15:25:46.000Z</time>
      </trkpt>
      <trkpt lat="44.84867" lon="-0.76706">
        <ele>32.599998474121</ele>
        <time>2016-11-01T15:25:42.000Z</time>
      </trkpt>
      <trkpt lat="44.84863" lon="-0.76715">
        <ele>32.599998474121</ele>
        <time>2016-11-01T15:25:40.000Z</time>
      </trkpt>
      <trkpt lat="44.84852" lon="-0.7673">
        <ele>32.599998474121</ele>
        <time>2016-11-01T15:25:36.000Z</time>
      </trkpt>
      <trkpt lat="44.84849" lon="-0.76742">
        <ele>32.200000762939</ele>
        <time>2016-11-01T15:25:34.000Z</time>
      </trkpt>
      <trkpt lat="44.84844" lon="-0.7676">
        <ele>32.200000762939</ele>
        <time>2016-11-01T15:25:29.000Z</time>
      </trkpt>
      <trkpt lat="44.84837" lon="-0.76763">
        <ele>32.200000762939</ele>
        <time>2016-11-01T15:25:27.000Z</time>
      </trkpt>
      <trkpt lat="44.84828" lon="-0.76765">
        <ele>32</ele>
        <time>2016-11-01T15:25:25.000Z</time>
      </trkpt>
      <trkpt lat="44.84812" lon="-0.76781">
        <ele>32</ele>
        <time>2016-11-01T15:25:21.000Z</time>
      </trkpt>
      <trkpt lat="44.84801" lon="-0.76795">
        <ele>33.4</ele>
      </trkpt>
      <trkpt lat="44.84801" lon="-0.76795">
        <ele>33.4</ele>
      </trkpt>
      <trkpt lat="44.84801" lon="-0.76796">
        <ele>32</ele>
        <time>2016-11-01T15:09:55.000Z</time>
      </trkpt>
      <trkpt lat="44.84818" lon="-0.76812">
        <ele>32.799999237061</ele>
        <time>2016-11-01T15:09:52.000Z</time>
      </trkpt>
      <trkpt lat="44.84832" lon="-0.76822">
        <ele>33.400001525879</ele>
        <time>2016-11-01T15:09:49.000Z</time>
      </trkpt>
      <trkpt lat="44.84844" lon="-0.76818">
        <ele>33.599998474121</ele>
        <time>2016-11-01T15:09:47.000Z</time>
      </trkpt>
      <trkpt lat="44.84855" lon="-0.76811">
        <ele>33.799999237061</ele>
        <time>2016-11-01T15:09:45.000Z</time>
      </trkpt>
      <trkpt lat="44.84883" lon="-0.76797">
        <ele>33.799999237061</ele>
        <time>2016-11-01T15:09:40.000Z</time>
      </trkpt>
      <trkpt lat="44.84893" lon="-0.76792">
        <ele>33.799999237061</ele>
        <time>2016-11-01T15:09:38.000Z</time>
      </trkpt>
      <trkpt lat="44.84924" lon="-0.76779">
        <ele>33.400001525879</ele>
        <time>2016-11-01T15:09:32.000Z</time>
      </trkpt>
      <trkpt lat="44.84934" lon="-0.76776">
        <ele>33.200000762939</ele>
        <time>2016-11-01T15:09:30.000Z</time>
      </trkpt>
      <trkpt lat="44.8495" lon="-0.76769">
        <ele>33</ele>
        <time>2016-11-01T15:09:27.000Z</time>
      </trkpt>
      <trkpt lat="44.84972" lon="-0.76757">
        <ele>32.799999237061</ele>
        <time>2016-11-01T15:09:22.000Z</time>
      </trkpt>
      <trkpt lat="44.84994" lon="-0.76746">
        <ele>32.599998474121</ele>
        <time>2016-11-01T15:09:17.000Z</time>
      </trkpt>
      <trkpt lat="44.85004" lon="-0.76743">
        <ele>32.400001525879</ele>
        <time>2016-11-01T15:09:15.000Z</time>
      </trkpt>
      <trkpt lat="44.85014" lon="-0.7674">
        <ele>32.400001525879</ele>
        <time>2016-11-01T15:09:13.000Z</time>
      </trkpt>
      <trkpt lat="44.85036" lon="-0.76742">
        <ele>32</ele>
        <time>2016-11-01T15:09:09.000Z</time>
      </trkpt>
      <trkpt lat="44.85052" lon="-0.76744">
        <ele>32.400001525879</ele>
        <time>2016-11-01T15:09:06.000Z</time>
      </trkpt>
      <trkpt lat="44.8506" lon="-0.76769">
        <ele>32.599998474121</ele>
        <time>2016-11-01T15:09:01.000Z</time>
      </trkpt>
      <trkpt lat="44.85056" lon="-0.76785">
        <ele>32.400001525879</ele>
        <time>2016-11-01T15:08:58.000Z</time>
      </trkpt>
      <trkpt lat="44.85048" lon="-0.76824">
        <ele>33</ele>
        <time>2016-11-01T15:08:53.000Z</time>
      </trkpt>
      <trkpt lat="44.85047" lon="-0.7684">
        <ele>33.599998474121</ele>
        <time>2016-11-01T15:08:51.000Z</time>
      </trkpt>
      <trkpt lat="44.85045" lon="-0.76848">
        <ele>33.799999237061</ele>
        <time>2016-11-01T15:08:50.000Z</time>
      </trkpt>
      <trkpt lat="44.85042" lon="-0.76879">
        <ele>34.799999237061</ele>
        <time>2016-11-01T15:08:45.000Z</time>
      </trkpt>
      <trkpt lat="44.85049" lon="-0.76906">
        <ele>35.599998474121</ele>
        <time>2016-11-01T15:08:40.000Z</time>
      </trkpt>
      <trkpt lat="44.85053" lon="-0.76923">
        <ele>36</ele>
        <time>2016-11-01T15:08:37.000Z</time>
      </trkpt>
      <trkpt lat="44.8506" lon="-0.76934">
        <ele>36.400001525879</ele>
        <time>2016-11-01T15:08:34.000Z</time>
      </trkpt>
      <trkpt lat="44.85064" lon="-0.7695">
        <ele>36.799999237061</ele>
        <time>2016-11-01T15:08:31.000Z</time>
      </trkpt>
      <trkpt lat="44.85075" lon="-0.76966">
        <ele>37.400001525879</ele>
        <time>2016-11-01T15:08:28.000Z</time>
      </trkpt>
      <trkpt lat="44.8508" lon="-0.7697">
        <ele>37.400001525879</ele>
        <time>2016-11-01T15:08:27.000Z</time>
      </trkpt>
      <trkpt lat="44.85104" lon="-0.76966">
        <ele>37.599998474121</ele>
        <time>2016-11-01T15:08:22.000Z</time>
      </trkpt>
      <trkpt lat="44.85132" lon="-0.76948">
        <ele>37.599998474121</ele>
        <time>2016-11-01T15:08:16.000Z</time>
      </trkpt>
      <trkpt lat="44.85147" lon="-0.76935">
        <ele>37.400001525879</ele>
        <time>2016-11-01T15:08:12.000Z</time>
      </trkpt>
      <trkpt lat="44.85162" lon="-0.76923">
        <ele>37.400001525879</ele>
        <time>2016-11-01T15:08:08.000Z</time>
      </trkpt>
      <trkpt lat="44.85176" lon="-0.76913">
        <ele>37.200000762939</ele>
        <time>2016-11-01T15:08:05.000Z</time>
      </trkpt>
      <trkpt lat="44.85199" lon="-0.76904">
        <ele>37.200000762939</ele>
        <time>2016-11-01T15:08:00.000Z</time>
      </trkpt>
      <trkpt lat="44.85212" lon="-0.76898">
        <ele>37.200000762939</ele>
        <time>2016-11-01T15:07:57.000Z</time>
      </trkpt>
      <trkpt lat="44.85231" lon="-0.76896">
        <ele>37.799999237061</ele>
        <time>2016-11-01T15:07:53.000Z</time>
      </trkpt>
      <trkpt lat="44.85242" lon="-0.76894">
        <ele>38</ele>
        <time>2016-11-01T15:07:51.000Z</time>
      </trkpt>
      <trkpt lat="44.85271" lon="-0.76892">
        <ele>38.599998474121</ele>
        <time>2016-11-01T15:07:45.000Z</time>
      </trkpt>
      <trkpt lat="44.85286" lon="-0.76887">
        <ele>39</ele>
        <time>2016-11-01T15:07:41.000Z</time>
      </trkpt>
      <trkpt lat="44.85305" lon="-0.76885">
        <ele>38.799999237061</ele>
        <time>2016-11-01T15:07:36.000Z</time>
      </trkpt>
      <trkpt lat="44.85312" lon="-0.76885">
        <ele>38.799999237061</ele>
        <time>2016-11-01T15:07:34.000Z</time>
      </trkpt>
      <trkpt lat="44.85321" lon="-0.76899">
        <ele>38.400001525879</ele>
        <time>2016-11-01T15:07:30.000Z</time>
      </trkpt>
      <trkpt lat="44.85325" lon="-0.76934">
        <ele>38</ele>
        <time>2016-11-01T15:07:24.000Z</time>
      </trkpt>
      <trkpt lat="44.85331" lon="-0.76956">
        <ele>38</ele>
        <time>2016-11-01T15:07:20.000Z</time>
      </trkpt>
      <trkpt lat="44.85336" lon="-0.76969">
        <ele>38</ele>
        <time>2016-11-01T15:07:16.000Z</time>
      </trkpt>
      <trkpt lat="44.85357" lon="-0.76973">
        <ele>38</ele>
        <time>2016-11-01T15:07:11.000Z</time>
      </trkpt>
      <trkpt lat="44.85363" lon="-0.7697">
        <ele>38</ele>
        <time>2016-11-01T15:07:08.000Z</time>
      </trkpt>
      <trkpt lat="44.85372" lon="-0.7697">
        <ele>38</ele>
        <time>2016-11-01T15:07:05.000Z</time>
      </trkpt>
      <trkpt lat="44.8538" lon="-0.76966">
        <ele>38.200000762939</ele>
        <time>2016-11-01T15:07:02.000Z</time>
      </trkpt>
      <trkpt lat="44.8539" lon="-0.76954">
        <ele>38.400001525879</ele>
        <time>2016-11-01T15:06:58.000Z</time>
      </trkpt>
      <trkpt lat="44.85403" lon="-0.76944">
        <ele>38.599998474121</ele>
        <time>2016-11-01T15:06:53.000Z</time>
      </trkpt>
      <trkpt lat="44.85404" lon="-0.76936">
        <ele>38.799999237061</ele>
        <time>2016-11-01T15:06:51.000Z</time>
      </trkpt>
      <trkpt lat="44.85411" lon="-0.76924">
        <ele>39</ele>
        <time>2016-11-01T15:06:47.000Z</time>
      </trkpt>
      <trkpt lat="44.85413" lon="-0.76923">
        <ele>39</ele>
        <time>2016-11-01T15:06:46.000Z</time>
      </trkpt>
      <trkpt lat="44.85421" lon="-0.76931">
        <ele>39</ele>
        <time>2016-11-01T15:06:43.000Z</time>
      </trkpt>
      <trkpt lat="44.85439" lon="-0.76941">
        <ele>39.200000762939</ele>
        <time>2016-11-01T15:06:37.000Z</time>
      </trkpt>
      <trkpt lat="44.85451" lon="-0.76952">
        <ele>39.200000762939</ele>
        <time>2016-11-01T15:06:33.000Z</time>
      </trkpt>
      <trkpt lat="44.85454" lon="-0.76968">
        <ele>39</ele>
        <time>2016-11-01T15:06:29.000Z</time>
      </trkpt>
      <trkpt lat="44.85456" lon="-0.76988">
        <ele>38.799999237061</ele>
        <time>2016-11-01T15:06:24.000Z</time>
      </trkpt>
      <trkpt lat="44.85455" lon="-0.76991">
        <ele>38.799999237061</ele>
        <time>2016-11-01T15:06:23.000Z</time>
      </trkpt>
      <trkpt lat="44.8546" lon="-0.76999">
        <ele>38.599998474121</ele>
        <time>2016-11-01T15:06:20.000Z</time>
      </trkpt>
      <trkpt lat="44.85462" lon="-0.77011">
        <ele>38.400001525879</ele>
        <time>2016-11-01T15:06:17.000Z</time>
      </trkpt>
      <trkpt lat="44.85459" lon="-0.77023">
        <ele>38.200000762939</ele>
        <time>2016-11-01T15:06:14.000Z</time>
      </trkpt>
      <trkpt lat="44.85462" lon="-0.77035">
        <ele>38</ele>
        <time>2016-11-01T15:06:11.000Z</time>
      </trkpt>
      <trkpt lat="44.8546" lon="-0.77053">
        <ele>38</ele>
        <time>2016-11-01T15:06:07.000Z</time>
      </trkpt>
      <trkpt lat="44.85466" lon="-0.77057">
        <ele>37.799999237061</ele>
        <time>2016-11-01T15:06:04.000Z</time>
      </trkpt>
      <trkpt lat="44.85472" lon="-0.77053">
        <ele>37.799999237061</ele>
        <time>2016-11-01T15:06:02.000Z</time>
      </trkpt>
      <trkpt lat="44.85489" lon="-0.77049">
        <ele>37.599998474121</ele>
        <time>2016-11-01T15:05:57.000Z</time>
      </trkpt>
      <trkpt lat="44.85498" lon="-0.77057">
        <ele>37.400001525879</ele>
        <time>2016-11-01T15:05:53.000Z</time>
      </trkpt>
      <trkpt lat="44.85504" lon="-0.77073">
        <ele>37.400001525879</ele>
        <time>2016-11-01T15:05:49.000Z</time>
      </trkpt>
      <trkpt lat="44.85517" lon="-0.77081">
        <ele>37.400001525879</ele>
        <time>2016-11-01T15:05:45.000Z</time>
      </trkpt>
      <trkpt lat="44.85532" lon="-0.77086">
        <ele>37.599998474121</ele>
        <time>2016-11-01T15:05:40.000Z</time>
      </trkpt>
      <trkpt lat="44.85536" lon="-0.77078">
        <ele>37.599998474121</ele>
        <time>2016-11-01T15:05:38.000Z</time>
      </trkpt>
      <trkpt lat="44.85547" lon="-0.77063">
        <ele>37.599998474121</ele>
        <time>2016-11-01T15:05:34.000Z</time>
      </trkpt>
      <trkpt lat="44.85558" lon="-0.77049">
        <ele>37.799999237061</ele>
        <time>2016-11-01T15:05:30.000Z</time>
      </trkpt>
      <trkpt lat="44.85564" lon="-0.77021">
        <ele>37.400001525879</ele>
        <time>2016-11-01T15:05:24.000Z</time>
      </trkpt>
      <trkpt lat="44.85568" lon="-0.77013">
        <ele>37.599998474121</ele>
        <time>2016-11-01T15:05:22.000Z</time>
      </trkpt>
      <trkpt lat="44.85576" lon="-0.76998">
        <ele>37.599998474121</ele>
        <time>2016-11-01T15:05:18.000Z</time>
      </trkpt>
      <trkpt lat="44.85577" lon="-0.76987">
        <ele>37.599998474121</ele>
        <time>2016-11-01T15:05:16.000Z</time>
      </trkpt>
      <trkpt lat="44.85574" lon="-0.76954">
        <ele>36.799999237061</ele>
        <time>2016-11-01T15:05:09.000Z</time>
      </trkpt>
      <trkpt lat="44.85572" lon="-0.76948">
        <ele>36.599998474121</ele>
        <time>2016-11-01T15:05:08.000Z</time>
      </trkpt>
      <trkpt lat="44.85568" lon="-0.76926">
        <ele>36.799999237061</ele>
        <time>2016-11-01T15:05:04.000Z</time>
      </trkpt>
      <trkpt lat="44.85575" lon="-0.76905">
        <ele>37.200000762939</ele>
        <time>2016-11-01T15:05:00.000Z</time>
      </trkpt>
      <trkpt lat="44.85577" lon="-0.76902">
        <ele>37.200000762939</ele>
        <time>2016-11-01T15:04:59.000Z</time>
      </trkpt>
      <trkpt lat="44.85593" lon="-0.76878">
        <ele>37.200000762939</ele>
        <time>2016-11-01T15:04:53.000Z</time>
      </trkpt>
      <trkpt lat="44.85599" lon="-0.7685">
        <ele>36.400001525879</ele>
        <time>2016-11-01T15:04:47.000Z</time>
      </trkpt>
      <trkpt lat="44.85605" lon="-0.76839">
        <ele>36</ele>
        <time>2016-11-01T15:04:43.000Z</time>
      </trkpt>
      <trkpt lat="44.85612" lon="-0.76831">
        <ele>35.799999237061</ele>
        <time>2016-11-01T15:04:39.000Z</time>
      </trkpt>
      <trkpt lat="44.85617" lon="-0.76822">
        <ele>35.400001525879</ele>
        <time>2016-11-01T15:04:35.000Z</time>
      </trkpt>
      <trkpt lat="44.85614" lon="-0.76815">
        <ele>35.400001525879</ele>
        <time>2016-11-01T15:04:33.000Z</time>
      </trkpt>
      <trkpt lat="44.85612" lon="-0.76799">
        <ele>35.400001525879</ele>
        <time>2016-11-01T15:04:30.000Z</time>
      </trkpt>
      <trkpt lat="44.85608" lon="-0.76788">
        <ele>35</ele>
        <time>2016-11-01T15:04:27.000Z</time>
      </trkpt>
      <trkpt lat="44.85603" lon="-0.76789">
        <ele>35.400001525879</ele>
        <time>2016-11-01T15:04:23.000Z</time>
      </trkpt>
      <trkpt lat="44.85599" lon="-0.76789">
        <ele>35.599998474121</ele>
        <time>2016-11-01T15:04:20.000Z</time>
      </trkpt>
      <trkpt lat="44.85594" lon="-0.76777">
        <ele>35.400001525879</ele>
        <time>2016-11-01T15:04:17.000Z</time>
      </trkpt>
      <trkpt lat="44.85594" lon="-0.76772">
        <ele>35.200000762939</ele>
        <time>2016-11-01T15:04:16.000Z</time>
      </trkpt>
      <trkpt lat="44.85599" lon="-0.7676">
        <ele>34.599998474121</ele>
        <time>2016-11-01T15:04:13.000Z</time>
      </trkpt>
      <trkpt lat="44.85614" lon="-0.76756">
        <ele>33.599998474121</ele>
        <time>2016-11-01T15:04:08.000Z</time>
      </trkpt>
      <trkpt lat="44.85622" lon="-0.76753">
        <ele>33.200000762939</ele>
        <time>2016-11-01T15:04:05.000Z</time>
      </trkpt>
      <trkpt lat="44.8563" lon="-0.76747">
        <ele>32.799999237061</ele>
        <time>2016-11-01T15:04:01.000Z</time>
      </trkpt>
      <trkpt lat="44.85633" lon="-0.76734">
        <ele>32.400001525879</ele>
        <time>2016-11-01T15:03:58.000Z</time>
      </trkpt>
      <trkpt lat="44.85642" lon="-0.7671">
        <ele>31.39999961853</ele>
        <time>2016-11-01T15:03:53.000Z</time>
      </trkpt>
      <trkpt lat="44.85648" lon="-0.76692">
        <ele>30.799999237061</ele>
        <time>2016-11-01T15:03:48.000Z</time>
      </trkpt>
      <trkpt lat="44.85651" lon="-0.76683">
        <ele>30.39999961853</ele>
        <time>2016-11-01T15:03:45.000Z</time>
      </trkpt>
      <trkpt lat="44.85651" lon="-0.7667">
        <ele>30.200000762939</ele>
        <time>2016-11-01T15:03:40.000Z</time>
      </trkpt>
      <trkpt lat="44.85661" lon="-0.76669">
        <ele>29.799999237061</ele>
        <time>2016-11-01T15:03:37.000Z</time>
      </trkpt>
      <trkpt lat="44.85672" lon="-0.7667">
        <ele>29.60000038147</ele>
        <time>2016-11-01T15:03:34.000Z</time>
      </trkpt>
      <trkpt lat="44.85689" lon="-0.7668">
        <ele>29.799999237061</ele>
        <time>2016-11-01T15:03:29.000Z</time>
      </trkpt>
      <trkpt lat="44.85695" lon="-0.76688">
        <ele>30</ele>
        <time>2016-11-01T15:03:27.000Z</time>
      </trkpt>
      <trkpt lat="44.85701" lon="-0.76695">
        <ele>30.200000762939</ele>
        <time>2016-11-01T15:03:25.000Z</time>
      </trkpt>
      <trkpt lat="44.85717" lon="-0.76697">
        <ele>30.200000762939</ele>
        <time>2016-11-01T15:03:21.000Z</time>
      </trkpt>
      <trkpt lat="44.85729" lon="-0.76699">
        <ele>30.60000038147</ele>
        <time>2016-11-01T15:03:18.000Z</time>
      </trkpt>
      <trkpt lat="44.85738" lon="-0.76724">
        <ele>32.200000762939</ele>
        <time>2016-11-01T15:03:15.000Z</time>
      </trkpt>
      <trkpt lat="44.85738" lon="-0.76753">
        <ele>33.400001525879</ele>
        <time>2016-11-01T15:03:10.000Z</time>
      </trkpt>
      <trkpt lat="44.85736" lon="-0.76757">
        <ele>33.400001525879</ele>
        <time>2016-11-01T15:03:09.000Z</time>
      </trkpt>
      <trkpt lat="44.85731" lon="-0.76777">
        <ele>34</ele>
        <time>2016-11-01T15:03:05.000Z</time>
      </trkpt>
      <trkpt lat="44.85734" lon="-0.76788">
        <ele>34.599998474121</ele>
        <time>2016-11-01T15:03:02.000Z</time>
      </trkpt>
      <trkpt lat="44.85743" lon="-0.76806">
        <ele>35.799999237061</ele>
        <time>2016-11-01T15:02:57.000Z</time>
      </trkpt>
      <trkpt lat="44.8575" lon="-0.76816">
        <ele>36.400001525879</ele>
        <time>2016-11-01T15:02:53.000Z</time>
      </trkpt>
      <trkpt lat="44.85751" lon="-0.76829">
        <ele>36.799999237061</ele>
        <time>2016-11-01T15:02:50.000Z</time>
      </trkpt>
      <trkpt lat="44.85749" lon="-0.76837">
        <ele>36.799999237061</ele>
        <time>2016-11-01T15:02:48.000Z</time>
      </trkpt>
      <trkpt lat="44.85752" lon="-0.76859">
        <ele>36.599998474121</ele>
        <time>2016-11-01T15:02:43.000Z</time>
      </trkpt>
      <trkpt lat="44.85752" lon="-0.76865">
        <ele>36.599998474121</ele>
        <time>2016-11-01T15:02:42.000Z</time>
      </trkpt>
      <trkpt lat="44.85757" lon="-0.76878">
        <ele>36.200000762939</ele>
        <time>2016-11-01T15:02:39.000Z</time>
      </trkpt>
      <trkpt lat="44.85763" lon="-0.76891">
        <ele>36</ele>
        <time>2016-11-01T15:02:36.000Z</time>
      </trkpt>
      <trkpt lat="44.85777" lon="-0.76905">
        <ele>35.799999237061</ele>
        <time>2016-11-01T15:02:32.000Z</time>
      </trkpt>
      <trkpt lat="44.85784" lon="-0.76909">
        <ele>36</ele>
        <time>2016-11-01T15:02:29.000Z</time>
      </trkpt>
      <trkpt lat="44.85793" lon="-0.76918">
        <ele>36</ele>
        <time>2016-11-01T15:02:25.000Z</time>
      </trkpt>
      <trkpt lat="44.85797" lon="-0.76928">
        <ele>36.200000762939</ele>
        <time>2016-11-01T15:02:21.000Z</time>
      </trkpt>
      <trkpt lat="44.85799" lon="-0.76938">
        <ele>36.200000762939</ele>
        <time>2016-11-01T15:02:17.000Z</time>
      </trkpt>
      <trkpt lat="44.85799" lon="-0.76946">
        <ele>36.200000762939</ele>
        <time>2016-11-01T15:02:13.000Z</time>
      </trkpt>
      <trkpt lat="44.85802" lon="-0.76956">
        <ele>36.400001525879</ele>
        <time>2016-11-01T15:02:09.000Z</time>
      </trkpt>
      <trkpt lat="44.85809" lon="-0.76951">
        <ele>36.400001525879</ele>
        <time>2016-11-01T15:02:03.000Z</time>
      </trkpt>
      <trkpt lat="44.85818" lon="-0.76933">
        <ele>36.599998474121</ele>
        <time>2016-11-01T15:02:00.000Z</time>
      </trkpt>
      <trkpt lat="44.85839" lon="-0.76887">
        <ele>37.200000762939</ele>
        <time>2016-11-01T15:01:53.000Z</time>
      </trkpt>
      <trkpt lat="44.85851" lon="-0.76848">
        <ele>37</ele>
        <time>2016-11-01T15:01:47.000Z</time>
      </trkpt>
      <trkpt lat="44.85854" lon="-0.76836">
        <ele>37</ele>
        <time>2016-11-01T15:01:45.000Z</time>
      </trkpt>
      <trkpt lat="44.85862" lon="-0.76802">
        <ele>37</ele>
        <time>2016-11-01T15:01:40.000Z</time>
      </trkpt>
      <trkpt lat="44.85864" lon="-0.76782">
        <ele>36</ele>
        <time>2016-11-01T15:01:37.000Z</time>
      </trkpt>
      <trkpt lat="44.85857" lon="-0.76746">
        <ele>34.400001525879</ele>
        <time>2016-11-01T15:01:32.000Z</time>
      </trkpt>
      <trkpt lat="44.85853" lon="-0.76732">
        <ele>33.799999237061</ele>
        <time>2016-11-01T15:01:30.000Z</time>
      </trkpt>
      <trkpt lat="44.8585" lon="-0.76719">
        <ele>33.200000762939</ele>
        <time>2016-11-01T15:01:28.000Z</time>
      </trkpt>
      <trkpt lat="44.85858" lon="-0.76702">
        <ele>32.400001525879</ele>
        <time>2016-11-01T15:01:25.000Z</time>
      </trkpt>
      <trkpt lat="44.85868" lon="-0.76696">
        <ele>32.200000762939</ele>
        <time>2016-11-01T15:01:23.000Z</time>
      </trkpt>
      <trkpt lat="44.85873" lon="-0.76695">
        <ele>32</ele>
        <time>2016-11-01T15:01:22.000Z</time>
      </trkpt>
      <trkpt lat="44.85913" lon="-0.76692">
        <ele>32.799999237061</ele>
        <time>2016-11-01T15:01:15.000Z</time>
      </trkpt>
      <trkpt lat="44.85934" lon="-0.767">
        <ele>33.200000762939</ele>
        <time>2016-11-01T15:01:11.000Z</time>
      </trkpt>
      <trkpt lat="44.85955" lon="-0.76718">
        <ele>34</ele>
        <time>2016-11-01T15:01:07.000Z</time>
      </trkpt>
      <trkpt lat="44.85967" lon="-0.76726">
        <ele>34.400001525879</ele>
        <time>2016-11-01T15:01:05.000Z</time>
      </trkpt>
      <trkpt lat="44.85993" lon="-0.76754">
        <ele>35.599998474121</ele>
        <time>2016-11-01T15:01:00.000Z</time>
      </trkpt>
      <trkpt lat="44.86008" lon="-0.76767">
        <ele>36.200000762939</ele>
        <time>2016-11-01T15:00:56.000Z</time>
      </trkpt>
      <trkpt lat="44.86023" lon="-0.7678">
        <ele>37</ele>
        <time>2016-11-01T15:00:53.000Z</time>
      </trkpt>
      <trkpt lat="44.86028" lon="-0.76784">
        <ele>37.200000762939</ele>
        <time>2016-11-01T15:00:52.000Z</time>
      </trkpt>
      <trkpt lat="44.86053" lon="-0.76802">
        <ele>38</ele>
        <time>2016-11-01T15:00:47.000Z</time>
      </trkpt>
      <trkpt lat="44.86057" lon="-0.76805">
        <ele>38.200000762939</ele>
        <time>2016-11-01T15:00:46.000Z</time>
      </trkpt>
      <trkpt lat="44.86074" lon="-0.76837">
        <ele>38.400001525879</ele>
        <time>2016-11-01T15:00:40.000Z</time>
      </trkpt>
      <trkpt lat="44.8608" lon="-0.76848">
        <ele>38.400001525879</ele>
        <time>2016-11-01T15:00:38.000Z</time>
      </trkpt>
      <trkpt lat="44.86098" lon="-0.76844">
        <ele>38</ele>
        <time>2016-11-01T15:00:34.000Z</time>
      </trkpt>
      <trkpt lat="44.86109" lon="-0.76843">
        <ele>37.599998474121</ele>
        <time>2016-11-01T15:00:30.000Z</time>
      </trkpt>
      <trkpt lat="44.86116" lon="-0.76836">
        <ele>37.799999237061</ele>
        <time>2016-11-01T15:00:27.000Z</time>
      </trkpt>
      <trkpt lat="44.86136" lon="-0.76824">
        <ele>37.599998474121</ele>
        <time>2016-11-01T15:00:21.000Z</time>
      </trkpt>
      <trkpt lat="44.86141" lon="-0.76822">
        <ele>37.599998474121</ele>
        <time>2016-11-01T15:00:19.000Z</time>
      </trkpt>
      <trkpt lat="44.86149" lon="-0.76821">
        <ele>37.200000762939</ele>
        <time>2016-11-01T15:00:16.000Z</time>
      </trkpt>
      <trkpt lat="44.86164" lon="-0.76816">
        <ele>37</ele>
        <time>2016-11-01T15:00:12.000Z</time>
      </trkpt>
      <trkpt lat="44.86172" lon="-0.76803">
        <ele>37.200000762939</ele>
        <time>2016-11-01T15:00:08.000Z</time>
      </trkpt>
      <trkpt lat="44.86176" lon="-0.76804">
        <ele>37</ele>
        <time>2016-11-01T15:00:07.000Z</time>
      </trkpt>
      <trkpt lat="44.86193" lon="-0.768">
        <ele>36.400001525879</ele>
        <time>2016-11-01T15:00:02.000Z</time>
      </trkpt>
      <trkpt lat="44.86201" lon="-0.76787">
        <ele>35.799999237061</ele>
        <time>2016-11-01T14:59:59.000Z</time>
      </trkpt>
      <trkpt lat="44.86215" lon="-0.76776">
        <ele>35.200000762939</ele>
        <time>2016-11-01T14:59:55.000Z</time>
      </trkpt>
      <trkpt lat="44.86227" lon="-0.76765">
        <ele>34.599998474121</ele>
        <time>2016-11-01T14:59:51.000Z</time>
      </trkpt>
      <trkpt lat="44.86229" lon="-0.76742">
        <ele>34</ele>
        <time>2016-11-01T14:59:47.000Z</time>
      </trkpt>
      <trkpt lat="44.8623" lon="-0.76708">
        <ele>33.200000762939</ele>
        <time>2016-11-01T14:59:43.000Z</time>
      </trkpt>
      <trkpt lat="44.86228" lon="-0.76691">
        <ele>33.200000762939</ele>
        <time>2016-11-01T14:59:41.000Z</time>
      </trkpt>
      <trkpt lat="44.86222" lon="-0.7667">
        <ele>33.400001525879</ele>
        <time>2016-11-01T14:59:37.000Z</time>
      </trkpt>
      <trkpt lat="44.86215" lon="-0.76646">
        <ele>33.599998474121</ele>
        <time>2016-11-01T14:59:32.000Z</time>
      </trkpt>
      <trkpt lat="44.86212" lon="-0.76642">
        <ele>33.799999237061</ele>
        <time>2016-11-01T14:59:31.000Z</time>
      </trkpt>
      <trkpt lat="44.86205" lon="-0.76628">
        <ele>34</ele>
        <time>2016-11-01T14:59:28.000Z</time>
      </trkpt>
      <trkpt lat="44.86209" lon="-0.76619">
        <ele>33.799999237061</ele>
        <time>2016-11-01T14:59:26.000Z</time>
      </trkpt>
      <trkpt lat="44.86215" lon="-0.76608">
        <ele>33.599998474121</ele>
        <time>2016-11-01T14:59:23.000Z</time>
      </trkpt>
      <trkpt lat="44.86219" lon="-0.76595">
        <ele>33.400001525879</ele>
        <time>2016-11-01T14:59:20.000Z</time>
      </trkpt>
      <trkpt lat="44.86224" lon="-0.76584">
        <ele>33.200000762939</ele>
        <time>2016-11-01T14:59:17.000Z</time>
      </trkpt>
      <trkpt lat="44.86232" lon="-0.76568">
        <ele>32.799999237061</ele>
        <time>2016-11-01T14:59:14.000Z</time>
      </trkpt>
      <trkpt lat="44.86241" lon="-0.76561">
        <ele>32.599998474121</ele>
        <time>2016-11-01T14:59:12.000Z</time>
      </trkpt>
      <trkpt lat="44.86244" lon="-0.76557">
        <ele>32.599998474121</ele>
        <time>2016-11-01T14:59:11.000Z</time>
      </trkpt>
      <trkpt lat="44.86254" lon="-0.76554">
        <ele>32.400001525879</ele>
        <time>2016-11-01T14:59:08.000Z</time>
      </trkpt>
      <trkpt lat="44.86258" lon="-0.76546">
        <ele>32.599998474121</ele>
        <time>2016-11-01T14:59:06.000Z</time>
      </trkpt>
      <trkpt lat="44.86278" lon="-0.76525">
        <ele>32.799999237061</ele>
        <time>2016-11-01T14:59:01.000Z</time>
      </trkpt>
      <trkpt lat="44.86293" lon="-0.76504">
        <ele>33.200000762939</ele>
        <time>2016-11-01T14:58:56.000Z</time>
      </trkpt>
      <trkpt lat="44.86319" lon="-0.76508">
        <ele>32.799999237061</ele>
        <time>2016-11-01T14:58:50.000Z</time>
      </trkpt>
      <trkpt lat="44.86323" lon="-0.7651">
        <ele>32.599998474121</ele>
        <time>2016-11-01T14:58:49.000Z</time>
      </trkpt>
      <trkpt lat="44.86339" lon="-0.76507">
        <ele>32.599998474121</ele>
        <time>2016-11-01T14:58:46.000Z</time>
      </trkpt>
      <trkpt lat="44.86353" lon="-0.76496">
        <ele>32.799999237061</ele>
        <time>2016-11-01T14:58:43.000Z</time>
      </trkpt>
      <trkpt lat="44.86352" lon="-0.76479">
        <ele>33</ele>
        <time>2016-11-01T14:58:39.000Z</time>
      </trkpt>
      <trkpt lat="44.86348" lon="-0.76458">
        <ele>33.200000762939</ele>
        <time>2016-11-01T14:58:35.000Z</time>
      </trkpt>
      <trkpt lat="44.86348" lon="-0.76421">
        <ele>33.200000762939</ele>
        <time>2016-11-01T14:58:29.000Z</time>
      </trkpt>
      <trkpt lat="44.86347" lon="-0.76393">
        <ele>33</ele>
        <time>2016-11-01T14:58:25.000Z</time>
      </trkpt>
      <trkpt lat="44.86352" lon="-0.76375">
        <ele>33</ele>
        <time>2016-11-01T14:58:23.000Z</time>
      </trkpt>
      <trkpt lat="44.86354" lon="-0.76366">
        <ele>33</ele>
        <time>2016-11-01T14:58:22.000Z</time>
      </trkpt>
      <trkpt lat="44.86367" lon="-0.76331">
        <ele>33</ele>
        <time>2016-11-01T14:58:17.000Z</time>
      </trkpt>
      <trkpt lat="44.86377" lon="-0.76316">
        <ele>33</ele>
        <time>2016-11-01T14:58:13.000Z</time>
      </trkpt>
      <trkpt lat="44.86393" lon="-0.76298">
        <ele>32.599998474121</ele>
        <time>2016-11-01T14:58:07.000Z</time>
      </trkpt>
      <trkpt lat="44.864" lon="-0.76291">
        <ele>32.400001525879</ele>
        <time>2016-11-01T14:58:04.000Z</time>
      </trkpt>
      <trkpt lat="44.8642" lon="-0.76276">
        <ele>31.799999237061</ele>
        <time>2016-11-01T14:57:59.000Z</time>
      </trkpt>
      <trkpt lat="44.8643" lon="-0.76263">
        <ele>31.60000038147</ele>
        <time>2016-11-01T14:57:56.000Z</time>
      </trkpt>
      <trkpt lat="44.86442" lon="-0.76242">
        <ele>31.39999961853</ele>
        <time>2016-11-01T14:57:52.000Z</time>
      </trkpt>
      <trkpt lat="44.86453" lon="-0.76216">
        <ele>31</ele>
        <time>2016-11-01T14:57:48.000Z</time>
      </trkpt>
      <trkpt lat="44.86459" lon="-0.76193">
        <ele>31.200000762939</ele>
        <time>2016-11-01T14:57:44.000Z</time>
      </trkpt>
      <trkpt lat="44.8646" lon="-0.76187">
        <ele>31.200000762939</ele>
        <time>2016-11-01T14:57:43.000Z</time>
      </trkpt>
      <trkpt lat="44.86472" lon="-0.76171">
        <ele>30.799999237061</ele>
        <time>2016-11-01T14:57:39.000Z</time>
      </trkpt>
      <trkpt lat="44.86478" lon="-0.76161">
        <ele>30.60000038147</ele>
        <time>2016-11-01T14:57:36.000Z</time>
      </trkpt>
      <trkpt lat="44.86492" lon="-0.76149">
        <ele>30.200000762939</ele>
        <time>2016-11-01T14:57:31.000Z</time>
      </trkpt>
      <trkpt lat="44.86503" lon="-0.76137">
        <ele>29.799999237061</ele>
        <time>2016-11-01T14:57:27.000Z</time>
      </trkpt>
      <trkpt lat="44.86527" lon="-0.76119">
        <ele>28.799999237061</ele>
        <time>2016-11-01T14:57:21.000Z</time>
      </trkpt>
      <trkpt lat="44.86536" lon="-0.76107">
        <ele>28.60000038147</ele>
        <time>2016-11-01T14:57:18.000Z</time>
      </trkpt>
      <trkpt lat="44.86547" lon="-0.76083">
        <ele>28.60000038147</ele>
        <time>2016-11-01T14:57:13.000Z</time>
      </trkpt>
      <trkpt lat="44.86556" lon="-0.76066">
        <ele>28.799999237061</ele>
        <time>2016-11-01T14:57:10.000Z</time>
      </trkpt>
      <trkpt lat="44.86563" lon="-0.76044">
        <ele>28.60000038147</ele>
        <time>2016-11-01T14:57:06.000Z</time>
      </trkpt>
      <trkpt lat="44.86578" lon="-0.76019">
        <ele>27.39999961853</ele>
        <time>2016-11-01T14:57:00.000Z</time>
      </trkpt>
      <trkpt lat="44.86581" lon="-0.76005">
        <ele>27.200000762939</ele>
        <time>2016-11-01T14:56:57.000Z</time>
      </trkpt>
      <trkpt lat="44.86586" lon="-0.7599">
        <ele>27.200000762939</ele>
        <time>2016-11-01T14:56:54.000Z</time>
      </trkpt>
      <trkpt lat="44.86592" lon="-0.75969">
        <ele>27.39999961853</ele>
        <time>2016-11-01T14:56:50.000Z</time>
      </trkpt>
      <trkpt lat="44.86594" lon="-0.75958">
        <ele>27.799999237061</ele>
        <time>2016-11-01T14:56:48.000Z</time>
      </trkpt>
      <trkpt lat="44.86601" lon="-0.75936">
        <ele>28.200000762939</ele>
        <time>2016-11-01T14:56:44.000Z</time>
      </trkpt>
      <trkpt lat="44.8661" lon="-0.75914">
        <ele>28.60000038147</ele>
        <time>2016-11-01T14:56:39.000Z</time>
      </trkpt>
      <trkpt lat="44.86618" lon="-0.75898">
        <ele>28.799999237061</ele>
        <time>2016-11-01T14:56:35.000Z</time>
      </trkpt>
      <trkpt lat="44.8663" lon="-0.75895">
        <ele>28.60000038147</ele>
        <time>2016-11-01T14:56:31.000Z</time>
      </trkpt>
      <trkpt lat="44.86633" lon="-0.75897">
        <ele>28.60000038147</ele>
        <time>2016-11-01T14:56:30.000Z</time>
      </trkpt>
      <trkpt lat="44.86652" lon="-0.75908">
        <ele>28</ele>
        <time>2016-11-01T14:56:25.000Z</time>
      </trkpt>
      <trkpt lat="44.86661" lon="-0.75913">
        <ele>27.799999237061</ele>
        <time>2016-11-01T14:56:22.000Z</time>
      </trkpt>
      <trkpt lat="44.86668" lon="-0.75917">
        <ele>27.60000038147</ele>
        <time>2016-11-01T14:56:19.000Z</time>
      </trkpt>
      <trkpt lat="44.86686" lon="-0.75915">
        <ele>28.200000762939</ele>
        <time>2016-11-01T14:56:14.000Z</time>
      </trkpt>
      <trkpt lat="44.867" lon="-0.75901">
        <ele>28.799999237061</ele>
        <time>2016-11-01T14:56:10.000Z</time>
      </trkpt>
      <trkpt lat="44.86716" lon="-0.75883">
        <ele>29.39999961853</ele>
        <time>2016-11-01T14:56:05.000Z</time>
      </trkpt>
      <trkpt lat="44.86722" lon="-0.75879">
        <ele>29.39999961853</ele>
        <time>2016-11-01T14:56:03.000Z</time>
      </trkpt>
      <trkpt lat="44.8673" lon="-0.75884">
        <ele>30.200000762939</ele>
        <time>2016-11-01T14:56:00.000Z</time>
      </trkpt>
      <trkpt lat="44.86739" lon="-0.75906">
        <ele>31.39999961853</ele>
        <time>2016-11-01T14:55:56.000Z</time>
      </trkpt>
      <trkpt lat="44.86749" lon="-0.75931">
        <ele>32.599998474121</ele>
        <time>2016-11-01T14:55:52.000Z</time>
      </trkpt>
      <trkpt lat="44.8676" lon="-0.75945">
        <ele>34.200000762939</ele>
        <time>2016-11-01T14:55:49.000Z</time>
      </trkpt>
      <trkpt lat="44.86771" lon="-0.75956">
        <ele>35.799999237061</ele>
        <time>2016-11-01T14:55:45.000Z</time>
      </trkpt>
      <trkpt lat="44.8678" lon="-0.75978">
        <ele>37.200000762939</ele>
        <time>2016-11-01T14:55:40.000Z</time>
      </trkpt>
      <trkpt lat="44.86781" lon="-0.75981">
        <ele>37.400001525879</ele>
        <time>2016-11-01T14:55:39.000Z</time>
      </trkpt>
      <trkpt lat="44.86791" lon="-0.75985">
        <ele>38.400001525879</ele>
        <time>2016-11-01T14:55:35.000Z</time>
      </trkpt>
      <trkpt lat="44.86798" lon="-0.75978">
        <ele>38.400001525879</ele>
        <time>2016-11-01T14:55:33.000Z</time>
      </trkpt>
      <trkpt lat="44.86803" lon="-0.75967">
        <ele>38.400001525879</ele>
        <time>2016-11-01T14:55:30.000Z</time>
      </trkpt>
      <trkpt lat="44.86809" lon="-0.7596">
        <ele>38.599998474121</ele>
        <time>2016-11-01T14:55:27.000Z</time>
      </trkpt>
      <trkpt lat="44.86806" lon="-0.75947">
        <ele>38</ele>
        <time>2016-11-01T14:55:23.000Z</time>
      </trkpt>
      <trkpt lat="44.86805" lon="-0.75928">
        <ele>37</ele>
        <time>2016-11-01T14:55:17.000Z</time>
      </trkpt>
      <trkpt lat="44.86805" lon="-0.75926">
        <ele>37</ele>
        <time>2016-11-01T14:55:16.000Z</time>
      </trkpt>
      <trkpt lat="44.86795" lon="-0.75929">
        <ele>36.400001525879</ele>
        <time>2016-11-01T14:55:11.000Z</time>
      </trkpt>
      <trkpt lat="44.86788" lon="-0.75927">
        <ele>35.799999237061</ele>
        <time>2016-11-01T14:55:07.000Z</time>
      </trkpt>
      <trkpt lat="44.86775" lon="-0.75924">
        <ele>34.599998474121</ele>
        <time>2016-11-01T14:55:02.000Z</time>
      </trkpt>
      <trkpt lat="44.86771" lon="-0.75918">
        <ele>34</ele>
        <time>2016-11-01T14:54:59.000Z</time>
      </trkpt>
      <trkpt lat="44.86773" lon="-0.759">
        <ele>33.400001525879</ele>
        <time>2016-11-01T14:54:54.000Z</time>
      </trkpt>
      <trkpt lat="44.86774" lon="-0.75893">
        <ele>33.200000762939</ele>
        <time>2016-11-01T14:54:52.000Z</time>
      </trkpt>
      <trkpt lat="44.86771" lon="-0.75889">
        <ele>33</ele>
        <time>2016-11-01T14:54:50.000Z</time>
      </trkpt>
      <trkpt lat="44.86759" lon="-0.75892">
        <ele>32.200000762939</ele>
        <time>2016-11-01T14:54:46.000Z</time>
      </trkpt>
      <trkpt lat="44.86753" lon="-0.75896">
        <ele>32</ele>
        <time>2016-11-01T14:54:43.000Z</time>
      </trkpt>
      <trkpt lat="44.86745" lon="-0.75899">
        <ele>31.60000038147</ele>
        <time>2016-11-01T14:54:40.000Z</time>
      </trkpt>
      <trkpt lat="44.86744" lon="-0.75887">
        <ele>31.200000762939</ele>
        <time>2016-11-01T14:54:37.000Z</time>
      </trkpt>
      <trkpt lat="44.86743" lon="-0.75875">
        <ele>30.39999961853</ele>
        <time>2016-11-01T14:54:33.000Z</time>
      </trkpt>
      <trkpt lat="44.86734" lon="-0.75873">
        <ele>29.799999237061</ele>
        <time>2016-11-01T14:54:29.000Z</time>
      </trkpt>
      <trkpt lat="44.86728" lon="-0.75863">
        <ele>29</ele>
        <time>2016-11-01T14:54:25.000Z</time>
      </trkpt>
      <trkpt lat="44.86731" lon="-0.75855">
        <ele>29.200000762939</ele>
        <time>2016-11-01T14:54:23.000Z</time>
      </trkpt>
      <trkpt lat="44.86736" lon="-0.75846">
        <ele>29.200000762939</ele>
        <time>2016-11-01T14:54:21.000Z</time>
      </trkpt>
      <trkpt lat="44.86746" lon="-0.75835">
        <ele>29.200000762939</ele>
        <time>2016-11-01T14:54:17.000Z</time>
      </trkpt>
      <trkpt lat="44.86752" lon="-0.75804">
        <ele>29.799999237061</ele>
        <time>2016-11-01T14:54:11.000Z</time>
      </trkpt>
      <trkpt lat="44.8676" lon="-0.75779">
        <ele>29.799999237061</ele>
        <time>2016-11-01T14:54:07.000Z</time>
      </trkpt>
      <trkpt lat="44.86764" lon="-0.75766">
        <ele>29.60000038147</ele>
        <time>2016-11-01T14:54:05.000Z</time>
      </trkpt>
      <trkpt lat="44.86778" lon="-0.75724">
        <ele>29.39999961853</ele>
        <time>2016-11-01T14:53:59.000Z</time>
      </trkpt>
      <trkpt lat="44.86784" lon="-0.75686">
        <ele>29.200000762939</ele>
        <time>2016-11-01T14:53:53.000Z</time>
      </trkpt>
      <trkpt lat="44.86785" lon="-0.75673">
        <ele>29.200000762939</ele>
        <time>2016-11-01T14:53:50.000Z</time>
      </trkpt>
      <trkpt lat="44.86785" lon="-0.75661">
        <ele>29.200000762939</ele>
        <time>2016-11-01T14:53:47.000Z</time>
      </trkpt>
      <trkpt lat="44.86778" lon="-0.75655">
        <ele>29.39999961853</ele>
        <time>2016-11-01T14:53:44.000Z</time>
      </trkpt>
      <trkpt lat="44.86774" lon="-0.75642">
        <ele>29.60000038147</ele>
        <time>2016-11-01T14:53:41.000Z</time>
      </trkpt>
      <trkpt lat="44.86779" lon="-0.75631">
        <ele>29.60000038147</ele>
        <time>2016-11-01T14:53:38.000Z</time>
      </trkpt>
      <trkpt lat="44.86794" lon="-0.7563">
        <ele>29.200000762939</ele>
        <time>2016-11-01T14:53:34.000Z</time>
      </trkpt>
      <trkpt lat="44.86809" lon="-0.75621">
        <ele>29.60000038147</ele>
        <time>2016-11-01T14:53:30.000Z</time>
      </trkpt>
      <trkpt lat="44.86817" lon="-0.75612">
        <ele>29.60000038147</ele>
        <time>2016-11-01T14:53:27.000Z</time>
      </trkpt>
      <trkpt lat="44.86824" lon="-0.75608">
        <ele>29.799999237061</ele>
        <time>2016-11-01T14:53:25.000Z</time>
      </trkpt>
      <trkpt lat="44.86839" lon="-0.75609">
        <ele>30.39999961853</ele>
        <time>2016-11-01T14:53:21.000Z</time>
      </trkpt>
      <trkpt lat="44.8685" lon="-0.75609">
        <ele>30.799999237061</ele>
        <time>2016-11-01T14:53:18.000Z</time>
      </trkpt>
      <trkpt lat="44.86855" lon="-0.75611">
        <ele>31</ele>
        <time>2016-11-01T14:53:16.000Z</time>
      </trkpt>
      <trkpt lat="44.86868" lon="-0.75624">
        <ele>31.60000038147</ele>
        <time>2016-11-01T14:53:10.000Z</time>
      </trkpt>
      <trkpt lat="44.86872" lon="-0.75632">
        <ele>31.799999237061</ele>
        <time>2016-11-01T14:53:07.000Z</time>
      </trkpt>
      <trkpt lat="44.86878" lon="-0.75637">
        <ele>32.200000762939</ele>
        <time>2016-11-01T14:53:04.000Z</time>
      </trkpt>
      <trkpt lat="44.86885" lon="-0.75634">
        <ele>32.599998474121</ele>
        <time>2016-11-01T14:53:01.000Z</time>
      </trkpt>
      <trkpt lat="44.86899" lon="-0.75642">
        <ele>33.200000762939</ele>
        <time>2016-11-01T14:52:57.000Z</time>
      </trkpt>
      <trkpt lat="44.86919" lon="-0.7565">
        <ele>34.400001525879</ele>
        <time>2016-11-01T14:52:53.000Z</time>
      </trkpt>
      <trkpt lat="44.86936" lon="-0.75657">
        <ele>35.200000762939</ele>
        <time>2016-11-01T14:52:49.000Z</time>
      </trkpt>
      <trkpt lat="44.86951" lon="-0.75664">
        <ele>37.200000762939</ele>
        <time>2016-11-01T14:52:45.000Z</time>
      </trkpt>
      <trkpt lat="44.86962" lon="-0.7567">
        <ele>38</ele>
        <time>2016-11-01T14:52:42.000Z</time>
      </trkpt>
      <trkpt lat="44.86977" lon="-0.75674">
        <ele>38.200000762939</ele>
        <time>2016-11-01T14:52:38.000Z</time>
      </trkpt>
      <trkpt lat="44.8699" lon="-0.75676">
        <ele>38.400001525879</ele>
        <time>2016-11-01T14:52:35.000Z</time>
      </trkpt>
      <trkpt lat="44.87005" lon="-0.75675">
        <ele>38.200000762939</ele>
        <time>2016-11-01T14:52:31.000Z</time>
      </trkpt>
      <trkpt lat="44.87024" lon="-0.75663">
        <ele>37.200000762939</ele>
        <time>2016-11-01T14:52:26.000Z</time>
      </trkpt>
      <trkpt lat="44.87027" lon="-0.75661">
        <ele>37</ele>
        <time>2016-11-01T14:52:25.000Z</time>
      </trkpt>
      <trkpt lat="44.87043" lon="-0.75649">
        <ele>36.200000762939</ele>
        <time>2016-11-01T14:52:21.000Z</time>
      </trkpt>
      <trkpt lat="44.87057" lon="-0.75634">
        <ele>35.799999237061</ele>
        <time>2016-11-01T14:52:18.000Z</time>
      </trkpt>
      <trkpt lat="44.87092" lon="-0.75612">
        <ele>35</ele>
        <time>2016-11-01T14:52:12.000Z</time>
      </trkpt>
      <trkpt lat="44.8712" lon="-0.756">
        <ele>34.599998474121</ele>
        <time>2016-11-01T14:52:07.000Z</time>
      </trkpt>
      <trkpt lat="44.87148" lon="-0.75588">
        <ele>34.799999237061</ele>
        <time>2016-11-01T14:52:01.000Z</time>
      </trkpt>
      <trkpt lat="44.8716" lon="-0.75576">
        <ele>34.799999237061</ele>
        <time>2016-11-01T14:51:56.000Z</time>
      </trkpt>
      <trkpt lat="44.87161" lon="-0.75574">
        <ele>34.599998474121</ele>
        <time>2016-11-01T14:51:55.000Z</time>
      </trkpt>
      <trkpt lat="44.87158" lon="-0.75569">
        <ele>34.599998474121</ele>
        <time>2016-11-01T14:51:50.000Z</time>
      </trkpt>
      <trkpt lat="44.87156" lon="-0.75566">
        <ele>34.599998474121</ele>
        <time>2016-11-01T14:51:32.000Z</time>
      </trkpt>
      <trkpt lat="44.87154" lon="-0.75583">
        <ele>34.799999237061</ele>
        <time>2016-11-01T14:51:26.000Z</time>
      </trkpt>
      <trkpt lat="44.8715" lon="-0.7559">
        <ele>34.799999237061</ele>
        <time>2016-11-01T14:51:23.000Z</time>
      </trkpt>
      <trkpt lat="44.87147" lon="-0.75585">
        <ele>34.599998474121</ele>
        <time>2016-11-01T14:51:19.000Z</time>
      </trkpt>
      <trkpt lat="44.87148" lon="-0.75584">
        <ele>34.599998474121</ele>
        <time>2016-11-01T14:51:18.000Z</time>
      </trkpt>
      <trkpt lat="44.87152" lon="-0.75584">
        <ele>34.799999237061</ele>
        <time>2016-11-01T14:50:56.000Z</time>
      </trkpt>
      <trkpt lat="44.87152" lon="-0.75585">
        <ele>34.799999237061</ele>
        <time>2016-11-01T14:50:51.000Z</time>
      </trkpt>
      <trkpt lat="44.87152" lon="-0.75587">
        <ele>34.799999237061</ele>
        <time>2016-11-01T14:50:29.000Z</time>
      </trkpt>
      <trkpt lat="44.8716" lon="-0.75578">
        <ele>34.799999237061</ele>
        <time>2016-11-01T14:50:23.000Z</time>
      </trkpt>
      <trkpt lat="44.87174" lon="-0.7557">
        <ele>34.799999237061</ele>
        <time>2016-11-01T14:50:19.000Z</time>
      </trkpt>
      <trkpt lat="44.87183" lon="-0.75568">
        <ele>34.799999237061</ele>
        <time>2016-11-01T14:50:17.000Z</time>
      </trkpt>
      <trkpt lat="44.87192" lon="-0.75566">
        <ele>35</ele>
        <time>2016-11-01T14:50:15.000Z</time>
      </trkpt>
      <trkpt lat="44.87228" lon="-0.75555">
        <ele>34.400001525879</ele>
        <time>2016-11-01T14:50:08.000Z</time>
      </trkpt>
      <trkpt lat="44.87263" lon="-0.75541">
        <ele>33.400001525879</ele>
        <time>2016-11-01T14:50:01.000Z</time>
      </trkpt>
      <trkpt lat="44.87282" lon="-0.75536">
        <ele>33</ele>
        <time>2016-11-01T14:49:57.000Z</time>
      </trkpt>
      <trkpt lat="44.87299" lon="-0.75527">
        <ele>32</ele>
        <time>2016-11-01T14:49:53.000Z</time>
      </trkpt>
      <trkpt lat="44.87324" lon="-0.75519">
        <ele>30.39999961853</ele>
        <time>2016-11-01T14:49:48.000Z</time>
      </trkpt>
      <trkpt lat="44.87332" lon="-0.75517">
        <ele>29.799999237061</ele>
        <time>2016-11-01T14:49:46.000Z</time>
      </trkpt>
      <trkpt lat="44.87336" lon="-0.75517">
        <ele>29.39999961853</ele>
        <time>2016-11-01T14:49:45.000Z</time>
      </trkpt>
      <trkpt lat="44.87339" lon="-0.75534">
        <ele>28.39999961853</ele>
        <time>2016-11-01T14:49:42.000Z</time>
      </trkpt>
      <trkpt lat="44.87342" lon="-0.75574">
        <ele>26.60000038147</ele>
        <time>2016-11-01T14:49:36.000Z</time>
      </trkpt>
      <trkpt lat="44.87344" lon="-0.75578">
        <ele>26.39999961853</ele>
        <time>2016-11-01T14:49:35.000Z</time>
      </trkpt>
      <trkpt lat="44.87345" lon="-0.75598">
        <ele>26.200000762939</ele>
        <time>2016-11-01T14:49:32.000Z</time>
      </trkpt>
      <trkpt lat="44.87347" lon="-0.75624">
        <ele>26.39999961853</ele>
        <time>2016-11-01T14:49:28.000Z</time>
      </trkpt>
      <trkpt lat="44.87349" lon="-0.75629">
        <ele>26.39999961853</ele>
        <time>2016-11-01T14:49:27.000Z</time>
      </trkpt>
      <trkpt lat="44.87356" lon="-0.75644">
        <ele>25.799999237061</ele>
        <time>2016-11-01T14:49:24.000Z</time>
      </trkpt>
      <trkpt lat="44.87361" lon="-0.7566">
        <ele>25.200000762939</ele>
        <time>2016-11-01T14:49:21.000Z</time>
      </trkpt>
      <trkpt lat="44.87363" lon="-0.75676">
        <ele>25.200000762939</ele>
        <time>2016-11-01T14:49:18.000Z</time>
      </trkpt>
      <trkpt lat="44.87361" lon="-0.75709">
        <ele>25.200000762939</ele>
        <time>2016-11-01T14:49:13.000Z</time>
      </trkpt>
      <trkpt lat="44.8735" lon="-0.7574">
        <ele>25.799999237061</ele>
        <time>2016-11-01T14:49:08.000Z</time>
      </trkpt>
      <trkpt lat="44.87346" lon="-0.75758">
        <ele>26.39999961853</ele>
        <time>2016-11-01T14:49:06.000Z</time>
      </trkpt>
      <trkpt lat="44.87347" lon="-0.75786">
        <ele>27.39999961853</ele>
        <time>2016-11-01T14:49:02.000Z</time>
      </trkpt>
      <trkpt lat="44.87348" lon="-0.75795">
        <ele>27.60000038147</ele>
        <time>2016-11-01T14:49:00.000Z</time>
      </trkpt>
      <trkpt lat="44.87348" lon="-0.75814">
        <ele>27.799999237061</ele>
        <time>2016-11-01T14:48:56.000Z</time>
      </trkpt>
      <trkpt lat="44.87351" lon="-0.75834">
        <ele>28.39999961853</ele>
        <time>2016-11-01T14:48:52.000Z</time>
      </trkpt>
      <trkpt lat="44.87358" lon="-0.75855">
        <ele>30.39999961853</ele>
        <time>2016-11-01T14:48:48.000Z</time>
      </trkpt>
      <trkpt lat="44.87358" lon="-0.7587">
        <ele>31.39999961853</ele>
        <time>2016-11-01T14:48:45.000Z</time>
      </trkpt>
      <trkpt lat="44.87357" lon="-0.75895">
        <ele>32.799999237061</ele>
        <time>2016-11-01T14:48:40.000Z</time>
      </trkpt>
      <trkpt lat="44.87357" lon="-0.75906">
        <ele>32.799999237061</ele>
        <time>2016-11-01T14:48:37.000Z</time>
      </trkpt>
      <trkpt lat="44.87365" lon="-0.75931">
        <ele>32.200000762939</ele>
        <time>2016-11-01T14:48:32.000Z</time>
      </trkpt>
      <trkpt lat="44.87372" lon="-0.75955">
        <ele>31.60000038147</ele>
        <time>2016-11-01T14:48:27.000Z</time>
      </trkpt>
      <trkpt lat="44.87377" lon="-0.75962">
        <ele>31</ele>
        <time>2016-11-01T14:48:25.000Z</time>
      </trkpt>
      <trkpt lat="44.87385" lon="-0.75985">
        <ele>29.60000038147</ele>
        <time>2016-11-01T14:48:21.000Z</time>
      </trkpt>
      <trkpt lat="44.87385" lon="-0.76002">
        <ele>28.60000038147</ele>
        <time>2016-11-01T14:48:18.000Z</time>
      </trkpt>
      <trkpt lat="44.87384" lon="-0.76015">
        <ele>27.799999237061</ele>
        <time>2016-11-01T14:48:15.000Z</time>
      </trkpt>
      <trkpt lat="44.87386" lon="-0.7603">
        <ele>26.799999237061</ele>
        <time>2016-11-01T14:48:11.000Z</time>
      </trkpt>
      <trkpt lat="44.8739" lon="-0.76054">
        <ele>26.200000762939</ele>
        <time>2016-11-01T14:48:06.000Z</time>
      </trkpt>
      <trkpt lat="44.8739" lon="-0.76074">
        <ele>26.200000762939</ele>
        <time>2016-11-01T14:48:03.000Z</time>
      </trkpt>
      <trkpt lat="44.8739" lon="-0.76093">
        <ele>26.200000762939</ele>
        <time>2016-11-01T14:47:59.000Z</time>
      </trkpt>
      <trkpt lat="44.8739" lon="-0.76117">
        <ele>26.200000762939</ele>
        <time>2016-11-01T14:47:55.000Z</time>
      </trkpt>
      <trkpt lat="44.87394" lon="-0.76137">
        <ele>26.60000038147</ele>
        <time>2016-11-01T14:47:50.000Z</time>
      </trkpt>
      <trkpt lat="44.87398" lon="-0.76149">
        <ele>26.60000038147</ele>
        <time>2016-11-01T14:47:46.000Z</time>
      </trkpt>
      <trkpt lat="44.87402" lon="-0.76169">
        <ele>26.60000038147</ele>
        <time>2016-11-01T14:47:42.000Z</time>
      </trkpt>
      <trkpt lat="44.87396" lon="-0.76192">
        <ele>26.60000038147</ele>
        <time>2016-11-01T14:47:39.000Z</time>
      </trkpt>
      <trkpt lat="44.87396" lon="-0.76227">
        <ele>26.200000762939</ele>
        <time>2016-11-01T14:47:35.000Z</time>
      </trkpt>
      <trkpt lat="44.87395" lon="-0.76243">
        <ele>26.200000762939</ele>
        <time>2016-11-01T14:47:33.000Z</time>
      </trkpt>
      <trkpt lat="44.87394" lon="-0.7625">
        <ele>26.200000762939</ele>
        <time>2016-11-01T14:47:32.000Z</time>
      </trkpt>
      <trkpt lat="44.87388" lon="-0.76277">
        <ele>26.200000762939</ele>
        <time>2016-11-01T14:47:28.000Z</time>
      </trkpt>
      <trkpt lat="44.87383" lon="-0.76301">
        <ele>26.200000762939</ele>
        <time>2016-11-01T14:47:24.000Z</time>
      </trkpt>
      <trkpt lat="44.87379" lon="-0.76318">
        <ele>26.39999961853</ele>
        <time>2016-11-01T14:47:21.000Z</time>
      </trkpt>
      <trkpt lat="44.87378" lon="-0.76331">
        <ele>26.60000038147</ele>
        <time>2016-11-01T14:47:19.000Z</time>
      </trkpt>
      <trkpt lat="44.87377" lon="-0.76337">
        <ele>26.799999237061</ele>
        <time>2016-11-01T14:47:18.000Z</time>
      </trkpt>
      <trkpt lat="44.87372" lon="-0.76365">
        <ele>27.39999961853</ele>
        <time>2016-11-01T14:47:13.000Z</time>
      </trkpt>
      <trkpt lat="44.87359" lon="-0.76396">
        <ele>28.39999961853</ele>
        <time>2016-11-01T14:47:08.000Z</time>
      </trkpt>
      <trkpt lat="44.87352" lon="-0.76426">
        <ele>28.799999237061</ele>
        <time>2016-11-01T14:47:04.000Z</time>
      </trkpt>
      <trkpt lat="44.87348" lon="-0.76436">
        <ele>28.799999237061</ele>
        <time>2016-11-01T14:47:02.000Z</time>
      </trkpt>
      <trkpt lat="44.87343" lon="-0.76451">
        <ele>29.200000762939</ele>
        <time>2016-11-01T14:46:59.000Z</time>
      </trkpt>
      <trkpt lat="44.87342" lon="-0.7647">
        <ele>29.39999961853</ele>
        <time>2016-11-01T14:46:55.000Z</time>
      </trkpt>
      <trkpt lat="44.87341" lon="-0.76484">
        <ele>29.60000038147</ele>
        <time>2016-11-01T14:46:53.000Z</time>
      </trkpt>
      <trkpt lat="44.87347" lon="-0.76501">
        <ele>29.60000038147</ele>
        <time>2016-11-01T14:46:50.000Z</time>
      </trkpt>
      <trkpt lat="44.87359" lon="-0.76512">
        <ele>29.60000038147</ele>
        <time>2016-11-01T14:46:47.000Z</time>
      </trkpt>
      <trkpt lat="44.87369" lon="-0.76519">
        <ele>29.60000038147</ele>
        <time>2016-11-01T14:46:44.000Z</time>
      </trkpt>
      <trkpt lat="44.87374" lon="-0.76539">
        <ele>29.799999237061</ele>
        <time>2016-11-01T14:46:40.000Z</time>
      </trkpt>
      <trkpt lat="44.87374" lon="-0.76553">
        <ele>30</ele>
        <time>2016-11-01T14:46:38.000Z</time>
      </trkpt>
      <trkpt lat="44.87367" lon="-0.76576">
        <ele>30.200000762939</ele>
        <time>2016-11-01T14:46:34.000Z</time>
      </trkpt>
      <trkpt lat="44.87357" lon="-0.76589">
        <ele>30.799999237061</ele>
        <time>2016-11-01T14:46:31.000Z</time>
      </trkpt>
      <trkpt lat="44.87354" lon="-0.76593">
        <ele>30.799999237061</ele>
        <time>2016-11-01T14:46:30.000Z</time>
      </trkpt>
      <trkpt lat="44.87349" lon="-0.76613">
        <ele>31.200000762939</ele>
        <time>2016-11-01T14:46:26.000Z</time>
      </trkpt>
      <trkpt lat="44.8735" lon="-0.7663">
        <ele>31.200000762939</ele>
        <time>2016-11-01T14:46:23.000Z</time>
      </trkpt>
      <trkpt lat="44.87351" lon="-0.76643">
        <ele>30.799999237061</ele>
        <time>2016-11-01T14:46:20.000Z</time>
      </trkpt>
      <trkpt lat="44.87352" lon="-0.7666">
        <ele>30</ele>
        <time>2016-11-01T14:46:17.000Z</time>
      </trkpt>
      <trkpt lat="44.87358" lon="-0.76682">
        <ele>29.60000038147</ele>
        <time>2016-11-01T14:46:13.000Z</time>
      </trkpt>
      <trkpt lat="44.87365" lon="-0.76695">
        <ele>29.39999961853</ele>
        <time>2016-11-01T14:46:10.000Z</time>
      </trkpt>
      <trkpt lat="44.87364" lon="-0.76729">
        <ele>29</ele>
        <time>2016-11-01T14:46:04.000Z</time>
      </trkpt>
      <trkpt lat="44.87366" lon="-0.76749">
        <ele>29.200000762939</ele>
        <time>2016-11-01T14:46:00.000Z</time>
      </trkpt>
      <trkpt lat="44.87368" lon="-0.76763">
        <ele>29.39999961853</ele>
        <time>2016-11-01T14:45:57.000Z</time>
      </trkpt>
      <trkpt lat="44.87364" lon="-0.7678">
        <ele>29.39999961853</ele>
        <time>2016-11-01T14:45:52.000Z</time>
      </trkpt>
      <trkpt lat="44.87362" lon="-0.76786">
        <ele>29.60000038147</ele>
        <time>2016-11-01T14:45:46.000Z</time>
      </trkpt>
      <trkpt lat="44.87358" lon="-0.76778">
        <ele>29.39999961853</ele>
        <time>2016-11-01T14:45:41.000Z</time>
      </trkpt>
      <trkpt lat="44.87358" lon="-0.7678">
        <ele>29.39999961853</ele>
        <time>2016-11-01T14:45:36.000Z</time>
      </trkpt>
      <trkpt lat="44.87364" lon="-0.76791">
        <ele>29.60000038147</ele>
        <time>2016-11-01T14:45:32.000Z</time>
      </trkpt>
      <trkpt lat="44.87379" lon="-0.76808">
        <ele>29.799999237061</ele>
        <time>2016-11-01T14:45:27.000Z</time>
      </trkpt>
      <trkpt lat="44.87393" lon="-0.76809">
        <ele>29.60000038147</ele>
        <time>2016-11-01T14:45:23.000Z</time>
      </trkpt>
      <trkpt lat="44.87413" lon="-0.76788">
        <ele>29</ele>
        <time>2016-11-01T14:45:17.000Z</time>
      </trkpt>
      <trkpt lat="44.87437" lon="-0.76759">
        <ele>28.39999961853</ele>
        <time>2016-11-01T14:45:09.000Z</time>
      </trkpt>
      <trkpt lat="44.87456" lon="-0.76739">
        <ele>28</ele>
        <time>2016-11-01T14:45:03.000Z</time>
      </trkpt>
      <trkpt lat="44.87475" lon="-0.76717">
        <ele>27.60000038147</ele>
        <time>2016-11-01T14:44:57.000Z</time>
      </trkpt>
      <trkpt lat="44.87481" lon="-0.7671">
        <ele>27.39999961853</ele>
        <time>2016-11-01T14:44:55.000Z</time>
      </trkpt>
      <trkpt lat="44.87502" lon="-0.76684">
        <ele>27</ele>
        <time>2016-11-01T14:44:48.000Z</time>
      </trkpt>
      <trkpt lat="44.8752" lon="-0.76664">
        <ele>26.39999961853</ele>
        <time>2016-11-01T14:44:42.000Z</time>
      </trkpt>
      <trkpt lat="44.8753" lon="-0.76653">
        <ele>26.200000762939</ele>
        <time>2016-11-01T14:44:38.000Z</time>
      </trkpt>
      <trkpt lat="44.87531" lon="-0.76645">
        <ele>26.200000762939</ele>
        <time>2016-11-01T14:44:30.000Z</time>
      </trkpt>
      <trkpt lat="44.87529" lon="-0.76639">
        <ele>26.39999961853</ele>
        <time>2016-11-01T14:44:12.000Z</time>
      </trkpt>
      <trkpt lat="44.87528" lon="-0.76633">
        <ele>26.799999237061</ele>
        <time>2016-11-01T14:44:07.000Z</time>
      </trkpt>
      <trkpt lat="44.87528" lon="-0.76629">
        <ele>27</ele>
        <time>2016-11-01T14:44:06.000Z</time>
      </trkpt>
      <trkpt lat="44.87519" lon="-0.76607">
        <ele>29</ele>
        <time>2016-11-01T14:44:02.000Z</time>
      </trkpt>
      <trkpt lat="44.87514" lon="-0.76603">
        <ele>29.39999961853</ele>
        <time>2016-11-01T14:44:01.000Z</time>
      </trkpt>
      <trkpt lat="44.87494" lon="-0.76586">
        <ele>30.39999961853</ele>
        <time>2016-11-01T14:43:56.000Z</time>
      </trkpt>
      <trkpt lat="44.87486" lon="-0.76576">
        <ele>30</ele>
        <time>2016-11-01T14:43:54.000Z</time>
      </trkpt>
      <trkpt lat="44.87474" lon="-0.76551">
        <ele>29.799999237061</ele>
        <time>2016-11-01T14:43:50.000Z</time>
      </trkpt>
      <trkpt lat="44.87466" lon="-0.76524">
        <ele>29.60000038147</ele>
        <time>2016-11-01T14:43:46.000Z</time>
      </trkpt>
      <trkpt lat="44.87455" lon="-0.76498">
        <ele>29</ele>
        <time>2016-11-01T14:43:42.000Z</time>
      </trkpt>
      <trkpt lat="44.87452" lon="-0.76479">
        <ele>29</ele>
        <time>2016-11-01T14:43:40.000Z</time>
      </trkpt>
      <trkpt lat="44.87449" lon="-0.76431">
        <ele>28</ele>
        <time>2016-11-01T14:43:35.000Z</time>
      </trkpt>
      <trkpt lat="44.87458" lon="-0.76396">
        <ele>27.39999961853</ele>
        <time>2016-11-01T14:43:30.000Z</time>
      </trkpt>
      <trkpt lat="44.87459" lon="-0.76381">
        <ele>27.200000762939</ele>
        <time>2016-11-01T14:43:28.000Z</time>
      </trkpt>
      <trkpt lat="44.8746" lon="-0.76366">
        <ele>27.200000762939</ele>
        <time>2016-11-01T14:43:26.000Z</time>
      </trkpt>
      <trkpt lat="44.87456" lon="-0.76351">
        <ele>27</ele>
        <time>2016-11-01T14:43:23.000Z</time>
      </trkpt>
      <trkpt lat="44.87452" lon="-0.76327">
        <ele>27</ele>
        <time>2016-11-01T14:43:19.000Z</time>
      </trkpt>
      <trkpt lat="44.87462" lon="-0.76295">
        <ele>27.200000762939</ele>
        <time>2016-11-01T14:43:13.000Z</time>
      </trkpt>
      <trkpt lat="44.87464" lon="-0.7629">
        <ele>27.200000762939</ele>
        <time>2016-11-01T14:43:12.000Z</time>
      </trkpt>
      <trkpt lat="44.87475" lon="-0.76267">
        <ele>27.39999961853</ele>
        <time>2016-11-01T14:43:08.000Z</time>
      </trkpt>
      <trkpt lat="44.87481" lon="-0.76259">
        <ele>27.60000038147</ele>
        <time>2016-11-01T14:43:06.000Z</time>
      </trkpt>
      <trkpt lat="44.8749" lon="-0.76247">
        <ele>27.799999237061</ele>
        <time>2016-11-01T14:43:03.000Z</time>
      </trkpt>
      <trkpt lat="44.87494" lon="-0.76233">
        <ele>28</ele>
        <time>2016-11-01T14:43:00.000Z</time>
      </trkpt>
      <trkpt lat="44.87498" lon="-0.76212">
        <ele>28.200000762939</ele>
        <time>2016-11-01T14:42:56.000Z</time>
      </trkpt>
      <trkpt lat="44.87492" lon="-0.76199">
        <ele>28.200000762939</ele>
        <time>2016-11-01T14:42:54.000Z</time>
      </trkpt>
      <trkpt lat="44.87487" lon="-0.76185">
        <ele>28.200000762939</ele>
        <time>2016-11-01T14:42:52.000Z</time>
      </trkpt>
      <trkpt lat="44.87469" lon="-0.76166">
        <ele>28</ele>
        <time>2016-11-01T14:42:47.000Z</time>
      </trkpt>
      <trkpt lat="44.8746" lon="-0.7615">
        <ele>28</ele>
        <time>2016-11-01T14:42:44.000Z</time>
      </trkpt>
      <trkpt lat="44.87452" lon="-0.76129">
        <ele>27.799999237061</ele>
        <time>2016-11-01T14:42:40.000Z</time>
      </trkpt>
      <trkpt lat="44.87439" lon="-0.76104">
        <ele>27.200000762939</ele>
        <time>2016-11-01T14:42:35.000Z</time>
      </trkpt>
      <trkpt lat="44.87435" lon="-0.76092">
        <ele>27</ele>
        <time>2016-11-01T14:42:33.000Z</time>
      </trkpt>
      <trkpt lat="44.87435" lon="-0.76071">
        <ele>26.799999237061</ele>
        <time>2016-11-01T14:42:30.000Z</time>
      </trkpt>
      <trkpt lat="44.87446" lon="-0.7606">
        <ele>26.799999237061</ele>
        <time>2016-11-01T14:42:27.000Z</time>
      </trkpt>
      <trkpt lat="44.87458" lon="-0.76042">
        <ele>27</ele>
        <time>2016-11-01T14:42:23.000Z</time>
      </trkpt>
      <trkpt lat="44.87476" lon="-0.7603">
        <ele>27.39999961853</ele>
        <time>2016-11-01T14:42:19.000Z</time>
      </trkpt>
      <trkpt lat="44.87484" lon="-0.76024">
        <ele>27.60000038147</ele>
        <time>2016-11-01T14:42:17.000Z</time>
      </trkpt>
      <trkpt lat="44.87493" lon="-0.76014">
        <ele>27.799999237061</ele>
        <time>2016-11-01T14:42:14.000Z</time>
      </trkpt>
      <trkpt lat="44.87501" lon="-0.75985">
        <ele>28</ele>
        <time>2016-11-01T14:42:10.000Z</time>
      </trkpt>
      <trkpt lat="44.87496" lon="-0.75952">
        <ele>28.200000762939</ele>
        <time>2016-11-01T14:42:06.000Z</time>
      </trkpt>
      <trkpt lat="44.87493" lon="-0.75931">
        <ele>28.39999961853</ele>
        <time>2016-11-01T14:42:03.000Z</time>
      </trkpt>
      <trkpt lat="44.87493" lon="-0.75907">
        <ele>29.39999961853</ele>
        <time>2016-11-01T14:41:59.000Z</time>
      </trkpt>
      <trkpt lat="44.87498" lon="-0.75892">
        <ele>29.799999237061</ele>
        <time>2016-11-01T14:41:56.000Z</time>
      </trkpt>
      <trkpt lat="44.87503" lon="-0.75876">
        <ele>29.39999961853</ele>
        <time>2016-11-01T14:41:53.000Z</time>
      </trkpt>
      <trkpt lat="44.87501" lon="-0.75848">
        <ele>28</ele>
        <time>2016-11-01T14:41:48.000Z</time>
      </trkpt>
      <trkpt lat="44.87495" lon="-0.75832">
        <ele>27.60000038147</ele>
        <time>2016-11-01T14:41:45.000Z</time>
      </trkpt>
      <trkpt lat="44.87496" lon="-0.75818">
        <ele>27</ele>
        <time>2016-11-01T14:41:42.000Z</time>
      </trkpt>
      <trkpt lat="44.87495" lon="-0.75807">
        <ele>26.60000038147</ele>
        <time>2016-11-01T14:41:40.000Z</time>
      </trkpt>
      <trkpt lat="44.87484" lon="-0.75788">
        <ele>26.60000038147</ele>
        <time>2016-11-01T14:41:36.000Z</time>
      </trkpt>
      <trkpt lat="44.87476" lon="-0.75773">
        <ele>26.60000038147</ele>
        <time>2016-11-01T14:41:33.000Z</time>
      </trkpt>
      <trkpt lat="44.87474" lon="-0.75767">
        <ele>26.60000038147</ele>
        <time>2016-11-01T14:41:32.000Z</time>
      </trkpt>
      <trkpt lat="44.87469" lon="-0.75742">
        <ele>26.200000762939</ele>
        <time>2016-11-01T14:41:29.000Z</time>
      </trkpt>
      <trkpt lat="44.87466" lon="-0.75716">
        <ele>25.799999237061</ele>
        <time>2016-11-01T14:41:25.000Z</time>
      </trkpt>
      <trkpt lat="44.87456" lon="-0.75697">
        <ele>26.200000762939</ele>
        <time>2016-11-01T14:41:22.000Z</time>
      </trkpt>
      <trkpt lat="44.87449" lon="-0.75654">
        <ele>26.799999237061</ele>
        <time>2016-11-01T14:41:17.000Z</time>
      </trkpt>
      <trkpt lat="44.87442" lon="-0.75619">
        <ele>25.799999237061</ele>
        <time>2016-11-01T14:41:13.000Z</time>
      </trkpt>
      <trkpt lat="44.87435" lon="-0.75603">
        <ele>24.799999237061</ele>
        <time>2016-11-01T14:41:11.000Z</time>
      </trkpt>
      <trkpt lat="44.87424" lon="-0.75583">
        <ele>23.799999237061</ele>
        <time>2016-11-01T14:41:08.000Z</time>
      </trkpt>
      <trkpt lat="44.87416" lon="-0.75553">
        <ele>23.39999961853</ele>
        <time>2016-11-01T14:41:04.000Z</time>
      </trkpt>
      <trkpt lat="44.87408" lon="-0.75534">
        <ele>23</ele>
        <time>2016-11-01T14:41:01.000Z</time>
      </trkpt>
      <trkpt lat="44.87421" lon="-0.75495">
        <ele>22.60000038147</ele>
        <time>2016-11-01T14:40:56.000Z</time>
      </trkpt>
      <trkpt lat="44.87433" lon="-0.75466">
        <ele>23</ele>
        <time>2016-11-01T14:40:52.000Z</time>
      </trkpt>
      <trkpt lat="44.87443" lon="-0.75447">
        <ele>23.799999237061</ele>
        <time>2016-11-01T14:40:47.000Z</time>
      </trkpt>
      <trkpt lat="44.87459" lon="-0.75434">
        <ele>23.60000038147</ele>
        <time>2016-11-01T14:40:42.000Z</time>
      </trkpt>
      <trkpt lat="44.87477" lon="-0.75428">
        <ele>23.39999961853</ele>
        <time>2016-11-01T14:40:38.000Z</time>
      </trkpt>
      <trkpt lat="44.8749" lon="-0.75421">
        <ele>23.39999961853</ele>
        <time>2016-11-01T14:40:35.000Z</time>
      </trkpt>
      <trkpt lat="44.87503" lon="-0.75418">
        <ele>23.200000762939</ele>
        <time>2016-11-01T14:40:32.000Z</time>
      </trkpt>
      <trkpt lat="44.87506" lon="-0.75416">
        <ele>23.200000762939</ele>
        <time>2016-11-01T14:40:31.000Z</time>
      </trkpt>
      <trkpt lat="44.87517" lon="-0.754">
        <ele>24</ele>
        <time>2016-11-01T14:40:27.000Z</time>
      </trkpt>
      <trkpt lat="44.87537" lon="-0.75385">
        <ele>24.200000762939</ele>
        <time>2016-11-01T14:40:22.000Z</time>
      </trkpt>
      <trkpt lat="44.87547" lon="-0.75382">
        <ele>24.200000762939</ele>
        <time>2016-11-01T14:40:20.000Z</time>
      </trkpt>
      <trkpt lat="44.87556" lon="-0.75382">
        <ele>24.39999961853</ele>
        <time>2016-11-01T14:40:18.000Z</time>
      </trkpt>
      <trkpt lat="44.87572" lon="-0.75383">
        <ele>24.60000038147</ele>
        <time>2016-11-01T14:40:13.000Z</time>
      </trkpt>
      <trkpt lat="44.87581" lon="-0.75377">
        <ele>24.799999237061</ele>
        <time>2016-11-01T14:40:11.000Z</time>
      </trkpt>
      <trkpt lat="44.87598" lon="-0.75346">
        <ele>26.200000762939</ele>
        <time>2016-11-01T14:40:06.000Z</time>
      </trkpt>
      <trkpt lat="44.87601" lon="-0.75315">
        <ele>27.60000038147</ele>
        <time>2016-11-01T14:40:02.000Z</time>
      </trkpt>
      <trkpt lat="44.876" lon="-0.75279">
        <ele>29.200000762939</ele>
        <time>2016-11-01T14:39:58.000Z</time>
      </trkpt>
      <trkpt lat="44.87599" lon="-0.75269">
        <ele>29.60000038147</ele>
        <time>2016-11-01T14:39:57.000Z</time>
      </trkpt>
      <trkpt lat="44.87603" lon="-0.75243">
        <ele>30.39999961853</ele>
        <time>2016-11-01T14:39:53.000Z</time>
      </trkpt>
      <trkpt lat="44.87608" lon="-0.75233">
        <ele>30.60000038147</ele>
        <time>2016-11-01T14:39:51.000Z</time>
      </trkpt>
      <trkpt lat="44.87618" lon="-0.75207">
        <ele>31</ele>
        <time>2016-11-01T14:39:47.000Z</time>
      </trkpt>
      <trkpt lat="44.87622" lon="-0.75189">
        <ele>31.39999961853</ele>
        <time>2016-11-01T14:39:43.000Z</time>
      </trkpt>
      <trkpt lat="44.87628" lon="-0.75167">
        <ele>31.799999237061</ele>
        <time>2016-11-01T14:39:37.000Z</time>
      </trkpt>
      <trkpt lat="44.87631" lon="-0.75161">
        <ele>32</ele>
        <time>2016-11-01T14:39:36.000Z</time>
      </trkpt>
      <trkpt lat="44.87645" lon="-0.75144">
        <ele>32.400001525879</ele>
        <time>2016-11-01T14:39:33.000Z</time>
      </trkpt>
      <trkpt lat="44.87661" lon="-0.75136">
        <ele>32.799999237061</ele>
        <time>2016-11-01T14:39:29.000Z</time>
      </trkpt>
      <trkpt lat="44.87664" lon="-0.75134">
        <ele>32.799999237061</ele>
        <time>2016-11-01T14:39:25.000Z</time>
      </trkpt>
      <trkpt lat="44.87664" lon="-0.75133">
        <ele>32.799999237061</ele>
        <time>2016-11-01T14:39:04.000Z</time>
      </trkpt>
      <trkpt lat="44.87663" lon="-0.75136">
        <ele>33</ele>
        <time>2016-11-01T14:38:33.000Z</time>
      </trkpt>
      <trkpt lat="44.87662" lon="-0.75137">
        <ele>32.799999237061</ele>
        <time>2016-11-01T14:38:26.000Z</time>
      </trkpt>
      <trkpt lat="44.87659" lon="-0.75136">
        <ele>32.799999237061</ele>
        <time>2016-11-01T14:38:22.000Z</time>
      </trkpt>
      <trkpt lat="44.87657" lon="-0.75138">
        <ele>32.799999237061</ele>
        <time>2016-11-01T14:38:18.000Z</time>
      </trkpt>
      <trkpt lat="44.87656" lon="-0.75139">
        <ele>32.799999237061</ele>
        <time>2016-11-01T14:38:10.000Z</time>
      </trkpt>
      <trkpt lat="44.87659" lon="-0.75139">
        <ele>32.799999237061</ele>
        <time>2016-11-01T14:38:05.000Z</time>
      </trkpt>
      <trkpt lat="44.87663" lon="-0.75138">
        <ele>33</ele>
        <time>2016-11-01T14:38:00.000Z</time>
      </trkpt>
      <trkpt lat="44.87667" lon="-0.75138">
        <ele>33</ele>
        <time>2016-11-01T14:37:51.000Z</time>
      </trkpt>
      <trkpt lat="44.87671" lon="-0.75141">
        <ele>33.200000762939</ele>
        <time>2016-11-01T14:37:39.000Z</time>
      </trkpt>
      <trkpt lat="44.87671" lon="-0.7515">
        <ele>33</ele>
        <time>2016-11-01T14:37:36.000Z</time>
      </trkpt>
      <trkpt lat="44.87668" lon="-0.75162">
        <ele>32.799999237061</ele>
        <time>2016-11-01T14:37:33.000Z</time>
      </trkpt>
      <trkpt lat="44.87668" lon="-0.75174">
        <ele>32.599998474121</ele>
        <time>2016-11-01T14:37:30.000Z</time>
      </trkpt>
      <trkpt lat="44.87677" lon="-0.75184">
        <ele>33</ele>
        <time>2016-11-01T14:37:26.000Z</time>
      </trkpt>
      <trkpt lat="44.87687" lon="-0.75188">
        <ele>33.400001525879</ele>
        <time>2016-11-01T14:37:23.000Z</time>
      </trkpt>
      <trkpt lat="44.87697" lon="-0.75187">
        <ele>33.599998474121</ele>
        <time>2016-11-01T14:37:20.000Z</time>
      </trkpt>
      <trkpt lat="44.87713" lon="-0.75181">
        <ele>33.799999237061</ele>
        <time>2016-11-01T14:37:17.000Z</time>
      </trkpt>
      <trkpt lat="44.87724" lon="-0.7518">
        <ele>33.400001525879</ele>
        <time>2016-11-01T14:37:14.000Z</time>
      </trkpt>
      <trkpt lat="44.87726" lon="-0.75179">
        <ele>33.200000762939</ele>
        <time>2016-11-01T14:37:13.000Z</time>
      </trkpt>
      <trkpt lat="44.87739" lon="-0.75168">
        <ele>32.799999237061</ele>
        <time>2016-11-01T14:37:09.000Z</time>
      </trkpt>
      <trkpt lat="44.87744" lon="-0.75168">
        <ele>32.599998474121</ele>
        <time>2016-11-01T14:37:07.000Z</time>
      </trkpt>
      <trkpt lat="44.8775" lon="-0.75162">
        <ele>32.400001525879</ele>
        <time>2016-11-01T14:37:04.000Z</time>
      </trkpt>
      <trkpt lat="44.87756" lon="-0.75155">
        <ele>32.200000762939</ele>
        <time>2016-11-01T14:37:00.000Z</time>
      </trkpt>
      <trkpt lat="44.87766" lon="-0.75158">
        <ele>31.799999237061</ele>
        <time>2016-11-01T14:36:57.000Z</time>
      </trkpt>
      <trkpt lat="44.87789" lon="-0.75169">
        <ele>29.60000038147</ele>
        <time>2016-11-01T14:36:51.000Z</time>
      </trkpt>
      <trkpt lat="44.87807" lon="-0.75177">
        <ele>28.39999961853</ele>
        <time>2016-11-01T14:36:47.000Z</time>
      </trkpt>
      <trkpt lat="44.87821" lon="-0.75173">
        <ele>28.200000762939</ele>
        <time>2016-11-01T14:36:43.000Z</time>
      </trkpt>
      <trkpt lat="44.87833" lon="-0.75179">
        <ele>27.60000038147</ele>
        <time>2016-11-01T14:36:40.000Z</time>
      </trkpt>
      <trkpt lat="44.87851" lon="-0.75181">
        <ele>27.39999961853</ele>
        <time>2016-11-01T14:36:34.000Z</time>
      </trkpt>
      <trkpt lat="44.87853" lon="-0.75182">
        <ele>27.39999961853</ele>
        <time>2016-11-01T14:36:33.000Z</time>
      </trkpt>
      <trkpt lat="44.87862" lon="-0.75174">
        <ele>27.60000038147</ele>
        <time>2016-11-01T14:36:28.000Z</time>
      </trkpt>
      <trkpt lat="44.87868" lon="-0.75172">
        <ele>27.60000038147</ele>
        <time>2016-11-01T14:36:25.000Z</time>
      </trkpt>
      <trkpt lat="44.87875" lon="-0.75171">
        <ele>27.60000038147</ele>
        <time>2016-11-01T14:36:21.000Z</time>
      </trkpt>
      <trkpt lat="44.87888" lon="-0.75156">
        <ele>27.39999961853</ele>
        <time>2016-11-01T14:36:16.000Z</time>
      </trkpt>
      <trkpt lat="44.87898" lon="-0.75147">
        <ele>27.200000762939</ele>
        <time>2016-11-01T14:36:14.000Z</time>
      </trkpt>
      <trkpt lat="44.87913" lon="-0.75125">
        <ele>27.39999961853</ele>
        <time>2016-11-01T14:36:10.000Z</time>
      </trkpt>
      <trkpt lat="44.87926" lon="-0.75106">
        <ele>27.39999961853</ele>
        <time>2016-11-01T14:36:06.000Z</time>
      </trkpt>
      <trkpt lat="44.87929" lon="-0.75079">
        <ele>28</ele>
        <time>2016-11-01T14:36:01.000Z</time>
      </trkpt>
      <trkpt lat="44.87926" lon="-0.75061">
        <ele>28</ele>
        <time>2016-11-01T14:35:57.000Z</time>
      </trkpt>
      <trkpt lat="44.87921" lon="-0.7504">
        <ele>27.799999237061</ele>
        <time>2016-11-01T14:35:53.000Z</time>
      </trkpt>
      <trkpt lat="44.87921" lon="-0.75021">
        <ele>27.60000038147</ele>
        <time>2016-11-01T14:35:49.000Z</time>
      </trkpt>
      <trkpt lat="44.87922" lon="-0.75014">
        <ele>27.60000038147</ele>
        <time>2016-11-01T14:35:47.000Z</time>
      </trkpt>
      <trkpt lat="44.87921" lon="-0.75011">
        <ele>27.39999961853</ele>
        <time>2016-11-01T14:35:46.000Z</time>
      </trkpt>
      <trkpt lat="44.87928" lon="-0.74991">
        <ele>27.200000762939</ele>
        <time>2016-11-01T14:35:40.000Z</time>
      </trkpt>
      <trkpt lat="44.8794" lon="-0.74987">
        <ele>27.200000762939</ele>
        <time>2016-11-01T14:35:37.000Z</time>
      </trkpt>
      <trkpt lat="44.87947" lon="-0.74985">
        <ele>27.200000762939</ele>
        <time>2016-11-01T14:35:34.000Z</time>
      </trkpt>
      <trkpt lat="44.87962" lon="-0.7498">
        <ele>27.200000762939</ele>
        <time>2016-11-01T14:35:29.000Z</time>
      </trkpt>
      <trkpt lat="44.87966" lon="-0.74977">
        <ele>27.39999961853</ele>
        <time>2016-11-01T14:35:28.000Z</time>
      </trkpt>
      <trkpt lat="44.87983" lon="-0.74962">
        <ele>28</ele>
        <time>2016-11-01T14:35:24.000Z</time>
      </trkpt>
      <trkpt lat="44.87995" lon="-0.74948">
        <ele>28.39999961853</ele>
        <time>2016-11-01T14:35:20.000Z</time>
      </trkpt>
      <trkpt lat="44.87999" lon="-0.7492">
        <ele>28.39999961853</ele>
        <time>2016-11-01T14:35:15.000Z</time>
      </trkpt>
      <trkpt lat="44.88002" lon="-0.74907">
        <ele>28.39999961853</ele>
        <time>2016-11-01T14:35:13.000Z</time>
      </trkpt>
      <trkpt lat="44.8801" lon="-0.74888">
        <ele>28.60000038147</ele>
        <time>2016-11-01T14:35:10.000Z</time>
      </trkpt>
      <trkpt lat="44.88017" lon="-0.74875">
        <ele>28.799999237061</ele>
        <time>2016-11-01T14:35:07.000Z</time>
      </trkpt>
      <trkpt lat="44.88023" lon="-0.74849">
        <ele>28.799999237061</ele>
        <time>2016-11-01T14:35:02.000Z</time>
      </trkpt>
      <trkpt lat="44.88028" lon="-0.74834">
        <ele>28.799999237061</ele>
        <time>2016-11-01T14:34:59.000Z</time>
      </trkpt>
      <trkpt lat="44.88033" lon="-0.74824">
        <ele>29</ele>
        <time>2016-11-01T14:34:55.000Z</time>
      </trkpt>
      <trkpt lat="44.88036" lon="-0.74817">
        <ele>29</ele>
        <time>2016-11-01T14:34:53.000Z</time>
      </trkpt>
      <trkpt lat="44.88038" lon="-0.74805">
        <ele>29</ele>
        <time>2016-11-01T14:34:50.000Z</time>
      </trkpt>
      <trkpt lat="44.88045" lon="-0.7479">
        <ele>28.799999237061</ele>
        <time>2016-11-01T14:34:46.000Z</time>
      </trkpt>
      <trkpt lat="44.8806" lon="-0.74772">
        <ele>28.39999961853</ele>
        <time>2016-11-01T14:34:41.000Z</time>
      </trkpt>
      <trkpt lat="44.88075" lon="-0.74753">
        <ele>28</ele>
        <time>2016-11-01T14:34:35.000Z</time>
      </trkpt>
      <trkpt lat="44.8808" lon="-0.74741">
        <ele>27.799999237061</ele>
        <time>2016-11-01T14:34:32.000Z</time>
      </trkpt>
      <trkpt lat="44.88082" lon="-0.74733">
        <ele>27.60000038147</ele>
        <time>2016-11-01T14:34:30.000Z</time>
      </trkpt>
      <trkpt lat="44.88096" lon="-0.74715">
        <ele>27.200000762939</ele>
        <time>2016-11-01T14:34:25.000Z</time>
      </trkpt>
      <trkpt lat="44.88098" lon="-0.74705">
        <ele>27.200000762939</ele>
        <time>2016-11-01T14:34:23.000Z</time>
      </trkpt>
      <trkpt lat="44.88103" lon="-0.74697">
        <ele>27</ele>
        <time>2016-11-01T14:34:20.000Z</time>
      </trkpt>
      <trkpt lat="44.88118" lon="-0.74681">
        <ele>26.60000038147</ele>
        <time>2016-11-01T14:34:15.000Z</time>
      </trkpt>
      <trkpt lat="44.88122" lon="-0.74674">
        <ele>26.39999961853</ele>
        <time>2016-11-01T14:34:13.000Z</time>
      </trkpt>
      <trkpt lat="44.8813" lon="-0.74663">
        <ele>26.39999961853</ele>
        <time>2016-11-01T14:34:10.000Z</time>
      </trkpt>
      <trkpt lat="44.88147" lon="-0.74651">
        <ele>26.200000762939</ele>
        <time>2016-11-01T14:34:06.000Z</time>
      </trkpt>
      <trkpt lat="44.88156" lon="-0.74641">
        <ele>26</ele>
        <time>2016-11-01T14:34:03.000Z</time>
      </trkpt>
      <trkpt lat="44.8817" lon="-0.74652">
        <ele>26.200000762939</ele>
        <time>2016-11-01T14:33:59.000Z</time>
      </trkpt>
      <trkpt lat="44.88181" lon="-0.74665">
        <ele>26.39999961853</ele>
        <time>2016-11-01T14:33:56.000Z</time>
      </trkpt>
      <trkpt lat="44.88184" lon="-0.7467">
        <ele>26.39999961853</ele>
        <time>2016-11-01T14:33:55.000Z</time>
      </trkpt>
      <trkpt lat="44.88191" lon="-0.74687">
        <ele>26.60000038147</ele>
        <time>2016-11-01T14:33:52.000Z</time>
      </trkpt>
      <trkpt lat="44.88198" lon="-0.74701">
        <ele>26.799999237061</ele>
        <time>2016-11-01T14:33:49.000Z</time>
      </trkpt>
      <trkpt lat="44.88206" lon="-0.74716">
        <ele>27</ele>
        <time>2016-11-01T14:33:46.000Z</time>
      </trkpt>
      <trkpt lat="44.88215" lon="-0.74735">
        <ele>28.39999961853</ele>
        <time>2016-11-01T14:33:42.000Z</time>
      </trkpt>
      <trkpt lat="44.88225" lon="-0.74749">
        <ele>29.799999237061</ele>
        <time>2016-11-01T14:33:39.000Z</time>
      </trkpt>
      <trkpt lat="44.88229" lon="-0.74754">
        <ele>30.39999961853</ele>
        <time>2016-11-01T14:33:38.000Z</time>
      </trkpt>
      <trkpt lat="44.88265" lon="-0.74785">
        <ele>32</ele>
        <time>2016-11-01T14:33:31.000Z</time>
      </trkpt>
      <trkpt lat="44.88276" lon="-0.74795">
        <ele>32</ele>
        <time>2016-11-01T14:33:29.000Z</time>
      </trkpt>
      <trkpt lat="44.88296" lon="-0.74814">
        <ele>32.400001525879</ele>
        <time>2016-11-01T14:33:25.000Z</time>
      </trkpt>
      <trkpt lat="44.88357" lon="-0.74844">
        <ele>33.5</ele>
      </trkpt>
      <trkpt lat="44.88463" lon="-0.74926">
        <ele>31.5</ele>
      </trkpt>
      <trkpt lat="44.88479" lon="-0.74905">
        <ele>30.8</ele>
      </trkpt>
      <trkpt lat="44.8849" lon="-0.74872">
        <ele>30.5</ele>
      </trkpt>
      <trkpt lat="44.8857" lon="-0.74812">
        <ele>29.3</ele>
      </trkpt>
      <trkpt lat="44.88588" lon="-0.74849">
        <ele>29.4</ele>
      </trkpt>
      <trkpt lat="44.88599" lon="-0.74839">
        <ele>29.5</ele>
      </trkpt>
      <trkpt lat="44.88678" lon="-0.74827">
        <ele>29.4</ele>
      </trkpt>
      <trkpt lat="44.88678" lon="-0.74827">
        <ele>29.4</ele>
      </trkpt>
      <trkpt lat="44.88677" lon="-0.74839">
        <ele>30.1</ele>
      </trkpt>
    </trkseg>
  </trk>
</gpx>